<?xml version="1.0" encoding="utf-8"?>
<gpx xmlns:xsi="http://www.w3.org/2001/XMLSchema-instance" xmlns:xsd="http://www.w3.org/2001/XMLSchema" version="1.1" creator="Shapelink.com" xmlns="http://www.topografix.com/GPX/1/1" xmlns:gpxtpx="http://www.garmin.com/xmlschemas/TrackPointExtension/v1">
  <metadata>
    <name>Nordic Skiing 12.57 km, 2015-01-14</name>
    <desc></desc>
    <author><name>Stefan Östlund</name></author> 
    <time>2015-01-14T19:51:38Z</time>
  </metadata>
  <trk>
    <name>Nordic Skiing 12.57 km, 2015-01-14</name>
    <trkseg>
      <trkpt lat="60.004327950372" lon="15.771652266628">
        <ele>135</ele>
        <time>2015-01-14T19:51:38Z</time>
      </trkpt>
      <trkpt lat="60.004356113556" lon="15.771804733389">
        <ele>134.6</ele>
        <time>2015-01-14T19:51:41Z</time>
        <extensions><gpxtpx:TrackPointExtension><gpxtpx:hr>50</gpxtpx:hr></gpxtpx:TrackPointExtension></extensions>
      </trkpt>
      <trkpt lat="60.004362986714" lon="15.771873548788">
        <ele>134.6</ele>
        <time>2015-01-14T19:51:42Z</time>
        <extensions><gpxtpx:TrackPointExtension><gpxtpx:hr>50</gpxtpx:hr></gpxtpx:TrackPointExtension></extensions>
      </trkpt>
      <trkpt lat="60.004376984487" lon="15.772116959164">
        <ele>134.4</ele>
        <time>2015-01-14T19:51:44Z</time>
        <extensions><gpxtpx:TrackPointExtension><gpxtpx:hr>50</gpxtpx:hr></gpxtpx:TrackPointExtension></extensions>
      </trkpt>
      <trkpt lat="60.004372877356" lon="15.772274287427">
        <ele>134.2</ele>
        <time>2015-01-14T19:51:45Z</time>
        <extensions><gpxtpx:TrackPointExtension><gpxtpx:hr>50</gpxtpx:hr></gpxtpx:TrackPointExtension></extensions>
      </trkpt>
      <trkpt lat="60.004362399981" lon="15.772362632653">
        <ele>133.8</ele>
        <time>2015-01-14T19:51:46Z</time>
        <extensions><gpxtpx:TrackPointExtension><gpxtpx:hr>50</gpxtpx:hr></gpxtpx:TrackPointExtension></extensions>
      </trkpt>
      <trkpt lat="60.004312779133" lon="15.772690113486">
        <ele>132</ele>
        <time>2015-01-14T19:51:48Z</time>
        <extensions><gpxtpx:TrackPointExtension><gpxtpx:hr>50</gpxtpx:hr></gpxtpx:TrackPointExtension></extensions>
      </trkpt>
      <trkpt lat="60.004266594864" lon="15.772831683777">
        <ele>131.2</ele>
        <time>2015-01-14T19:51:49Z</time>
      </trkpt>
      <trkpt lat="60.004218901853" lon="15.772918101166">
        <ele>130</ele>
        <time>2015-01-14T19:51:50Z</time>
      </trkpt>
      <trkpt lat="60.00415964182" lon="15.773021198536">
        <ele>128.4</ele>
        <time>2015-01-14T19:51:51Z</time>
      </trkpt>
      <trkpt lat="60.004121168899" lon="15.773071741393">
        <ele>127</ele>
        <time>2015-01-14T19:51:52Z</time>
      </trkpt>
      <trkpt lat="60.00403223694" lon="15.773141227344">
        <ele>125.6</ele>
        <time>2015-01-14T19:51:54Z</time>
      </trkpt>
      <trkpt lat="60.003990243621" lon="15.773152626728">
        <ele>125</ele>
        <time>2015-01-14T19:51:55Z</time>
      </trkpt>
      <trkpt lat="60.003892678305" lon="15.773122116612">
        <ele>125</ele>
        <time>2015-01-14T19:51:58Z</time>
        <extensions><gpxtpx:TrackPointExtension><gpxtpx:hr>50</gpxtpx:hr></gpxtpx:TrackPointExtension></extensions>
      </trkpt>
      <trkpt lat="60.003894438504" lon="15.773113399436">
        <ele>125.6</ele>
        <time>2015-01-14T19:52:00Z</time>
        <extensions><gpxtpx:TrackPointExtension><gpxtpx:hr>46</gpxtpx:hr></gpxtpx:TrackPointExtension></extensions>
      </trkpt>
      <trkpt lat="60.003865520949" lon="15.773067298986">
        <ele>126.4</ele>
        <time>2015-01-14T19:52:02Z</time>
        <extensions><gpxtpx:TrackPointExtension><gpxtpx:hr>46</gpxtpx:hr></gpxtpx:TrackPointExtension></extensions>
      </trkpt>
      <trkpt lat="60.003843979466" lon="15.772999740872">
        <ele>127.2</ele>
        <time>2015-01-14T19:52:04Z</time>
      </trkpt>
      <trkpt lat="60.003829646417" lon="15.772922627392">
        <ele>128</ele>
        <time>2015-01-14T19:52:06Z</time>
        <extensions><gpxtpx:TrackPointExtension><gpxtpx:hr>46</gpxtpx:hr></gpxtpx:TrackPointExtension></extensions>
      </trkpt>
      <trkpt lat="60.003824030544" lon="15.772881053168">
        <ele>128.4</ele>
        <time>2015-01-14T19:52:07Z</time>
        <extensions><gpxtpx:TrackPointExtension><gpxtpx:hr>46</gpxtpx:hr></gpxtpx:TrackPointExtension></extensions>
      </trkpt>
      <trkpt lat="60.003790167668" lon="15.772604450468">
        <ele>129.4</ele>
        <time>2015-01-14T19:52:13Z</time>
      </trkpt>
      <trkpt lat="60.003797040826" lon="15.7725481241">
        <ele>129.6</ele>
        <time>2015-01-14T19:52:14Z</time>
      </trkpt>
      <trkpt lat="60.003787820736" lon="15.772216619955">
        <ele>130.8</ele>
        <time>2015-01-14T19:52:21Z</time>
        <extensions><gpxtpx:TrackPointExtension><gpxtpx:hr>46</gpxtpx:hr></gpxtpx:TrackPointExtension></extensions>
      </trkpt>
      <trkpt lat="60.003781785768" lon="15.772040851512">
        <ele>131.4</ele>
        <time>2015-01-14T19:52:25Z</time>
        <extensions><gpxtpx:TrackPointExtension><gpxtpx:hr>41</gpxtpx:hr></gpxtpx:TrackPointExtension></extensions>
      </trkpt>
      <trkpt lat="60.00379000003" lon="15.771994667243">
        <ele>131.6</ele>
        <time>2015-01-14T19:52:26Z</time>
        <extensions><gpxtpx:TrackPointExtension><gpxtpx:hr>41</gpxtpx:hr></gpxtpx:TrackPointExtension></extensions>
      </trkpt>
      <trkpt lat="60.003793017514" lon="15.771955439951">
        <ele>131.6</ele>
        <time>2015-01-14T19:52:27Z</time>
        <extensions><gpxtpx:TrackPointExtension><gpxtpx:hr>41</gpxtpx:hr></gpxtpx:TrackPointExtension></extensions>
      </trkpt>
      <trkpt lat="60.003799723034" lon="15.771898023936">
        <ele>131.8</ele>
        <time>2015-01-14T19:52:28Z</time>
        <extensions><gpxtpx:TrackPointExtension><gpxtpx:hr>41</gpxtpx:hr></gpxtpx:TrackPointExtension></extensions>
      </trkpt>
      <trkpt lat="60.003804416898" lon="15.771848738364">
        <ele>131.8</ele>
        <time>2015-01-14T19:52:29Z</time>
        <extensions><gpxtpx:TrackPointExtension><gpxtpx:hr>38</gpxtpx:hr></gpxtpx:TrackPointExtension></extensions>
      </trkpt>
      <trkpt lat="60.003839369421" lon="15.77172334514">
        <ele>132.2</ele>
        <time>2015-01-14T19:52:32Z</time>
        <extensions><gpxtpx:TrackPointExtension><gpxtpx:hr>38</gpxtpx:hr></gpxtpx:TrackPointExtension></extensions>
      </trkpt>
      <trkpt lat="60.003882033292" lon="15.771607758739">
        <ele>133</ele>
        <time>2015-01-14T19:52:36Z</time>
        <extensions><gpxtpx:TrackPointExtension><gpxtpx:hr>38</gpxtpx:hr></gpxtpx:TrackPointExtension></extensions>
      </trkpt>
      <trkpt lat="60.003891672477" lon="15.771591581672">
        <ele>133</ele>
        <time>2015-01-14T19:52:37Z</time>
        <extensions><gpxtpx:TrackPointExtension><gpxtpx:hr>38</gpxtpx:hr></gpxtpx:TrackPointExtension></extensions>
      </trkpt>
      <trkpt lat="60.003950178139" lon="15.771501392428">
        <ele>133.8</ele>
        <time>2015-01-14T19:52:44Z</time>
      </trkpt>
      <trkpt lat="60.004037098442" lon="15.77135537973">
        <ele>134</ele>
        <time>2015-01-14T19:52:50Z</time>
        <extensions><gpxtpx:TrackPointExtension><gpxtpx:hr>36</gpxtpx:hr></gpxtpx:TrackPointExtension></extensions>
      </trkpt>
      <trkpt lat="60.004048916921" lon="15.771328306193">
        <ele>134.2</ele>
        <time>2015-01-14T19:52:51Z</time>
        <extensions><gpxtpx:TrackPointExtension><gpxtpx:hr>36</gpxtpx:hr></gpxtpx:TrackPointExtension></extensions>
      </trkpt>
      <trkpt lat="60.004077666838" lon="15.771264519934">
        <ele>134.4</ele>
        <time>2015-01-14T19:52:53Z</time>
        <extensions><gpxtpx:TrackPointExtension><gpxtpx:hr>32</gpxtpx:hr></gpxtpx:TrackPointExtension></extensions>
      </trkpt>
      <trkpt lat="60.004084372358" lon="15.771218335665">
        <ele>134.6</ele>
        <time>2015-01-14T19:52:54Z</time>
        <extensions><gpxtpx:TrackPointExtension><gpxtpx:hr>32</gpxtpx:hr></gpxtpx:TrackPointExtension></extensions>
      </trkpt>
      <trkpt lat="60.004105410927" lon="15.771102749264">
        <ele>134.8</ele>
        <time>2015-01-14T19:52:57Z</time>
        <extensions><gpxtpx:TrackPointExtension><gpxtpx:hr>32</gpxtpx:hr></gpxtpx:TrackPointExtension></extensions>
      </trkpt>
      <trkpt lat="60.004131646274" lon="15.77097567966">
        <ele>135</ele>
        <time>2015-01-14T19:53:00Z</time>
      </trkpt>
      <trkpt lat="60.004137597423" lon="15.770940978594">
        <ele>135.2</ele>
        <time>2015-01-14T19:53:01Z</time>
      </trkpt>
      <trkpt lat="60.004138351794" lon="15.770900158741">
        <ele>135.2</ele>
        <time>2015-01-14T19:53:02Z</time>
      </trkpt>
      <trkpt lat="60.004123767288" lon="15.770694802191">
        <ele>136.6</ele>
        <time>2015-01-14T19:53:08Z</time>
      </trkpt>
      <trkpt lat="60.004124856935" lon="15.77066638755">
        <ele>136.8</ele>
        <time>2015-01-14T19:53:09Z</time>
      </trkpt>
      <trkpt lat="60.004122090908" lon="15.770553986271">
        <ele>137.6</ele>
        <time>2015-01-14T19:53:12Z</time>
      </trkpt>
      <trkpt lat="60.004124102564" lon="15.770475112592">
        <ele>138</ele>
        <time>2015-01-14T19:53:14Z</time>
      </trkpt>
      <trkpt lat="60.004105662384" lon="15.770308648058">
        <ele>138.4</ele>
        <time>2015-01-14T19:53:18Z</time>
      </trkpt>
      <trkpt lat="60.004095352647" lon="15.770243772152">
        <ele>138.6</ele>
        <time>2015-01-14T19:53:20Z</time>
      </trkpt>
      <trkpt lat="60.004091916068" lon="15.770222230669">
        <ele>138.6</ele>
        <time>2015-01-14T19:53:21Z</time>
      </trkpt>
      <trkpt lat="60.004076996286" lon="15.770183422472">
        <ele>138.8</ele>
        <time>2015-01-14T19:53:23Z</time>
        <extensions><gpxtpx:TrackPointExtension><gpxtpx:hr>31</gpxtpx:hr></gpxtpx:TrackPointExtension></extensions>
      </trkpt>
      <trkpt lat="60.004050174206" lon="15.770128856303">
        <ele>139</ele>
        <time>2015-01-14T19:53:25Z</time>
        <extensions><gpxtpx:TrackPointExtension><gpxtpx:hr>31</gpxtpx:hr></gpxtpx:TrackPointExtension></extensions>
      </trkpt>
      <trkpt lat="60.003998541702" lon="15.77007797817">
        <ele>139.8</ele>
        <time>2015-01-14T19:53:28Z</time>
        <extensions><gpxtpx:TrackPointExtension><gpxtpx:hr>31</gpxtpx:hr></gpxtpx:TrackPointExtension></extensions>
      </trkpt>
      <trkpt lat="60.003942634429" lon="15.770072613754">
        <ele>140.6</ele>
        <time>2015-01-14T19:53:32Z</time>
      </trkpt>
      <trkpt lat="60.003901395481" lon="15.770077391437">
        <ele>140.8</ele>
        <time>2015-01-14T19:53:34Z</time>
      </trkpt>
      <trkpt lat="60.003880440731" lon="15.770080241283">
        <ele>140.8</ele>
        <time>2015-01-14T19:53:35Z</time>
      </trkpt>
      <trkpt lat="60.003829311141" lon="15.770116618729">
        <ele>140.8</ele>
        <time>2015-01-14T19:53:37Z</time>
        <extensions><gpxtpx:TrackPointExtension><gpxtpx:hr>31</gpxtpx:hr></gpxtpx:TrackPointExtension></extensions>
      </trkpt>
      <trkpt lat="60.003799052482" lon="15.770166993948">
        <ele>141</ele>
        <time>2015-01-14T19:53:39Z</time>
        <extensions><gpxtpx:TrackPointExtension><gpxtpx:hr>31</gpxtpx:hr></gpxtpx:TrackPointExtension></extensions>
      </trkpt>
      <trkpt lat="60.003755718059" lon="15.770177471323">
        <ele>141</ele>
        <time>2015-01-14T19:53:40Z</time>
        <extensions><gpxtpx:TrackPointExtension><gpxtpx:hr>31</gpxtpx:hr></gpxtpx:TrackPointExtension></extensions>
      </trkpt>
      <trkpt lat="60.003727638694" lon="15.770200186272">
        <ele>141</ele>
        <time>2015-01-14T19:53:41Z</time>
      </trkpt>
      <trkpt lat="60.003624708962" lon="15.770274785182">
        <ele>141</ele>
        <time>2015-01-14T19:53:44Z</time>
        <extensions><gpxtpx:TrackPointExtension><gpxtpx:hr>31</gpxtpx:hr></gpxtpx:TrackPointExtension></extensions>
      </trkpt>
      <trkpt lat="60.003524126162" lon="15.770374865068">
        <ele>141.2</ele>
        <time>2015-01-14T19:53:48Z</time>
        <extensions><gpxtpx:TrackPointExtension><gpxtpx:hr>31</gpxtpx:hr></gpxtpx:TrackPointExtension></extensions>
      </trkpt>
      <trkpt lat="60.003510212208" lon="15.770405291365">
        <ele>141.2</ele>
        <time>2015-01-14T19:53:49Z</time>
        <extensions><gpxtpx:TrackPointExtension><gpxtpx:hr>31</gpxtpx:hr></gpxtpx:TrackPointExtension></extensions>
      </trkpt>
      <trkpt lat="60.003474924409" lon="15.770412499799">
        <ele>141.4</ele>
        <time>2015-01-14T19:53:50Z</time>
        <extensions><gpxtpx:TrackPointExtension><gpxtpx:hr>31</gpxtpx:hr></gpxtpx:TrackPointExtension></extensions>
      </trkpt>
      <trkpt lat="60.003424213914" lon="15.770443931924">
        <ele>141.4</ele>
        <time>2015-01-14T19:53:52Z</time>
        <extensions><gpxtpx:TrackPointExtension><gpxtpx:hr>31</gpxtpx:hr></gpxtpx:TrackPointExtension></extensions>
      </trkpt>
      <trkpt lat="60.003331091005" lon="15.770483243035">
        <ele>142.2</ele>
        <time>2015-01-14T19:53:56Z</time>
        <extensions><gpxtpx:TrackPointExtension><gpxtpx:hr>31</gpxtpx:hr></gpxtpx:TrackPointExtension></extensions>
      </trkpt>
      <trkpt lat="60.003312986101" lon="15.770490032374">
        <ele>142.2</ele>
        <time>2015-01-14T19:53:57Z</time>
        <extensions><gpxtpx:TrackPointExtension><gpxtpx:hr>31</gpxtpx:hr></gpxtpx:TrackPointExtension></extensions>
      </trkpt>
      <trkpt lat="60.003198489347" lon="15.770566391483">
        <ele>142.8</ele>
        <time>2015-01-14T19:54:03Z</time>
        <extensions><gpxtpx:TrackPointExtension><gpxtpx:hr>31</gpxtpx:hr></gpxtpx:TrackPointExtension></extensions>
      </trkpt>
      <trkpt lat="60.003143336445" lon="15.77060436149">
        <ele>143.2</ele>
        <time>2015-01-14T19:54:06Z</time>
        <extensions><gpxtpx:TrackPointExtension><gpxtpx:hr>31</gpxtpx:hr></gpxtpx:TrackPointExtension></extensions>
      </trkpt>
      <trkpt lat="60.003095475796" lon="15.77062783081">
        <ele>143.4</ele>
        <time>2015-01-14T19:54:09Z</time>
        <extensions><gpxtpx:TrackPointExtension><gpxtpx:hr>31</gpxtpx:hr></gpxtpx:TrackPointExtension></extensions>
      </trkpt>
      <trkpt lat="60.003017775583" lon="15.770685582101">
        <ele>144.4</ele>
        <time>2015-01-14T19:54:14Z</time>
        <extensions><gpxtpx:TrackPointExtension><gpxtpx:hr>32</gpxtpx:hr></gpxtpx:TrackPointExtension></extensions>
      </trkpt>
      <trkpt lat="60.003006795294" lon="15.770699412236">
        <ele>144.6</ele>
        <time>2015-01-14T19:54:15Z</time>
        <extensions><gpxtpx:TrackPointExtension><gpxtpx:hr>32</gpxtpx:hr></gpxtpx:TrackPointExtension></extensions>
      </trkpt>
      <trkpt lat="60.002989696218" lon="15.770711901267">
        <ele>145</ele>
        <time>2015-01-14T19:54:16Z</time>
        <extensions><gpxtpx:TrackPointExtension><gpxtpx:hr>32</gpxtpx:hr></gpxtpx:TrackPointExtension></extensions>
      </trkpt>
      <trkpt lat="60.002941248836" lon="15.770734448578">
        <ele>145.4</ele>
        <time>2015-01-14T19:54:19Z</time>
        <extensions><gpxtpx:TrackPointExtension><gpxtpx:hr>32</gpxtpx:hr></gpxtpx:TrackPointExtension></extensions>
      </trkpt>
      <trkpt lat="60.002911912186" lon="15.770732688379">
        <ele>145.4</ele>
        <time>2015-01-14T19:54:20Z</time>
        <extensions><gpxtpx:TrackPointExtension><gpxtpx:hr>32</gpxtpx:hr></gpxtpx:TrackPointExtension></extensions>
      </trkpt>
      <trkpt lat="60.002850808135" lon="15.770731095818">
        <ele>146</ele>
        <time>2015-01-14T19:54:24Z</time>
        <extensions><gpxtpx:TrackPointExtension><gpxtpx:hr>32</gpxtpx:hr></gpxtpx:TrackPointExtension></extensions>
      </trkpt>
      <trkpt lat="60.00277327556" lon="15.770744674496">
        <ele>146.2</ele>
        <time>2015-01-14T19:54:29Z</time>
        <extensions><gpxtpx:TrackPointExtension><gpxtpx:hr>32</gpxtpx:hr></gpxtpx:TrackPointExtension></extensions>
      </trkpt>
      <trkpt lat="60.002752656086" lon="15.770737968976">
        <ele>146.4</ele>
        <time>2015-01-14T19:54:30Z</time>
        <extensions><gpxtpx:TrackPointExtension><gpxtpx:hr>32</gpxtpx:hr></gpxtpx:TrackPointExtension></extensions>
      </trkpt>
      <trkpt lat="60.002701358858" lon="15.770714918751">
        <ele>146.6</ele>
        <time>2015-01-14T19:54:32Z</time>
        <extensions><gpxtpx:TrackPointExtension><gpxtpx:hr>32</gpxtpx:hr></gpxtpx:TrackPointExtension></extensions>
      </trkpt>
      <trkpt lat="60.002684259782" lon="15.770703351729">
        <ele>146.8</ele>
        <time>2015-01-14T19:54:33Z</time>
        <extensions><gpxtpx:TrackPointExtension><gpxtpx:hr>32</gpxtpx:hr></gpxtpx:TrackPointExtension></extensions>
      </trkpt>
      <trkpt lat="60.002643020834" lon="15.770664627351">
        <ele>146.8</ele>
        <time>2015-01-14T19:54:35Z</time>
        <extensions><gpxtpx:TrackPointExtension><gpxtpx:hr>44</gpxtpx:hr></gpxtpx:TrackPointExtension></extensions>
      </trkpt>
      <trkpt lat="60.002627095224" lon="15.770640906574">
        <ele>147</ele>
        <time>2015-01-14T19:54:36Z</time>
        <extensions><gpxtpx:TrackPointExtension><gpxtpx:hr>44</gpxtpx:hr></gpxtpx:TrackPointExtension></extensions>
      </trkpt>
      <trkpt lat="60.002598512945" lon="15.770592878287">
        <ele>147.4</ele>
        <time>2015-01-14T19:54:39Z</time>
        <extensions><gpxtpx:TrackPointExtension><gpxtpx:hr>44</gpxtpx:hr></gpxtpx:TrackPointExtension></extensions>
      </trkpt>
      <trkpt lat="60.002583257887" lon="15.770571336804">
        <ele>147.8</ele>
        <time>2015-01-14T19:54:40Z</time>
        <extensions><gpxtpx:TrackPointExtension><gpxtpx:hr>44</gpxtpx:hr></gpxtpx:TrackPointExtension></extensions>
      </trkpt>
      <trkpt lat="60.002548808278" lon="15.770522386508">
        <ele>148.2</ele>
        <time>2015-01-14T19:54:43Z</time>
        <extensions><gpxtpx:TrackPointExtension><gpxtpx:hr>57</gpxtpx:hr></gpxtpx:TrackPointExtension></extensions>
      </trkpt>
      <trkpt lat="60.002541264568" lon="15.770505538889">
        <ele>148.4</ele>
        <time>2015-01-14T19:54:44Z</time>
        <extensions><gpxtpx:TrackPointExtension><gpxtpx:hr>57</gpxtpx:hr></gpxtpx:TrackPointExtension></extensions>
      </trkpt>
      <trkpt lat="60.002517040877" lon="15.770441584992">
        <ele>148.8</ele>
        <time>2015-01-14T19:54:47Z</time>
        <extensions><gpxtpx:TrackPointExtension><gpxtpx:hr>68</gpxtpx:hr></gpxtpx:TrackPointExtension></extensions>
      </trkpt>
      <trkpt lat="60.002503546018" lon="15.770418115672">
        <ele>148.8</ele>
        <time>2015-01-14T19:54:48Z</time>
        <extensions><gpxtpx:TrackPointExtension><gpxtpx:hr>78</gpxtpx:hr></gpxtpx:TrackPointExtension></extensions>
      </trkpt>
      <trkpt lat="60.002490386435" lon="15.770397412379">
        <ele>149</ele>
        <time>2015-01-14T19:54:49Z</time>
        <extensions><gpxtpx:TrackPointExtension><gpxtpx:hr>78</gpxtpx:hr></gpxtpx:TrackPointExtension></extensions>
      </trkpt>
      <trkpt lat="60.002432299868" lon="15.77034619897">
        <ele>149.4</ele>
        <time>2015-01-14T19:54:52Z</time>
        <extensions><gpxtpx:TrackPointExtension><gpxtpx:hr>87</gpxtpx:hr></gpxtpx:TrackPointExtension></extensions>
      </trkpt>
      <trkpt lat="60.002422409226" lon="15.770339577269">
        <ele>149.4</ele>
        <time>2015-01-14T19:54:53Z</time>
        <extensions><gpxtpx:TrackPointExtension><gpxtpx:hr>87</gpxtpx:hr></gpxtpx:TrackPointExtension></extensions>
      </trkpt>
      <trkpt lat="60.002402376485" lon="15.770344019676">
        <ele>149.4</ele>
        <time>2015-01-14T19:54:54Z</time>
        <extensions><gpxtpx:TrackPointExtension><gpxtpx:hr>100</gpxtpx:hr></gpxtpx:TrackPointExtension></extensions>
      </trkpt>
      <trkpt lat="60.002381505554" lon="15.770354664689">
        <ele>149.6</ele>
        <time>2015-01-14T19:54:55Z</time>
        <extensions><gpxtpx:TrackPointExtension><gpxtpx:hr>116</gpxtpx:hr></gpxtpx:TrackPointExtension></extensions>
      </trkpt>
      <trkpt lat="60.002364490297" lon="15.770363214227">
        <ele>149.6</ele>
        <time>2015-01-14T19:54:56Z</time>
        <extensions><gpxtpx:TrackPointExtension><gpxtpx:hr>123</gpxtpx:hr></gpxtpx:TrackPointExtension></extensions>
      </trkpt>
      <trkpt lat="60.00234412228" lon="15.770365309702">
        <ele>149.6</ele>
        <time>2015-01-14T19:54:57Z</time>
        <extensions><gpxtpx:TrackPointExtension><gpxtpx:hr>131</gpxtpx:hr></gpxtpx:TrackPointExtension></extensions>
      </trkpt>
      <trkpt lat="60.002318473666" lon="15.770374278335">
        <ele>149.6</ele>
        <time>2015-01-14T19:54:58Z</time>
        <extensions><gpxtpx:TrackPointExtension><gpxtpx:hr>134</gpxtpx:hr></gpxtpx:TrackPointExtension></extensions>
      </trkpt>
      <trkpt lat="60.002297435097" lon="15.770384336615">
        <ele>149.6</ele>
        <time>2015-01-14T19:54:59Z</time>
        <extensions><gpxtpx:TrackPointExtension><gpxtpx:hr>137</gpxtpx:hr></gpxtpx:TrackPointExtension></extensions>
      </trkpt>
      <trkpt lat="60.002246556964" lon="15.77040151951">
        <ele>149.8</ele>
        <time>2015-01-14T19:55:01Z</time>
        <extensions><gpxtpx:TrackPointExtension><gpxtpx:hr>141</gpxtpx:hr></gpxtpx:TrackPointExtension></extensions>
      </trkpt>
      <trkpt lat="60.002207664948" lon="15.770415433464">
        <ele>149.8</ele>
        <time>2015-01-14T19:55:03Z</time>
        <extensions><gpxtpx:TrackPointExtension><gpxtpx:hr>143</gpxtpx:hr></gpxtpx:TrackPointExtension></extensions>
      </trkpt>
      <trkpt lat="60.002108004157" lon="15.770453152014">
        <ele>150</ele>
        <time>2015-01-14T19:55:07Z</time>
        <extensions><gpxtpx:TrackPointExtension><gpxtpx:hr>142</gpxtpx:hr></gpxtpx:TrackPointExtension></extensions>
      </trkpt>
      <trkpt lat="60.002090653624" lon="15.770458013516">
        <ele>150</ele>
        <time>2015-01-14T19:55:08Z</time>
        <extensions><gpxtpx:TrackPointExtension><gpxtpx:hr>143</gpxtpx:hr></gpxtpx:TrackPointExtension></extensions>
      </trkpt>
      <trkpt lat="60.002033405247" lon="15.770466646873">
        <ele>150</ele>
        <time>2015-01-14T19:55:10Z</time>
        <extensions><gpxtpx:TrackPointExtension><gpxtpx:hr>142</gpxtpx:hr></gpxtpx:TrackPointExtension></extensions>
      </trkpt>
      <trkpt lat="60.001977497974" lon="15.770520039576">
        <ele>150.2</ele>
        <time>2015-01-14T19:55:13Z</time>
        <extensions><gpxtpx:TrackPointExtension><gpxtpx:hr>141</gpxtpx:hr></gpxtpx:TrackPointExtension></extensions>
      </trkpt>
      <trkpt lat="60.001948077505" lon="15.770534707901">
        <ele>150.2</ele>
        <time>2015-01-14T19:55:14Z</time>
        <extensions><gpxtpx:TrackPointExtension><gpxtpx:hr>141</gpxtpx:hr></gpxtpx:TrackPointExtension></extensions>
      </trkpt>
      <trkpt lat="60.001827964878" lon="15.770551136425">
        <ele>150</ele>
        <time>2015-01-14T19:55:18Z</time>
        <extensions><gpxtpx:TrackPointExtension><gpxtpx:hr>140</gpxtpx:hr></gpxtpx:TrackPointExtension></extensions>
      </trkpt>
      <trkpt lat="60.00168279037" lon="15.770580556894">
        <ele>149.8</ele>
        <time>2015-01-14T19:55:22Z</time>
        <extensions><gpxtpx:TrackPointExtension><gpxtpx:hr>137</gpxtpx:hr></gpxtpx:TrackPointExtension></extensions>
      </trkpt>
      <trkpt lat="60.001562593924" lon="15.770638056728">
        <ele>149.6</ele>
        <time>2015-01-14T19:55:26Z</time>
        <extensions><gpxtpx:TrackPointExtension><gpxtpx:hr>137</gpxtpx:hr></gpxtpx:TrackPointExtension></extensions>
      </trkpt>
      <trkpt lat="60.001521522614" lon="15.7706789604">
        <ele>149.6</ele>
        <time>2015-01-14T19:55:28Z</time>
        <extensions><gpxtpx:TrackPointExtension><gpxtpx:hr>138</gpxtpx:hr></gpxtpx:TrackPointExtension></extensions>
      </trkpt>
      <trkpt lat="60.001471398852" lon="15.77067560764">
        <ele>149.6</ele>
        <time>2015-01-14T19:55:30Z</time>
        <extensions><gpxtpx:TrackPointExtension><gpxtpx:hr>138</gpxtpx:hr></gpxtpx:TrackPointExtension></extensions>
      </trkpt>
      <trkpt lat="60.001372157156" lon="15.770671919604">
        <ele>150.2</ele>
        <time>2015-01-14T19:55:34Z</time>
        <extensions><gpxtpx:TrackPointExtension><gpxtpx:hr>138</gpxtpx:hr></gpxtpx:TrackPointExtension></extensions>
      </trkpt>
      <trkpt lat="60.001271741994" lon="15.770709051421">
        <ele>150.4</ele>
        <time>2015-01-14T19:55:38Z</time>
        <extensions><gpxtpx:TrackPointExtension><gpxtpx:hr>139</gpxtpx:hr></gpxtpx:TrackPointExtension></extensions>
      </trkpt>
      <trkpt lat="60.001221115318" lon="15.770728748886">
        <ele>150.4</ele>
        <time>2015-01-14T19:55:41Z</time>
        <extensions><gpxtpx:TrackPointExtension><gpxtpx:hr>139</gpxtpx:hr></gpxtpx:TrackPointExtension></extensions>
      </trkpt>
      <trkpt lat="60.001183061492" lon="15.770727659239">
        <ele>150.8</ele>
        <time>2015-01-14T19:55:43Z</time>
        <extensions><gpxtpx:TrackPointExtension><gpxtpx:hr>141</gpxtpx:hr></gpxtpx:TrackPointExtension></extensions>
      </trkpt>
      <trkpt lat="60.00116646533" lon="15.770744087763">
        <ele>151</ele>
        <time>2015-01-14T19:55:44Z</time>
        <extensions><gpxtpx:TrackPointExtension><gpxtpx:hr>142</gpxtpx:hr></gpxtpx:TrackPointExtension></extensions>
      </trkpt>
      <trkpt lat="60.001100415958" lon="15.770761857391">
        <ele>151.8</ele>
        <time>2015-01-14T19:55:47Z</time>
        <extensions><gpxtpx:TrackPointExtension><gpxtpx:hr>143</gpxtpx:hr></gpxtpx:TrackPointExtension></extensions>
      </trkpt>
      <trkpt lat="60.001018273338" lon="15.770776441897">
        <ele>152</ele>
        <time>2015-01-14T19:55:50Z</time>
        <extensions><gpxtpx:TrackPointExtension><gpxtpx:hr>143</gpxtpx:hr></gpxtpx:TrackPointExtension></extensions>
      </trkpt>
      <trkpt lat="60.000969742137" lon="15.770744925953">
        <ele>152.2</ele>
        <time>2015-01-14T19:55:52Z</time>
        <extensions><gpxtpx:TrackPointExtension><gpxtpx:hr>143</gpxtpx:hr></gpxtpx:TrackPointExtension></extensions>
      </trkpt>
      <trkpt lat="60.000917858176" lon="15.770654569071">
        <ele>152.6</ele>
        <time>2015-01-14T19:55:55Z</time>
        <extensions><gpxtpx:TrackPointExtension><gpxtpx:hr>143</gpxtpx:hr></gpxtpx:TrackPointExtension></extensions>
      </trkpt>
      <trkpt lat="60.000906458792" lon="15.770565385655">
        <ele>152.6</ele>
        <time>2015-01-14T19:55:57Z</time>
        <extensions><gpxtpx:TrackPointExtension><gpxtpx:hr>143</gpxtpx:hr></gpxtpx:TrackPointExtension></extensions>
      </trkpt>
      <trkpt lat="60.000914086321" lon="15.770436639671">
        <ele>153</ele>
        <time>2015-01-14T19:56:00Z</time>
        <extensions><gpxtpx:TrackPointExtension><gpxtpx:hr>144</gpxtpx:hr></gpxtpx:TrackPointExtension></extensions>
      </trkpt>
      <trkpt lat="60.000924396058" lon="15.770360364381">
        <ele>153.2</ele>
        <time>2015-01-14T19:56:02Z</time>
        <extensions><gpxtpx:TrackPointExtension><gpxtpx:hr>145</gpxtpx:hr></gpxtpx:TrackPointExtension></extensions>
      </trkpt>
      <trkpt lat="60.00092841937" lon="15.770333877577">
        <ele>153.2</ele>
        <time>2015-01-14T19:56:03Z</time>
        <extensions><gpxtpx:TrackPointExtension><gpxtpx:hr>145</gpxtpx:hr></gpxtpx:TrackPointExtension></extensions>
      </trkpt>
      <trkpt lat="60.000982566444" lon="15.770085354242">
        <ele>153.4</ele>
        <time>2015-01-14T19:56:09Z</time>
        <extensions><gpxtpx:TrackPointExtension><gpxtpx:hr>145</gpxtpx:hr></gpxtpx:TrackPointExtension></extensions>
      </trkpt>
      <trkpt lat="60.001024643582" lon="15.76987010705">
        <ele>153.6</ele>
        <time>2015-01-14T19:56:14Z</time>
        <extensions><gpxtpx:TrackPointExtension><gpxtpx:hr>146</gpxtpx:hr></gpxtpx:TrackPointExtension></extensions>
      </trkpt>
      <trkpt lat="60.00105750063" lon="15.769663241758">
        <ele>154.2</ele>
        <time>2015-01-14T19:56:20Z</time>
        <extensions><gpxtpx:TrackPointExtension><gpxtpx:hr>148</gpxtpx:hr></gpxtpx:TrackPointExtension></extensions>
      </trkpt>
      <trkpt lat="60.001089268031" lon="15.769420921029">
        <ele>155</ele>
        <time>2015-01-14T19:56:25Z</time>
        <extensions><gpxtpx:TrackPointExtension><gpxtpx:hr>149</gpxtpx:hr></gpxtpx:TrackPointExtension></extensions>
      </trkpt>
      <trkpt lat="60.001121538346" lon="15.769267616078">
        <ele>155.4</ele>
        <time>2015-01-14T19:56:28Z</time>
        <extensions><gpxtpx:TrackPointExtension><gpxtpx:hr>148</gpxtpx:hr></gpxtpx:TrackPointExtension></extensions>
      </trkpt>
      <trkpt lat="60.001145426761" lon="15.769155466256">
        <ele>155.6</ele>
        <time>2015-01-14T19:56:30Z</time>
        <extensions><gpxtpx:TrackPointExtension><gpxtpx:hr>148</gpxtpx:hr></gpxtpx:TrackPointExtension></extensions>
      </trkpt>
      <trkpt lat="60.001176858886" lon="15.768925969834">
        <ele>155.6</ele>
        <time>2015-01-14T19:56:34Z</time>
        <extensions><gpxtpx:TrackPointExtension><gpxtpx:hr>148</gpxtpx:hr></gpxtpx:TrackPointExtension></extensions>
      </trkpt>
      <trkpt lat="60.001246763932" lon="15.76863964413">
        <ele>155.4</ele>
        <time>2015-01-14T19:56:39Z</time>
        <extensions><gpxtpx:TrackPointExtension><gpxtpx:hr>147</gpxtpx:hr></gpxtpx:TrackPointExtension></extensions>
      </trkpt>
      <trkpt lat="60.001308035621" lon="15.768396904306">
        <ele>155.4</ele>
        <time>2015-01-14T19:56:43Z</time>
        <extensions><gpxtpx:TrackPointExtension><gpxtpx:hr>145</gpxtpx:hr></gpxtpx:TrackPointExtension></extensions>
      </trkpt>
      <trkpt lat="60.001372743889" lon="15.768129270239">
        <ele>155.2</ele>
        <time>2015-01-14T19:56:47Z</time>
        <extensions><gpxtpx:TrackPointExtension><gpxtpx:hr>144</gpxtpx:hr></gpxtpx:TrackPointExtension></extensions>
      </trkpt>
      <trkpt lat="60.001488246471" lon="15.767877897058">
        <ele>155</ele>
        <time>2015-01-14T19:56:52Z</time>
        <extensions><gpxtpx:TrackPointExtension><gpxtpx:hr>146</gpxtpx:hr></gpxtpx:TrackPointExtension></extensions>
      </trkpt>
      <trkpt lat="60.001517834578" lon="15.76786599476">
        <ele>155.4</ele>
        <time>2015-01-14T19:56:54Z</time>
        <extensions><gpxtpx:TrackPointExtension><gpxtpx:hr>149</gpxtpx:hr></gpxtpx:TrackPointExtension></extensions>
      </trkpt>
      <trkpt lat="60.0015377835" lon="15.767869934253">
        <ele>155.6</ele>
        <time>2015-01-14T19:56:56Z</time>
        <extensions><gpxtpx:TrackPointExtension><gpxtpx:hr>150</gpxtpx:hr></gpxtpx:TrackPointExtension></extensions>
      </trkpt>
      <trkpt lat="60.001542728821" lon="15.767870353348">
        <ele>155.8</ele>
        <time>2015-01-14T19:56:57Z</time>
        <extensions><gpxtpx:TrackPointExtension><gpxtpx:hr>150</gpxtpx:hr></gpxtpx:TrackPointExtension></extensions>
      </trkpt>
      <trkpt lat="60.001568964168" lon="15.767908071898">
        <ele>156.2</ele>
        <time>2015-01-14T19:57:00Z</time>
        <extensions><gpxtpx:TrackPointExtension><gpxtpx:hr>152</gpxtpx:hr></gpxtpx:TrackPointExtension></extensions>
      </trkpt>
      <trkpt lat="60.001576424059" lon="15.767926595897">
        <ele>156.4</ele>
        <time>2015-01-14T19:57:01Z</time>
        <extensions><gpxtpx:TrackPointExtension><gpxtpx:hr>153</gpxtpx:hr></gpxtpx:TrackPointExtension></extensions>
      </trkpt>
      <trkpt lat="60.001622273052" lon="15.768049139275">
        <ele>157</ele>
        <time>2015-01-14T19:57:05Z</time>
        <extensions><gpxtpx:TrackPointExtension><gpxtpx:hr>154</gpxtpx:hr></gpxtpx:TrackPointExtension></extensions>
      </trkpt>
      <trkpt lat="60.001637276653" lon="15.768075793717">
        <ele>157.2</ele>
        <time>2015-01-14T19:57:06Z</time>
        <extensions><gpxtpx:TrackPointExtension><gpxtpx:hr>155</gpxtpx:hr></gpxtpx:TrackPointExtension></extensions>
      </trkpt>
      <trkpt lat="60.001659488688" lon="15.768131198076">
        <ele>157.6</ele>
        <time>2015-01-14T19:57:08Z</time>
        <extensions><gpxtpx:TrackPointExtension><gpxtpx:hr>155</gpxtpx:hr></gpxtpx:TrackPointExtension></extensions>
      </trkpt>
      <trkpt lat="60.001705086224" lon="15.768293639298">
        <ele>158.2</ele>
        <time>2015-01-14T19:57:12Z</time>
        <extensions><gpxtpx:TrackPointExtension><gpxtpx:hr>156</gpxtpx:hr></gpxtpx:TrackPointExtension></extensions>
      </trkpt>
      <trkpt lat="60.001708271346" lon="15.768334962065">
        <ele>158.4</ele>
        <time>2015-01-14T19:57:13Z</time>
        <extensions><gpxtpx:TrackPointExtension><gpxtpx:hr>157</gpxtpx:hr></gpxtpx:TrackPointExtension></extensions>
      </trkpt>
      <trkpt lat="60.001727465897" lon="15.768399251238">
        <ele>158.6</ele>
        <time>2015-01-14T19:57:14Z</time>
        <extensions><gpxtpx:TrackPointExtension><gpxtpx:hr>157</gpxtpx:hr></gpxtpx:TrackPointExtension></extensions>
      </trkpt>
      <trkpt lat="60.001742134222" lon="15.768451219018">
        <ele>158.8</ele>
        <time>2015-01-14T19:57:15Z</time>
        <extensions><gpxtpx:TrackPointExtension><gpxtpx:hr>156</gpxtpx:hr></gpxtpx:TrackPointExtension></extensions>
      </trkpt>
      <trkpt lat="60.001783289351" lon="15.768597064078">
        <ele>158.8</ele>
        <time>2015-01-14T19:57:17Z</time>
        <extensions><gpxtpx:TrackPointExtension><gpxtpx:hr>155</gpxtpx:hr></gpxtpx:TrackPointExtension></extensions>
      </trkpt>
      <trkpt lat="60.001851518017" lon="15.768828320699">
        <ele>157.8</ele>
        <time>2015-01-14T19:57:20Z</time>
        <extensions><gpxtpx:TrackPointExtension><gpxtpx:hr>154</gpxtpx:hr></gpxtpx:TrackPointExtension></extensions>
      </trkpt>
      <trkpt lat="60.001886721997" lon="15.768969555714">
        <ele>157.4</ele>
        <time>2015-01-14T19:57:22Z</time>
        <extensions><gpxtpx:TrackPointExtension><gpxtpx:hr>153</gpxtpx:hr></gpxtpx:TrackPointExtension></extensions>
      </trkpt>
      <trkpt lat="60.001924943461" lon="15.769081202622">
        <ele>157.4</ele>
        <time>2015-01-14T19:57:24Z</time>
        <extensions><gpxtpx:TrackPointExtension><gpxtpx:hr>152</gpxtpx:hr></gpxtpx:TrackPointExtension></extensions>
      </trkpt>
      <trkpt lat="60.001964086934" lon="15.769212630814">
        <ele>157.6</ele>
        <time>2015-01-14T19:57:26Z</time>
        <extensions><gpxtpx:TrackPointExtension><gpxtpx:hr>151</gpxtpx:hr></gpxtpx:TrackPointExtension></extensions>
      </trkpt>
      <trkpt lat="60.0020155518" lon="15.769373395656">
        <ele>157.6</ele>
        <time>2015-01-14T19:57:28Z</time>
        <extensions><gpxtpx:TrackPointExtension><gpxtpx:hr>149</gpxtpx:hr></gpxtpx:TrackPointExtension></extensions>
      </trkpt>
      <trkpt lat="60.002035919817" lon="15.769460567416">
        <ele>157.6</ele>
        <time>2015-01-14T19:57:29Z</time>
        <extensions><gpxtpx:TrackPointExtension><gpxtpx:hr>148</gpxtpx:hr></gpxtpx:TrackPointExtension></extensions>
      </trkpt>
      <trkpt lat="60.002146979992" lon="15.769852588879">
        <ele>156.4</ele>
        <time>2015-01-14T19:57:33Z</time>
        <extensions><gpxtpx:TrackPointExtension><gpxtpx:hr>145</gpxtpx:hr></gpxtpx:TrackPointExtension></extensions>
      </trkpt>
      <trkpt lat="60.00223012844" lon="15.770094993427">
        <ele>155.8</ele>
        <time>2015-01-14T19:57:35Z</time>
        <extensions><gpxtpx:TrackPointExtension><gpxtpx:hr>144</gpxtpx:hr></gpxtpx:TrackPointExtension></extensions>
      </trkpt>
      <trkpt lat="60.002291903043" lon="15.770230612569">
        <ele>154.8</ele>
        <time>2015-01-14T19:57:36Z</time>
        <extensions><gpxtpx:TrackPointExtension><gpxtpx:hr>144</gpxtpx:hr></gpxtpx:TrackPointExtension></extensions>
      </trkpt>
      <trkpt lat="60.002341020977" lon="15.770322981107">
        <ele>154.4</ele>
        <time>2015-01-14T19:57:37Z</time>
        <extensions><gpxtpx:TrackPointExtension><gpxtpx:hr>144</gpxtpx:hr></gpxtpx:TrackPointExtension></extensions>
      </trkpt>
      <trkpt lat="60.002407573263" lon="15.770429263599">
        <ele>153.2</ele>
        <time>2015-01-14T19:57:38Z</time>
        <extensions><gpxtpx:TrackPointExtension><gpxtpx:hr>144</gpxtpx:hr></gpxtpx:TrackPointExtension></extensions>
      </trkpt>
      <trkpt lat="60.002537325075" lon="15.770550801149">
        <ele>151.4</ele>
        <time>2015-01-14T19:57:40Z</time>
        <extensions><gpxtpx:TrackPointExtension><gpxtpx:hr>144</gpxtpx:hr></gpxtpx:TrackPointExtension></extensions>
      </trkpt>
      <trkpt lat="60.002594824909" lon="15.770576114487">
        <ele>150</ele>
        <time>2015-01-14T19:57:41Z</time>
        <extensions><gpxtpx:TrackPointExtension><gpxtpx:hr>144</gpxtpx:hr></gpxtpx:TrackPointExtension></extensions>
      </trkpt>
      <trkpt lat="60.002654923132" lon="15.770591453364">
        <ele>148.6</ele>
        <time>2015-01-14T19:57:42Z</time>
        <extensions><gpxtpx:TrackPointExtension><gpxtpx:hr>143</gpxtpx:hr></gpxtpx:TrackPointExtension></extensions>
      </trkpt>
      <trkpt lat="60.002756176484" lon="15.770592962106">
        <ele>148</ele>
        <time>2015-01-14T19:57:44Z</time>
        <extensions><gpxtpx:TrackPointExtension><gpxtpx:hr>143</gpxtpx:hr></gpxtpx:TrackPointExtension></extensions>
      </trkpt>
      <trkpt lat="60.002803618038" lon="15.770591034269">
        <ele>148</ele>
        <time>2015-01-14T19:57:45Z</time>
        <extensions><gpxtpx:TrackPointExtension><gpxtpx:hr>143</gpxtpx:hr></gpxtpx:TrackPointExtension></extensions>
      </trkpt>
      <trkpt lat="60.002927753977" lon="15.770582484731">
        <ele>148</ele>
        <time>2015-01-14T19:57:47Z</time>
        <extensions><gpxtpx:TrackPointExtension><gpxtpx:hr>143</gpxtpx:hr></gpxtpx:TrackPointExtension></extensions>
      </trkpt>
      <trkpt lat="60.003022134171" lon="15.770512579685">
        <ele>147.6</ele>
        <time>2015-01-14T19:57:49Z</time>
        <extensions><gpxtpx:TrackPointExtension><gpxtpx:hr>144</gpxtpx:hr></gpxtpx:TrackPointExtension></extensions>
      </trkpt>
      <trkpt lat="60.003164291195" lon="15.770243436876">
        <ele>145.8</ele>
        <time>2015-01-14T19:57:52Z</time>
        <extensions><gpxtpx:TrackPointExtension><gpxtpx:hr>143</gpxtpx:hr></gpxtpx:TrackPointExtension></extensions>
      </trkpt>
      <trkpt lat="60.00319320875" lon="15.770170011432">
        <ele>145.4</ele>
        <time>2015-01-14T19:57:53Z</time>
        <extensions><gpxtpx:TrackPointExtension><gpxtpx:hr>143</gpxtpx:hr></gpxtpx:TrackPointExtension></extensions>
      </trkpt>
      <trkpt lat="60.003226484893" lon="15.770073871039">
        <ele>145</ele>
        <time>2015-01-14T19:57:54Z</time>
        <extensions><gpxtpx:TrackPointExtension><gpxtpx:hr>142</gpxtpx:hr></gpxtpx:TrackPointExtension></extensions>
      </trkpt>
      <trkpt lat="60.00324098558" lon="15.769985944908">
        <ele>144.6</ele>
        <time>2015-01-14T19:57:55Z</time>
        <extensions><gpxtpx:TrackPointExtension><gpxtpx:hr>143</gpxtpx:hr></gpxtpx:TrackPointExtension></extensions>
      </trkpt>
      <trkpt lat="60.003237884277" lon="15.769874381819">
        <ele>144.2</ele>
        <time>2015-01-14T19:57:56Z</time>
        <extensions><gpxtpx:TrackPointExtension><gpxtpx:hr>143</gpxtpx:hr></gpxtpx:TrackPointExtension></extensions>
      </trkpt>
      <trkpt lat="60.003231933128" lon="15.769760555617">
        <ele>144.2</ele>
        <time>2015-01-14T19:57:58Z</time>
        <extensions><gpxtpx:TrackPointExtension><gpxtpx:hr>143</gpxtpx:hr></gpxtpx:TrackPointExtension></extensions>
      </trkpt>
      <trkpt lat="60.003190526542" lon="15.76964463394">
        <ele>143.4</ele>
        <time>2015-01-14T19:58:00Z</time>
        <extensions><gpxtpx:TrackPointExtension><gpxtpx:hr>145</gpxtpx:hr></gpxtpx:TrackPointExtension></extensions>
      </trkpt>
      <trkpt lat="60.003147443576" lon="15.769553355049">
        <ele>143.2</ele>
        <time>2015-01-14T19:58:02Z</time>
        <extensions><gpxtpx:TrackPointExtension><gpxtpx:hr>147</gpxtpx:hr></gpxtpx:TrackPointExtension></extensions>
      </trkpt>
      <trkpt lat="60.003125734455" lon="15.769463501081">
        <ele>145</ele>
        <time>2015-01-14T19:58:05Z</time>
        <extensions><gpxtpx:TrackPointExtension><gpxtpx:hr>149</gpxtpx:hr></gpxtpx:TrackPointExtension></extensions>
      </trkpt>
      <trkpt lat="60.003101510764" lon="15.769400301555">
        <ele>146.2</ele>
        <time>2015-01-14T19:58:07Z</time>
        <extensions><gpxtpx:TrackPointExtension><gpxtpx:hr>151</gpxtpx:hr></gpxtpx:TrackPointExtension></extensions>
      </trkpt>
      <trkpt lat="60.003056835237" lon="15.769223192008">
        <ele>147.4</ele>
        <time>2015-01-14T19:58:11Z</time>
        <extensions><gpxtpx:TrackPointExtension><gpxtpx:hr>152</gpxtpx:hr></gpxtpx:TrackPointExtension></extensions>
      </trkpt>
      <trkpt lat="60.003008471674" lon="15.769024205702">
        <ele>147.6</ele>
        <time>2015-01-14T19:58:15Z</time>
        <extensions><gpxtpx:TrackPointExtension><gpxtpx:hr>150</gpxtpx:hr></gpxtpx:TrackPointExtension></extensions>
      </trkpt>
      <trkpt lat="60.002975614626" lon="15.76874609426">
        <ele>147</ele>
        <time>2015-01-14T19:58:18Z</time>
        <extensions><gpxtpx:TrackPointExtension><gpxtpx:hr>149</gpxtpx:hr></gpxtpx:TrackPointExtension></extensions>
      </trkpt>
      <trkpt lat="60.0029794703" lon="15.768638219207">
        <ele>146.6</ele>
        <time>2015-01-14T19:58:20Z</time>
        <extensions><gpxtpx:TrackPointExtension><gpxtpx:hr>149</gpxtpx:hr></gpxtpx:TrackPointExtension></extensions>
      </trkpt>
      <trkpt lat="60.002977961558" lon="15.768546437402">
        <ele>146.4</ele>
        <time>2015-01-14T19:58:22Z</time>
        <extensions><gpxtpx:TrackPointExtension><gpxtpx:hr>150</gpxtpx:hr></gpxtpx:TrackPointExtension></extensions>
      </trkpt>
      <trkpt lat="60.002997742842" lon="15.768316438066">
        <ele>147.6</ele>
        <time>2015-01-14T19:58:27Z</time>
        <extensions><gpxtpx:TrackPointExtension><gpxtpx:hr>151</gpxtpx:hr></gpxtpx:TrackPointExtension></extensions>
      </trkpt>
      <trkpt lat="60.003027414768" lon="15.768150224989">
        <ele>148</ele>
        <time>2015-01-14T19:58:31Z</time>
        <extensions><gpxtpx:TrackPointExtension><gpxtpx:hr>154</gpxtpx:hr></gpxtpx:TrackPointExtension></extensions>
      </trkpt>
      <trkpt lat="60.003032863003" lon="15.768112003525">
        <ele>148.4</ele>
        <time>2015-01-14T19:58:32Z</time>
        <extensions><gpxtpx:TrackPointExtension><gpxtpx:hr>154</gpxtpx:hr></gpxtpx:TrackPointExtension></extensions>
      </trkpt>
      <trkpt lat="60.003071587381" lon="15.767962889524">
        <ele>149.4</ele>
        <time>2015-01-14T19:58:36Z</time>
        <extensions><gpxtpx:TrackPointExtension><gpxtpx:hr>155</gpxtpx:hr></gpxtpx:TrackPointExtension></extensions>
      </trkpt>
      <trkpt lat="60.003120370039" lon="15.767779577371">
        <ele>149.2</ele>
        <time>2015-01-14T19:58:40Z</time>
        <extensions><gpxtpx:TrackPointExtension><gpxtpx:hr>153</gpxtpx:hr></gpxtpx:TrackPointExtension></extensions>
      </trkpt>
      <trkpt lat="60.00314040278" lon="15.767698524398">
        <ele>149</ele>
        <time>2015-01-14T19:58:42Z</time>
        <extensions><gpxtpx:TrackPointExtension><gpxtpx:hr>152</gpxtpx:hr></gpxtpx:TrackPointExtension></extensions>
      </trkpt>
      <trkpt lat="60.003191364732" lon="15.767572544441">
        <ele>149</ele>
        <time>2015-01-14T19:58:45Z</time>
        <extensions><gpxtpx:TrackPointExtension><gpxtpx:hr>149</gpxtpx:hr></gpxtpx:TrackPointExtension></extensions>
      </trkpt>
      <trkpt lat="60.003258839027" lon="15.767473973297">
        <ele>148.8</ele>
        <time>2015-01-14T19:58:47Z</time>
        <extensions><gpxtpx:TrackPointExtension><gpxtpx:hr>147</gpxtpx:hr></gpxtpx:TrackPointExtension></extensions>
      </trkpt>
      <trkpt lat="60.003403007707" lon="15.767385628071">
        <ele>148.4</ele>
        <time>2015-01-14T19:58:50Z</time>
        <extensions><gpxtpx:TrackPointExtension><gpxtpx:hr>147</gpxtpx:hr></gpxtpx:TrackPointExtension></extensions>
      </trkpt>
      <trkpt lat="60.003461178093" lon="15.767377078533">
        <ele>147.8</ele>
        <time>2015-01-14T19:58:51Z</time>
        <extensions><gpxtpx:TrackPointExtension><gpxtpx:hr>146</gpxtpx:hr></gpxtpx:TrackPointExtension></extensions>
      </trkpt>
      <trkpt lat="60.003523371791" lon="15.767381772397">
        <ele>146.6</ele>
        <time>2015-01-14T19:58:52Z</time>
        <extensions><gpxtpx:TrackPointExtension><gpxtpx:hr>147</gpxtpx:hr></gpxtpx:TrackPointExtension></extensions>
      </trkpt>
      <trkpt lat="60.003570645707" lon="15.767388394098">
        <ele>145.4</ele>
        <time>2015-01-14T19:58:53Z</time>
        <extensions><gpxtpx:TrackPointExtension><gpxtpx:hr>147</gpxtpx:hr></gpxtpx:TrackPointExtension></extensions>
      </trkpt>
      <trkpt lat="60.003641724219" lon="15.76740247569">
        <ele>144.2</ele>
        <time>2015-01-14T19:58:54Z</time>
        <extensions><gpxtpx:TrackPointExtension><gpxtpx:hr>147</gpxtpx:hr></gpxtpx:TrackPointExtension></extensions>
      </trkpt>
      <trkpt lat="60.00368690266" lon="15.767419155671">
        <ele>143.6</ele>
        <time>2015-01-14T19:58:55Z</time>
        <extensions><gpxtpx:TrackPointExtension><gpxtpx:hr>147</gpxtpx:hr></gpxtpx:TrackPointExtension></extensions>
      </trkpt>
      <trkpt lat="60.003764938149" lon="15.767470285261">
        <ele>142.6</ele>
        <time>2015-01-14T19:58:56Z</time>
        <extensions><gpxtpx:TrackPointExtension><gpxtpx:hr>148</gpxtpx:hr></gpxtpx:TrackPointExtension></extensions>
      </trkpt>
      <trkpt lat="60.003857306687" lon="15.767642617125">
        <ele>141.4</ele>
        <time>2015-01-14T19:58:58Z</time>
        <extensions><gpxtpx:TrackPointExtension><gpxtpx:hr>149</gpxtpx:hr></gpxtpx:TrackPointExtension></extensions>
      </trkpt>
      <trkpt lat="60.003921763498" lon="15.767974288908">
        <ele>140.4</ele>
        <time>2015-01-14T19:59:01Z</time>
        <extensions><gpxtpx:TrackPointExtension><gpxtpx:hr>151</gpxtpx:hr></gpxtpx:TrackPointExtension></extensions>
      </trkpt>
      <trkpt lat="60.003942969705" lon="15.768091970784">
        <ele>140.2</ele>
        <time>2015-01-14T19:59:02Z</time>
        <extensions><gpxtpx:TrackPointExtension><gpxtpx:hr>152</gpxtpx:hr></gpxtpx:TrackPointExtension></extensions>
      </trkpt>
      <trkpt lat="60.003979850065" lon="15.768313169125">
        <ele>139.6</ele>
        <time>2015-01-14T19:59:05Z</time>
        <extensions><gpxtpx:TrackPointExtension><gpxtpx:hr>152</gpxtpx:hr></gpxtpx:TrackPointExtension></extensions>
      </trkpt>
      <trkpt lat="60.004015976054" lon="15.76861617481">
        <ele>139.8</ele>
        <time>2015-01-14T19:59:08Z</time>
        <extensions><gpxtpx:TrackPointExtension><gpxtpx:hr>153</gpxtpx:hr></gpxtpx:TrackPointExtension></extensions>
      </trkpt>
      <trkpt lat="60.004026788705" lon="15.768709968271">
        <ele>140.2</ele>
        <time>2015-01-14T19:59:10Z</time>
        <extensions><gpxtpx:TrackPointExtension><gpxtpx:hr>154</gpxtpx:hr></gpxtpx:TrackPointExtension></extensions>
      </trkpt>
      <trkpt lat="60.004030812017" lon="15.768805102836">
        <ele>140.4</ele>
        <time>2015-01-14T19:59:12Z</time>
        <extensions><gpxtpx:TrackPointExtension><gpxtpx:hr>155</gpxtpx:hr></gpxtpx:TrackPointExtension></extensions>
      </trkpt>
      <trkpt lat="60.004027375438" lon="15.768872493312">
        <ele>141.4</ele>
        <time>2015-01-14T19:59:15Z</time>
        <extensions><gpxtpx:TrackPointExtension><gpxtpx:hr>157</gpxtpx:hr></gpxtpx:TrackPointExtension></extensions>
      </trkpt>
      <trkpt lat="60.004032991311" lon="15.768905853274">
        <ele>141.8</ele>
        <time>2015-01-14T19:59:16Z</time>
        <extensions><gpxtpx:TrackPointExtension><gpxtpx:hr>158</gpxtpx:hr></gpxtpx:TrackPointExtension></extensions>
      </trkpt>
      <trkpt lat="60.004040199745" lon="15.768931501888">
        <ele>142.4</ele>
        <time>2015-01-14T19:59:17Z</time>
        <extensions><gpxtpx:TrackPointExtension><gpxtpx:hr>158</gpxtpx:hr></gpxtpx:TrackPointExtension></extensions>
      </trkpt>
      <trkpt lat="60.004126784772" lon="15.7690863994">
        <ele>143.8</ele>
        <time>2015-01-14T19:59:22Z</time>
        <extensions><gpxtpx:TrackPointExtension><gpxtpx:hr>160</gpxtpx:hr></gpxtpx:TrackPointExtension></extensions>
      </trkpt>
      <trkpt lat="60.004265840493" lon="15.769128895633">
        <ele>143.8</ele>
        <time>2015-01-14T19:59:29Z</time>
        <extensions><gpxtpx:TrackPointExtension><gpxtpx:hr>158</gpxtpx:hr></gpxtpx:TrackPointExtension></extensions>
      </trkpt>
      <trkpt lat="60.004411769372" lon="15.769155801532">
        <ele>143.4</ele>
        <time>2015-01-14T19:59:34Z</time>
        <extensions><gpxtpx:TrackPointExtension><gpxtpx:hr>155</gpxtpx:hr></gpxtpx:TrackPointExtension></extensions>
      </trkpt>
      <trkpt lat="60.004534731845" lon="15.769156304446">
        <ele>142.6</ele>
        <time>2015-01-14T19:59:37Z</time>
        <extensions><gpxtpx:TrackPointExtension><gpxtpx:hr>154</gpxtpx:hr></gpxtpx:TrackPointExtension></extensions>
      </trkpt>
      <trkpt lat="60.004585609978" lon="15.769132164574">
        <ele>142.2</ele>
        <time>2015-01-14T19:59:38Z</time>
        <extensions><gpxtpx:TrackPointExtension><gpxtpx:hr>153</gpxtpx:hr></gpxtpx:TrackPointExtension></extensions>
      </trkpt>
      <trkpt lat="60.004630201686" lon="15.769087740504">
        <ele>141.8</ele>
        <time>2015-01-14T19:59:39Z</time>
        <extensions><gpxtpx:TrackPointExtension><gpxtpx:hr>153</gpxtpx:hr></gpxtpx:TrackPointExtension></extensions>
      </trkpt>
      <trkpt lat="60.004701028741" lon="15.769044741357">
        <ele>141.2</ele>
        <time>2015-01-14T19:59:40Z</time>
        <extensions><gpxtpx:TrackPointExtension><gpxtpx:hr>153</gpxtpx:hr></gpxtpx:TrackPointExtension></extensions>
      </trkpt>
      <trkpt lat="60.004743105879" lon="15.769014566517">
        <ele>140.8</ele>
        <time>2015-01-14T19:59:41Z</time>
        <extensions><gpxtpx:TrackPointExtension><gpxtpx:hr>153</gpxtpx:hr></gpxtpx:TrackPointExtension></extensions>
      </trkpt>
      <trkpt lat="60.004851567665" lon="15.768931920983">
        <ele>139.8</ele>
        <time>2015-01-14T19:59:42Z</time>
        <extensions><gpxtpx:TrackPointExtension><gpxtpx:hr>153</gpxtpx:hr></gpxtpx:TrackPointExtension></extensions>
      </trkpt>
      <trkpt lat="60.005010656127" lon="15.768854556046">
        <ele>138</ele>
        <time>2015-01-14T19:59:44Z</time>
        <extensions><gpxtpx:TrackPointExtension><gpxtpx:hr>153</gpxtpx:hr></gpxtpx:TrackPointExtension></extensions>
      </trkpt>
      <trkpt lat="60.005175863376" lon="15.768896800822">
        <ele>135.6</ele>
        <time>2015-01-14T19:59:46Z</time>
        <extensions><gpxtpx:TrackPointExtension><gpxtpx:hr>154</gpxtpx:hr></gpxtpx:TrackPointExtension></extensions>
      </trkpt>
      <trkpt lat="60.005229675174" lon="15.768941224892">
        <ele>134.6</ele>
        <time>2015-01-14T19:59:47Z</time>
        <extensions><gpxtpx:TrackPointExtension><gpxtpx:hr>155</gpxtpx:hr></gpxtpx:TrackPointExtension></extensions>
      </trkpt>
      <trkpt lat="60.005296730374" lon="15.769030995041">
        <ele>133.8</ele>
        <time>2015-01-14T19:59:48Z</time>
        <extensions><gpxtpx:TrackPointExtension><gpxtpx:hr>156</gpxtpx:hr></gpxtpx:TrackPointExtension></extensions>
      </trkpt>
      <trkpt lat="60.005345596851" lon="15.76908388483">
        <ele>133.4</ele>
        <time>2015-01-14T19:59:49Z</time>
        <extensions><gpxtpx:TrackPointExtension><gpxtpx:hr>157</gpxtpx:hr></gpxtpx:TrackPointExtension></extensions>
      </trkpt>
      <trkpt lat="60.005454729189" lon="15.769202991629">
        <ele>132.8</ele>
        <time>2015-01-14T19:59:51Z</time>
        <extensions><gpxtpx:TrackPointExtension><gpxtpx:hr>158</gpxtpx:hr></gpxtpx:TrackPointExtension></extensions>
      </trkpt>
      <trkpt lat="60.005517928715" lon="15.769252612477">
        <ele>132.6</ele>
        <time>2015-01-14T19:59:52Z</time>
        <extensions><gpxtpx:TrackPointExtension><gpxtpx:hr>159</gpxtpx:hr></gpxtpx:TrackPointExtension></extensions>
      </trkpt>
      <trkpt lat="60.005688248923" lon="15.769265939698">
        <ele>131.6</ele>
        <time>2015-01-14T19:59:55Z</time>
        <extensions><gpxtpx:TrackPointExtension><gpxtpx:hr>160</gpxtpx:hr></gpxtpx:TrackPointExtension></extensions>
      </trkpt>
      <trkpt lat="60.005780785099" lon="15.769087656685">
        <ele>130.6</ele>
        <time>2015-01-14T19:59:57Z</time>
        <extensions><gpxtpx:TrackPointExtension><gpxtpx:hr>161</gpxtpx:hr></gpxtpx:TrackPointExtension></extensions>
      </trkpt>
      <trkpt lat="60.005796962166" lon="15.768962682556">
        <ele>130.4</ele>
        <time>2015-01-14T19:59:58Z</time>
        <extensions><gpxtpx:TrackPointExtension><gpxtpx:hr>160</gpxtpx:hr></gpxtpx:TrackPointExtension></extensions>
      </trkpt>
      <trkpt lat="60.005762512557" lon="15.768798397316">
        <ele>129.6</ele>
        <time>2015-01-14T20:00:00Z</time>
        <extensions><gpxtpx:TrackPointExtension><gpxtpx:hr>161</gpxtpx:hr></gpxtpx:TrackPointExtension></extensions>
      </trkpt>
      <trkpt lat="60.005743485644" lon="15.768753302694">
        <ele>129</ele>
        <time>2015-01-14T20:00:01Z</time>
        <extensions><gpxtpx:TrackPointExtension><gpxtpx:hr>161</gpxtpx:hr></gpxtpx:TrackPointExtension></extensions>
      </trkpt>
      <trkpt lat="60.005660253377" lon="15.768673087911">
        <ele>129.2</ele>
        <time>2015-01-14T20:00:04Z</time>
        <extensions><gpxtpx:TrackPointExtension><gpxtpx:hr>160</gpxtpx:hr></gpxtpx:TrackPointExtension></extensions>
      </trkpt>
      <trkpt lat="60.005592862901" lon="15.768663532545">
        <ele>129.6</ele>
        <time>2015-01-14T20:00:06Z</time>
        <extensions><gpxtpx:TrackPointExtension><gpxtpx:hr>160</gpxtpx:hr></gpxtpx:TrackPointExtension></extensions>
      </trkpt>
      <trkpt lat="60.005470654799" lon="15.768661856165">
        <ele>129.8</ele>
        <time>2015-01-14T20:00:10Z</time>
        <extensions><gpxtpx:TrackPointExtension><gpxtpx:hr>160</gpxtpx:hr></gpxtpx:TrackPointExtension></extensions>
      </trkpt>
      <trkpt lat="60.005278122556" lon="15.768654144817">
        <ele>129.6</ele>
        <time>2015-01-14T20:00:16Z</time>
        <extensions><gpxtpx:TrackPointExtension><gpxtpx:hr>160</gpxtpx:hr></gpxtpx:TrackPointExtension></extensions>
      </trkpt>
      <trkpt lat="60.005176031014" lon="15.768578540079">
        <ele>130</ele>
        <time>2015-01-14T20:00:21Z</time>
        <extensions><gpxtpx:TrackPointExtension><gpxtpx:hr>159</gpxtpx:hr></gpxtpx:TrackPointExtension></extensions>
      </trkpt>
      <trkpt lat="60.005144095975" lon="15.768551717999">
        <ele>130.2</ele>
        <time>2015-01-14T20:00:22Z</time>
        <extensions><gpxtpx:TrackPointExtension><gpxtpx:hr>159</gpxtpx:hr></gpxtpx:TrackPointExtension></extensions>
      </trkpt>
      <trkpt lat="60.005074442386" lon="15.768472257587">
        <ele>130</ele>
        <time>2015-01-14T20:00:25Z</time>
        <extensions><gpxtpx:TrackPointExtension><gpxtpx:hr>158</gpxtpx:hr></gpxtpx:TrackPointExtension></extensions>
      </trkpt>
      <trkpt lat="60.004934464656" lon="15.768311576564">
        <ele>130.4</ele>
        <time>2015-01-14T20:00:30Z</time>
        <extensions><gpxtpx:TrackPointExtension><gpxtpx:hr>157</gpxtpx:hr></gpxtpx:TrackPointExtension></extensions>
      </trkpt>
      <trkpt lat="60.004880736677" lon="15.768242677346">
        <ele>130.4</ele>
        <time>2015-01-14T20:00:33Z</time>
        <extensions><gpxtpx:TrackPointExtension><gpxtpx:hr>156</gpxtpx:hr></gpxtpx:TrackPointExtension></extensions>
      </trkpt>
      <trkpt lat="60.004864224334" lon="15.768220884406">
        <ele>130.4</ele>
        <time>2015-01-14T20:00:34Z</time>
        <extensions><gpxtpx:TrackPointExtension><gpxtpx:hr>156</gpxtpx:hr></gpxtpx:TrackPointExtension></extensions>
      </trkpt>
      <trkpt lat="60.004843940136" lon="15.768198169457">
        <ele>130.6</ele>
        <time>2015-01-14T20:00:36Z</time>
        <extensions><gpxtpx:TrackPointExtension><gpxtpx:hr>154</gpxtpx:hr></gpxtpx:TrackPointExtension></extensions>
      </trkpt>
      <trkpt lat="60.004778812773" lon="15.768122145624">
        <ele>131.2</ele>
        <time>2015-01-14T20:00:40Z</time>
        <extensions><gpxtpx:TrackPointExtension><gpxtpx:hr>153</gpxtpx:hr></gpxtpx:TrackPointExtension></extensions>
      </trkpt>
      <trkpt lat="60.004749895218" lon="15.768100436503">
        <ele>131.2</ele>
        <time>2015-01-14T20:00:41Z</time>
        <extensions><gpxtpx:TrackPointExtension><gpxtpx:hr>153</gpxtpx:hr></gpxtpx:TrackPointExtension></extensions>
      </trkpt>
      <trkpt lat="60.004593740421" lon="15.767982419351">
        <ele>131.6</ele>
        <time>2015-01-14T20:00:48Z</time>
        <extensions><gpxtpx:TrackPointExtension><gpxtpx:hr>154</gpxtpx:hr></gpxtpx:TrackPointExtension></extensions>
      </trkpt>
      <trkpt lat="60.004564571409" lon="15.767979401867">
        <ele>131.8</ele>
        <time>2015-01-14T20:00:49Z</time>
        <extensions><gpxtpx:TrackPointExtension><gpxtpx:hr>155</gpxtpx:hr></gpxtpx:TrackPointExtension></extensions>
      </trkpt>
      <trkpt lat="60.004547891428" lon="15.767955178176">
        <ele>131.8</ele>
        <time>2015-01-14T20:00:50Z</time>
        <extensions><gpxtpx:TrackPointExtension><gpxtpx:hr>155</gpxtpx:hr></gpxtpx:TrackPointExtension></extensions>
      </trkpt>
      <trkpt lat="60.004482931703" lon="15.767898935627">
        <ele>132</ele>
        <time>2015-01-14T20:00:53Z</time>
        <extensions><gpxtpx:TrackPointExtension><gpxtpx:hr>155</gpxtpx:hr></gpxtpx:TrackPointExtension></extensions>
      </trkpt>
      <trkpt lat="60.004471280862" lon="15.767887620062">
        <ele>132.2</ele>
        <time>2015-01-14T20:00:54Z</time>
        <extensions><gpxtpx:TrackPointExtension><gpxtpx:hr>155</gpxtpx:hr></gpxtpx:TrackPointExtension></extensions>
      </trkpt>
      <trkpt lat="60.004400118531" lon="15.767821989785">
        <ele>132.8</ele>
        <time>2015-01-14T20:00:58Z</time>
        <extensions><gpxtpx:TrackPointExtension><gpxtpx:hr>156</gpxtpx:hr></gpxtpx:TrackPointExtension></extensions>
      </trkpt>
      <trkpt lat="60.004337086643" lon="15.767752503834">
        <ele>133.4</ele>
        <time>2015-01-14T20:01:02Z</time>
        <extensions><gpxtpx:TrackPointExtension><gpxtpx:hr>155</gpxtpx:hr></gpxtpx:TrackPointExtension></extensions>
      </trkpt>
      <trkpt lat="60.004322083042" lon="15.767745630676">
        <ele>133.6</ele>
        <time>2015-01-14T20:01:03Z</time>
        <extensions><gpxtpx:TrackPointExtension><gpxtpx:hr>156</gpxtpx:hr></gpxtpx:TrackPointExtension></extensions>
      </trkpt>
      <trkpt lat="60.004218147482" lon="15.767632642664">
        <ele>134.2</ele>
        <time>2015-01-14T20:01:09Z</time>
        <extensions><gpxtpx:TrackPointExtension><gpxtpx:hr>155</gpxtpx:hr></gpxtpx:TrackPointExtension></extensions>
      </trkpt>
      <trkpt lat="60.004170119195" lon="15.767558211392">
        <ele>134.4</ele>
        <time>2015-01-14T20:01:12Z</time>
        <extensions><gpxtpx:TrackPointExtension><gpxtpx:hr>156</gpxtpx:hr></gpxtpx:TrackPointExtension></extensions>
      </trkpt>
      <trkpt lat="60.004124186383" lon="15.767521750127">
        <ele>134.6</ele>
        <time>2015-01-14T20:01:15Z</time>
        <extensions><gpxtpx:TrackPointExtension><gpxtpx:hr>156</gpxtpx:hr></gpxtpx:TrackPointExtension></extensions>
      </trkpt>
      <trkpt lat="60.004106332936" lon="15.767482690473">
        <ele>134.6</ele>
        <time>2015-01-14T20:01:16Z</time>
        <extensions><gpxtpx:TrackPointExtension><gpxtpx:hr>156</gpxtpx:hr></gpxtpx:TrackPointExtension></extensions>
      </trkpt>
      <trkpt lat="60.004064171979" lon="15.767401386043">
        <ele>134.8</ele>
        <time>2015-01-14T20:01:19Z</time>
        <extensions><gpxtpx:TrackPointExtension><gpxtpx:hr>156</gpxtpx:hr></gpxtpx:TrackPointExtension></extensions>
      </trkpt>
      <trkpt lat="60.003984963024" lon="15.767229054179">
        <ele>135.2</ele>
        <time>2015-01-14T20:01:24Z</time>
        <extensions><gpxtpx:TrackPointExtension><gpxtpx:hr>155</gpxtpx:hr></gpxtpx:TrackPointExtension></extensions>
      </trkpt>
      <trkpt lat="60.003906089345" lon="15.767073486115">
        <ele>135.2</ele>
        <time>2015-01-14T20:01:29Z</time>
        <extensions><gpxtpx:TrackPointExtension><gpxtpx:hr>154</gpxtpx:hr></gpxtpx:TrackPointExtension></extensions>
      </trkpt>
      <trkpt lat="60.003866694415" lon="15.766983213052">
        <ele>135.6</ele>
        <time>2015-01-14T20:01:31Z</time>
        <extensions><gpxtpx:TrackPointExtension><gpxtpx:hr>153</gpxtpx:hr></gpxtpx:TrackPointExtension></extensions>
      </trkpt>
      <trkpt lat="60.003770134927" lon="15.76683753563">
        <ele>135.8</ele>
        <time>2015-01-14T20:01:35Z</time>
        <extensions><gpxtpx:TrackPointExtension><gpxtpx:hr>152</gpxtpx:hr></gpxtpx:TrackPointExtension></extensions>
      </trkpt>
      <trkpt lat="60.003623954591" lon="15.766640058066">
        <ele>135.4</ele>
        <time>2015-01-14T20:01:40Z</time>
        <extensions><gpxtpx:TrackPointExtension><gpxtpx:hr>149</gpxtpx:hr></gpxtpx:TrackPointExtension></extensions>
      </trkpt>
      <trkpt lat="60.003598138339" lon="15.766612481615">
        <ele>134.8</ele>
        <time>2015-01-14T20:01:41Z</time>
        <extensions><gpxtpx:TrackPointExtension><gpxtpx:hr>148</gpxtpx:hr></gpxtpx:TrackPointExtension></extensions>
      </trkpt>
      <trkpt lat="60.00357374701" lon="15.766562274034">
        <ele>134.4</ele>
        <time>2015-01-14T20:01:42Z</time>
        <extensions><gpxtpx:TrackPointExtension><gpxtpx:hr>147</gpxtpx:hr></gpxtpx:TrackPointExtension></extensions>
      </trkpt>
      <trkpt lat="60.003461178093" lon="15.766442077588">
        <ele>133.4</ele>
        <time>2015-01-14T20:01:46Z</time>
        <extensions><gpxtpx:TrackPointExtension><gpxtpx:hr>145</gpxtpx:hr></gpxtpx:TrackPointExtension></extensions>
      </trkpt>
      <trkpt lat="60.003419436231" lon="15.766400084269">
        <ele>133.2</ele>
        <time>2015-01-14T20:01:48Z</time>
        <extensions><gpxtpx:TrackPointExtension><gpxtpx:hr>144</gpxtpx:hr></gpxtpx:TrackPointExtension></extensions>
      </trkpt>
      <trkpt lat="60.003249786575" lon="15.76624242073">
        <ele>133</ele>
        <time>2015-01-14T20:01:52Z</time>
        <extensions><gpxtpx:TrackPointExtension><gpxtpx:hr>145</gpxtpx:hr></gpxtpx:TrackPointExtension></extensions>
      </trkpt>
      <trkpt lat="60.003135792735" lon="15.76607981187">
        <ele>133.8</ele>
        <time>2015-01-14T20:01:58Z</time>
        <extensions><gpxtpx:TrackPointExtension><gpxtpx:hr>148</gpxtpx:hr></gpxtpx:TrackPointExtension></extensions>
      </trkpt>
      <trkpt lat="60.003105953171" lon="15.766020719475">
        <ele>134</ele>
        <time>2015-01-14T20:02:00Z</time>
        <extensions><gpxtpx:TrackPointExtension><gpxtpx:hr>148</gpxtpx:hr></gpxtpx:TrackPointExtension></extensions>
      </trkpt>
      <trkpt lat="60.003053063382" lon="15.7658928955">
        <ele>134.4</ele>
        <time>2015-01-14T20:02:04Z</time>
        <extensions><gpxtpx:TrackPointExtension><gpxtpx:hr>148</gpxtpx:hr></gpxtpx:TrackPointExtension></extensions>
      </trkpt>
      <trkpt lat="60.002986427277" lon="15.765593913127">
        <ele>134.6</ele>
        <time>2015-01-14T20:02:08Z</time>
        <extensions><gpxtpx:TrackPointExtension><gpxtpx:hr>147</gpxtpx:hr></gpxtpx:TrackPointExtension></extensions>
      </trkpt>
      <trkpt lat="60.002967484183" lon="15.765328961268">
        <ele>133</ele>
        <time>2015-01-14T20:02:11Z</time>
        <extensions><gpxtpx:TrackPointExtension><gpxtpx:hr>145</gpxtpx:hr></gpxtpx:TrackPointExtension></extensions>
      </trkpt>
      <trkpt lat="60.002942925216" lon="15.765209854469">
        <ele>132</ele>
        <time>2015-01-14T20:02:12Z</time>
        <extensions><gpxtpx:TrackPointExtension><gpxtpx:hr>145</gpxtpx:hr></gpxtpx:TrackPointExtension></extensions>
      </trkpt>
      <trkpt lat="60.002927334882" lon="15.765130058781">
        <ele>131.6</ele>
        <time>2015-01-14T20:02:13Z</time>
        <extensions><gpxtpx:TrackPointExtension><gpxtpx:hr>144</gpxtpx:hr></gpxtpx:TrackPointExtension></extensions>
      </trkpt>
      <trkpt lat="60.00290068044" lon="15.765069541463">
        <ele>130.8</ele>
        <time>2015-01-14T20:02:14Z</time>
        <extensions><gpxtpx:TrackPointExtension><gpxtpx:hr>144</gpxtpx:hr></gpxtpx:TrackPointExtension></extensions>
      </trkpt>
      <trkpt lat="60.002793895034" lon="15.764748430874">
        <ele>132</ele>
        <time>2015-01-14T20:02:20Z</time>
        <extensions><gpxtpx:TrackPointExtension><gpxtpx:hr>145</gpxtpx:hr></gpxtpx:TrackPointExtension></extensions>
      </trkpt>
      <trkpt lat="60.002738323037" lon="15.764589174774">
        <ele>132.8</ele>
        <time>2015-01-14T20:02:23Z</time>
        <extensions><gpxtpx:TrackPointExtension><gpxtpx:hr>145</gpxtpx:hr></gpxtpx:TrackPointExtension></extensions>
      </trkpt>
      <trkpt lat="60.002694150424" lon="15.764475013296">
        <ele>133</ele>
        <time>2015-01-14T20:02:25Z</time>
        <extensions><gpxtpx:TrackPointExtension><gpxtpx:hr>145</gpxtpx:hr></gpxtpx:TrackPointExtension></extensions>
      </trkpt>
      <trkpt lat="60.002550819934" lon="15.764293293704">
        <ele>133</ele>
        <time>2015-01-14T20:02:30Z</time>
        <extensions><gpxtpx:TrackPointExtension><gpxtpx:hr>146</gpxtpx:hr></gpxtpx:TrackPointExtension></extensions>
      </trkpt>
      <trkpt lat="60.00248242363" lon="15.76427937975">
        <ele>133</ele>
        <time>2015-01-14T20:02:32Z</time>
        <extensions><gpxtpx:TrackPointExtension><gpxtpx:hr>146</gpxtpx:hr></gpxtpx:TrackPointExtension></extensions>
      </trkpt>
      <trkpt lat="60.002416793353" lon="15.764361187094">
        <ele>133</ele>
        <time>2015-01-14T20:02:35Z</time>
        <extensions><gpxtpx:TrackPointExtension><gpxtpx:hr>147</gpxtpx:hr></gpxtpx:TrackPointExtension></extensions>
      </trkpt>
      <trkpt lat="60.002405729245" lon="15.764415250349">
        <ele>133</ele>
        <time>2015-01-14T20:02:36Z</time>
        <extensions><gpxtpx:TrackPointExtension><gpxtpx:hr>147</gpxtpx:hr></gpxtpx:TrackPointExtension></extensions>
      </trkpt>
      <trkpt lat="60.00237429712" lon="15.764574757906">
        <ele>133.2</ele>
        <time>2015-01-14T20:02:39Z</time>
        <extensions><gpxtpx:TrackPointExtension><gpxtpx:hr>148</gpxtpx:hr></gpxtpx:TrackPointExtension></extensions>
      </trkpt>
      <trkpt lat="60.002317048743" lon="15.764850857692">
        <ele>133.4</ele>
        <time>2015-01-14T20:02:45Z</time>
        <extensions><gpxtpx:TrackPointExtension><gpxtpx:hr>150</gpxtpx:hr></gpxtpx:TrackPointExtension></extensions>
      </trkpt>
      <trkpt lat="60.002215208658" lon="15.764970635043">
        <ele>133.8</ele>
        <time>2015-01-14T20:02:50Z</time>
        <extensions><gpxtpx:TrackPointExtension><gpxtpx:hr>153</gpxtpx:hr></gpxtpx:TrackPointExtension></extensions>
      </trkpt>
      <trkpt lat="60.002116721333" lon="15.765102733787">
        <ele>134.8</ele>
        <time>2015-01-14T20:02:55Z</time>
        <extensions><gpxtpx:TrackPointExtension><gpxtpx:hr>156</gpxtpx:hr></gpxtpx:TrackPointExtension></extensions>
      </trkpt>
      <trkpt lat="60.002060478784" lon="15.765144727106">
        <ele>135.4</ele>
        <time>2015-01-14T20:02:58Z</time>
        <extensions><gpxtpx:TrackPointExtension><gpxtpx:hr>157</gpxtpx:hr></gpxtpx:TrackPointExtension></extensions>
      </trkpt>
      <trkpt lat="60.0020239337" lon="15.765164173114">
        <ele>135.8</ele>
        <time>2015-01-14T20:03:00Z</time>
        <extensions><gpxtpx:TrackPointExtension><gpxtpx:hr>158</gpxtpx:hr></gpxtpx:TrackPointExtension></extensions>
      </trkpt>
      <trkpt lat="60.002012701954" lon="15.765173896118">
        <ele>136</ele>
        <time>2015-01-14T20:03:01Z</time>
        <extensions><gpxtpx:TrackPointExtension><gpxtpx:hr>159</gpxtpx:hr></gpxtpx:TrackPointExtension></extensions>
      </trkpt>
      <trkpt lat="60.001996441068" lon="15.765167609693">
        <ele>136.2</ele>
        <time>2015-01-14T20:03:02Z</time>
        <extensions><gpxtpx:TrackPointExtension><gpxtpx:hr>160</gpxtpx:hr></gpxtpx:TrackPointExtension></extensions>
      </trkpt>
      <trkpt lat="60.001976240689" lon="15.765178087068">
        <ele>136.6</ele>
        <time>2015-01-14T20:03:04Z</time>
        <extensions><gpxtpx:TrackPointExtension><gpxtpx:hr>161</gpxtpx:hr></gpxtpx:TrackPointExtension></extensions>
      </trkpt>
      <trkpt lat="60.001948831876" lon="15.765177165059">
        <ele>137</ele>
        <time>2015-01-14T20:03:07Z</time>
        <extensions><gpxtpx:TrackPointExtension><gpxtpx:hr>163</gpxtpx:hr></gpxtpx:TrackPointExtension></extensions>
      </trkpt>
      <trkpt lat="60.001937935406" lon="15.76516953753">
        <ele>137</ele>
        <time>2015-01-14T20:03:08Z</time>
        <extensions><gpxtpx:TrackPointExtension><gpxtpx:hr>163</gpxtpx:hr></gpxtpx:TrackPointExtension></extensions>
      </trkpt>
      <trkpt lat="60.001870209654" lon="15.765174901946">
        <ele>138</ele>
        <time>2015-01-14T20:03:13Z</time>
        <extensions><gpxtpx:TrackPointExtension><gpxtpx:hr>166</gpxtpx:hr></gpxtpx:TrackPointExtension></extensions>
      </trkpt>
      <trkpt lat="60.001842381746" lon="15.765150594436">
        <ele>139</ele>
        <time>2015-01-14T20:03:16Z</time>
        <extensions><gpxtpx:TrackPointExtension><gpxtpx:hr>166</gpxtpx:hr></gpxtpx:TrackPointExtension></extensions>
      </trkpt>
      <trkpt lat="60.001832155828" lon="15.76514942097">
        <ele>139.2</ele>
        <time>2015-01-14T20:03:17Z</time>
        <extensions><gpxtpx:TrackPointExtension><gpxtpx:hr>167</gpxtpx:hr></gpxtpx:TrackPointExtension></extensions>
      </trkpt>
      <trkpt lat="60.001835424769" lon="15.765154785386">
        <ele>139.6</ele>
        <time>2015-01-14T20:03:18Z</time>
        <extensions><gpxtpx:TrackPointExtension><gpxtpx:hr>167</gpxtpx:hr></gpxtpx:TrackPointExtension></extensions>
      </trkpt>
      <trkpt lat="60.001794604916" lon="15.765120419596">
        <ele>140.4</ele>
        <time>2015-01-14T20:03:22Z</time>
        <extensions><gpxtpx:TrackPointExtension><gpxtpx:hr>168</gpxtpx:hr></gpxtpx:TrackPointExtension></extensions>
      </trkpt>
      <trkpt lat="60.001780355686" lon="15.765101727959">
        <ele>140.6</ele>
        <time>2015-01-14T20:03:23Z</time>
        <extensions><gpxtpx:TrackPointExtension><gpxtpx:hr>168</gpxtpx:hr></gpxtpx:TrackPointExtension></extensions>
      </trkpt>
      <trkpt lat="60.00176241842" lon="15.765085467073">
        <ele>141</ele>
        <time>2015-01-14T20:03:26Z</time>
        <extensions><gpxtpx:TrackPointExtension><gpxtpx:hr>169</gpxtpx:hr></gpxtpx:TrackPointExtension></extensions>
      </trkpt>
      <trkpt lat="60.001727046802" lon="15.76504297084">
        <ele>141.4</ele>
        <time>2015-01-14T20:03:32Z</time>
        <extensions><gpxtpx:TrackPointExtension><gpxtpx:hr>167</gpxtpx:hr></gpxtpx:TrackPointExtension></extensions>
      </trkpt>
      <trkpt lat="60.001704499491" lon="15.765024949755">
        <ele>141.8</ele>
        <time>2015-01-14T20:03:35Z</time>
        <extensions><gpxtpx:TrackPointExtension><gpxtpx:hr>167</gpxtpx:hr></gpxtpx:TrackPointExtension></extensions>
      </trkpt>
      <trkpt lat="60.001663931095" lon="15.764977675839">
        <ele>142.8</ele>
        <time>2015-01-14T20:03:40Z</time>
        <extensions><gpxtpx:TrackPointExtension><gpxtpx:hr>165</gpxtpx:hr></gpxtpx:TrackPointExtension></extensions>
      </trkpt>
      <trkpt lat="60.001653788996" lon="15.764964935351">
        <ele>142.8</ele>
        <time>2015-01-14T20:03:41Z</time>
        <extensions><gpxtpx:TrackPointExtension><gpxtpx:hr>165</gpxtpx:hr></gpxtpx:TrackPointExtension></extensions>
      </trkpt>
      <trkpt lat="60.001578687172" lon="15.764922690575">
        <ele>143.2</ele>
        <time>2015-01-14T20:03:47Z</time>
        <extensions><gpxtpx:TrackPointExtension><gpxtpx:hr>165</gpxtpx:hr></gpxtpx:TrackPointExtension></extensions>
      </trkpt>
      <trkpt lat="60.001470393024" lon="15.764909447173">
        <ele>143.6</ele>
        <time>2015-01-14T20:03:53Z</time>
        <extensions><gpxtpx:TrackPointExtension><gpxtpx:hr>165</gpxtpx:hr></gpxtpx:TrackPointExtension></extensions>
      </trkpt>
      <trkpt lat="60.00145312631" lon="15.764897377237">
        <ele>143.8</ele>
        <time>2015-01-14T20:03:54Z</time>
        <extensions><gpxtpx:TrackPointExtension><gpxtpx:hr>165</gpxtpx:hr></gpxtpx:TrackPointExtension></extensions>
      </trkpt>
      <trkpt lat="60.001403589281" lon="15.764941466031">
        <ele>144.2</ele>
        <time>2015-01-14T20:03:57Z</time>
        <extensions><gpxtpx:TrackPointExtension><gpxtpx:hr>164</gpxtpx:hr></gpxtpx:TrackPointExtension></extensions>
      </trkpt>
      <trkpt lat="60.001374084993" lon="15.765025704126">
        <ele>144.4</ele>
        <time>2015-01-14T20:03:59Z</time>
        <extensions><gpxtpx:TrackPointExtension><gpxtpx:hr>164</gpxtpx:hr></gpxtpx:TrackPointExtension></extensions>
      </trkpt>
      <trkpt lat="60.001365619274" lon="15.765028134877">
        <ele>144.6</ele>
        <time>2015-01-14T20:04:00Z</time>
        <extensions><gpxtpx:TrackPointExtension><gpxtpx:hr>164</gpxtpx:hr></gpxtpx:TrackPointExtension></extensions>
      </trkpt>
      <trkpt lat="60.001327062534" lon="15.765115138999">
        <ele>144.6</ele>
        <time>2015-01-14T20:04:03Z</time>
        <extensions><gpxtpx:TrackPointExtension><gpxtpx:hr>164</gpxtpx:hr></gpxtpx:TrackPointExtension></extensions>
      </trkpt>
      <trkpt lat="60.001325805249" lon="15.765136093749">
        <ele>144.6</ele>
        <time>2015-01-14T20:04:04Z</time>
        <extensions><gpxtpx:TrackPointExtension><gpxtpx:hr>164</gpxtpx:hr></gpxtpx:TrackPointExtension></extensions>
      </trkpt>
      <trkpt lat="60.001310047277" lon="15.765188396805">
        <ele>144.8</ele>
        <time>2015-01-14T20:04:05Z</time>
        <extensions><gpxtpx:TrackPointExtension><gpxtpx:hr>164</gpxtpx:hr></gpxtpx:TrackPointExtension></extensions>
      </trkpt>
      <trkpt lat="60.001244081724" lon="15.765387634568">
        <ele>145.4</ele>
        <time>2015-01-14T20:04:10Z</time>
        <extensions><gpxtpx:TrackPointExtension><gpxtpx:hr>164</gpxtpx:hr></gpxtpx:TrackPointExtension></extensions>
      </trkpt>
      <trkpt lat="60.001256067841" lon="15.765545717202">
        <ele>145.6</ele>
        <time>2015-01-14T20:04:13Z</time>
        <extensions><gpxtpx:TrackPointExtension><gpxtpx:hr>164</gpxtpx:hr></gpxtpx:TrackPointExtension></extensions>
      </trkpt>
      <trkpt lat="60.001252044529" lon="15.765580502087">
        <ele>145.6</ele>
        <time>2015-01-14T20:04:14Z</time>
        <extensions><gpxtpx:TrackPointExtension><gpxtpx:hr>164</gpxtpx:hr></gpxtpx:TrackPointExtension></extensions>
      </trkpt>
      <trkpt lat="60.00125698985" lon="15.765634062428">
        <ele>145.8</ele>
        <time>2015-01-14T20:04:15Z</time>
        <extensions><gpxtpx:TrackPointExtension><gpxtpx:hr>165</gpxtpx:hr></gpxtpx:TrackPointExtension></extensions>
      </trkpt>
      <trkpt lat="60.001283728111" lon="15.765791893605">
        <ele>146.2</ele>
        <time>2015-01-14T20:04:19Z</time>
        <extensions><gpxtpx:TrackPointExtension><gpxtpx:hr>165</gpxtpx:hr></gpxtpx:TrackPointExtension></extensions>
      </trkpt>
      <trkpt lat="60.001293283477" lon="15.765904881617">
        <ele>146.6</ele>
        <time>2015-01-14T20:04:22Z</time>
        <extensions><gpxtpx:TrackPointExtension><gpxtpx:hr>165</gpxtpx:hr></gpxtpx:TrackPointExtension></extensions>
      </trkpt>
      <trkpt lat="60.001299066988" lon="15.765955843569">
        <ele>146.6</ele>
        <time>2015-01-14T20:04:24Z</time>
        <extensions><gpxtpx:TrackPointExtension><gpxtpx:hr>165</gpxtpx:hr></gpxtpx:TrackPointExtension></extensions>
      </trkpt>
      <trkpt lat="60.001285991224" lon="15.766028179366">
        <ele>147</ele>
        <time>2015-01-14T20:04:27Z</time>
        <extensions><gpxtpx:TrackPointExtension><gpxtpx:hr>166</gpxtpx:hr></gpxtpx:TrackPointExtension></extensions>
      </trkpt>
      <trkpt lat="60.001276435858" lon="15.766031867402">
        <ele>147</ele>
        <time>2015-01-14T20:04:28Z</time>
        <extensions><gpxtpx:TrackPointExtension><gpxtpx:hr>166</gpxtpx:hr></gpxtpx:TrackPointExtension></extensions>
      </trkpt>
      <trkpt lat="60.001273921288" lon="15.766040081664">
        <ele>147.2</ele>
        <time>2015-01-14T20:04:30Z</time>
        <extensions><gpxtpx:TrackPointExtension><gpxtpx:hr>166</gpxtpx:hr></gpxtpx:TrackPointExtension></extensions>
      </trkpt>
      <trkpt lat="60.001263192456" lon="15.766095653661">
        <ele>147.8</ele>
        <time>2015-01-14T20:04:32Z</time>
        <extensions><gpxtpx:TrackPointExtension><gpxtpx:hr>166</gpxtpx:hr></gpxtpx:TrackPointExtension></extensions>
      </trkpt>
      <trkpt lat="60.001260677886" lon="15.766111914547">
        <ele>148</ele>
        <time>2015-01-14T20:04:33Z</time>
        <extensions><gpxtpx:TrackPointExtension><gpxtpx:hr>165</gpxtpx:hr></gpxtpx:TrackPointExtension></extensions>
      </trkpt>
      <trkpt lat="60.001262773361" lon="15.766116105497">
        <ele>148.6</ele>
        <time>2015-01-14T20:04:35Z</time>
        <extensions><gpxtpx:TrackPointExtension><gpxtpx:hr>165</gpxtpx:hr></gpxtpx:TrackPointExtension></extensions>
      </trkpt>
      <trkpt lat="60.001263779189" lon="15.766196655556">
        <ele>149.4</ele>
        <time>2015-01-14T20:04:39Z</time>
        <extensions><gpxtpx:TrackPointExtension><gpxtpx:hr>164</gpxtpx:hr></gpxtpx:TrackPointExtension></extensions>
      </trkpt>
      <trkpt lat="60.001272664003" lon="15.766264800403">
        <ele>149.8</ele>
        <time>2015-01-14T20:04:41Z</time>
        <extensions><gpxtpx:TrackPointExtension><gpxtpx:hr>162</gpxtpx:hr></gpxtpx:TrackPointExtension></extensions>
      </trkpt>
      <trkpt lat="60.001309376725" lon="15.766395306586">
        <ele>150.4</ele>
        <time>2015-01-14T20:04:45Z</time>
        <extensions><gpxtpx:TrackPointExtension><gpxtpx:hr>163</gpxtpx:hr></gpxtpx:TrackPointExtension></extensions>
      </trkpt>
      <trkpt lat="60.001318596815" lon="15.766487926581">
        <ele>151</ele>
        <time>2015-01-14T20:04:47Z</time>
        <extensions><gpxtpx:TrackPointExtension><gpxtpx:hr>162</gpxtpx:hr></gpxtpx:TrackPointExtension></extensions>
      </trkpt>
      <trkpt lat="60.001368804396" lon="15.766683979222">
        <ele>151.2</ele>
        <time>2015-01-14T20:04:51Z</time>
        <extensions><gpxtpx:TrackPointExtension><gpxtpx:hr>163</gpxtpx:hr></gpxtpx:TrackPointExtension></extensions>
      </trkpt>
      <trkpt lat="60.001373246803" lon="15.76675287844">
        <ele>151.6</ele>
        <time>2015-01-14T20:04:53Z</time>
        <extensions><gpxtpx:TrackPointExtension><gpxtpx:hr>163</gpxtpx:hr></gpxtpx:TrackPointExtension></extensions>
      </trkpt>
      <trkpt lat="60.001385400558" lon="15.766838876734">
        <ele>151.4</ele>
        <time>2015-01-14T20:04:55Z</time>
        <extensions><gpxtpx:TrackPointExtension><gpxtpx:hr>163</gpxtpx:hr></gpxtpx:TrackPointExtension></extensions>
      </trkpt>
      <trkpt lat="60.001408450783" lon="15.766963012673">
        <ele>152.2</ele>
        <time>2015-01-14T20:05:00Z</time>
        <extensions><gpxtpx:TrackPointExtension><gpxtpx:hr>164</gpxtpx:hr></gpxtpx:TrackPointExtension></extensions>
      </trkpt>
      <trkpt lat="60.001406774403" lon="15.767182953729">
        <ele>152.2</ele>
        <time>2015-01-14T20:05:05Z</time>
        <extensions><gpxtpx:TrackPointExtension><gpxtpx:hr>163</gpxtpx:hr></gpxtpx:TrackPointExtension></extensions>
      </trkpt>
      <trkpt lat="60.001400068883" lon="15.76738319732">
        <ele>152.6</ele>
        <time>2015-01-14T20:05:09Z</time>
        <extensions><gpxtpx:TrackPointExtension><gpxtpx:hr>163</gpxtpx:hr></gpxtpx:TrackPointExtension></extensions>
      </trkpt>
      <trkpt lat="60.001390932612" lon="15.767477745152">
        <ele>152.6</ele>
        <time>2015-01-14T20:05:11Z</time>
        <extensions><gpxtpx:TrackPointExtension><gpxtpx:hr>163</gpxtpx:hr></gpxtpx:TrackPointExtension></extensions>
      </trkpt>
      <trkpt lat="60.001389842965" lon="15.767790054746">
        <ele>152.8</ele>
        <time>2015-01-14T20:05:17Z</time>
        <extensions><gpxtpx:TrackPointExtension><gpxtpx:hr>162</gpxtpx:hr></gpxtpx:TrackPointExtension></extensions>
      </trkpt>
      <trkpt lat="60.00138188016" lon="15.767825845459">
        <ele>152.8</ele>
        <time>2015-01-14T20:05:18Z</time>
        <extensions><gpxtpx:TrackPointExtension><gpxtpx:hr>162</gpxtpx:hr></gpxtpx:TrackPointExtension></extensions>
      </trkpt>
      <trkpt lat="60.001359668125" lon="15.767998261142">
        <ele>152.8</ele>
        <time>2015-01-14T20:05:21Z</time>
        <extensions><gpxtpx:TrackPointExtension><gpxtpx:hr>163</gpxtpx:hr></gpxtpx:TrackPointExtension></extensions>
      </trkpt>
      <trkpt lat="60.001311639838" lon="15.768242090613">
        <ele>153.4</ele>
        <time>2015-01-14T20:05:26Z</time>
        <extensions><gpxtpx:TrackPointExtension><gpxtpx:hr>162</gpxtpx:hr></gpxtpx:TrackPointExtension></extensions>
      </trkpt>
      <trkpt lat="60.001303174119" lon="15.768286933778">
        <ele>153.4</ele>
        <time>2015-01-14T20:05:27Z</time>
        <extensions><gpxtpx:TrackPointExtension><gpxtpx:hr>162</gpxtpx:hr></gpxtpx:TrackPointExtension></extensions>
      </trkpt>
      <trkpt lat="60.001295630409" lon="15.768311660383">
        <ele>153.6</ele>
        <time>2015-01-14T20:05:28Z</time>
        <extensions><gpxtpx:TrackPointExtension><gpxtpx:hr>162</gpxtpx:hr></gpxtpx:TrackPointExtension></extensions>
      </trkpt>
      <trkpt lat="60.00122010949" lon="15.768564793763">
        <ele>154</ele>
        <time>2015-01-14T20:05:33Z</time>
        <extensions><gpxtpx:TrackPointExtension><gpxtpx:hr>161</gpxtpx:hr></gpxtpx:TrackPointExtension></extensions>
      </trkpt>
      <trkpt lat="60.001157664335" lon="15.768834858581">
        <ele>153.8</ele>
        <time>2015-01-14T20:05:39Z</time>
        <extensions><gpxtpx:TrackPointExtension><gpxtpx:hr>160</gpxtpx:hr></gpxtpx:TrackPointExtension></extensions>
      </trkpt>
      <trkpt lat="60.001087591651" lon="15.769144821243">
        <ele>154.6</ele>
        <time>2015-01-14T20:05:45Z</time>
        <extensions><gpxtpx:TrackPointExtension><gpxtpx:hr>159</gpxtpx:hr></gpxtpx:TrackPointExtension></extensions>
      </trkpt>
      <trkpt lat="60.001066469263" lon="15.769282619679">
        <ele>154.6</ele>
        <time>2015-01-14T20:05:47Z</time>
        <extensions><gpxtpx:TrackPointExtension><gpxtpx:hr>159</gpxtpx:hr></gpxtpx:TrackPointExtension></extensions>
      </trkpt>
      <trkpt lat="60.001039563364" lon="15.769479175234">
        <ele>154.8</ele>
        <time>2015-01-14T20:05:50Z</time>
        <extensions><gpxtpx:TrackPointExtension><gpxtpx:hr>158</gpxtpx:hr></gpxtpx:TrackPointExtension></extensions>
      </trkpt>
      <trkpt lat="60.000984075186" lon="15.769744965283">
        <ele>154.6</ele>
        <time>2015-01-14T20:05:54Z</time>
        <extensions><gpxtpx:TrackPointExtension><gpxtpx:hr>157</gpxtpx:hr></gpxtpx:TrackPointExtension></extensions>
      </trkpt>
      <trkpt lat="60.000957253106" lon="15.7698575342">
        <ele>154.4</ele>
        <time>2015-01-14T20:05:55Z</time>
        <extensions><gpxtpx:TrackPointExtension><gpxtpx:hr>157</gpxtpx:hr></gpxtpx:TrackPointExtension></extensions>
      </trkpt>
      <trkpt lat="60.000864633111" lon="15.7701928102">
        <ele>154</ele>
        <time>2015-01-14T20:06:00Z</time>
        <extensions><gpxtpx:TrackPointExtension><gpxtpx:hr>155</gpxtpx:hr></gpxtpx:TrackPointExtension></extensions>
      </trkpt>
      <trkpt lat="60.000798583739" lon="15.770358520363">
        <ele>153.6</ele>
        <time>2015-01-14T20:06:03Z</time>
        <extensions><gpxtpx:TrackPointExtension><gpxtpx:hr>154</gpxtpx:hr></gpxtpx:TrackPointExtension></extensions>
      </trkpt>
      <trkpt lat="60.000754411126" lon="15.770383582244">
        <ele>153.2</ele>
        <time>2015-01-14T20:06:05Z</time>
        <extensions><gpxtpx:TrackPointExtension><gpxtpx:hr>153</gpxtpx:hr></gpxtpx:TrackPointExtension></extensions>
      </trkpt>
      <trkpt lat="60.000680650406" lon="15.77037050648">
        <ele>153</ele>
        <time>2015-01-14T20:06:10Z</time>
        <extensions><gpxtpx:TrackPointExtension><gpxtpx:hr>154</gpxtpx:hr></gpxtpx:TrackPointExtension></extensions>
      </trkpt>
      <trkpt lat="60.000647122806" lon="15.77036212458">
        <ele>153.2</ele>
        <time>2015-01-14T20:06:12Z</time>
        <extensions><gpxtpx:TrackPointExtension><gpxtpx:hr>155</gpxtpx:hr></gpxtpx:TrackPointExtension></extensions>
      </trkpt>
      <trkpt lat="60.000613176111" lon="15.770305714393">
        <ele>153.4</ele>
        <time>2015-01-14T20:06:15Z</time>
        <extensions><gpxtpx:TrackPointExtension><gpxtpx:hr>156</gpxtpx:hr></gpxtpx:TrackPointExtension></extensions>
      </trkpt>
      <trkpt lat="60.00056967405" lon="15.770220219013">
        <ele>153.8</ele>
        <time>2015-01-14T20:06:19Z</time>
        <extensions><gpxtpx:TrackPointExtension><gpxtpx:hr>159</gpxtpx:hr></gpxtpx:TrackPointExtension></extensions>
      </trkpt>
      <trkpt lat="60.000554754268" lon="15.770171352536">
        <ele>154</ele>
        <time>2015-01-14T20:06:20Z</time>
        <extensions><gpxtpx:TrackPointExtension><gpxtpx:hr>159</gpxtpx:hr></gpxtpx:TrackPointExtension></extensions>
      </trkpt>
      <trkpt lat="60.000505552515" lon="15.770053335384">
        <ele>154.8</ele>
        <time>2015-01-14T20:06:24Z</time>
        <extensions><gpxtpx:TrackPointExtension><gpxtpx:hr>161</gpxtpx:hr></gpxtpx:TrackPointExtension></extensions>
      </trkpt>
      <trkpt lat="60.00046741487" lon="15.769970354574">
        <ele>155.2</ele>
        <time>2015-01-14T20:06:26Z</time>
        <extensions><gpxtpx:TrackPointExtension><gpxtpx:hr>161</gpxtpx:hr></gpxtpx:TrackPointExtension></extensions>
      </trkpt>
      <trkpt lat="60.000447549767" lon="15.769935318232">
        <ele>155.8</ele>
        <time>2015-01-14T20:06:28Z</time>
        <extensions><gpxtpx:TrackPointExtension><gpxtpx:hr>162</gpxtpx:hr></gpxtpx:TrackPointExtension></extensions>
      </trkpt>
      <trkpt lat="60.0003978451" lon="15.769823755143">
        <ele>156.2</ele>
        <time>2015-01-14T20:06:31Z</time>
        <extensions><gpxtpx:TrackPointExtension><gpxtpx:hr>162</gpxtpx:hr></gpxtpx:TrackPointExtension></extensions>
      </trkpt>
      <trkpt lat="60.000291562608" lon="15.7696479867">
        <ele>156.4</ele>
        <time>2015-01-14T20:06:38Z</time>
        <extensions><gpxtpx:TrackPointExtension><gpxtpx:hr>162</gpxtpx:hr></gpxtpx:TrackPointExtension></extensions>
      </trkpt>
      <trkpt lat="60.000245797434" lon="15.769571543772">
        <ele>156.4</ele>
        <time>2015-01-14T20:06:41Z</time>
        <extensions><gpxtpx:TrackPointExtension><gpxtpx:hr>163</gpxtpx:hr></gpxtpx:TrackPointExtension></extensions>
      </trkpt>
      <trkpt lat="60.000218388621" lon="15.769537764715">
        <ele>156.6</ele>
        <time>2015-01-14T20:06:43Z</time>
        <extensions><gpxtpx:TrackPointExtension><gpxtpx:hr>164</gpxtpx:hr></gpxtpx:TrackPointExtension></extensions>
      </trkpt>
      <trkpt lat="60.000178826053" lon="15.769481605985">
        <ele>156.8</ele>
        <time>2015-01-14T20:06:46Z</time>
        <extensions><gpxtpx:TrackPointExtension><gpxtpx:hr>165</gpxtpx:hr></gpxtpx:TrackPointExtension></extensions>
      </trkpt>
      <trkpt lat="60.000140185494" lon="15.769430476395">
        <ele>158</ele>
        <time>2015-01-14T20:06:49Z</time>
        <extensions><gpxtpx:TrackPointExtension><gpxtpx:hr>166</gpxtpx:hr></gpxtpx:TrackPointExtension></extensions>
      </trkpt>
      <trkpt lat="60.000128367015" lon="15.769404324867">
        <ele>158.4</ele>
        <time>2015-01-14T20:06:50Z</time>
        <extensions><gpxtpx:TrackPointExtension><gpxtpx:hr>167</gpxtpx:hr></gpxtpx:TrackPointExtension></extensions>
      </trkpt>
      <trkpt lat="60.000066508593" lon="15.769308938845">
        <ele>159.2</ele>
        <time>2015-01-14T20:06:55Z</time>
        <extensions><gpxtpx:TrackPointExtension><gpxtpx:hr>168</gpxtpx:hr></gpxtpx:TrackPointExtension></extensions>
      </trkpt>
      <trkpt lat="60.000040021789" lon="15.769268202811">
        <ele>159.2</ele>
        <time>2015-01-14T20:06:56Z</time>
        <extensions><gpxtpx:TrackPointExtension><gpxtpx:hr>168</gpxtpx:hr></gpxtpx:TrackPointExtension></extensions>
      </trkpt>
      <trkpt lat="59.99997455915" lon="15.769167871468">
        <ele>159.6</ele>
        <time>2015-01-14T20:07:00Z</time>
        <extensions><gpxtpx:TrackPointExtension><gpxtpx:hr>169</gpxtpx:hr></gpxtpx:TrackPointExtension></extensions>
      </trkpt>
      <trkpt lat="59.999956202789" lon="15.769118418258">
        <ele>160</ele>
        <time>2015-01-14T20:07:02Z</time>
        <extensions><gpxtpx:TrackPointExtension><gpxtpx:hr>168</gpxtpx:hr></gpxtpx:TrackPointExtension></extensions>
      </trkpt>
      <trkpt lat="59.999950754554" lon="15.769092434368">
        <ele>160.2</ele>
        <time>2015-01-14T20:07:03Z</time>
        <extensions><gpxtpx:TrackPointExtension><gpxtpx:hr>169</gpxtpx:hr></gpxtpx:TrackPointExtension></extensions>
      </trkpt>
      <trkpt lat="59.999934493668" lon="15.769069970876">
        <ele>160.4</ele>
        <time>2015-01-14T20:07:04Z</time>
        <extensions><gpxtpx:TrackPointExtension><gpxtpx:hr>168</gpxtpx:hr></gpxtpx:TrackPointExtension></extensions>
      </trkpt>
      <trkpt lat="59.999878837852" lon="15.768977518519">
        <ele>160.6</ele>
        <time>2015-01-14T20:07:07Z</time>
        <extensions><gpxtpx:TrackPointExtension><gpxtpx:hr>168</gpxtpx:hr></gpxtpx:TrackPointExtension></extensions>
      </trkpt>
      <trkpt lat="59.999829803737" lon="15.768936447209">
        <ele>161</ele>
        <time>2015-01-14T20:07:09Z</time>
        <extensions><gpxtpx:TrackPointExtension><gpxtpx:hr>168</gpxtpx:hr></gpxtpx:TrackPointExtension></extensions>
      </trkpt>
      <trkpt lat="59.999802394924" lon="15.768889089474">
        <ele>161.4</ele>
        <time>2015-01-14T20:07:11Z</time>
        <extensions><gpxtpx:TrackPointExtension><gpxtpx:hr>168</gpxtpx:hr></gpxtpx:TrackPointExtension></extensions>
      </trkpt>
      <trkpt lat="59.999726371091" lon="15.768780711507">
        <ele>162.4</ele>
        <time>2015-01-14T20:07:16Z</time>
        <extensions><gpxtpx:TrackPointExtension><gpxtpx:hr>169</gpxtpx:hr></gpxtpx:TrackPointExtension></extensions>
      </trkpt>
      <trkpt lat="59.999655544036" lon="15.768686079856">
        <ele>162.6</ele>
        <time>2015-01-14T20:07:19Z</time>
        <extensions><gpxtpx:TrackPointExtension><gpxtpx:hr>168</gpxtpx:hr></gpxtpx:TrackPointExtension></extensions>
      </trkpt>
      <trkpt lat="59.999632661449" lon="15.768640566139">
        <ele>162.8</ele>
        <time>2015-01-14T20:07:20Z</time>
        <extensions><gpxtpx:TrackPointExtension><gpxtpx:hr>168</gpxtpx:hr></gpxtpx:TrackPointExtension></extensions>
      </trkpt>
      <trkpt lat="59.999619585685" lon="15.768614582249">
        <ele>162.8</ele>
        <time>2015-01-14T20:07:21Z</time>
        <extensions><gpxtpx:TrackPointExtension><gpxtpx:hr>167</gpxtpx:hr></gpxtpx:TrackPointExtension></extensions>
      </trkpt>
      <trkpt lat="59.999596284003" lon="15.768582982486">
        <ele>162.8</ele>
        <time>2015-01-14T20:07:22Z</time>
        <extensions><gpxtpx:TrackPointExtension><gpxtpx:hr>167</gpxtpx:hr></gpxtpx:TrackPointExtension></extensions>
      </trkpt>
      <trkpt lat="59.999566444439" lon="15.768536295303">
        <ele>162.6</ele>
        <time>2015-01-14T20:07:25Z</time>
        <extensions><gpxtpx:TrackPointExtension><gpxtpx:hr>166</gpxtpx:hr></gpxtpx:TrackPointExtension></extensions>
      </trkpt>
      <trkpt lat="59.999527720061" lon="15.768397491039">
        <ele>162.8</ele>
        <time>2015-01-14T20:07:29Z</time>
        <extensions><gpxtpx:TrackPointExtension><gpxtpx:hr>166</gpxtpx:hr></gpxtpx:TrackPointExtension></extensions>
      </trkpt>
      <trkpt lat="59.999515482487" lon="15.768234295446">
        <ele>163.2</ele>
        <time>2015-01-14T20:07:32Z</time>
        <extensions><gpxtpx:TrackPointExtension><gpxtpx:hr>165</gpxtpx:hr></gpxtpx:TrackPointExtension></extensions>
      </trkpt>
      <trkpt lat="59.999528306794" lon="15.768195319611">
        <ele>163.2</ele>
        <time>2015-01-14T20:07:33Z</time>
        <extensions><gpxtpx:TrackPointExtension><gpxtpx:hr>165</gpxtpx:hr></gpxtpx:TrackPointExtension></extensions>
      </trkpt>
      <trkpt lat="59.999523361473" lon="15.768160618545">
        <ele>163.2</ele>
        <time>2015-01-14T20:07:34Z</time>
        <extensions><gpxtpx:TrackPointExtension><gpxtpx:hr>165</gpxtpx:hr></gpxtpx:TrackPointExtension></extensions>
      </trkpt>
      <trkpt lat="59.999558230177" lon="15.767917040531">
        <ele>163.4</ele>
        <time>2015-01-14T20:07:37Z</time>
        <extensions><gpxtpx:TrackPointExtension><gpxtpx:hr>165</gpxtpx:hr></gpxtpx:TrackPointExtension></extensions>
      </trkpt>
      <trkpt lat="59.999619082771" lon="15.767558546668">
        <ele>162.8</ele>
        <time>2015-01-14T20:07:42Z</time>
        <extensions><gpxtpx:TrackPointExtension><gpxtpx:hr>163</gpxtpx:hr></gpxtpx:TrackPointExtension></extensions>
      </trkpt>
      <trkpt lat="59.999657974787" lon="15.767452096538">
        <ele>162.8</ele>
        <time>2015-01-14T20:07:44Z</time>
        <extensions><gpxtpx:TrackPointExtension><gpxtpx:hr>162</gpxtpx:hr></gpxtpx:TrackPointExtension></extensions>
      </trkpt>
      <trkpt lat="59.999723521245" lon="15.767274064982">
        <ele>162.6</ele>
        <time>2015-01-14T20:07:47Z</time>
        <extensions><gpxtpx:TrackPointExtension><gpxtpx:hr>162</gpxtpx:hr></gpxtpx:TrackPointExtension></extensions>
      </trkpt>
      <trkpt lat="59.999735423543" lon="15.767138026745">
        <ele>162.4</ele>
        <time>2015-01-14T20:07:50Z</time>
        <extensions><gpxtpx:TrackPointExtension><gpxtpx:hr>161</gpxtpx:hr></gpxtpx:TrackPointExtension></extensions>
      </trkpt>
      <trkpt lat="59.999796443775" lon="15.766899142595">
        <ele>162.2</ele>
        <time>2015-01-14T20:07:54Z</time>
        <extensions><gpxtpx:TrackPointExtension><gpxtpx:hr>160</gpxtpx:hr></gpxtpx:TrackPointExtension></extensions>
      </trkpt>
      <trkpt lat="59.999879508404" lon="15.76655758017">
        <ele>162.6</ele>
        <time>2015-01-14T20:08:00Z</time>
        <extensions><gpxtpx:TrackPointExtension><gpxtpx:hr>158</gpxtpx:hr></gpxtpx:TrackPointExtension></extensions>
      </trkpt>
      <trkpt lat="59.999943210844" lon="15.766203947809">
        <ele>162.4</ele>
        <time>2015-01-14T20:08:06Z</time>
        <extensions><gpxtpx:TrackPointExtension><gpxtpx:hr>156</gpxtpx:hr></gpxtpx:TrackPointExtension></extensions>
      </trkpt>
      <trkpt lat="60.00001814503" lon="15.765739674368">
        <ele>161.6</ele>
        <time>2015-01-14T20:08:12Z</time>
        <extensions><gpxtpx:TrackPointExtension><gpxtpx:hr>153</gpxtpx:hr></gpxtpx:TrackPointExtension></extensions>
      </trkpt>
      <trkpt lat="60.000027448939" lon="15.765671361883">
        <ele>161.4</ele>
        <time>2015-01-14T20:08:13Z</time>
        <extensions><gpxtpx:TrackPointExtension><gpxtpx:hr>153</gpxtpx:hr></gpxtpx:TrackPointExtension></extensions>
      </trkpt>
      <trkpt lat="60.000092408664" lon="15.76543524376">
        <ele>160.6</ele>
        <time>2015-01-14T20:08:17Z</time>
        <extensions><gpxtpx:TrackPointExtension><gpxtpx:hr>153</gpxtpx:hr></gpxtpx:TrackPointExtension></extensions>
      </trkpt>
      <trkpt lat="60.000103808048" lon="15.765141793441">
        <ele>160.8</ele>
        <time>2015-01-14T20:08:21Z</time>
        <extensions><gpxtpx:TrackPointExtension><gpxtpx:hr>151</gpxtpx:hr></gpxtpx:TrackPointExtension></extensions>
      </trkpt>
      <trkpt lat="60.000064999851" lon="15.764808529097">
        <ele>160.8</ele>
        <time>2015-01-14T20:08:25Z</time>
        <extensions><gpxtpx:TrackPointExtension><gpxtpx:hr>151</gpxtpx:hr></gpxtpx:TrackPointExtension></extensions>
      </trkpt>
      <trkpt lat="59.999963243585" lon="15.764646674608">
        <ele>160.2</ele>
        <time>2015-01-14T20:08:28Z</time>
        <extensions><gpxtpx:TrackPointExtension><gpxtpx:hr>152</gpxtpx:hr></gpxtpx:TrackPointExtension></extensions>
      </trkpt>
      <trkpt lat="59.999877664386" lon="15.7645685553">
        <ele>159.2</ele>
        <time>2015-01-14T20:08:32Z</time>
        <extensions><gpxtpx:TrackPointExtension><gpxtpx:hr>153</gpxtpx:hr></gpxtpx:TrackPointExtension></extensions>
      </trkpt>
      <trkpt lat="59.999863834251" lon="15.764543912514">
        <ele>159.2</ele>
        <time>2015-01-14T20:08:33Z</time>
        <extensions><gpxtpx:TrackPointExtension><gpxtpx:hr>154</gpxtpx:hr></gpxtpx:TrackPointExtension></extensions>
      </trkpt>
      <trkpt lat="59.999776327215" lon="15.76437409522">
        <ele>160</ele>
        <time>2015-01-14T20:08:38Z</time>
        <extensions><gpxtpx:TrackPointExtension><gpxtpx:hr>154</gpxtpx:hr></gpxtpx:TrackPointExtension></extensions>
      </trkpt>
      <trkpt lat="59.999732825154" lon="15.764260520475">
        <ele>160.2</ele>
        <time>2015-01-14T20:08:40Z</time>
        <extensions><gpxtpx:TrackPointExtension><gpxtpx:hr>153</gpxtpx:hr></gpxtpx:TrackPointExtension></extensions>
      </trkpt>
      <trkpt lat="59.999704745789" lon="15.764100174728">
        <ele>160.2</ele>
        <time>2015-01-14T20:08:42Z</time>
        <extensions><gpxtpx:TrackPointExtension><gpxtpx:hr>153</gpxtpx:hr></gpxtpx:TrackPointExtension></extensions>
      </trkpt>
      <trkpt lat="59.999732825154" lon="15.764006381267">
        <ele>160</ele>
        <time>2015-01-14T20:08:44Z</time>
        <extensions><gpxtpx:TrackPointExtension><gpxtpx:hr>154</gpxtpx:hr></gpxtpx:TrackPointExtension></extensions>
      </trkpt>
      <trkpt lat="59.999803149295" lon="15.763923903371">
        <ele>159.4</ele>
        <time>2015-01-14T20:08:46Z</time>
        <extensions><gpxtpx:TrackPointExtension><gpxtpx:hr>154</gpxtpx:hr></gpxtpx:TrackPointExtension></extensions>
      </trkpt>
      <trkpt lat="59.999868779572" lon="15.763875455989">
        <ele>159</ele>
        <time>2015-01-14T20:08:47Z</time>
        <extensions><gpxtpx:TrackPointExtension><gpxtpx:hr>153</gpxtpx:hr></gpxtpx:TrackPointExtension></extensions>
      </trkpt>
      <trkpt lat="60.000015379003" lon="15.763922478448">
        <ele>157.6</ele>
        <time>2015-01-14T20:08:50Z</time>
        <extensions><gpxtpx:TrackPointExtension><gpxtpx:hr>154</gpxtpx:hr></gpxtpx:TrackPointExtension></extensions>
      </trkpt>
      <trkpt lat="60.000064161661" lon="15.763979391549">
        <ele>157</ele>
        <time>2015-01-14T20:08:51Z</time>
        <extensions><gpxtpx:TrackPointExtension><gpxtpx:hr>155</gpxtpx:hr></gpxtpx:TrackPointExtension></extensions>
      </trkpt>
      <trkpt lat="60.000105232971" lon="15.764064216377">
        <ele>156</ele>
        <time>2015-01-14T20:08:52Z</time>
        <extensions><gpxtpx:TrackPointExtension><gpxtpx:hr>154</gpxtpx:hr></gpxtpx:TrackPointExtension></extensions>
      </trkpt>
      <trkpt lat="60.000217298974" lon="15.764259514647">
        <ele>154.6</ele>
        <time>2015-01-14T20:08:55Z</time>
        <extensions><gpxtpx:TrackPointExtension><gpxtpx:hr>155</gpxtpx:hr></gpxtpx:TrackPointExtension></extensions>
      </trkpt>
      <trkpt lat="60.000272870971" lon="15.764300250681">
        <ele>154.4</ele>
        <time>2015-01-14T20:08:56Z</time>
        <extensions><gpxtpx:TrackPointExtension><gpxtpx:hr>154</gpxtpx:hr></gpxtpx:TrackPointExtension></extensions>
      </trkpt>
      <trkpt lat="60.000344284759" lon="15.764335454661">
        <ele>154</ele>
        <time>2015-01-14T20:08:58Z</time>
        <extensions><gpxtpx:TrackPointExtension><gpxtpx:hr>154</gpxtpx:hr></gpxtpx:TrackPointExtension></extensions>
      </trkpt>
      <trkpt lat="60.000465906128" lon="15.764413825426">
        <ele>153.8</ele>
        <time>2015-01-14T20:09:00Z</time>
        <extensions><gpxtpx:TrackPointExtension><gpxtpx:hr>154</gpxtpx:hr></gpxtpx:TrackPointExtension></extensions>
      </trkpt>
      <trkpt lat="60.000514940243" lon="15.764454729098">
        <ele>153.6</ele>
        <time>2015-01-14T20:09:01Z</time>
        <extensions><gpxtpx:TrackPointExtension><gpxtpx:hr>154</gpxtpx:hr></gpxtpx:TrackPointExtension></extensions>
      </trkpt>
      <trkpt lat="60.000580151425" lon="15.764492112372">
        <ele>153.2</ele>
        <time>2015-01-14T20:09:02Z</time>
        <extensions><gpxtpx:TrackPointExtension><gpxtpx:hr>154</gpxtpx:hr></gpxtpx:TrackPointExtension></extensions>
      </trkpt>
      <trkpt lat="60.000637483621" lon="15.764506613059">
        <ele>152.2</ele>
        <time>2015-01-14T20:09:03Z</time>
        <extensions><gpxtpx:TrackPointExtension><gpxtpx:hr>153</gpxtpx:hr></gpxtpx:TrackPointExtension></extensions>
      </trkpt>
      <trkpt lat="60.000849545691" lon="15.764637035423">
        <ele>150.2</ele>
        <time>2015-01-14T20:09:06Z</time>
        <extensions><gpxtpx:TrackPointExtension><gpxtpx:hr>152</gpxtpx:hr></gpxtpx:TrackPointExtension></extensions>
      </trkpt>
      <trkpt lat="60.000927329723" lon="15.764669724833">
        <ele>149.6</ele>
        <time>2015-01-14T20:09:07Z</time>
        <extensions><gpxtpx:TrackPointExtension><gpxtpx:hr>151</gpxtpx:hr></gpxtpx:TrackPointExtension></extensions>
      </trkpt>
      <trkpt lat="60.00102145846" lon="15.764696463094">
        <ele>148.6</ele>
        <time>2015-01-14T20:09:08Z</time>
        <extensions><gpxtpx:TrackPointExtension><gpxtpx:hr>151</gpxtpx:hr></gpxtpx:TrackPointExtension></extensions>
      </trkpt>
      <trkpt lat="60.001180798379" lon="15.764675089249">
        <ele>146.4</ele>
        <time>2015-01-14T20:09:10Z</time>
        <extensions><gpxtpx:TrackPointExtension><gpxtpx:hr>151</gpxtpx:hr></gpxtpx:TrackPointExtension></extensions>
      </trkpt>
      <trkpt lat="60.001291439459" lon="15.764551707681">
        <ele>144</ele>
        <time>2015-01-14T20:09:12Z</time>
        <extensions><gpxtpx:TrackPointExtension><gpxtpx:hr>151</gpxtpx:hr></gpxtpx:TrackPointExtension></extensions>
      </trkpt>
      <trkpt lat="60.001324715602" lon="15.764473085459">
        <ele>143.2</ele>
        <time>2015-01-14T20:09:13Z</time>
        <extensions><gpxtpx:TrackPointExtension><gpxtpx:hr>151</gpxtpx:hr></gpxtpx:TrackPointExtension></extensions>
      </trkpt>
      <trkpt lat="60.001339216289" lon="15.764417010548">
        <ele>142.6</ele>
        <time>2015-01-14T20:09:14Z</time>
        <extensions><gpxtpx:TrackPointExtension><gpxtpx:hr>151</gpxtpx:hr></gpxtpx:TrackPointExtension></extensions>
      </trkpt>
      <trkpt lat="60.001410043344" lon="15.764119956012">
        <ele>143.2</ele>
        <time>2015-01-14T20:09:17Z</time>
        <extensions><gpxtpx:TrackPointExtension><gpxtpx:hr>151</gpxtpx:hr></gpxtpx:TrackPointExtension></extensions>
      </trkpt>
      <trkpt lat="60.001409456611" lon="15.764061534169">
        <ele>143.6</ele>
        <time>2015-01-14T20:09:18Z</time>
        <extensions><gpxtpx:TrackPointExtension><gpxtpx:hr>151</gpxtpx:hr></gpxtpx:TrackPointExtension></extensions>
      </trkpt>
      <trkpt lat="60.001433345026" lon="15.763906301381">
        <ele>144.2</ele>
        <time>2015-01-14T20:09:19Z</time>
        <extensions><gpxtpx:TrackPointExtension><gpxtpx:hr>151</gpxtpx:hr></gpxtpx:TrackPointExtension></extensions>
      </trkpt>
      <trkpt lat="60.001475086888" lon="15.763785518202">
        <ele>144</ele>
        <time>2015-01-14T20:09:20Z</time>
        <extensions><gpxtpx:TrackPointExtension><gpxtpx:hr>151</gpxtpx:hr></gpxtpx:TrackPointExtension></extensions>
      </trkpt>
      <trkpt lat="60.001573322756" lon="15.763531881908">
        <ele>142.4</ele>
        <time>2015-01-14T20:09:22Z</time>
        <extensions><gpxtpx:TrackPointExtension><gpxtpx:hr>150</gpxtpx:hr></gpxtpx:TrackPointExtension></extensions>
      </trkpt>
      <trkpt lat="60.00167859942" lon="15.763332727964">
        <ele>140.6</ele>
        <time>2015-01-14T20:09:24Z</time>
        <extensions><gpxtpx:TrackPointExtension><gpxtpx:hr>149</gpxtpx:hr></gpxtpx:TrackPointExtension></extensions>
      </trkpt>
      <trkpt lat="60.00174816919" lon="15.763255027751">
        <ele>139.4</ele>
        <time>2015-01-14T20:09:25Z</time>
        <extensions><gpxtpx:TrackPointExtension><gpxtpx:hr>149</gpxtpx:hr></gpxtpx:TrackPointExtension></extensions>
      </trkpt>
      <trkpt lat="60.001812542182" lon="15.763258715787">
        <ele>138.4</ele>
        <time>2015-01-14T20:09:26Z</time>
        <extensions><gpxtpx:TrackPointExtension><gpxtpx:hr>149</gpxtpx:hr></gpxtpx:TrackPointExtension></extensions>
      </trkpt>
      <trkpt lat="60.001918908493" lon="15.763273467931">
        <ele>137.4</ele>
        <time>2015-01-14T20:09:27Z</time>
        <extensions><gpxtpx:TrackPointExtension><gpxtpx:hr>149</gpxtpx:hr></gpxtpx:TrackPointExtension></extensions>
      </trkpt>
      <trkpt lat="60.001994932326" lon="15.763322082951">
        <ele>136.6</ele>
        <time>2015-01-14T20:09:28Z</time>
        <extensions><gpxtpx:TrackPointExtension><gpxtpx:hr>149</gpxtpx:hr></gpxtpx:TrackPointExtension></extensions>
      </trkpt>
      <trkpt lat="60.002055030549" lon="15.763356616379">
        <ele>136.4</ele>
        <time>2015-01-14T20:09:29Z</time>
        <extensions><gpxtpx:TrackPointExtension><gpxtpx:hr>149</gpxtpx:hr></gpxtpx:TrackPointExtension></extensions>
      </trkpt>
      <trkpt lat="60.002095431307" lon="15.763411769281">
        <ele>136</ele>
        <time>2015-01-14T20:09:30Z</time>
        <extensions><gpxtpx:TrackPointExtension><gpxtpx:hr>150</gpxtpx:hr></gpxtpx:TrackPointExtension></extensions>
      </trkpt>
      <trkpt lat="60.002253262484" lon="15.763640595151">
        <ele>135.6</ele>
        <time>2015-01-14T20:09:33Z</time>
        <extensions><gpxtpx:TrackPointExtension><gpxtpx:hr>150</gpxtpx:hr></gpxtpx:TrackPointExtension></extensions>
      </trkpt>
      <trkpt lat="60.002296764545" lon="15.763699603727">
        <ele>135.6</ele>
        <time>2015-01-14T20:09:34Z</time>
        <extensions><gpxtpx:TrackPointExtension><gpxtpx:hr>150</gpxtpx:hr></gpxtpx:TrackPointExtension></extensions>
      </trkpt>
      <trkpt lat="60.002316294372" lon="15.763779315596">
        <ele>135.4</ele>
        <time>2015-01-14T20:09:35Z</time>
        <extensions><gpxtpx:TrackPointExtension><gpxtpx:hr>149</gpxtpx:hr></gpxtpx:TrackPointExtension></extensions>
      </trkpt>
      <trkpt lat="60.002463480536" lon="15.764062204721">
        <ele>135</ele>
        <time>2015-01-14T20:09:39Z</time>
        <extensions><gpxtpx:TrackPointExtension><gpxtpx:hr>150</gpxtpx:hr></gpxtpx:TrackPointExtension></extensions>
      </trkpt>
      <trkpt lat="60.00249080553" lon="15.764093050113">
        <ele>135</ele>
        <time>2015-01-14T20:09:40Z</time>
        <extensions><gpxtpx:TrackPointExtension><gpxtpx:hr>149</gpxtpx:hr></gpxtpx:TrackPointExtension></extensions>
      </trkpt>
      <trkpt lat="60.002595244004" lon="15.764286588184">
        <ele>134.6</ele>
        <time>2015-01-14T20:09:43Z</time>
        <extensions><gpxtpx:TrackPointExtension><gpxtpx:hr>147</gpxtpx:hr></gpxtpx:TrackPointExtension></extensions>
      </trkpt>
      <trkpt lat="60.002631286174" lon="15.764387925355">
        <ele>134.2</ele>
        <time>2015-01-14T20:09:44Z</time>
        <extensions><gpxtpx:TrackPointExtension><gpxtpx:hr>145</gpxtpx:hr></gpxtpx:TrackPointExtension></extensions>
      </trkpt>
      <trkpt lat="60.002683002497" lon="15.764602250538">
        <ele>133</ele>
        <time>2015-01-14T20:09:47Z</time>
        <extensions><gpxtpx:TrackPointExtension><gpxtpx:hr>144</gpxtpx:hr></gpxtpx:TrackPointExtension></extensions>
      </trkpt>
      <trkpt lat="60.002704460161" lon="15.764741641535">
        <ele>132.6</ele>
        <time>2015-01-14T20:09:48Z</time>
        <extensions><gpxtpx:TrackPointExtension><gpxtpx:hr>144</gpxtpx:hr></gpxtpx:TrackPointExtension></extensions>
      </trkpt>
      <trkpt lat="60.002745531471" lon="15.764955966718">
        <ele>132.8</ele>
        <time>2015-01-14T20:09:51Z</time>
        <extensions><gpxtpx:TrackPointExtension><gpxtpx:hr>144</gpxtpx:hr></gpxtpx:TrackPointExtension></extensions>
      </trkpt>
      <trkpt lat="60.002799510907" lon="15.765268527769">
        <ele>133</ele>
        <time>2015-01-14T20:09:54Z</time>
        <extensions><gpxtpx:TrackPointExtension><gpxtpx:hr>145</gpxtpx:hr></gpxtpx:TrackPointExtension></extensions>
      </trkpt>
      <trkpt lat="60.002809736825" lon="15.765340612109">
        <ele>133</ele>
        <time>2015-01-14T20:09:55Z</time>
        <extensions><gpxtpx:TrackPointExtension><gpxtpx:hr>145</gpxtpx:hr></gpxtpx:TrackPointExtension></extensions>
      </trkpt>
      <trkpt lat="60.002876540568" lon="15.765740009644">
        <ele>131.8</ele>
        <time>2015-01-14T20:10:00Z</time>
        <extensions><gpxtpx:TrackPointExtension><gpxtpx:hr>146</gpxtpx:hr></gpxtpx:TrackPointExtension></extensions>
      </trkpt>
      <trkpt lat="60.002898920241" lon="15.765839670435">
        <ele>131.8</ele>
        <time>2015-01-14T20:10:03Z</time>
        <extensions><gpxtpx:TrackPointExtension><gpxtpx:hr>149</gpxtpx:hr></gpxtpx:TrackPointExtension></extensions>
      </trkpt>
      <trkpt lat="60.002914007661" lon="15.765885184152">
        <ele>132.4</ele>
        <time>2015-01-14T20:10:04Z</time>
        <extensions><gpxtpx:TrackPointExtension><gpxtpx:hr>149</gpxtpx:hr></gpxtpx:TrackPointExtension></extensions>
      </trkpt>
      <trkpt lat="60.00293504623" lon="15.765958441958">
        <ele>133</ele>
        <time>2015-01-14T20:10:06Z</time>
        <extensions><gpxtpx:TrackPointExtension><gpxtpx:hr>151</gpxtpx:hr></gpxtpx:TrackPointExtension></extensions>
      </trkpt>
      <trkpt lat="60.002976871911" lon="15.766052905971">
        <ele>133.6</ele>
        <time>2015-01-14T20:10:09Z</time>
        <extensions><gpxtpx:TrackPointExtension><gpxtpx:hr>153</gpxtpx:hr></gpxtpx:TrackPointExtension></extensions>
      </trkpt>
      <trkpt lat="60.003132942889" lon="15.766254323028">
        <ele>134</ele>
        <time>2015-01-14T20:10:14Z</time>
        <extensions><gpxtpx:TrackPointExtension><gpxtpx:hr>153</gpxtpx:hr></gpxtpx:TrackPointExtension></extensions>
      </trkpt>
      <trkpt lat="60.003300580889" lon="15.766409974911">
        <ele>133.6</ele>
        <time>2015-01-14T20:10:19Z</time>
        <extensions><gpxtpx:TrackPointExtension><gpxtpx:hr>151</gpxtpx:hr></gpxtpx:TrackPointExtension></extensions>
      </trkpt>
      <trkpt lat="60.003357158714" lon="15.766484154726">
        <ele>132.8</ele>
        <time>2015-01-14T20:10:21Z</time>
        <extensions><gpxtpx:TrackPointExtension><gpxtpx:hr>151</gpxtpx:hr></gpxtpx:TrackPointExtension></extensions>
      </trkpt>
      <trkpt lat="60.003414323272" lon="15.766549952641">
        <ele>132.8</ele>
        <time>2015-01-14T20:10:23Z</time>
        <extensions><gpxtpx:TrackPointExtension><gpxtpx:hr>151</gpxtpx:hr></gpxtpx:TrackPointExtension></extensions>
      </trkpt>
      <trkpt lat="60.003555725925" lon="15.766703592868">
        <ele>133.6</ele>
        <time>2015-01-14T20:10:29Z</time>
        <extensions><gpxtpx:TrackPointExtension><gpxtpx:hr>154</gpxtpx:hr></gpxtpx:TrackPointExtension></extensions>
      </trkpt>
      <trkpt lat="60.003671228507" lon="15.76685849038">
        <ele>133.8</ele>
        <time>2015-01-14T20:10:35Z</time>
        <extensions><gpxtpx:TrackPointExtension><gpxtpx:hr>155</gpxtpx:hr></gpxtpx:TrackPointExtension></extensions>
      </trkpt>
      <trkpt lat="60.003705007564" lon="15.766925880856">
        <ele>134</ele>
        <time>2015-01-14T20:10:37Z</time>
        <extensions><gpxtpx:TrackPointExtension><gpxtpx:hr>155</gpxtpx:hr></gpxtpx:TrackPointExtension></extensions>
      </trkpt>
      <trkpt lat="60.003734511852" lon="15.766966700709">
        <ele>134</ele>
        <time>2015-01-14T20:10:38Z</time>
        <extensions><gpxtpx:TrackPointExtension><gpxtpx:hr>156</gpxtpx:hr></gpxtpx:TrackPointExtension></extensions>
      </trkpt>
      <trkpt lat="60.00378161813" lon="15.767033336814">
        <ele>134.4</ele>
        <time>2015-01-14T20:10:40Z</time>
        <extensions><gpxtpx:TrackPointExtension><gpxtpx:hr>156</gpxtpx:hr></gpxtpx:TrackPointExtension></extensions>
      </trkpt>
      <trkpt lat="60.003836771032" lon="15.767085304594">
        <ele>134.6</ele>
        <time>2015-01-14T20:10:42Z</time>
        <extensions><gpxtpx:TrackPointExtension><gpxtpx:hr>157</gpxtpx:hr></gpxtpx:TrackPointExtension></extensions>
      </trkpt>
      <trkpt lat="60.003883206758" lon="15.767143894075">
        <ele>134.8</ele>
        <time>2015-01-14T20:10:44Z</time>
        <extensions><gpxtpx:TrackPointExtension><gpxtpx:hr>157</gpxtpx:hr></gpxtpx:TrackPointExtension></extensions>
      </trkpt>
      <trkpt lat="60.004010444" lon="15.767349502082">
        <ele>134.8</ele>
        <time>2015-01-14T20:10:49Z</time>
        <extensions><gpxtpx:TrackPointExtension><gpxtpx:hr>158</gpxtpx:hr></gpxtpx:TrackPointExtension></extensions>
      </trkpt>
      <trkpt lat="60.004139022346" lon="15.767546057637">
        <ele>134.8</ele>
        <time>2015-01-14T20:10:53Z</time>
        <extensions><gpxtpx:TrackPointExtension><gpxtpx:hr>157</gpxtpx:hr></gpxtpx:TrackPointExtension></extensions>
      </trkpt>
      <trkpt lat="60.004190319574" lon="15.76759777396">
        <ele>134.4</ele>
        <time>2015-01-14T20:10:54Z</time>
        <extensions><gpxtpx:TrackPointExtension><gpxtpx:hr>156</gpxtpx:hr></gpxtpx:TrackPointExtension></extensions>
      </trkpt>
      <trkpt lat="60.004389892613" lon="15.767780583199">
        <ele>133.6</ele>
        <time>2015-01-14T20:10:59Z</time>
        <extensions><gpxtpx:TrackPointExtension><gpxtpx:hr>153</gpxtpx:hr></gpxtpx:TrackPointExtension></extensions>
      </trkpt>
      <trkpt lat="60.004450409931" lon="15.767832215703">
        <ele>133.4</ele>
        <time>2015-01-14T20:11:00Z</time>
        <extensions><gpxtpx:TrackPointExtension><gpxtpx:hr>153</gpxtpx:hr></gpxtpx:TrackPointExtension></extensions>
      </trkpt>
      <trkpt lat="60.004541102089" lon="15.767898265075">
        <ele>132.8</ele>
        <time>2015-01-14T20:11:02Z</time>
        <extensions><gpxtpx:TrackPointExtension><gpxtpx:hr>151</gpxtpx:hr></gpxtpx:TrackPointExtension></extensions>
      </trkpt>
      <trkpt lat="60.004667668779" lon="15.76799759059">
        <ele>131.8</ele>
        <time>2015-01-14T20:11:05Z</time>
        <extensions><gpxtpx:TrackPointExtension><gpxtpx:hr>149</gpxtpx:hr></gpxtpx:TrackPointExtension></extensions>
      </trkpt>
      <trkpt lat="60.004775627651" lon="15.768088031291">
        <ele>130.6</ele>
        <time>2015-01-14T20:11:07Z</time>
        <extensions><gpxtpx:TrackPointExtension><gpxtpx:hr>148</gpxtpx:hr></gpxtpx:TrackPointExtension></extensions>
      </trkpt>
      <trkpt lat="60.004873612062" lon="15.768174113404">
        <ele>129.6</ele>
        <time>2015-01-14T20:11:09Z</time>
        <extensions><gpxtpx:TrackPointExtension><gpxtpx:hr>148</gpxtpx:hr></gpxtpx:TrackPointExtension></extensions>
      </trkpt>
      <trkpt lat="60.00501459562" lon="15.768316438066">
        <ele>128.4</ele>
        <time>2015-01-14T20:11:12Z</time>
        <extensions><gpxtpx:TrackPointExtension><gpxtpx:hr>147</gpxtpx:hr></gpxtpx:TrackPointExtension></extensions>
      </trkpt>
      <trkpt lat="60.005178461765" lon="15.768484998075">
        <ele>128.4</ele>
        <time>2015-01-14T20:11:17Z</time>
        <extensions><gpxtpx:TrackPointExtension><gpxtpx:hr>148</gpxtpx:hr></gpxtpx:TrackPointExtension></extensions>
      </trkpt>
      <trkpt lat="60.00523252502" lon="15.768542917004">
        <ele>128.6</ele>
        <time>2015-01-14T20:11:18Z</time>
        <extensions><gpxtpx:TrackPointExtension><gpxtpx:hr>148</gpxtpx:hr></gpxtpx:TrackPointExtension></extensions>
      </trkpt>
      <trkpt lat="60.005324306825" lon="15.768606032711">
        <ele>129.2</ele>
        <time>2015-01-14T20:11:21Z</time>
        <extensions><gpxtpx:TrackPointExtension><gpxtpx:hr>149</gpxtpx:hr></gpxtpx:TrackPointExtension></extensions>
      </trkpt>
      <trkpt lat="60.005446682565" lon="15.768664957468">
        <ele>129.4</ele>
        <time>2015-01-14T20:11:24Z</time>
        <extensions><gpxtpx:TrackPointExtension><gpxtpx:hr>149</gpxtpx:hr></gpxtpx:TrackPointExtension></extensions>
      </trkpt>
      <trkpt lat="60.005547349184" lon="15.768675770119">
        <ele>128.8</ele>
        <time>2015-01-14T20:11:27Z</time>
        <extensions><gpxtpx:TrackPointExtension><gpxtpx:hr>149</gpxtpx:hr></gpxtpx:TrackPointExtension></extensions>
      </trkpt>
      <trkpt lat="60.005723536722" lon="15.768657078482">
        <ele>128.8</ele>
        <time>2015-01-14T20:11:31Z</time>
        <extensions><gpxtpx:TrackPointExtension><gpxtpx:hr>150</gpxtpx:hr></gpxtpx:TrackPointExtension></extensions>
      </trkpt>
      <trkpt lat="60.005813893604" lon="15.768680966897">
        <ele>128.6</ele>
        <time>2015-01-14T20:11:33Z</time>
        <extensions><gpxtpx:TrackPointExtension><gpxtpx:hr>151</gpxtpx:hr></gpxtpx:TrackPointExtension></extensions>
      </trkpt>
      <trkpt lat="60.005837279105" lon="15.76873687417">
        <ele>128.6</ele>
        <time>2015-01-14T20:11:34Z</time>
        <extensions><gpxtpx:TrackPointExtension><gpxtpx:hr>150</gpxtpx:hr></gpxtpx:TrackPointExtension></extensions>
      </trkpt>
      <trkpt lat="60.005881703175" lon="15.768832846925">
        <ele>128.4</ele>
        <time>2015-01-14T20:11:36Z</time>
        <extensions><gpxtpx:TrackPointExtension><gpxtpx:hr>151</gpxtpx:hr></gpxtpx:TrackPointExtension></extensions>
      </trkpt>
      <trkpt lat="60.005938281" lon="15.769096290042">
        <ele>128.6</ele>
        <time>2015-01-14T20:11:40Z</time>
        <extensions><gpxtpx:TrackPointExtension><gpxtpx:hr>152</gpxtpx:hr></gpxtpx:TrackPointExtension></extensions>
      </trkpt>
      <trkpt lat="60.005967030917" lon="15.769400385374">
        <ele>128.6</ele>
        <time>2015-01-14T20:11:45Z</time>
        <extensions><gpxtpx:TrackPointExtension><gpxtpx:hr>153</gpxtpx:hr></gpxtpx:TrackPointExtension></extensions>
      </trkpt>
      <trkpt lat="60.005935179697" lon="15.769781929462">
        <ele>128.6</ele>
        <time>2015-01-14T20:11:50Z</time>
        <extensions><gpxtpx:TrackPointExtension><gpxtpx:hr>155</gpxtpx:hr></gpxtpx:TrackPointExtension></extensions>
      </trkpt>
      <trkpt lat="60.005888157238" lon="15.769901790632">
        <ele>128.6</ele>
        <time>2015-01-14T20:11:53Z</time>
        <extensions><gpxtpx:TrackPointExtension><gpxtpx:hr>156</gpxtpx:hr></gpxtpx:TrackPointExtension></extensions>
      </trkpt>
      <trkpt lat="60.005864352642" lon="15.769944370684">
        <ele>129</ele>
        <time>2015-01-14T20:11:54Z</time>
        <extensions><gpxtpx:TrackPointExtension><gpxtpx:hr>157</gpxtpx:hr></gpxtpx:TrackPointExtension></extensions>
      </trkpt>
      <trkpt lat="60.005784305497" lon="15.770051323728">
        <ele>129.8</ele>
        <time>2015-01-14T20:11:59Z</time>
        <extensions><gpxtpx:TrackPointExtension><gpxtpx:hr>160</gpxtpx:hr></gpxtpx:TrackPointExtension></extensions>
      </trkpt>
      <trkpt lat="60.00572286617" lon="15.770063645121">
        <ele>130.2</ele>
        <time>2015-01-14T20:12:03Z</time>
        <extensions><gpxtpx:TrackPointExtension><gpxtpx:hr>163</gpxtpx:hr></gpxtpx:TrackPointExtension></extensions>
      </trkpt>
      <trkpt lat="60.00567928029" lon="15.770059118895">
        <ele>130.4</ele>
        <time>2015-01-14T20:12:05Z</time>
        <extensions><gpxtpx:TrackPointExtension><gpxtpx:hr>164</gpxtpx:hr></gpxtpx:TrackPointExtension></extensions>
      </trkpt>
      <trkpt lat="60.005555311989" lon="15.770017041757">
        <ele>131.4</ele>
        <time>2015-01-14T20:12:10Z</time>
        <extensions><gpxtpx:TrackPointExtension><gpxtpx:hr>164</gpxtpx:hr></gpxtpx:TrackPointExtension></extensions>
      </trkpt>
      <trkpt lat="60.005496638689" lon="15.770003127803">
        <ele>131.6</ele>
        <time>2015-01-14T20:12:12Z</time>
        <extensions><gpxtpx:TrackPointExtension><gpxtpx:hr>165</gpxtpx:hr></gpxtpx:TrackPointExtension></extensions>
      </trkpt>
      <trkpt lat="60.005416172449" lon="15.76998913003">
        <ele>131.6</ele>
        <time>2015-01-14T20:12:15Z</time>
        <extensions><gpxtpx:TrackPointExtension><gpxtpx:hr>165</gpxtpx:hr></gpxtpx:TrackPointExtension></extensions>
      </trkpt>
      <trkpt lat="60.005293629071" lon="15.769985358175">
        <ele>131.6</ele>
        <time>2015-01-14T20:12:19Z</time>
        <extensions><gpxtpx:TrackPointExtension><gpxtpx:hr>165</gpxtpx:hr></gpxtpx:TrackPointExtension></extensions>
      </trkpt>
      <trkpt lat="60.005266471715" lon="15.770009581866">
        <ele>131.8</ele>
        <time>2015-01-14T20:12:20Z</time>
        <extensions><gpxtpx:TrackPointExtension><gpxtpx:hr>165</gpxtpx:hr></gpxtpx:TrackPointExtension></extensions>
      </trkpt>
      <trkpt lat="60.005219784532" lon="15.770005139459">
        <ele>132</ele>
        <time>2015-01-14T20:12:22Z</time>
        <extensions><gpxtpx:TrackPointExtension><gpxtpx:hr>166</gpxtpx:hr></gpxtpx:TrackPointExtension></extensions>
      </trkpt>
      <trkpt lat="60.005115262239" lon="15.76999583555">
        <ele>132.6</ele>
        <time>2015-01-14T20:12:27Z</time>
        <extensions><gpxtpx:TrackPointExtension><gpxtpx:hr>166</gpxtpx:hr></gpxtpx:TrackPointExtension></extensions>
      </trkpt>
      <trkpt lat="60.005066144305" lon="15.770013353721">
        <ele>132.8</ele>
        <time>2015-01-14T20:12:29Z</time>
        <extensions><gpxtpx:TrackPointExtension><gpxtpx:hr>166</gpxtpx:hr></gpxtpx:TrackPointExtension></extensions>
      </trkpt>
      <trkpt lat="60.004978134355" lon="15.770045791674">
        <ele>133.2</ele>
        <time>2015-01-14T20:12:33Z</time>
        <extensions><gpxtpx:TrackPointExtension><gpxtpx:hr>166</gpxtpx:hr></gpxtpx:TrackPointExtension></extensions>
      </trkpt>
      <trkpt lat="60.004892471337" lon="15.770111002856">
        <ele>133.8</ele>
        <time>2015-01-14T20:12:36Z</time>
        <extensions><gpxtpx:TrackPointExtension><gpxtpx:hr>167</gpxtpx:hr></gpxtpx:TrackPointExtension></extensions>
      </trkpt>
      <trkpt lat="60.004870762216" lon="15.770101028395">
        <ele>134</ele>
        <time>2015-01-14T20:12:37Z</time>
        <extensions><gpxtpx:TrackPointExtension><gpxtpx:hr>167</gpxtpx:hr></gpxtpx:TrackPointExtension></extensions>
      </trkpt>
      <trkpt lat="60.004839833005" lon="15.770113349788">
        <ele>134.2</ele>
        <time>2015-01-14T20:12:38Z</time>
        <extensions><gpxtpx:TrackPointExtension><gpxtpx:hr>167</gpxtpx:hr></gpxtpx:TrackPointExtension></extensions>
      </trkpt>
      <trkpt lat="60.004754589082" lon="15.770177471323">
        <ele>134.8</ele>
        <time>2015-01-14T20:12:42Z</time>
        <extensions><gpxtpx:TrackPointExtension><gpxtpx:hr>167</gpxtpx:hr></gpxtpx:TrackPointExtension></extensions>
      </trkpt>
      <trkpt lat="60.004662304363" lon="15.770291465163">
        <ele>135</ele>
        <time>2015-01-14T20:12:46Z</time>
        <extensions><gpxtpx:TrackPointExtension><gpxtpx:hr>166</gpxtpx:hr></gpxtpx:TrackPointExtension></extensions>
      </trkpt>
      <trkpt lat="60.004616539189" lon="15.770340247821">
        <ele>135</ele>
        <time>2015-01-14T20:12:48Z</time>
        <extensions><gpxtpx:TrackPointExtension><gpxtpx:hr>166</gpxtpx:hr></gpxtpx:TrackPointExtension></extensions>
      </trkpt>
      <trkpt lat="60.004574462051" lon="15.770361789304">
        <ele>135</ele>
        <time>2015-01-14T20:12:50Z</time>
        <extensions><gpxtpx:TrackPointExtension><gpxtpx:hr>166</gpxtpx:hr></gpxtpx:TrackPointExtension></extensions>
      </trkpt>
      <trkpt lat="60.00456281121" lon="15.770369500652">
        <ele>135</ele>
        <time>2015-01-14T20:12:51Z</time>
        <extensions><gpxtpx:TrackPointExtension><gpxtpx:hr>166</gpxtpx:hr></gpxtpx:TrackPointExtension></extensions>
      </trkpt>
      <trkpt lat="60.004476310002" lon="15.770374278335">
        <ele>135.4</ele>
        <time>2015-01-14T20:12:55Z</time>
        <extensions><gpxtpx:TrackPointExtension><gpxtpx:hr>165</gpxtpx:hr></gpxtpx:TrackPointExtension></extensions>
      </trkpt>
      <trkpt lat="60.004382097446" lon="15.77032440603">
        <ele>135.4</ele>
        <time>2015-01-14T20:12:59Z</time>
        <extensions><gpxtpx:TrackPointExtension><gpxtpx:hr>165</gpxtpx:hr></gpxtpx:TrackPointExtension></extensions>
      </trkpt>
      <trkpt lat="60.004253016186" lon="15.770299427968">
        <ele>135.2</ele>
        <time>2015-01-14T20:13:03Z</time>
        <extensions><gpxtpx:TrackPointExtension><gpxtpx:hr>166</gpxtpx:hr></gpxtpx:TrackPointExtension></extensions>
      </trkpt>
      <trkpt lat="60.004225523554" lon="15.770307223135">
        <ele>135.2</ele>
        <time>2015-01-14T20:13:04Z</time>
        <extensions><gpxtpx:TrackPointExtension><gpxtpx:hr>166</gpxtpx:hr></gpxtpx:TrackPointExtension></extensions>
      </trkpt>
      <trkpt lat="60.004186715357" lon="15.770321723822">
        <ele>135.4</ele>
        <time>2015-01-14T20:13:06Z</time>
        <extensions><gpxtpx:TrackPointExtension><gpxtpx:hr>167</gpxtpx:hr></gpxtpx:TrackPointExtension></extensions>
      </trkpt>
      <trkpt lat="60.004133741749" lon="15.770353575042">
        <ele>135.8</ele>
        <time>2015-01-14T20:13:09Z</time>
        <extensions><gpxtpx:TrackPointExtension><gpxtpx:hr>168</gpxtpx:hr></gpxtpx:TrackPointExtension></extensions>
      </trkpt>
      <trkpt lat="60.004114211922" lon="15.770393472886">
        <ele>135.8</ele>
        <time>2015-01-14T20:13:10Z</time>
        <extensions><gpxtpx:TrackPointExtension><gpxtpx:hr>168</gpxtpx:hr></gpxtpx:TrackPointExtension></extensions>
      </trkpt>
      <trkpt lat="60.004098034855" lon="15.770488607451">
        <ele>136.2</ele>
        <time>2015-01-14T20:13:12Z</time>
        <extensions><gpxtpx:TrackPointExtension><gpxtpx:hr>168</gpxtpx:hr></gpxtpx:TrackPointExtension></extensions>
      </trkpt>
      <trkpt lat="60.004098789226" lon="15.770513585513">
        <ele>136.2</ele>
        <time>2015-01-14T20:13:13Z</time>
        <extensions><gpxtpx:TrackPointExtension><gpxtpx:hr>168</gpxtpx:hr></gpxtpx:TrackPointExtension></extensions>
      </trkpt>
      <trkpt lat="60.004132316826" lon="15.770818016121">
        <ele>136.6</ele>
        <time>2015-01-14T20:13:18Z</time>
        <extensions><gpxtpx:TrackPointExtension><gpxtpx:hr>165</gpxtpx:hr></gpxtpx:TrackPointExtension></extensions>
      </trkpt>
      <trkpt lat="60.004137932699" lon="15.770879455448">
        <ele>136.4</ele>
        <time>2015-01-14T20:13:19Z</time>
        <extensions><gpxtpx:TrackPointExtension><gpxtpx:hr>164</gpxtpx:hr></gpxtpx:TrackPointExtension></extensions>
      </trkpt>
      <trkpt lat="60.004169113367" lon="15.771050027113">
        <ele>135.8</ele>
        <time>2015-01-14T20:13:21Z</time>
        <extensions><gpxtpx:TrackPointExtension><gpxtpx:hr>163</gpxtpx:hr></gpxtpx:TrackPointExtension></extensions>
      </trkpt>
      <trkpt lat="60.004230552694" lon="15.771231579067">
        <ele>134.6</ele>
        <time>2015-01-14T20:13:23Z</time>
        <extensions><gpxtpx:TrackPointExtension><gpxtpx:hr>163</gpxtpx:hr></gpxtpx:TrackPointExtension></extensions>
      </trkpt>
      <trkpt lat="60.004328034191" lon="15.771418998351">
        <ele>132.8</ele>
        <time>2015-01-14T20:13:26Z</time>
        <extensions><gpxtpx:TrackPointExtension><gpxtpx:hr>161</gpxtpx:hr></gpxtpx:TrackPointExtension></extensions>
      </trkpt>
      <trkpt lat="60.004347647837" lon="15.771454789064">
        <ele>132.6</ele>
        <time>2015-01-14T20:13:27Z</time>
        <extensions><gpxtpx:TrackPointExtension><gpxtpx:hr>161</gpxtpx:hr></gpxtpx:TrackPointExtension></extensions>
      </trkpt>
      <trkpt lat="60.004422330566" lon="15.771507427396">
        <ele>133.6</ele>
        <time>2015-01-14T20:13:32Z</time>
        <extensions><gpxtpx:TrackPointExtension><gpxtpx:hr>159</gpxtpx:hr></gpxtpx:TrackPointExtension></extensions>
      </trkpt>
      <trkpt lat="60.004430544828" lon="15.771501476247">
        <ele>134</ele>
        <time>2015-01-14T20:13:38Z</time>
        <extensions><gpxtpx:TrackPointExtension><gpxtpx:hr>156</gpxtpx:hr></gpxtpx:TrackPointExtension></extensions>
      </trkpt>
      <trkpt lat="60.004426521516" lon="15.771490160682">
        <ele>133.4</ele>
        <time>2015-01-14T20:13:43Z</time>
        <extensions><gpxtpx:TrackPointExtension><gpxtpx:hr>153</gpxtpx:hr></gpxtpx:TrackPointExtension></extensions>
      </trkpt>
      <trkpt lat="60.004426437697" lon="15.771490495958">
        <ele>133.2</ele>
        <time>2015-01-14T20:13:44Z</time>
        <extensions><gpxtpx:TrackPointExtension><gpxtpx:hr>153</gpxtpx:hr></gpxtpx:TrackPointExtension></extensions>
      </trkpt>
      <trkpt lat="60.004435657787" lon="15.771470463217">
        <ele>133.8</ele>
        <time>2015-01-14T20:13:50Z</time>
        <extensions><gpxtpx:TrackPointExtension><gpxtpx:hr>153</gpxtpx:hr></gpxtpx:TrackPointExtension></extensions>
      </trkpt>
      <trkpt lat="60.004432724122" lon="15.771439701644">
        <ele>133.6</ele>
        <time>2015-01-14T20:13:59Z</time>
        <extensions><gpxtpx:TrackPointExtension><gpxtpx:hr>151</gpxtpx:hr></gpxtpx:TrackPointExtension></extensions>
      </trkpt>
      <trkpt lat="60.004435322511" lon="15.771433918133">
        <ele>133.4</ele>
        <time>2015-01-14T20:14:03Z</time>
        <extensions><gpxtpx:TrackPointExtension><gpxtpx:hr>148</gpxtpx:hr></gpxtpx:TrackPointExtension></extensions>
      </trkpt>
      <trkpt lat="60.004446638076" lon="15.771424614224">
        <ele>133.4</ele>
        <time>2015-01-14T20:14:06Z</time>
        <extensions><gpxtpx:TrackPointExtension><gpxtpx:hr>145</gpxtpx:hr></gpxtpx:TrackPointExtension></extensions>
      </trkpt>
      <trkpt lat="60.004445883705" lon="15.771429391907">
        <ele>133.4</ele>
        <time>2015-01-14T20:14:11Z</time>
        <extensions><gpxtpx:TrackPointExtension><gpxtpx:hr>142</gpxtpx:hr></gpxtpx:TrackPointExtension></extensions>
      </trkpt>
      <trkpt lat="60.004449068827" lon="15.771427715527">
        <ele>133.2</ele>
        <time>2015-01-14T20:14:15Z</time>
        <extensions><gpxtpx:TrackPointExtension><gpxtpx:hr>141</gpxtpx:hr></gpxtpx:TrackPointExtension></extensions>
      </trkpt>
      <trkpt lat="60.004455187614" lon="15.771422183473">
        <ele>133.4</ele>
        <time>2015-01-14T20:14:23Z</time>
        <extensions><gpxtpx:TrackPointExtension><gpxtpx:hr>139</gpxtpx:hr></gpxtpx:TrackPointExtension></extensions>
      </trkpt>
      <trkpt lat="60.004457869822" lon="15.771423692215">
        <ele>133.2</ele>
        <time>2015-01-14T20:14:31Z</time>
        <extensions><gpxtpx:TrackPointExtension><gpxtpx:hr>136</gpxtpx:hr></gpxtpx:TrackPointExtension></extensions>
      </trkpt>
      <trkpt lat="60.004463653333" lon="15.771425117138">
        <ele>132.8</ele>
        <time>2015-01-14T20:14:35Z</time>
        <extensions><gpxtpx:TrackPointExtension><gpxtpx:hr>136</gpxtpx:hr></gpxtpx:TrackPointExtension></extensions>
      </trkpt>
      <trkpt lat="60.004465832627" lon="15.771430230097">
        <ele>133.2</ele>
        <time>2015-01-14T20:14:44Z</time>
        <extensions><gpxtpx:TrackPointExtension><gpxtpx:hr>135</gpxtpx:hr></gpxtpx:TrackPointExtension></extensions>
      </trkpt>
      <trkpt lat="60.004461557858" lon="15.771416232324">
        <ele>133</ele>
        <time>2015-01-14T20:14:54Z</time>
        <extensions><gpxtpx:TrackPointExtension><gpxtpx:hr>134</gpxtpx:hr></gpxtpx:TrackPointExtension></extensions>
      </trkpt>
      <trkpt lat="60.004466838455" lon="15.77141237665">
        <ele>133</ele>
        <time>2015-01-14T20:15:01Z</time>
        <extensions><gpxtpx:TrackPointExtension><gpxtpx:hr>135</gpxtpx:hr></gpxtpx:TrackPointExtension></extensions>
      </trkpt>
      <trkpt lat="60.00445971384" lon="15.771398714153">
        <ele>132.8</ele>
        <time>2015-01-14T20:15:09Z</time>
        <extensions><gpxtpx:TrackPointExtension><gpxtpx:hr>134</gpxtpx:hr></gpxtpx:TrackPointExtension></extensions>
      </trkpt>
      <trkpt lat="60.004464491523" lon="15.771389577882">
        <ele>132.8</ele>
        <time>2015-01-14T20:15:16Z</time>
        <extensions><gpxtpx:TrackPointExtension><gpxtpx:hr>133</gpxtpx:hr></gpxtpx:TrackPointExtension></extensions>
      </trkpt>
      <trkpt lat="60.004463318057" lon="15.771388320597">
        <ele>132.8</ele>
        <time>2015-01-14T20:15:20Z</time>
        <extensions><gpxtpx:TrackPointExtension><gpxtpx:hr>130</gpxtpx:hr></gpxtpx:TrackPointExtension></extensions>
      </trkpt>
      <trkpt lat="60.004463318057" lon="15.771388404416">
        <ele>132.6</ele>
        <time>2015-01-14T20:15:23Z</time>
        <extensions><gpxtpx:TrackPointExtension><gpxtpx:hr>130</gpxtpx:hr></gpxtpx:TrackPointExtension></extensions>
      </trkpt>
      <trkpt lat="60.004460971125" lon="15.771388404416">
        <ele>133</ele>
        <time>2015-01-14T20:15:29Z</time>
        <extensions><gpxtpx:TrackPointExtension><gpxtpx:hr>127</gpxtpx:hr></gpxtpx:TrackPointExtension></extensions>
      </trkpt>
      <trkpt lat="60.004461725496" lon="15.771385889846">
        <ele>133</ele>
        <time>2015-01-14T20:15:30Z</time>
        <extensions><gpxtpx:TrackPointExtension><gpxtpx:hr>127</gpxtpx:hr></gpxtpx:TrackPointExtension></extensions>
      </trkpt>
      <trkpt lat="60.00445552289" lon="15.771384800199">
        <ele>132.8</ele>
        <time>2015-01-14T20:15:39Z</time>
        <extensions><gpxtpx:TrackPointExtension><gpxtpx:hr>127</gpxtpx:hr></gpxtpx:TrackPointExtension></extensions>
      </trkpt>
      <trkpt lat="60.004460971125" lon="15.771371724435">
        <ele>132.6</ele>
        <time>2015-01-14T20:15:48Z</time>
        <extensions><gpxtpx:TrackPointExtension><gpxtpx:hr>127</gpxtpx:hr></gpxtpx:TrackPointExtension></extensions>
      </trkpt>
      <trkpt lat="60.004465329713" lon="15.771365605648">
        <ele>132.4</ele>
        <time>2015-01-14T20:15:55Z</time>
        <extensions><gpxtpx:TrackPointExtension><gpxtpx:hr>127</gpxtpx:hr></gpxtpx:TrackPointExtension></extensions>
      </trkpt>
      <trkpt lat="60.004485362454" lon="15.771364767458">
        <ele>132.4</ele>
        <time>2015-01-14T20:16:02Z</time>
        <extensions><gpxtpx:TrackPointExtension><gpxtpx:hr>128</gpxtpx:hr></gpxtpx:TrackPointExtension></extensions>
      </trkpt>
      <trkpt lat="60.004494163449" lon="15.771369377503">
        <ele>132.2</ele>
        <time>2015-01-14T20:16:05Z</time>
        <extensions><gpxtpx:TrackPointExtension><gpxtpx:hr>130</gpxtpx:hr></gpxtpx:TrackPointExtension></extensions>
      </trkpt>
      <trkpt lat="60.004490894508" lon="15.771359486861">
        <ele>132.2</ele>
        <time>2015-01-14T20:16:09Z</time>
        <extensions><gpxtpx:TrackPointExtension><gpxtpx:hr>131</gpxtpx:hr></gpxtpx:TrackPointExtension></extensions>
      </trkpt>
      <trkpt lat="60.00447563945" lon="15.771328054736">
        <ele>132.4</ele>
        <time>2015-01-14T20:16:14Z</time>
        <extensions><gpxtpx:TrackPointExtension><gpxtpx:hr>128</gpxtpx:hr></gpxtpx:TrackPointExtension></extensions>
      </trkpt>
      <trkpt lat="60.004462815143" lon="15.771335849903">
        <ele>132.2</ele>
        <time>2015-01-14T20:16:28Z</time>
        <extensions><gpxtpx:TrackPointExtension><gpxtpx:hr>128</gpxtpx:hr></gpxtpx:TrackPointExtension></extensions>
      </trkpt>
      <trkpt lat="60.00445384651" lon="15.771350518228">
        <ele>132.2</ele>
        <time>2015-01-14T20:16:39Z</time>
        <extensions><gpxtpx:TrackPointExtension><gpxtpx:hr>125</gpxtpx:hr></gpxtpx:TrackPointExtension></extensions>
      </trkpt>
      <trkpt lat="60.004461474039" lon="15.77136208525">
        <ele>132.2</ele>
        <time>2015-01-14T20:16:42Z</time>
        <extensions><gpxtpx:TrackPointExtension><gpxtpx:hr>124</gpxtpx:hr></gpxtpx:TrackPointExtension></extensions>
      </trkpt>
      <trkpt lat="60.004461641677" lon="15.771382453267">
        <ele>132.4</ele>
        <time>2015-01-14T20:16:49Z</time>
        <extensions><gpxtpx:TrackPointExtension><gpxtpx:hr>125</gpxtpx:hr></gpxtpx:TrackPointExtension></extensions>
      </trkpt>
      <trkpt lat="60.004472119052" lon="15.771382369448">
        <ele>132.2</ele>
        <time>2015-01-14T20:16:58Z</time>
        <extensions><gpxtpx:TrackPointExtension><gpxtpx:hr>125</gpxtpx:hr></gpxtpx:TrackPointExtension></extensions>
      </trkpt>
      <trkpt lat="60.004478824572" lon="15.771378681412">
        <ele>132.4</ele>
        <time>2015-01-14T20:17:04Z</time>
        <extensions><gpxtpx:TrackPointExtension><gpxtpx:hr>124</gpxtpx:hr></gpxtpx:TrackPointExtension></extensions>
      </trkpt>
      <trkpt lat="60.004470275034" lon="15.771401144904">
        <ele>132.6</ele>
        <time>2015-01-14T20:17:10Z</time>
        <extensions><gpxtpx:TrackPointExtension><gpxtpx:hr>125</gpxtpx:hr></gpxtpx:TrackPointExtension></extensions>
      </trkpt>
      <trkpt lat="60.004459881478" lon="15.771427128794">
        <ele>132.4</ele>
        <time>2015-01-14T20:17:16Z</time>
        <extensions><gpxtpx:TrackPointExtension><gpxtpx:hr>126</gpxtpx:hr></gpxtpx:TrackPointExtension></extensions>
      </trkpt>
      <trkpt lat="60.004457786003" lon="15.771432996124">
        <ele>132.4</ele>
        <time>2015-01-14T20:17:22Z</time>
        <extensions><gpxtpx:TrackPointExtension><gpxtpx:hr>125</gpxtpx:hr></gpxtpx:TrackPointExtension></extensions>
      </trkpt>
      <trkpt lat="60.004450912845" lon="15.771427631708">
        <ele>132</ele>
        <time>2015-01-14T20:17:32Z</time>
        <extensions><gpxtpx:TrackPointExtension><gpxtpx:hr>125</gpxtpx:hr></gpxtpx:TrackPointExtension></extensions>
      </trkpt>
      <trkpt lat="60.004448482094" lon="15.771421512921">
        <ele>132</ele>
        <time>2015-01-14T20:17:41Z</time>
        <extensions><gpxtpx:TrackPointExtension><gpxtpx:hr>125</gpxtpx:hr></gpxtpx:TrackPointExtension></extensions>
      </trkpt>
      <trkpt lat="60.004448733551" lon="15.771415813229">
        <ele>131.8</ele>
        <time>2015-01-14T20:17:48Z</time>
        <extensions><gpxtpx:TrackPointExtension><gpxtpx:hr>128</gpxtpx:hr></gpxtpx:TrackPointExtension></extensions>
      </trkpt>
      <trkpt lat="60.004442782402" lon="15.771407096053">
        <ele>132</ele>
        <time>2015-01-14T20:17:51Z</time>
        <extensions><gpxtpx:TrackPointExtension><gpxtpx:hr>129</gpxtpx:hr></gpxtpx:TrackPointExtension></extensions>
      </trkpt>
      <trkpt lat="60.00445552289" lon="15.771362252888">
        <ele>132</ele>
        <time>2015-01-14T20:18:00Z</time>
        <extensions><gpxtpx:TrackPointExtension><gpxtpx:hr>126</gpxtpx:hr></gpxtpx:TrackPointExtension></extensions>
      </trkpt>
      <trkpt lat="60.004461641677" lon="15.771337358645">
        <ele>132.2</ele>
        <time>2015-01-14T20:18:02Z</time>
        <extensions><gpxtpx:TrackPointExtension><gpxtpx:hr>126</gpxtpx:hr></gpxtpx:TrackPointExtension></extensions>
      </trkpt>
      <trkpt lat="60.004459043288" lon="15.771333502971">
        <ele>132.6</ele>
        <time>2015-01-14T20:18:05Z</time>
        <extensions><gpxtpx:TrackPointExtension><gpxtpx:hr>127</gpxtpx:hr></gpxtpx:TrackPointExtension></extensions>
      </trkpt>
      <trkpt lat="60.004454517062" lon="15.771332580962">
        <ele>133</ele>
        <time>2015-01-14T20:18:11Z</time>
        <extensions><gpxtpx:TrackPointExtension><gpxtpx:hr>124</gpxtpx:hr></gpxtpx:TrackPointExtension></extensions>
      </trkpt>
      <trkpt lat="60.004449823198" lon="15.771344734717">
        <ele>133</ele>
        <time>2015-01-14T20:18:13Z</time>
        <extensions><gpxtpx:TrackPointExtension><gpxtpx:hr>123</gpxtpx:hr></gpxtpx:TrackPointExtension></extensions>
      </trkpt>
      <trkpt lat="60.00444127366" lon="15.771362336707">
        <ele>132.8</ele>
        <time>2015-01-14T20:18:14Z</time>
        <extensions><gpxtpx:TrackPointExtension><gpxtpx:hr>124</gpxtpx:hr></gpxtpx:TrackPointExtension></extensions>
      </trkpt>
      <trkpt lat="60.004431634475" lon="15.771381028344">
        <ele>132.4</ele>
        <time>2015-01-14T20:18:20Z</time>
        <extensions><gpxtpx:TrackPointExtension><gpxtpx:hr>125</gpxtpx:hr></gpxtpx:TrackPointExtension></extensions>
      </trkpt>
      <trkpt lat="60.004436160701" lon="15.771370886245">
        <ele>132.6</ele>
        <time>2015-01-14T20:18:28Z</time>
        <extensions><gpxtpx:TrackPointExtension><gpxtpx:hr>124</gpxtpx:hr></gpxtpx:TrackPointExtension></extensions>
      </trkpt>
      <trkpt lat="60.004448146818" lon="15.771345992002">
        <ele>132.2</ele>
        <time>2015-01-14T20:18:35Z</time>
        <extensions><gpxtpx:TrackPointExtension><gpxtpx:hr>124</gpxtpx:hr></gpxtpx:TrackPointExtension></extensions>
      </trkpt>
      <trkpt lat="60.004424426041" lon="15.771378262317">
        <ele>132.2</ele>
        <time>2015-01-14T20:18:41Z</time>
        <extensions><gpxtpx:TrackPointExtension><gpxtpx:hr>123</gpxtpx:hr></gpxtpx:TrackPointExtension></extensions>
      </trkpt>
      <trkpt lat="60.004421324738" lon="15.771381279801">
        <ele>132.4</ele>
        <time>2015-01-14T20:18:44Z</time>
        <extensions><gpxtpx:TrackPointExtension><gpxtpx:hr>120</gpxtpx:hr></gpxtpx:TrackPointExtension></extensions>
      </trkpt>
      <trkpt lat="60.00442199529" lon="15.77138387819">
        <ele>132.4</ele>
        <time>2015-01-14T20:18:48Z</time>
        <extensions><gpxtpx:TrackPointExtension><gpxtpx:hr>119</gpxtpx:hr></gpxtpx:TrackPointExtension></extensions>
      </trkpt>
      <trkpt lat="60.004436076882" lon="15.771388991149">
        <ele>132.4</ele>
        <time>2015-01-14T20:18:53Z</time>
        <extensions><gpxtpx:TrackPointExtension><gpxtpx:hr>118</gpxtpx:hr></gpxtpx:TrackPointExtension></extensions>
      </trkpt>
      <trkpt lat="60.00445049375" lon="15.771357642843">
        <ele>132.4</ele>
        <time>2015-01-14T20:18:55Z</time>
        <extensions><gpxtpx:TrackPointExtension><gpxtpx:hr>118</gpxtpx:hr></gpxtpx:TrackPointExtension></extensions>
      </trkpt>
      <trkpt lat="60.004457450727" lon="15.771352697522">
        <ele>132</ele>
        <time>2015-01-14T20:19:00Z</time>
        <extensions><gpxtpx:TrackPointExtension><gpxtpx:hr>117</gpxtpx:hr></gpxtpx:TrackPointExtension></extensions>
      </trkpt>
      <trkpt lat="60.004466838455" lon="15.771339118844">
        <ele>132.2</ele>
        <time>2015-01-14T20:19:11Z</time>
        <extensions><gpxtpx:TrackPointExtension><gpxtpx:hr>117</gpxtpx:hr></gpxtpx:TrackPointExtension></extensions>
      </trkpt>
      <trkpt lat="60.004476226183" lon="15.771331575134">
        <ele>132.2</ele>
        <time>2015-01-14T20:19:14Z</time>
        <extensions><gpxtpx:TrackPointExtension><gpxtpx:hr>120</gpxtpx:hr></gpxtpx:TrackPointExtension></extensions>
      </trkpt>
      <trkpt lat="60.0044714485" lon="15.771308860185">
        <ele>132.2</ele>
        <time>2015-01-14T20:19:19Z</time>
        <extensions><gpxtpx:TrackPointExtension><gpxtpx:hr>120</gpxtpx:hr></gpxtpx:TrackPointExtension></extensions>
      </trkpt>
      <trkpt lat="60.004463150419" lon="15.771306177977">
        <ele>132.2</ele>
        <time>2015-01-14T20:19:24Z</time>
        <extensions><gpxtpx:TrackPointExtension><gpxtpx:hr>119</gpxtpx:hr></gpxtpx:TrackPointExtension></extensions>
      </trkpt>
      <trkpt lat="60.004459043288" lon="15.771303160493">
        <ele>132.2</ele>
        <time>2015-01-14T20:19:32Z</time>
        <extensions><gpxtpx:TrackPointExtension><gpxtpx:hr>118</gpxtpx:hr></gpxtpx:TrackPointExtension></extensions>
      </trkpt>
      <trkpt lat="60.004451834854" lon="15.771301903208">
        <ele>132.2</ele>
        <time>2015-01-14T20:19:39Z</time>
        <extensions><gpxtpx:TrackPointExtension><gpxtpx:hr>121</gpxtpx:hr></gpxtpx:TrackPointExtension></extensions>
      </trkpt>
      <trkpt lat="60.004455103795" lon="15.771310452746">
        <ele>132.2</ele>
        <time>2015-01-14T20:19:40Z</time>
        <extensions><gpxtpx:TrackPointExtension><gpxtpx:hr>121</gpxtpx:hr></gpxtpx:TrackPointExtension></extensions>
      </trkpt>
      <trkpt lat="60.004454349424" lon="15.771370048055">
        <ele>132.2</ele>
        <time>2015-01-14T20:19:46Z</time>
        <extensions><gpxtpx:TrackPointExtension><gpxtpx:hr>120</gpxtpx:hr></gpxtpx:TrackPointExtension></extensions>
      </trkpt>
      <trkpt lat="60.004438256176" lon="15.771401228723">
        <ele>132.2</ele>
        <time>2015-01-14T20:19:54Z</time>
        <extensions><gpxtpx:TrackPointExtension><gpxtpx:hr>120</gpxtpx:hr></gpxtpx:TrackPointExtension></extensions>
      </trkpt>
      <trkpt lat="60.004425515688" lon="15.771407096053">
        <ele>132</ele>
        <time>2015-01-14T20:20:01Z</time>
        <extensions><gpxtpx:TrackPointExtension><gpxtpx:hr>119</gpxtpx:hr></gpxtpx:TrackPointExtension></extensions>
      </trkpt>
      <trkpt lat="60.00442283348" lon="15.771410448813">
        <ele>131.8</ele>
        <time>2015-01-14T20:20:07Z</time>
        <extensions><gpxtpx:TrackPointExtension><gpxtpx:hr>118</gpxtpx:hr></gpxtpx:TrackPointExtension></extensions>
      </trkpt>
      <trkpt lat="60.00441696615" lon="15.771409107709">
        <ele>132.2</ele>
        <time>2015-01-14T20:20:18Z</time>
        <extensions><gpxtpx:TrackPointExtension><gpxtpx:hr>121</gpxtpx:hr></gpxtpx:TrackPointExtension></extensions>
      </trkpt>
      <trkpt lat="60.004416630874" lon="15.771409694442">
        <ele>132.4</ele>
        <time>2015-01-14T20:20:19Z</time>
        <extensions><gpxtpx:TrackPointExtension><gpxtpx:hr>120</gpxtpx:hr></gpxtpx:TrackPointExtension></extensions>
      </trkpt>
      <trkpt lat="60.004415792684" lon="15.771408353338">
        <ele>132.8</ele>
        <time>2015-01-14T20:20:25Z</time>
        <extensions><gpxtpx:TrackPointExtension><gpxtpx:hr>119</gpxtpx:hr></gpxtpx:TrackPointExtension></extensions>
      </trkpt>
      <trkpt lat="60.004411517915" lon="15.771444814603">
        <ele>133</ele>
        <time>2015-01-14T20:20:31Z</time>
        <extensions><gpxtpx:TrackPointExtension><gpxtpx:hr>120</gpxtpx:hr></gpxtpx:TrackPointExtension></extensions>
      </trkpt>
      <trkpt lat="60.004412942838" lon="15.771457890367">
        <ele>133.2</ele>
        <time>2015-01-14T20:20:32Z</time>
        <extensions><gpxtpx:TrackPointExtension><gpxtpx:hr>120</gpxtpx:hr></gpxtpx:TrackPointExtension></extensions>
      </trkpt>
      <trkpt lat="60.0044127752" lon="15.771474821805">
        <ele>132.2</ele>
        <time>2015-01-14T20:20:38Z</time>
        <extensions><gpxtpx:TrackPointExtension><gpxtpx:hr>119</gpxtpx:hr></gpxtpx:TrackPointExtension></extensions>
      </trkpt>
      <trkpt lat="60.0044127752" lon="15.771479096574">
        <ele>132.2</ele>
        <time>2015-01-14T20:20:42Z</time>
        <extensions><gpxtpx:TrackPointExtension><gpxtpx:hr>122</gpxtpx:hr></gpxtpx:TrackPointExtension></extensions>
      </trkpt>
      <trkpt lat="60.004415373589" lon="15.771496866202">
        <ele>132.2</ele>
        <time>2015-01-14T20:20:47Z</time>
        <extensions><gpxtpx:TrackPointExtension><gpxtpx:hr>125</gpxtpx:hr></gpxtpx:TrackPointExtension></extensions>
      </trkpt>
      <trkpt lat="60.004413194295" lon="15.771471217588">
        <ele>132.4</ele>
        <time>2015-01-14T20:20:53Z</time>
        <extensions><gpxtpx:TrackPointExtension><gpxtpx:hr>123</gpxtpx:hr></gpxtpx:TrackPointExtension></extensions>
      </trkpt>
      <trkpt lat="60.004409757716" lon="15.771468786837">
        <ele>132.4</ele>
        <time>2015-01-14T20:20:55Z</time>
        <extensions><gpxtpx:TrackPointExtension><gpxtpx:hr>120</gpxtpx:hr></gpxtpx:TrackPointExtension></extensions>
      </trkpt>
      <trkpt lat="60.004408248974" lon="15.771472977787">
        <ele>132.4</ele>
        <time>2015-01-14T20:20:57Z</time>
        <extensions><gpxtpx:TrackPointExtension><gpxtpx:hr>117</gpxtpx:hr></gpxtpx:TrackPointExtension></extensions>
      </trkpt>
      <trkpt lat="60.004408165155" lon="15.771478426022">
        <ele>132.4</ele>
        <time>2015-01-14T20:20:59Z</time>
        <extensions><gpxtpx:TrackPointExtension><gpxtpx:hr>117</gpxtpx:hr></gpxtpx:TrackPointExtension></extensions>
      </trkpt>
      <trkpt lat="60.004419815996" lon="15.771483119886">
        <ele>132.4</ele>
        <time>2015-01-14T20:21:05Z</time>
        <extensions><gpxtpx:TrackPointExtension><gpxtpx:hr>119</gpxtpx:hr></gpxtpx:TrackPointExtension></extensions>
      </trkpt>
      <trkpt lat="60.004426018602" lon="15.771482197877">
        <ele>132.2</ele>
        <time>2015-01-14T20:21:15Z</time>
        <extensions><gpxtpx:TrackPointExtension><gpxtpx:hr>118</gpxtpx:hr></gpxtpx:TrackPointExtension></extensions>
      </trkpt>
      <trkpt lat="60.004429874276" lon="15.771488987216">
        <ele>132.6</ele>
        <time>2015-01-14T20:21:19Z</time>
        <extensions><gpxtpx:TrackPointExtension><gpxtpx:hr>121</gpxtpx:hr></gpxtpx:TrackPointExtension></extensions>
      </trkpt>
      <trkpt lat="60.004435825425" lon="15.771491250329">
        <ele>132.6</ele>
        <time>2015-01-14T20:21:27Z</time>
        <extensions><gpxtpx:TrackPointExtension><gpxtpx:hr>121</gpxtpx:hr></gpxtpx:TrackPointExtension></extensions>
      </trkpt>
      <trkpt lat="60.004446973352" lon="15.771497285297">
        <ele>132.4</ele>
        <time>2015-01-14T20:21:41Z</time>
        <extensions><gpxtpx:TrackPointExtension><gpxtpx:hr>121</gpxtpx:hr></gpxtpx:TrackPointExtension></extensions>
      </trkpt>
      <trkpt lat="60.004443117678" lon="15.771495022184">
        <ele>132.4</ele>
        <time>2015-01-14T20:21:55Z</time>
        <extensions><gpxtpx:TrackPointExtension><gpxtpx:hr>123</gpxtpx:hr></gpxtpx:TrackPointExtension></extensions>
      </trkpt>
      <trkpt lat="60.004450577569" lon="15.771488819578">
        <ele>132.4</ele>
        <time>2015-01-14T20:22:03Z</time>
        <extensions><gpxtpx:TrackPointExtension><gpxtpx:hr>121</gpxtpx:hr></gpxtpx:TrackPointExtension></extensions>
      </trkpt>
      <trkpt lat="60.004456444899" lon="15.771484712447">
        <ele>132.4</ele>
        <time>2015-01-14T20:22:15Z</time>
        <extensions><gpxtpx:TrackPointExtension><gpxtpx:hr>121</gpxtpx:hr></gpxtpx:TrackPointExtension></extensions>
      </trkpt>
      <trkpt lat="60.004460049116" lon="15.771479599488">
        <ele>132.4</ele>
        <time>2015-01-14T20:22:27Z</time>
        <extensions><gpxtpx:TrackPointExtension><gpxtpx:hr>121</gpxtpx:hr></gpxtpx:TrackPointExtension></extensions>
      </trkpt>
      <trkpt lat="60.00446558117" lon="15.771466188448">
        <ele>132.2</ele>
        <time>2015-01-14T20:22:36Z</time>
        <extensions><gpxtpx:TrackPointExtension><gpxtpx:hr>123</gpxtpx:hr></gpxtpx:TrackPointExtension></extensions>
      </trkpt>
      <trkpt lat="60.004470275034" lon="15.771450011381">
        <ele>132.2</ele>
        <time>2015-01-14T20:22:39Z</time>
        <extensions><gpxtpx:TrackPointExtension><gpxtpx:hr>120</gpxtpx:hr></gpxtpx:TrackPointExtension></extensions>
      </trkpt>
      <trkpt lat="60.004471029405" lon="15.771443976413">
        <ele>132.2</ele>
        <time>2015-01-14T20:22:41Z</time>
        <extensions><gpxtpx:TrackPointExtension><gpxtpx:hr>117</gpxtpx:hr></gpxtpx:TrackPointExtension></extensions>
      </trkpt>
      <trkpt lat="60.004470442672" lon="15.771443724956">
        <ele>132.2</ele>
        <time>2015-01-14T20:22:42Z</time>
        <extensions><gpxtpx:TrackPointExtension><gpxtpx:hr>116</gpxtpx:hr></gpxtpx:TrackPointExtension></extensions>
      </trkpt>
      <trkpt lat="60.004467928102" lon="15.771442886766">
        <ele>132.2</ele>
        <time>2015-01-14T20:22:44Z</time>
        <extensions><gpxtpx:TrackPointExtension><gpxtpx:hr>117</gpxtpx:hr></gpxtpx:TrackPointExtension></extensions>
      </trkpt>
      <trkpt lat="60.004463569514" lon="15.771445149879">
        <ele>132</ele>
        <time>2015-01-14T20:22:48Z</time>
        <extensions><gpxtpx:TrackPointExtension><gpxtpx:hr>120</gpxtpx:hr></gpxtpx:TrackPointExtension></extensions>
      </trkpt>
      <trkpt lat="60.004458959469" lon="15.771447161535">
        <ele>132.2</ele>
        <time>2015-01-14T20:22:56Z</time>
        <extensions><gpxtpx:TrackPointExtension><gpxtpx:hr>117</gpxtpx:hr></gpxtpx:TrackPointExtension></extensions>
      </trkpt>
      <trkpt lat="60.004456025804" lon="15.771450681933">
        <ele>132</ele>
        <time>2015-01-14T20:22:58Z</time>
        <extensions><gpxtpx:TrackPointExtension><gpxtpx:hr>117</gpxtpx:hr></gpxtpx:TrackPointExtension></extensions>
      </trkpt>
      <trkpt lat="60.004456277261" lon="15.77145260977">
        <ele>132.2</ele>
        <time>2015-01-14T20:23:04Z</time>
        <extensions><gpxtpx:TrackPointExtension><gpxtpx:hr>120</gpxtpx:hr></gpxtpx:TrackPointExtension></extensions>
      </trkpt>
      <trkpt lat="60.004460216754" lon="15.771460069661">
        <ele>132.4</ele>
        <time>2015-01-14T20:23:08Z</time>
        <extensions><gpxtpx:TrackPointExtension><gpxtpx:hr>118</gpxtpx:hr></gpxtpx:TrackPointExtension></extensions>
      </trkpt>
      <trkpt lat="60.004461641677" lon="15.771465685534">
        <ele>132.4</ele>
        <time>2015-01-14T20:23:10Z</time>
        <extensions><gpxtpx:TrackPointExtension><gpxtpx:hr>115</gpxtpx:hr></gpxtpx:TrackPointExtension></extensions>
      </trkpt>
      <trkpt lat="60.004460132935" lon="15.771455291978">
        <ele>132.4</ele>
        <time>2015-01-14T20:23:13Z</time>
        <extensions><gpxtpx:TrackPointExtension><gpxtpx:hr>115</gpxtpx:hr></gpxtpx:TrackPointExtension></extensions>
      </trkpt>
      <trkpt lat="60.004464240066" lon="15.771454705245">
        <ele>132.4</ele>
        <time>2015-01-14T20:23:17Z</time>
        <extensions><gpxtpx:TrackPointExtension><gpxtpx:hr>118</gpxtpx:hr></gpxtpx:TrackPointExtension></extensions>
      </trkpt>
      <trkpt lat="60.004464491523" lon="15.771453950874">
        <ele>132.4</ele>
        <time>2015-01-14T20:23:18Z</time>
        <extensions><gpxtpx:TrackPointExtension><gpxtpx:hr>119</gpxtpx:hr></gpxtpx:TrackPointExtension></extensions>
      </trkpt>
      <trkpt lat="60.004464994437" lon="15.771451603942">
        <ele>132.2</ele>
        <time>2015-01-14T20:23:21Z</time>
        <extensions><gpxtpx:TrackPointExtension><gpxtpx:hr>122</gpxtpx:hr></gpxtpx:TrackPointExtension></extensions>
      </trkpt>
      <trkpt lat="60.004466754636" lon="15.771448586458">
        <ele>132.2</ele>
        <time>2015-01-14T20:23:26Z</time>
        <extensions><gpxtpx:TrackPointExtension><gpxtpx:hr>119</gpxtpx:hr></gpxtpx:TrackPointExtension></extensions>
      </trkpt>
      <trkpt lat="60.004468431016" lon="15.77144338968">
        <ele>132.2</ele>
        <time>2015-01-14T20:23:31Z</time>
        <extensions><gpxtpx:TrackPointExtension><gpxtpx:hr>119</gpxtpx:hr></gpxtpx:TrackPointExtension></extensions>
      </trkpt>
      <trkpt lat="60.004467844283" lon="15.771438276721">
        <ele>132.2</ele>
        <time>2015-01-14T20:23:39Z</time>
        <extensions><gpxtpx:TrackPointExtension><gpxtpx:hr>119</gpxtpx:hr></gpxtpx:TrackPointExtension></extensions>
      </trkpt>
      <trkpt lat="60.004466251722" lon="15.771437857626">
        <ele>132.2</ele>
        <time>2015-01-14T20:23:46Z</time>
        <extensions><gpxtpx:TrackPointExtension><gpxtpx:hr>121</gpxtpx:hr></gpxtpx:TrackPointExtension></extensions>
      </trkpt>
      <trkpt lat="60.004465748808" lon="15.771438276721">
        <ele>132.4</ele>
        <time>2015-01-14T20:23:56Z</time>
        <extensions><gpxtpx:TrackPointExtension><gpxtpx:hr>121</gpxtpx:hr></gpxtpx:TrackPointExtension></extensions>
      </trkpt>
      <trkpt lat="60.00445133194" lon="15.771460907851">
        <ele>132.6</ele>
        <time>2015-01-14T20:24:03Z</time>
        <extensions><gpxtpx:TrackPointExtension><gpxtpx:hr>121</gpxtpx:hr></gpxtpx:TrackPointExtension></extensions>
      </trkpt>
      <trkpt lat="60.004420151272" lon="15.771497536754">
        <ele>132.4</ele>
        <time>2015-01-14T20:24:10Z</time>
        <extensions><gpxtpx:TrackPointExtension><gpxtpx:hr>120</gpxtpx:hr></gpxtpx:TrackPointExtension></extensions>
      </trkpt>
      <trkpt lat="60.004405818223" lon="15.77151295945">
        <ele>132.2</ele>
        <time>2015-01-14T20:24:18Z</time>
        <extensions><gpxtpx:TrackPointExtension><gpxtpx:hr>120</gpxtpx:hr></gpxtpx:TrackPointExtension></extensions>
      </trkpt>
      <trkpt lat="60.004392239545" lon="15.771525951395">
        <ele>132.2</ele>
        <time>2015-01-14T20:24:20Z</time>
        <extensions><gpxtpx:TrackPointExtension><gpxtpx:hr>119</gpxtpx:hr></gpxtpx:TrackPointExtension></extensions>
      </trkpt>
      <trkpt lat="60.004364327818" lon="15.771575572243">
        <ele>132.2</ele>
        <time>2015-01-14T20:24:24Z</time>
        <extensions><gpxtpx:TrackPointExtension><gpxtpx:hr>116</gpxtpx:hr></gpxtpx:TrackPointExtension></extensions>
      </trkpt>
      <trkpt lat="60.00435913104" lon="15.77161689501">
        <ele>132.2</ele>
        <time>2015-01-14T20:24:26Z</time>
        <extensions><gpxtpx:TrackPointExtension><gpxtpx:hr>117</gpxtpx:hr></gpxtpx:TrackPointExtension></extensions>
      </trkpt>
      <trkpt lat="60.004362651438" lon="15.77167305374">
        <ele>132</ele>
        <time>2015-01-14T20:24:30Z</time>
        <extensions><gpxtpx:TrackPointExtension><gpxtpx:hr>120</gpxtpx:hr></gpxtpx:TrackPointExtension></extensions>
      </trkpt>
      <trkpt lat="60.00437589484" lon="15.771747904107">
        <ele>131.6</ele>
        <time>2015-01-14T20:24:35Z</time>
        <extensions><gpxtpx:TrackPointExtension><gpxtpx:hr>123</gpxtpx:hr></gpxtpx:TrackPointExtension></extensions>
      </trkpt>
      <trkpt lat="60.004380588704" lon="15.7717686074">
        <ele>131.4</ele>
        <time>2015-01-14T20:24:37Z</time>
        <extensions><gpxtpx:TrackPointExtension><gpxtpx:hr>123</gpxtpx:hr></gpxtpx:TrackPointExtension></extensions>
      </trkpt>
      <trkpt lat="60.004383522369" lon="15.771819150257">
        <ele>131.2</ele>
        <time>2015-01-14T20:24:41Z</time>
        <extensions><gpxtpx:TrackPointExtension><gpxtpx:hr>125</gpxtpx:hr></gpxtpx:TrackPointExtension></extensions>
      </trkpt>
      <trkpt lat="60.004381343075" lon="15.7718356626">
        <ele>131</ele>
        <time>2015-01-14T20:24:44Z</time>
        <extensions><gpxtpx:TrackPointExtension><gpxtpx:hr>126</gpxtpx:hr></gpxtpx:TrackPointExtension></extensions>
      </trkpt>
      <trkpt lat="60.004370362786" lon="15.77184991183">
        <ele>130.4</ele>
        <time>2015-01-14T20:24:50Z</time>
        <extensions><gpxtpx:TrackPointExtension><gpxtpx:hr>129</gpxtpx:hr></gpxtpx:TrackPointExtension></extensions>
      </trkpt>
      <trkpt lat="60.004373464089" lon="15.771856198255">
        <ele>130.2</ele>
        <time>2015-01-14T20:24:52Z</time>
        <extensions><gpxtpx:TrackPointExtension><gpxtpx:hr>129</gpxtpx:hr></gpxtpx:TrackPointExtension></extensions>
      </trkpt>
      <trkpt lat="60.004374386098" lon="15.771859886291">
        <ele>129.8</ele>
        <time>2015-01-14T20:24:53Z</time>
        <extensions><gpxtpx:TrackPointExtension><gpxtpx:hr>129</gpxtpx:hr></gpxtpx:TrackPointExtension></extensions>
      </trkpt>
      <trkpt lat="60.004375978659" lon="15.771867597639">
        <ele>129.6</ele>
        <time>2015-01-14T20:24:59Z</time>
        <extensions><gpxtpx:TrackPointExtension><gpxtpx:hr>130</gpxtpx:hr></gpxtpx:TrackPointExtension></extensions>
      </trkpt>
      <trkpt lat="60.004378241772" lon="15.771880757222">
        <ele>129</ele>
        <time>2015-01-14T20:25:03Z</time>
        <extensions><gpxtpx:TrackPointExtension><gpxtpx:hr>130</gpxtpx:hr></gpxtpx:TrackPointExtension></extensions>
      </trkpt>
      <trkpt lat="60.004390814622" lon="15.771893749167">
        <ele>129</ele>
        <time>2015-01-14T20:25:08Z</time>
        <extensions><gpxtpx:TrackPointExtension><gpxtpx:hr>133</gpxtpx:hr></gpxtpx:TrackPointExtension></extensions>
      </trkpt>
      <trkpt lat="60.004388635328" lon="15.771895090271">
        <ele>128.8</ele>
        <time>2015-01-14T20:25:09Z</time>
        <extensions><gpxtpx:TrackPointExtension><gpxtpx:hr>134</gpxtpx:hr></gpxtpx:TrackPointExtension></extensions>
      </trkpt>
      <trkpt lat="60.004390563165" lon="15.771904897094">
        <ele>129</ele>
        <time>2015-01-14T20:25:13Z</time>
        <extensions><gpxtpx:TrackPointExtension><gpxtpx:hr>136</gpxtpx:hr></gpxtpx:TrackPointExtension></extensions>
      </trkpt>
      <trkpt lat="60.004398777427" lon="15.771926354758">
        <ele>129</ele>
        <time>2015-01-14T20:25:18Z</time>
        <extensions><gpxtpx:TrackPointExtension><gpxtpx:hr>139</gpxtpx:hr></gpxtpx:TrackPointExtension></extensions>
      </trkpt>
      <trkpt lat="60.004400956721" lon="15.771929791337">
        <ele>129</ele>
        <time>2015-01-14T20:25:19Z</time>
        <extensions><gpxtpx:TrackPointExtension><gpxtpx:hr>139</gpxtpx:hr></gpxtpx:TrackPointExtension></extensions>
      </trkpt>
      <trkpt lat="60.004403052196" lon="15.771957283969">
        <ele>128.8</ele>
        <time>2015-01-14T20:25:25Z</time>
        <extensions><gpxtpx:TrackPointExtension><gpxtpx:hr>139</gpxtpx:hr></gpxtpx:TrackPointExtension></extensions>
      </trkpt>
      <trkpt lat="60.004405566766" lon="15.77197396395">
        <ele>128.8</ele>
        <time>2015-01-14T20:25:30Z</time>
        <extensions><gpxtpx:TrackPointExtension><gpxtpx:hr>140</gpxtpx:hr></gpxtpx:TrackPointExtension></extensions>
      </trkpt>
      <trkpt lat="60.004412188467" lon="15.772015202898">
        <ele>129.4</ele>
        <time>2015-01-14T20:25:36Z</time>
        <extensions><gpxtpx:TrackPointExtension><gpxtpx:hr>140</gpxtpx:hr></gpxtpx:TrackPointExtension></extensions>
      </trkpt>
      <trkpt lat="60.004431550656" lon="15.77203179906">
        <ele>128.8</ele>
        <time>2015-01-14T20:25:41Z</time>
        <extensions><gpxtpx:TrackPointExtension><gpxtpx:hr>140</gpxtpx:hr></gpxtpx:TrackPointExtension></extensions>
      </trkpt>
      <trkpt lat="60.004440938384" lon="15.772028697757">
        <ele>128.2</ele>
        <time>2015-01-14T20:25:46Z</time>
        <extensions><gpxtpx:TrackPointExtension><gpxtpx:hr>139</gpxtpx:hr></gpxtpx:TrackPointExtension></extensions>
      </trkpt>
      <trkpt lat="60.004455019976" lon="15.772033391621">
        <ele>128.4</ele>
        <time>2015-01-14T20:25:51Z</time>
        <extensions><gpxtpx:TrackPointExtension><gpxtpx:hr>139</gpxtpx:hr></gpxtpx:TrackPointExtension></extensions>
      </trkpt>
      <trkpt lat="60.004463318057" lon="15.77203096087">
        <ele>128.4</ele>
        <time>2015-01-14T20:25:56Z</time>
        <extensions><gpxtpx:TrackPointExtension><gpxtpx:hr>140</gpxtpx:hr></gpxtpx:TrackPointExtension></extensions>
      </trkpt>
      <trkpt lat="60.004467173731" lon="15.772032301974">
        <ele>128.4</ele>
        <time>2015-01-14T20:26:01Z</time>
        <extensions><gpxtpx:TrackPointExtension><gpxtpx:hr>141</gpxtpx:hr></gpxtpx:TrackPointExtension></extensions>
      </trkpt>
      <trkpt lat="60.004466167903" lon="15.772021154047">
        <ele>128.6</ele>
        <time>2015-01-14T20:26:06Z</time>
        <extensions><gpxtpx:TrackPointExtension><gpxtpx:hr>142</gpxtpx:hr></gpxtpx:TrackPointExtension></extensions>
      </trkpt>
      <trkpt lat="60.004465413532" lon="15.772025596454">
        <ele>128.6</ele>
        <time>2015-01-14T20:26:13Z</time>
        <extensions><gpxtpx:TrackPointExtension><gpxtpx:hr>142</gpxtpx:hr></gpxtpx:TrackPointExtension></extensions>
      </trkpt>
      <trkpt lat="60.004471532319" lon="15.772028111024">
        <ele>128.4</ele>
        <time>2015-01-14T20:26:18Z</time>
        <extensions><gpxtpx:TrackPointExtension><gpxtpx:hr>142</gpxtpx:hr></gpxtpx:TrackPointExtension></extensions>
      </trkpt>
      <trkpt lat="60.004469353025" lon="15.772033307802">
        <ele>128.2</ele>
        <time>2015-01-14T20:26:23Z</time>
        <extensions><gpxtpx:TrackPointExtension><gpxtpx:hr>140</gpxtpx:hr></gpxtpx:TrackPointExtension></extensions>
      </trkpt>
      <trkpt lat="60.004473041061" lon="15.772043952815">
        <ele>128.2</ele>
        <time>2015-01-14T20:26:27Z</time>
        <extensions><gpxtpx:TrackPointExtension><gpxtpx:hr>141</gpxtpx:hr></gpxtpx:TrackPointExtension></extensions>
      </trkpt>
      <trkpt lat="60.004468766292" lon="15.772044288091">
        <ele>128.2</ele>
        <time>2015-01-14T20:26:32Z</time>
        <extensions><gpxtpx:TrackPointExtension><gpxtpx:hr>142</gpxtpx:hr></gpxtpx:TrackPointExtension></extensions>
      </trkpt>
      <trkpt lat="60.004469688301" lon="15.772039175132">
        <ele>129</ele>
        <time>2015-01-14T20:26:37Z</time>
        <extensions><gpxtpx:TrackPointExtension><gpxtpx:hr>139</gpxtpx:hr></gpxtpx:TrackPointExtension></extensions>
      </trkpt>
      <trkpt lat="60.004468347197" lon="15.772034062173">
        <ele>129.2</ele>
        <time>2015-01-14T20:26:39Z</time>
        <extensions><gpxtpx:TrackPointExtension><gpxtpx:hr>138</gpxtpx:hr></gpxtpx:TrackPointExtension></extensions>
      </trkpt>
      <trkpt lat="60.004464156247" lon="15.772036912019">
        <ele>129.4</ele>
        <time>2015-01-14T20:26:46Z</time>
        <extensions><gpxtpx:TrackPointExtension><gpxtpx:hr>135</gpxtpx:hr></gpxtpx:TrackPointExtension></extensions>
      </trkpt>
      <trkpt lat="60.004461725496" lon="15.772038756037">
        <ele>129.4</ele>
        <time>2015-01-14T20:26:49Z</time>
        <extensions><gpxtpx:TrackPointExtension><gpxtpx:hr>135</gpxtpx:hr></gpxtpx:TrackPointExtension></extensions>
      </trkpt>
      <trkpt lat="60.004448230637" lon="15.772045629195">
        <ele>129.2</ele>
        <time>2015-01-14T20:26:57Z</time>
        <extensions><gpxtpx:TrackPointExtension><gpxtpx:hr>135</gpxtpx:hr></gpxtpx:TrackPointExtension></extensions>
      </trkpt>
      <trkpt lat="60.004431550656" lon="15.772054094914">
        <ele>129</ele>
        <time>2015-01-14T20:27:06Z</time>
        <extensions><gpxtpx:TrackPointExtension><gpxtpx:hr>136</gpxtpx:hr></gpxtpx:TrackPointExtension></extensions>
      </trkpt>
      <trkpt lat="60.004420151272" lon="15.772064069375">
        <ele>128.8</ele>
        <time>2015-01-14T20:27:15Z</time>
        <extensions><gpxtpx:TrackPointExtension><gpxtpx:hr>134</gpxtpx:hr></gpxtpx:TrackPointExtension></extensions>
      </trkpt>
      <trkpt lat="60.00440774606" lon="15.772072954189">
        <ele>128.6</ele>
        <time>2015-01-14T20:27:23Z</time>
        <extensions><gpxtpx:TrackPointExtension><gpxtpx:hr>133</gpxtpx:hr></gpxtpx:TrackPointExtension></extensions>
      </trkpt>
      <trkpt lat="60.00439768778" lon="15.772073624741">
        <ele>128.6</ele>
        <time>2015-01-14T20:27:33Z</time>
        <extensions><gpxtpx:TrackPointExtension><gpxtpx:hr>132</gpxtpx:hr></gpxtpx:TrackPointExtension></extensions>
      </trkpt>
      <trkpt lat="60.004389389699" lon="15.772067757411">
        <ele>128.6</ele>
        <time>2015-01-14T20:27:44Z</time>
        <extensions><gpxtpx:TrackPointExtension><gpxtpx:hr>131</gpxtpx:hr></gpxtpx:TrackPointExtension></extensions>
      </trkpt>
      <trkpt lat="60.004383522369" lon="15.772100782097">
        <ele>128.4</ele>
        <time>2015-01-14T20:27:54Z</time>
        <extensions><gpxtpx:TrackPointExtension><gpxtpx:hr>130</gpxtpx:hr></gpxtpx:TrackPointExtension></extensions>
      </trkpt>
      <trkpt lat="60.004377152125" lon="15.77213070548">
        <ele>128</ele>
        <time>2015-01-14T20:28:01Z</time>
        <extensions><gpxtpx:TrackPointExtension><gpxtpx:hr>127</gpxtpx:hr></gpxtpx:TrackPointExtension></extensions>
      </trkpt>
      <trkpt lat="60.004379415238" lon="15.772122155942">
        <ele>128</ele>
        <time>2015-01-14T20:28:02Z</time>
        <extensions><gpxtpx:TrackPointExtension><gpxtpx:hr>127</gpxtpx:hr></gpxtpx:TrackPointExtension></extensions>
      </trkpt>
      <trkpt lat="60.004373715546" lon="15.772149648574">
        <ele>127.8</ele>
        <time>2015-01-14T20:28:06Z</time>
        <extensions><gpxtpx:TrackPointExtension><gpxtpx:hr>130</gpxtpx:hr></gpxtpx:TrackPointExtension></extensions>
      </trkpt>
      <trkpt lat="60.004373044994" lon="15.772151408773">
        <ele>127.8</ele>
        <time>2015-01-14T20:28:07Z</time>
        <extensions><gpxtpx:TrackPointExtension><gpxtpx:hr>130</gpxtpx:hr></gpxtpx:TrackPointExtension></extensions>
      </trkpt>
      <trkpt lat="60.004372793537" lon="15.772160964139">
        <ele>127.8</ele>
        <time>2015-01-14T20:28:08Z</time>
        <extensions><gpxtpx:TrackPointExtension><gpxtpx:hr>131</gpxtpx:hr></gpxtpx:TrackPointExtension></extensions>
      </trkpt>
      <trkpt lat="60.004370698062" lon="15.772276047626">
        <ele>127.4</ele>
        <time>2015-01-14T20:28:13Z</time>
        <extensions><gpxtpx:TrackPointExtension><gpxtpx:hr>131</gpxtpx:hr></gpxtpx:TrackPointExtension></extensions>
      </trkpt>
      <trkpt lat="60.00436918932" lon="15.772307228294">
        <ele>127.2</ele>
        <time>2015-01-14T20:28:14Z</time>
        <extensions><gpxtpx:TrackPointExtension><gpxtpx:hr>131</gpxtpx:hr></gpxtpx:TrackPointExtension></extensions>
      </trkpt>
      <trkpt lat="60.004360304506" lon="15.772456090838">
        <ele>126.8</ele>
        <time>2015-01-14T20:28:17Z</time>
        <extensions><gpxtpx:TrackPointExtension><gpxtpx:hr>132</gpxtpx:hr></gpxtpx:TrackPointExtension></extensions>
      </trkpt>
      <trkpt lat="60.004363992542" lon="15.772451648431">
        <ele>126.4</ele>
        <time>2015-01-14T20:28:19Z</time>
        <extensions><gpxtpx:TrackPointExtension><gpxtpx:hr>132</gpxtpx:hr></gpxtpx:TrackPointExtension></extensions>
      </trkpt>
      <trkpt lat="60.004360639782" lon="15.77247017243">
        <ele>125.6</ele>
        <time>2015-01-14T20:28:25Z</time>
        <extensions><gpxtpx:TrackPointExtension><gpxtpx:hr>133</gpxtpx:hr></gpxtpx:TrackPointExtension></extensions>
      </trkpt>
      <trkpt lat="60.004358376669" lon="15.772467322584">
        <ele>125.2</ele>
        <time>2015-01-14T20:28:31Z</time>
        <extensions><gpxtpx:TrackPointExtension><gpxtpx:hr>131</gpxtpx:hr></gpxtpx:TrackPointExtension></extensions>
      </trkpt>
      <trkpt lat="60.004362735257" lon="15.772460784702">
        <ele>124.8</ele>
        <time>2015-01-14T20:28:37Z</time>
        <extensions><gpxtpx:TrackPointExtension><gpxtpx:hr>132</gpxtpx:hr></gpxtpx:TrackPointExtension></extensions>
      </trkpt>
      <trkpt lat="60.004365417465" lon="15.772464472738">
        <ele>124.8</ele>
        <time>2015-01-14T20:28:41Z</time>
        <extensions><gpxtpx:TrackPointExtension><gpxtpx:hr>134</gpxtpx:hr></gpxtpx:TrackPointExtension></extensions>
      </trkpt>
      <trkpt lat="60.004365501284" lon="15.772461287616">
        <ele>124.8</ele>
        <time>2015-01-14T20:28:44Z</time>
        <extensions><gpxtpx:TrackPointExtension><gpxtpx:hr>135</gpxtpx:hr></gpxtpx:TrackPointExtension></extensions>
      </trkpt>
      <trkpt lat="60.004373631727" lon="15.772464724195">
        <ele>124.6</ele>
        <time>2015-01-14T20:28:50Z</time>
        <extensions><gpxtpx:TrackPointExtension><gpxtpx:hr>137</gpxtpx:hr></gpxtpx:TrackPointExtension></extensions>
      </trkpt>
      <trkpt lat="60.004376565392" lon="15.772465813842">
        <ele>124.6</ele>
        <time>2015-01-14T20:28:52Z</time>
        <extensions><gpxtpx:TrackPointExtension><gpxtpx:hr>137</gpxtpx:hr></gpxtpx:TrackPointExtension></extensions>
      </trkpt>
      <trkpt lat="60.004380337247" lon="15.772459527417">
        <ele>124.6</ele>
        <time>2015-01-14T20:28:57Z</time>
        <extensions><gpxtpx:TrackPointExtension><gpxtpx:hr>139</gpxtpx:hr></gpxtpx:TrackPointExtension></extensions>
      </trkpt>
      <trkpt lat="60.004390563165" lon="15.772457515761">
        <ele>125</ele>
        <time>2015-01-14T20:29:07Z</time>
        <extensions><gpxtpx:TrackPointExtension><gpxtpx:hr>138</gpxtpx:hr></gpxtpx:TrackPointExtension></extensions>
      </trkpt>
      <trkpt lat="60.004402046368" lon="15.772454665915">
        <ele>125.6</ele>
        <time>2015-01-14T20:29:16Z</time>
        <extensions><gpxtpx:TrackPointExtension><gpxtpx:hr>138</gpxtpx:hr></gpxtpx:TrackPointExtension></extensions>
      </trkpt>
      <trkpt lat="60.004402465463" lon="15.772463718367">
        <ele>125.6</ele>
        <time>2015-01-14T20:29:27Z</time>
        <extensions><gpxtpx:TrackPointExtension><gpxtpx:hr>138</gpxtpx:hr></gpxtpx:TrackPointExtension></extensions>
      </trkpt>
      <trkpt lat="60.004403136015" lon="15.772467071127">
        <ele>125.6</ele>
        <time>2015-01-14T20:29:29Z</time>
        <extensions><gpxtpx:TrackPointExtension><gpxtpx:hr>137</gpxtpx:hr></gpxtpx:TrackPointExtension></extensions>
      </trkpt>
      <trkpt lat="60.004395759943" lon="15.772479224882">
        <ele>125.8</ele>
        <time>2015-01-14T20:29:37Z</time>
        <extensions><gpxtpx:TrackPointExtension><gpxtpx:hr>134</gpxtpx:hr></gpxtpx:TrackPointExtension></extensions>
      </trkpt>
      <trkpt lat="60.004400537626" lon="15.772483415832">
        <ele>125.4</ele>
        <time>2015-01-14T20:29:43Z</time>
        <extensions><gpxtpx:TrackPointExtension><gpxtpx:hr>134</gpxtpx:hr></gpxtpx:TrackPointExtension></extensions>
      </trkpt>
      <trkpt lat="60.004400956721" lon="15.772500263451">
        <ele>125.4</ele>
        <time>2015-01-14T20:29:52Z</time>
        <extensions><gpxtpx:TrackPointExtension><gpxtpx:hr>135</gpxtpx:hr></gpxtpx:TrackPointExtension></extensions>
      </trkpt>
      <trkpt lat="60.004408668069" lon="15.772498251795">
        <ele>124.6</ele>
        <time>2015-01-14T20:29:58Z</time>
        <extensions><gpxtpx:TrackPointExtension><gpxtpx:hr>136</gpxtpx:hr></gpxtpx:TrackPointExtension></extensions>
      </trkpt>
      <trkpt lat="60.004411266458" lon="15.772500598727">
        <ele>124.4</ele>
        <time>2015-01-14T20:30:00Z</time>
        <extensions><gpxtpx:TrackPointExtension><gpxtpx:hr>137</gpxtpx:hr></gpxtpx:TrackPointExtension></extensions>
      </trkpt>
      <trkpt lat="60.004410092992" lon="15.772511495197">
        <ele>124.2</ele>
        <time>2015-01-14T20:30:04Z</time>
        <extensions><gpxtpx:TrackPointExtension><gpxtpx:hr>138</gpxtpx:hr></gpxtpx:TrackPointExtension></extensions>
      </trkpt>
      <trkpt lat="60.004409170983" lon="15.772521888753">
        <ele>124</ele>
        <time>2015-01-14T20:30:08Z</time>
        <extensions><gpxtpx:TrackPointExtension><gpxtpx:hr>138</gpxtpx:hr></gpxtpx:TrackPointExtension></extensions>
      </trkpt>
      <trkpt lat="60.00441026063" lon="15.772531276481">
        <ele>124.2</ele>
        <time>2015-01-14T20:30:14Z</time>
        <extensions><gpxtpx:TrackPointExtension><gpxtpx:hr>141</gpxtpx:hr></gpxtpx:TrackPointExtension></extensions>
      </trkpt>
      <trkpt lat="60.004403722748" lon="15.772565055538">
        <ele>124.2</ele>
        <time>2015-01-14T20:30:21Z</time>
        <extensions><gpxtpx:TrackPointExtension><gpxtpx:hr>141</gpxtpx:hr></gpxtpx:TrackPointExtension></extensions>
      </trkpt>
      <trkpt lat="60.004411266458" lon="15.772565390814">
        <ele>125</ele>
        <time>2015-01-14T20:30:26Z</time>
        <extensions><gpxtpx:TrackPointExtension><gpxtpx:hr>140</gpxtpx:hr></gpxtpx:TrackPointExtension></extensions>
      </trkpt>
      <trkpt lat="60.004411685553" lon="15.772565977547">
        <ele>125.4</ele>
        <time>2015-01-14T20:30:28Z</time>
        <extensions><gpxtpx:TrackPointExtension><gpxtpx:hr>139</gpxtpx:hr></gpxtpx:TrackPointExtension></extensions>
      </trkpt>
      <trkpt lat="60.004413781028" lon="15.772568575936">
        <ele>125.6</ele>
        <time>2015-01-14T20:30:35Z</time>
        <extensions><gpxtpx:TrackPointExtension><gpxtpx:hr>138</gpxtpx:hr></gpxtpx:TrackPointExtension></extensions>
      </trkpt>
      <trkpt lat="60.0044127752" lon="15.772593805455">
        <ele>125.4</ele>
        <time>2015-01-14T20:30:44Z</time>
        <extensions><gpxtpx:TrackPointExtension><gpxtpx:hr>136</gpxtpx:hr></gpxtpx:TrackPointExtension></extensions>
      </trkpt>
      <trkpt lat="60.004406488775" lon="15.772635128222">
        <ele>125.2</ele>
        <time>2015-01-14T20:30:54Z</time>
        <extensions><gpxtpx:TrackPointExtension><gpxtpx:hr>135</gpxtpx:hr></gpxtpx:TrackPointExtension></extensions>
      </trkpt>
      <trkpt lat="60.0043876295" lon="15.772730178968">
        <ele>125</ele>
        <time>2015-01-14T20:30:59Z</time>
        <extensions><gpxtpx:TrackPointExtension><gpxtpx:hr>135</gpxtpx:hr></gpxtpx:TrackPointExtension></extensions>
      </trkpt>
      <trkpt lat="60.004300793016" lon="15.772967638195">
        <ele>124.4</ele>
        <time>2015-01-14T20:31:04Z</time>
        <extensions><gpxtpx:TrackPointExtension><gpxtpx:hr>135</gpxtpx:hr></gpxtpx:TrackPointExtension></extensions>
      </trkpt>
      <trkpt lat="60.004227619029" lon="15.773113231798">
        <ele>123.2</ele>
        <time>2015-01-14T20:31:08Z</time>
        <extensions><gpxtpx:TrackPointExtension><gpxtpx:hr>135</gpxtpx:hr></gpxtpx:TrackPointExtension></extensions>
      </trkpt>
      <trkpt lat="60.004198114741" lon="15.77317341384">
        <ele>123</ele>
        <time>2015-01-14T20:31:11Z</time>
        <extensions><gpxtpx:TrackPointExtension><gpxtpx:hr>135</gpxtpx:hr></gpxtpx:TrackPointExtension></extensions>
      </trkpt>
      <trkpt lat="60.004194594343" lon="15.773165786311">
        <ele>122.8</ele>
        <time>2015-01-14T20:31:17Z</time>
        <extensions><gpxtpx:TrackPointExtension><gpxtpx:hr>133</gpxtpx:hr></gpxtpx:TrackPointExtension></extensions>
      </trkpt>
      <trkpt lat="60.004206915736" lon="15.773111890694">
        <ele>122.8</ele>
        <time>2015-01-14T20:31:23Z</time>
        <extensions><gpxtpx:TrackPointExtension><gpxtpx:hr>135</gpxtpx:hr></gpxtpx:TrackPointExtension></extensions>
      </trkpt>
      <trkpt lat="60.004227870486" lon="15.77309965312">
        <ele>122.4</ele>
        <time>2015-01-14T20:31:31Z</time>
        <extensions><gpxtpx:TrackPointExtension><gpxtpx:hr>135</gpxtpx:hr></gpxtpx:TrackPointExtension></extensions>
      </trkpt>
      <trkpt lat="60.004241952078" lon="15.773101161862">
        <ele>122.2</ele>
        <time>2015-01-14T20:31:38Z</time>
        <extensions><gpxtpx:TrackPointExtension><gpxtpx:hr>136</gpxtpx:hr></gpxtpx:TrackPointExtension></extensions>
      </trkpt>
      <trkpt lat="60.004263409742" lon="15.773080458569">
        <ele>122.6</ele>
        <time>2015-01-14T20:31:44Z</time>
        <extensions><gpxtpx:TrackPointExtension><gpxtpx:hr>137</gpxtpx:hr></gpxtpx:TrackPointExtension></extensions>
      </trkpt>
      <trkpt lat="60.004294255134" lon="15.773064365321">
        <ele>122.4</ele>
        <time>2015-01-14T20:31:52Z</time>
        <extensions><gpxtpx:TrackPointExtension><gpxtpx:hr>139</gpxtpx:hr></gpxtpx:TrackPointExtension></extensions>
      </trkpt>
      <trkpt lat="60.004308588183" lon="15.773065706425">
        <ele>122.6</ele>
        <time>2015-01-14T20:31:58Z</time>
        <extensions><gpxtpx:TrackPointExtension><gpxtpx:hr>139</gpxtpx:hr></gpxtpx:TrackPointExtension></extensions>
      </trkpt>
      <trkpt lat="60.004312024762" lon="15.773046511874">
        <ele>122.4</ele>
        <time>2015-01-14T20:32:05Z</time>
        <extensions><gpxtpx:TrackPointExtension><gpxtpx:hr>138</gpxtpx:hr></gpxtpx:TrackPointExtension></extensions>
      </trkpt>
      <trkpt lat="60.004314036418" lon="15.773043159114">
        <ele>122.2</ele>
        <time>2015-01-14T20:32:09Z</time>
        <extensions><gpxtpx:TrackPointExtension><gpxtpx:hr>138</gpxtpx:hr></gpxtpx:TrackPointExtension></extensions>
      </trkpt>
      <trkpt lat="60.004314287875" lon="15.773043159114">
        <ele>122</ele>
        <time>2015-01-14T20:32:11Z</time>
        <extensions><gpxtpx:TrackPointExtension><gpxtpx:hr>139</gpxtpx:hr></gpxtpx:TrackPointExtension></extensions>
      </trkpt>
      <trkpt lat="60.004321747766" lon="15.773024718934">
        <ele>122.4</ele>
        <time>2015-01-14T20:32:17Z</time>
        <extensions><gpxtpx:TrackPointExtension><gpxtpx:hr>138</gpxtpx:hr></gpxtpx:TrackPointExtension></extensions>
      </trkpt>
      <trkpt lat="60.004321244852" lon="15.773015498844">
        <ele>122.2</ele>
        <time>2015-01-14T20:32:23Z</time>
        <extensions><gpxtpx:TrackPointExtension><gpxtpx:hr>140</gpxtpx:hr></gpxtpx:TrackPointExtension></extensions>
      </trkpt>
      <trkpt lat="60.004327782734" lon="15.77300745222">
        <ele>121.8</ele>
        <time>2015-01-14T20:32:27Z</time>
        <extensions><gpxtpx:TrackPointExtension><gpxtpx:hr>140</gpxtpx:hr></gpxtpx:TrackPointExtension></extensions>
      </trkpt>
      <trkpt lat="60.004341361412" lon="15.773010553523">
        <ele>122</ele>
        <time>2015-01-14T20:32:33Z</time>
        <extensions><gpxtpx:TrackPointExtension><gpxtpx:hr>139</gpxtpx:hr></gpxtpx:TrackPointExtension></extensions>
      </trkpt>
      <trkpt lat="60.004351922606" lon="15.772999489415">
        <ele>122.2</ele>
        <time>2015-01-14T20:32:35Z</time>
        <extensions><gpxtpx:TrackPointExtension><gpxtpx:hr>139</gpxtpx:hr></gpxtpx:TrackPointExtension></extensions>
      </trkpt>
      <trkpt lat="60.004355443004" lon="15.7730007467">
        <ele>122.2</ele>
        <time>2015-01-14T20:32:36Z</time>
        <extensions><gpxtpx:TrackPointExtension><gpxtpx:hr>140</gpxtpx:hr></gpxtpx:TrackPointExtension></extensions>
      </trkpt>
      <trkpt lat="60.004369440777" lon="15.772981971244">
        <ele>122.2</ele>
        <time>2015-01-14T20:32:43Z</time>
        <extensions><gpxtpx:TrackPointExtension><gpxtpx:hr>141</gpxtpx:hr></gpxtpx:TrackPointExtension></extensions>
      </trkpt>
      <trkpt lat="60.004378912324" lon="15.772967722014">
        <ele>122</ele>
        <time>2015-01-14T20:32:48Z</time>
        <extensions><gpxtpx:TrackPointExtension><gpxtpx:hr>141</gpxtpx:hr></gpxtpx:TrackPointExtension></extensions>
      </trkpt>
      <trkpt lat="60.004380588704" lon="15.772963111969">
        <ele>122.2</ele>
        <time>2015-01-14T20:32:53Z</time>
        <extensions><gpxtpx:TrackPointExtension><gpxtpx:hr>141</gpxtpx:hr></gpxtpx:TrackPointExtension></extensions>
      </trkpt>
      <trkpt lat="60.004380672523" lon="15.77294458797">
        <ele>122.2</ele>
        <time>2015-01-14T20:33:00Z</time>
        <extensions><gpxtpx:TrackPointExtension><gpxtpx:hr>140</gpxtpx:hr></gpxtpx:TrackPointExtension></extensions>
      </trkpt>
      <trkpt lat="60.004378493229" lon="15.772940229382">
        <ele>122.2</ele>
        <time>2015-01-14T20:33:07Z</time>
        <extensions><gpxtpx:TrackPointExtension><gpxtpx:hr>141</gpxtpx:hr></gpxtpx:TrackPointExtension></extensions>
      </trkpt>
      <trkpt lat="60.00438427674" lon="15.772931512206">
        <ele>122</ele>
        <time>2015-01-14T20:33:13Z</time>
        <extensions><gpxtpx:TrackPointExtension><gpxtpx:hr>141</gpxtpx:hr></gpxtpx:TrackPointExtension></extensions>
      </trkpt>
      <trkpt lat="60.004387042767" lon="15.772908713438">
        <ele>122</ele>
        <time>2015-01-14T20:33:20Z</time>
        <extensions><gpxtpx:TrackPointExtension><gpxtpx:hr>143</gpxtpx:hr></gpxtpx:TrackPointExtension></extensions>
      </trkpt>
      <trkpt lat="60.00438595312" lon="15.772893709837">
        <ele>122</ele>
        <time>2015-01-14T20:33:27Z</time>
        <extensions><gpxtpx:TrackPointExtension><gpxtpx:hr>144</gpxtpx:hr></gpxtpx:TrackPointExtension></extensions>
      </trkpt>
      <trkpt lat="60.004384947292" lon="15.772903013746">
        <ele>121.8</ele>
        <time>2015-01-14T20:33:32Z</time>
        <extensions><gpxtpx:TrackPointExtension><gpxtpx:hr>144</gpxtpx:hr></gpxtpx:TrackPointExtension></extensions>
      </trkpt>
      <trkpt lat="60.004389557337" lon="15.772883232462">
        <ele>121.8</ele>
        <time>2015-01-14T20:33:39Z</time>
        <extensions><gpxtpx:TrackPointExtension><gpxtpx:hr>142</gpxtpx:hr></gpxtpx:TrackPointExtension></extensions>
      </trkpt>
      <trkpt lat="60.00437673303" lon="15.77290435485">
        <ele>122</ele>
        <time>2015-01-14T20:33:44Z</time>
        <extensions><gpxtpx:TrackPointExtension><gpxtpx:hr>141</gpxtpx:hr></gpxtpx:TrackPointExtension></extensions>
      </trkpt>
      <trkpt lat="60.00437589484" lon="15.772914496949">
        <ele>122</ele>
        <time>2015-01-14T20:33:49Z</time>
        <extensions><gpxtpx:TrackPointExtension><gpxtpx:hr>142</gpxtpx:hr></gpxtpx:TrackPointExtension></extensions>
      </trkpt>
      <trkpt lat="60.00438008579" lon="15.772909886904">
        <ele>122.2</ele>
        <time>2015-01-14T20:33:55Z</time>
        <extensions><gpxtpx:TrackPointExtension><gpxtpx:hr>141</gpxtpx:hr></gpxtpx:TrackPointExtension></extensions>
      </trkpt>
      <trkpt lat="60.004381678351" lon="15.772912569112">
        <ele>122.6</ele>
        <time>2015-01-14T20:33:59Z</time>
        <extensions><gpxtpx:TrackPointExtension><gpxtpx:hr>138</gpxtpx:hr></gpxtpx:TrackPointExtension></extensions>
      </trkpt>
      <trkpt lat="60.004370614243" lon="15.772924639048">
        <ele>122.6</ele>
        <time>2015-01-14T20:34:03Z</time>
        <extensions><gpxtpx:TrackPointExtension><gpxtpx:hr>137</gpxtpx:hr></gpxtpx:TrackPointExtension></extensions>
      </trkpt>
      <trkpt lat="60.004371368614" lon="15.772933523862">
        <ele>122.4</ele>
        <time>2015-01-14T20:34:07Z</time>
        <extensions><gpxtpx:TrackPointExtension><gpxtpx:hr>138</gpxtpx:hr></gpxtpx:TrackPointExtension></extensions>
      </trkpt>
      <trkpt lat="60.004357035565" lon="15.7729336915">
        <ele>122.2</ele>
        <time>2015-01-14T20:34:14Z</time>
        <extensions><gpxtpx:TrackPointExtension><gpxtpx:hr>140</gpxtpx:hr></gpxtpx:TrackPointExtension></extensions>
      </trkpt>
      <trkpt lat="60.004350078588" lon="15.772946348169">
        <ele>122.8</ele>
        <time>2015-01-14T20:34:23Z</time>
        <extensions><gpxtpx:TrackPointExtension><gpxtpx:hr>141</gpxtpx:hr></gpxtpx:TrackPointExtension></extensions>
      </trkpt>
      <trkpt lat="60.004341109955" lon="15.772966632367">
        <ele>123</ele>
        <time>2015-01-14T20:34:28Z</time>
        <extensions><gpxtpx:TrackPointExtension><gpxtpx:hr>139</gpxtpx:hr></gpxtpx:TrackPointExtension></extensions>
      </trkpt>
      <trkpt lat="60.004323005051" lon="15.773000243786">
        <ele>123.2</ele>
        <time>2015-01-14T20:34:30Z</time>
        <extensions><gpxtpx:TrackPointExtension><gpxtpx:hr>139</gpxtpx:hr></gpxtpx:TrackPointExtension></extensions>
      </trkpt>
      <trkpt lat="60.004298613722" lon="15.773043662028">
        <ele>123.2</ele>
        <time>2015-01-14T20:34:32Z</time>
        <extensions><gpxtpx:TrackPointExtension><gpxtpx:hr>139</gpxtpx:hr></gpxtpx:TrackPointExtension></extensions>
      </trkpt>
      <trkpt lat="60.004285873234" lon="15.773057827439">
        <ele>123.2</ele>
        <time>2015-01-14T20:34:36Z</time>
        <extensions><gpxtpx:TrackPointExtension><gpxtpx:hr>140</gpxtpx:hr></gpxtpx:TrackPointExtension></extensions>
      </trkpt>
      <trkpt lat="60.00428201756" lon="15.773047433883">
        <ele>122.6</ele>
        <time>2015-01-14T20:34:44Z</time>
        <extensions><gpxtpx:TrackPointExtension><gpxtpx:hr>139</gpxtpx:hr></gpxtpx:TrackPointExtension></extensions>
      </trkpt>
      <trkpt lat="60.004280844094" lon="15.773045254589">
        <ele>122.8</ele>
        <time>2015-01-14T20:34:53Z</time>
        <extensions><gpxtpx:TrackPointExtension><gpxtpx:hr>139</gpxtpx:hr></gpxtpx:TrackPointExtension></extensions>
      </trkpt>
      <trkpt lat="60.004262487733" lon="15.773063527131">
        <ele>122.6</ele>
        <time>2015-01-14T20:35:01Z</time>
        <extensions><gpxtpx:TrackPointExtension><gpxtpx:hr>138</gpxtpx:hr></gpxtpx:TrackPointExtension></extensions>
      </trkpt>
      <trkpt lat="60.00426022462" lon="15.773041566553">
        <ele>122.2</ele>
        <time>2015-01-14T20:35:04Z</time>
        <extensions><gpxtpx:TrackPointExtension><gpxtpx:hr>139</gpxtpx:hr></gpxtpx:TrackPointExtension></extensions>
      </trkpt>
      <trkpt lat="60.004257123317" lon="15.773041901829">
        <ele>122</ele>
        <time>2015-01-14T20:35:06Z</time>
        <extensions><gpxtpx:TrackPointExtension><gpxtpx:hr>139</gpxtpx:hr></gpxtpx:TrackPointExtension></extensions>
      </trkpt>
      <trkpt lat="60.004244047553" lon="15.77307450742">
        <ele>122.4</ele>
        <time>2015-01-14T20:35:15Z</time>
        <extensions><gpxtpx:TrackPointExtension><gpxtpx:hr>139</gpxtpx:hr></gpxtpx:TrackPointExtension></extensions>
      </trkpt>
      <trkpt lat="60.004163665132" lon="15.773174503487">
        <ele>122.2</ele>
        <time>2015-01-14T20:35:22Z</time>
        <extensions><gpxtpx:TrackPointExtension><gpxtpx:hr>137</gpxtpx:hr></gpxtpx:TrackPointExtension></extensions>
      </trkpt>
      <trkpt lat="60.004104572737" lon="15.773223789059">
        <ele>122.2</ele>
        <time>2015-01-14T20:35:32Z</time>
        <extensions><gpxtpx:TrackPointExtension><gpxtpx:hr>135</gpxtpx:hr></gpxtpx:TrackPointExtension></extensions>
      </trkpt>
      <trkpt lat="60.004058723744" lon="15.773229069656">
        <ele>122.6</ele>
        <time>2015-01-14T20:35:41Z</time>
        <extensions><gpxtpx:TrackPointExtension><gpxtpx:hr>135</gpxtpx:hr></gpxtpx:TrackPointExtension></extensions>
      </trkpt>
      <trkpt lat="60.004043552505" lon="15.773224794887">
        <ele>122.4</ele>
        <time>2015-01-14T20:35:48Z</time>
        <extensions><gpxtpx:TrackPointExtension><gpxtpx:hr>136</gpxtpx:hr></gpxtpx:TrackPointExtension></extensions>
      </trkpt>
      <trkpt lat="60.004015556959" lon="15.77322119067">
        <ele>122.2</ele>
        <time>2015-01-14T20:35:57Z</time>
        <extensions><gpxtpx:TrackPointExtension><gpxtpx:hr>136</gpxtpx:hr></gpxtpx:TrackPointExtension></extensions>
      </trkpt>
      <trkpt lat="60.003994937485" lon="15.77321616153">
        <ele>122.8</ele>
        <time>2015-01-14T20:36:04Z</time>
        <extensions><gpxtpx:TrackPointExtension><gpxtpx:hr>138</gpxtpx:hr></gpxtpx:TrackPointExtension></extensions>
      </trkpt>
      <trkpt lat="60.00397104907" lon="15.773212976408">
        <ele>123.2</ele>
        <time>2015-01-14T20:36:10Z</time>
        <extensions><gpxtpx:TrackPointExtension><gpxtpx:hr>139</gpxtpx:hr></gpxtpx:TrackPointExtension></extensions>
      </trkpt>
      <trkpt lat="60.003960823152" lon="15.773198894816">
        <ele>123.4</ele>
        <time>2015-01-14T20:36:16Z</time>
        <extensions><gpxtpx:TrackPointExtension><gpxtpx:hr>139</gpxtpx:hr></gpxtpx:TrackPointExtension></extensions>
      </trkpt>
      <trkpt lat="60.003954955822" lon="15.773204594508">
        <ele>122.8</ele>
        <time>2015-01-14T20:36:23Z</time>
        <extensions><gpxtpx:TrackPointExtension><gpxtpx:hr>141</gpxtpx:hr></gpxtpx:TrackPointExtension></extensions>
      </trkpt>
      <trkpt lat="60.003952441252" lon="15.773186154328">
        <ele>123.2</ele>
        <time>2015-01-14T20:36:29Z</time>
        <extensions><gpxtpx:TrackPointExtension><gpxtpx:hr>141</gpxtpx:hr></gpxtpx:TrackPointExtension></extensions>
      </trkpt>
      <trkpt lat="60.003952022157" lon="15.773173078564">
        <ele>123.6</ele>
        <time>2015-01-14T20:36:34Z</time>
        <extensions><gpxtpx:TrackPointExtension><gpxtpx:hr>140</gpxtpx:hr></gpxtpx:TrackPointExtension></extensions>
      </trkpt>
      <trkpt lat="60.003948837035" lon="15.773171988917">
        <ele>124.2</ele>
        <time>2015-01-14T20:36:39Z</time>
        <extensions><gpxtpx:TrackPointExtension><gpxtpx:hr>140</gpxtpx:hr></gpxtpx:TrackPointExtension></extensions>
      </trkpt>
      <trkpt lat="60.003928133742" lon="15.773145418294">
        <ele>124.2</ele>
        <time>2015-01-14T20:36:42Z</time>
        <extensions><gpxtpx:TrackPointExtension><gpxtpx:hr>139</gpxtpx:hr></gpxtpx:TrackPointExtension></extensions>
      </trkpt>
      <trkpt lat="60.003895528151" lon="15.77302840697">
        <ele>124.8</ele>
        <time>2015-01-14T20:36:50Z</time>
        <extensions><gpxtpx:TrackPointExtension><gpxtpx:hr>138</gpxtpx:hr></gpxtpx:TrackPointExtension></extensions>
      </trkpt>
      <trkpt lat="60.00389058283" lon="15.772992783895">
        <ele>124.8</ele>
        <time>2015-01-14T20:36:52Z</time>
        <extensions><gpxtpx:TrackPointExtension><gpxtpx:hr>140</gpxtpx:hr></gpxtpx:TrackPointExtension></extensions>
      </trkpt>
      <trkpt lat="60.003882033292" lon="15.772944252694">
        <ele>124.6</ele>
        <time>2015-01-14T20:36:54Z</time>
        <extensions><gpxtpx:TrackPointExtension><gpxtpx:hr>141</gpxtpx:hr></gpxtpx:TrackPointExtension></extensions>
      </trkpt>
      <trkpt lat="60.003876249781" lon="15.772890189439">
        <ele>124.6</ele>
        <time>2015-01-14T20:36:56Z</time>
        <extensions><gpxtpx:TrackPointExtension><gpxtpx:hr>143</gpxtpx:hr></gpxtpx:TrackPointExtension></extensions>
      </trkpt>
      <trkpt lat="60.00384783514" lon="15.772762952197">
        <ele>125</ele>
        <time>2015-01-14T20:37:00Z</time>
        <extensions><gpxtpx:TrackPointExtension><gpxtpx:hr>146</gpxtpx:hr></gpxtpx:TrackPointExtension></extensions>
      </trkpt>
      <trkpt lat="60.00384364419" lon="15.772706877286">
        <ele>125.2</ele>
        <time>2015-01-14T20:37:02Z</time>
        <extensions><gpxtpx:TrackPointExtension><gpxtpx:hr>147</gpxtpx:hr></gpxtpx:TrackPointExtension></extensions>
      </trkpt>
      <trkpt lat="60.003828305313" lon="15.772614676386">
        <ele>125.4</ele>
        <time>2015-01-14T20:37:05Z</time>
        <extensions><gpxtpx:TrackPointExtension><gpxtpx:hr>149</gpxtpx:hr></gpxtpx:TrackPointExtension></extensions>
      </trkpt>
      <trkpt lat="60.003821935069" lon="15.772522391667">
        <ele>126.2</ele>
        <time>2015-01-14T20:37:09Z</time>
        <extensions><gpxtpx:TrackPointExtension><gpxtpx:hr>151</gpxtpx:hr></gpxtpx:TrackPointExtension></extensions>
      </trkpt>
      <trkpt lat="60.003824784915" lon="15.772496910691">
        <ele>126.4</ele>
        <time>2015-01-14T20:37:11Z</time>
        <extensions><gpxtpx:TrackPointExtension><gpxtpx:hr>151</gpxtpx:hr></gpxtpx:TrackPointExtension></extensions>
      </trkpt>
      <trkpt lat="60.003824868734" lon="15.772426670369">
        <ele>127</ele>
        <time>2015-01-14T20:37:14Z</time>
        <extensions><gpxtpx:TrackPointExtension><gpxtpx:hr>151</gpxtpx:hr></gpxtpx:TrackPointExtension></extensions>
      </trkpt>
      <trkpt lat="60.003819671956" lon="15.772313766176">
        <ele>126.8</ele>
        <time>2015-01-14T20:37:19Z</time>
        <extensions><gpxtpx:TrackPointExtension><gpxtpx:hr>150</gpxtpx:hr></gpxtpx:TrackPointExtension></extensions>
      </trkpt>
      <trkpt lat="60.003822940897" lon="15.772143026873">
        <ele>127.4</ele>
        <time>2015-01-14T20:37:24Z</time>
        <extensions><gpxtpx:TrackPointExtension><gpxtpx:hr>151</gpxtpx:hr></gpxtpx:TrackPointExtension></extensions>
      </trkpt>
      <trkpt lat="60.003874154306" lon="15.771908417492">
        <ele>128</ele>
        <time>2015-01-14T20:37:30Z</time>
        <extensions><gpxtpx:TrackPointExtension><gpxtpx:hr>151</gpxtpx:hr></gpxtpx:TrackPointExtension></extensions>
      </trkpt>
      <trkpt lat="60.003911789037" lon="15.771789059236">
        <ele>128.4</ele>
        <time>2015-01-14T20:37:35Z</time>
        <extensions><gpxtpx:TrackPointExtension><gpxtpx:hr>151</gpxtpx:hr></gpxtpx:TrackPointExtension></extensions>
      </trkpt>
      <trkpt lat="60.003918326919" lon="15.771774810006">
        <ele>128.6</ele>
        <time>2015-01-14T20:37:37Z</time>
        <extensions><gpxtpx:TrackPointExtension><gpxtpx:hr>151</gpxtpx:hr></gpxtpx:TrackPointExtension></extensions>
      </trkpt>
      <trkpt lat="60.003923691335" lon="15.771776570205">
        <ele>128.8</ele>
        <time>2015-01-14T20:37:41Z</time>
        <extensions><gpxtpx:TrackPointExtension><gpxtpx:hr>149</gpxtpx:hr></gpxtpx:TrackPointExtension></extensions>
      </trkpt>
      <trkpt lat="60.003939114031" lon="15.771758800577">
        <ele>128.6</ele>
        <time>2015-01-14T20:37:48Z</time>
        <extensions><gpxtpx:TrackPointExtension><gpxtpx:hr>149</gpxtpx:hr></gpxtpx:TrackPointExtension></extensions>
      </trkpt>
      <trkpt lat="60.003963589179" lon="15.771748323202">
        <ele>128.2</ele>
        <time>2015-01-14T20:37:56Z</time>
        <extensions><gpxtpx:TrackPointExtension><gpxtpx:hr>147</gpxtpx:hr></gpxtpx:TrackPointExtension></extensions>
      </trkpt>
      <trkpt lat="60.003983873377" lon="15.771725272977">
        <ele>128.6</ele>
        <time>2015-01-14T20:38:03Z</time>
        <extensions><gpxtpx:TrackPointExtension><gpxtpx:hr>145</gpxtpx:hr></gpxtpx:TrackPointExtension></extensions>
      </trkpt>
      <trkpt lat="60.003979933884" lon="15.771720579113">
        <ele>128.4</ele>
        <time>2015-01-14T20:38:07Z</time>
        <extensions><gpxtpx:TrackPointExtension><gpxtpx:hr>142</gpxtpx:hr></gpxtpx:TrackPointExtension></extensions>
      </trkpt>
      <trkpt lat="60.003980939712" lon="15.771717058715">
        <ele>128.4</ele>
        <time>2015-01-14T20:38:08Z</time>
        <extensions><gpxtpx:TrackPointExtension><gpxtpx:hr>143</gpxtpx:hr></gpxtpx:TrackPointExtension></extensions>
      </trkpt>
      <trkpt lat="60.003985130662" lon="15.771711694299">
        <ele>128.2</ele>
        <time>2015-01-14T20:38:13Z</time>
        <extensions><gpxtpx:TrackPointExtension><gpxtpx:hr>143</gpxtpx:hr></gpxtpx:TrackPointExtension></extensions>
      </trkpt>
      <trkpt lat="60.003985549757" lon="15.771697612707">
        <ele>128.4</ele>
        <time>2015-01-14T20:38:18Z</time>
        <extensions><gpxtpx:TrackPointExtension><gpxtpx:hr>142</gpxtpx:hr></gpxtpx:TrackPointExtension></extensions>
      </trkpt>
      <trkpt lat="60.003986807042" lon="15.771660648528">
        <ele>128.8</ele>
        <time>2015-01-14T20:38:24Z</time>
        <extensions><gpxtpx:TrackPointExtension><gpxtpx:hr>141</gpxtpx:hr></gpxtpx:TrackPointExtension></extensions>
      </trkpt>
      <trkpt lat="60.003991752363" lon="15.771645980203">
        <ele>128.8</ele>
        <time>2015-01-14T20:38:29Z</time>
        <extensions><gpxtpx:TrackPointExtension><gpxtpx:hr>141</gpxtpx:hr></gpxtpx:TrackPointExtension></extensions>
      </trkpt>
      <trkpt lat="60.003997116779" lon="15.771640029054">
        <ele>128.8</ele>
        <time>2015-01-14T20:38:33Z</time>
        <extensions><gpxtpx:TrackPointExtension><gpxtpx:hr>139</gpxtpx:hr></gpxtpx:TrackPointExtension></extensions>
      </trkpt>
      <trkpt lat="60.004000134263" lon="15.77162862967">
        <ele>128.8</ele>
        <time>2015-01-14T20:38:37Z</time>
        <extensions><gpxtpx:TrackPointExtension><gpxtpx:hr>140</gpxtpx:hr></gpxtpx:TrackPointExtension></extensions>
      </trkpt>
      <trkpt lat="60.003995943313" lon="15.771617481743">
        <ele>128.8</ele>
        <time>2015-01-14T20:38:42Z</time>
        <extensions><gpxtpx:TrackPointExtension><gpxtpx:hr>140</gpxtpx:hr></gpxtpx:TrackPointExtension></extensions>
      </trkpt>
      <trkpt lat="60.004015137864" lon="15.771582193944">
        <ele>129</ele>
        <time>2015-01-14T20:38:49Z</time>
        <extensions><gpxtpx:TrackPointExtension><gpxtpx:hr>139</gpxtpx:hr></gpxtpx:TrackPointExtension></extensions>
      </trkpt>
      <trkpt lat="60.004015389321" lon="15.771575572243">
        <ele>129</ele>
        <time>2015-01-14T20:38:55Z</time>
        <extensions><gpxtpx:TrackPointExtension><gpxtpx:hr>139</gpxtpx:hr></gpxtpx:TrackPointExtension></extensions>
      </trkpt>
      <trkpt lat="60.004030392922" lon="15.771515809296">
        <ele>129.2</ele>
        <time>2015-01-14T20:39:04Z</time>
        <extensions><gpxtpx:TrackPointExtension><gpxtpx:hr>137</gpxtpx:hr></gpxtpx:TrackPointExtension></extensions>
      </trkpt>
      <trkpt lat="60.004010108724" lon="15.771546319412">
        <ele>129.6</ele>
        <time>2015-01-14T20:39:09Z</time>
        <extensions><gpxtpx:TrackPointExtension><gpxtpx:hr>138</gpxtpx:hr></gpxtpx:TrackPointExtension></extensions>
      </trkpt>
      <trkpt lat="60.004003822299" lon="15.771560317185">
        <ele>129.6</ele>
        <time>2015-01-14T20:39:10Z</time>
        <extensions><gpxtpx:TrackPointExtension><gpxtpx:hr>138</gpxtpx:hr></gpxtpx:TrackPointExtension></extensions>
      </trkpt>
      <trkpt lat="60.003954788184" lon="15.771675484491">
        <ele>129.4</ele>
        <time>2015-01-14T20:39:15Z</time>
        <extensions><gpxtpx:TrackPointExtension><gpxtpx:hr>136</gpxtpx:hr></gpxtpx:TrackPointExtension></extensions>
      </trkpt>
      <trkpt lat="60.003877423247" lon="15.771872878236">
        <ele>128.6</ele>
        <time>2015-01-14T20:39:19Z</time>
        <extensions><gpxtpx:TrackPointExtension><gpxtpx:hr>135</gpxtpx:hr></gpxtpx:TrackPointExtension></extensions>
      </trkpt>
      <trkpt lat="60.003865353311" lon="15.771934988115">
        <ele>128.2</ele>
        <time>2015-01-14T20:39:21Z</time>
        <extensions><gpxtpx:TrackPointExtension><gpxtpx:hr>136</gpxtpx:hr></gpxtpx:TrackPointExtension></extensions>
      </trkpt>
      <trkpt lat="60.003863928388" lon="15.771936077762">
        <ele>128.2</ele>
        <time>2015-01-14T20:39:23Z</time>
        <extensions><gpxtpx:TrackPointExtension><gpxtpx:hr>135</gpxtpx:hr></gpxtpx:TrackPointExtension></extensions>
      </trkpt>
      <trkpt lat="60.003870633908" lon="15.771918056677">
        <ele>128</ele>
        <time>2015-01-14T20:39:24Z</time>
        <extensions><gpxtpx:TrackPointExtension><gpxtpx:hr>136</gpxtpx:hr></gpxtpx:TrackPointExtension></extensions>
      </trkpt>
      <trkpt lat="60.003875076315" lon="15.771915625926">
        <ele>128.2</ele>
        <time>2015-01-14T20:39:28Z</time>
        <extensions><gpxtpx:TrackPointExtension><gpxtpx:hr>135</gpxtpx:hr></gpxtpx:TrackPointExtension></extensions>
      </trkpt>
      <trkpt lat="60.003913716874" lon="15.7717853712">
        <ele>128.2</ele>
        <time>2015-01-14T20:39:33Z</time>
        <extensions><gpxtpx:TrackPointExtension><gpxtpx:hr>137</gpxtpx:hr></gpxtpx:TrackPointExtension></extensions>
      </trkpt>
      <trkpt lat="60.003969121233" lon="15.77164539347">
        <ele>128.4</ele>
        <time>2015-01-14T20:39:38Z</time>
        <extensions><gpxtpx:TrackPointExtension><gpxtpx:hr>140</gpxtpx:hr></gpxtpx:TrackPointExtension></extensions>
      </trkpt>
      <trkpt lat="60.003985130662" lon="15.771614548078">
        <ele>128.6</ele>
        <time>2015-01-14T20:39:40Z</time>
        <extensions><gpxtpx:TrackPointExtension><gpxtpx:hr>141</gpxtpx:hr></gpxtpx:TrackPointExtension></extensions>
      </trkpt>
      <trkpt lat="60.003990243621" lon="15.771611111499">
        <ele>128.8</ele>
        <time>2015-01-14T20:39:44Z</time>
        <extensions><gpxtpx:TrackPointExtension><gpxtpx:hr>140</gpxtpx:hr></gpxtpx:TrackPointExtension></extensions>
      </trkpt>
      <trkpt lat="60.00398697468" lon="15.771602226685">
        <ele>128.8</ele>
        <time>2015-01-14T20:39:52Z</time>
        <extensions><gpxtpx:TrackPointExtension><gpxtpx:hr>138</gpxtpx:hr></gpxtpx:TrackPointExtension></extensions>
      </trkpt>
      <trkpt lat="60.003990914173" lon="15.771590659663">
        <ele>129.2</ele>
        <time>2015-01-14T20:39:59Z</time>
        <extensions><gpxtpx:TrackPointExtension><gpxtpx:hr>136</gpxtpx:hr></gpxtpx:TrackPointExtension></extensions>
      </trkpt>
      <trkpt lat="60.004006336869" lon="15.771540787358">
        <ele>129</ele>
        <time>2015-01-14T20:40:06Z</time>
        <extensions><gpxtpx:TrackPointExtension><gpxtpx:hr>137</gpxtpx:hr></gpxtpx:TrackPointExtension></extensions>
      </trkpt>
      <trkpt lat="60.004019161176" lon="15.77151882678">
        <ele>129.2</ele>
        <time>2015-01-14T20:40:10Z</time>
        <extensions><gpxtpx:TrackPointExtension><gpxtpx:hr>134</gpxtpx:hr></gpxtpx:TrackPointExtension></extensions>
      </trkpt>
      <trkpt lat="60.004019747909" lon="15.771518575323">
        <ele>129.4</ele>
        <time>2015-01-14T20:40:13Z</time>
        <extensions><gpxtpx:TrackPointExtension><gpxtpx:hr>134</gpxtpx:hr></gpxtpx:TrackPointExtension></extensions>
      </trkpt>
      <trkpt lat="60.004041540849" lon="15.771477252556">
        <ele>129.4</ele>
        <time>2015-01-14T20:40:20Z</time>
        <extensions><gpxtpx:TrackPointExtension><gpxtpx:hr>134</gpxtpx:hr></gpxtpx:TrackPointExtension></extensions>
      </trkpt>
      <trkpt lat="60.004052521138" lon="15.771448251182">
        <ele>129.4</ele>
        <time>2015-01-14T20:40:22Z</time>
        <extensions><gpxtpx:TrackPointExtension><gpxtpx:hr>134</gpxtpx:hr></gpxtpx:TrackPointExtension></extensions>
      </trkpt>
      <trkpt lat="60.004069620214" lon="15.771420507093">
        <ele>129.6</ele>
        <time>2015-01-14T20:40:24Z</time>
        <extensions><gpxtpx:TrackPointExtension><gpxtpx:hr>134</gpxtpx:hr></gpxtpx:TrackPointExtension></extensions>
      </trkpt>
      <trkpt lat="60.004087725118" lon="15.771390667529">
        <ele>129.8</ele>
        <time>2015-01-14T20:40:26Z</time>
        <extensions><gpxtpx:TrackPointExtension><gpxtpx:hr>134</gpxtpx:hr></gpxtpx:TrackPointExtension></extensions>
      </trkpt>
      <trkpt lat="60.004123012917" lon="15.77133945412">
        <ele>130</ele>
        <time>2015-01-14T20:40:30Z</time>
        <extensions><gpxtpx:TrackPointExtension><gpxtpx:hr>137</gpxtpx:hr></gpxtpx:TrackPointExtension></extensions>
      </trkpt>
      <trkpt lat="60.004134244663" lon="15.77132352851">
        <ele>130</ele>
        <time>2015-01-14T20:40:31Z</time>
        <extensions><gpxtpx:TrackPointExtension><gpxtpx:hr>137</gpxtpx:hr></gpxtpx:TrackPointExtension></extensions>
      </trkpt>
      <trkpt lat="60.004171627937" lon="15.771254461654">
        <ele>130</ele>
        <time>2015-01-14T20:40:37Z</time>
        <extensions><gpxtpx:TrackPointExtension><gpxtpx:hr>139</gpxtpx:hr></gpxtpx:TrackPointExtension></extensions>
      </trkpt>
      <trkpt lat="60.004191744497" lon="15.771195955992">
        <ele>130.4</ele>
        <time>2015-01-14T20:40:46Z</time>
        <extensions><gpxtpx:TrackPointExtension><gpxtpx:hr>138</gpxtpx:hr></gpxtpx:TrackPointExtension></extensions>
      </trkpt>
      <trkpt lat="60.004212531609" lon="15.771045668525">
        <ele>130.6</ele>
        <time>2015-01-14T20:40:51Z</time>
        <extensions><gpxtpx:TrackPointExtension><gpxtpx:hr>141</gpxtpx:hr></gpxtpx:TrackPointExtension></extensions>
      </trkpt>
      <trkpt lat="60.004212531609" lon="15.771009039622">
        <ele>130.6</ele>
        <time>2015-01-14T20:40:52Z</time>
        <extensions><gpxtpx:TrackPointExtension><gpxtpx:hr>142</gpxtpx:hr></gpxtpx:TrackPointExtension></extensions>
      </trkpt>
      <trkpt lat="60.004212363971" lon="15.770975595841">
        <ele>130.6</ele>
        <time>2015-01-14T20:40:53Z</time>
        <extensions><gpxtpx:TrackPointExtension><gpxtpx:hr>142</gpxtpx:hr></gpxtpx:TrackPointExtension></extensions>
      </trkpt>
      <trkpt lat="60.004212196333" lon="15.770910049383">
        <ele>131</ele>
        <time>2015-01-14T20:40:55Z</time>
        <extensions><gpxtpx:TrackPointExtension><gpxtpx:hr>145</gpxtpx:hr></gpxtpx:TrackPointExtension></extensions>
      </trkpt>
      <trkpt lat="60.004212783066" lon="15.77078289596">
        <ele>131.8</ele>
        <time>2015-01-14T20:40:58Z</time>
        <extensions><gpxtpx:TrackPointExtension><gpxtpx:hr>146</gpxtpx:hr></gpxtpx:TrackPointExtension></extensions>
      </trkpt>
      <trkpt lat="60.00421328598" lon="15.77076026483">
        <ele>132</ele>
        <time>2015-01-14T20:40:59Z</time>
        <extensions><gpxtpx:TrackPointExtension><gpxtpx:hr>147</gpxtpx:hr></gpxtpx:TrackPointExtension></extensions>
      </trkpt>
      <trkpt lat="60.00421244779" lon="15.77060771425">
        <ele>132.4</ele>
        <time>2015-01-14T20:41:03Z</time>
        <extensions><gpxtpx:TrackPointExtension><gpxtpx:hr>148</gpxtpx:hr></gpxtpx:TrackPointExtension></extensions>
      </trkpt>
      <trkpt lat="60.004218482758" lon="15.770476453696">
        <ele>133</ele>
        <time>2015-01-14T20:41:06Z</time>
        <extensions><gpxtpx:TrackPointExtension><gpxtpx:hr>147</gpxtpx:hr></gpxtpx:TrackPointExtension></extensions>
      </trkpt>
      <trkpt lat="60.004211106686" lon="15.770454074023">
        <ele>133</ele>
        <time>2015-01-14T20:41:07Z</time>
        <extensions><gpxtpx:TrackPointExtension><gpxtpx:hr>148</gpxtpx:hr></gpxtpx:TrackPointExtension></extensions>
      </trkpt>
      <trkpt lat="60.004185793348" lon="15.770321807641">
        <ele>133.6</ele>
        <time>2015-01-14T20:41:11Z</time>
        <extensions><gpxtpx:TrackPointExtension><gpxtpx:hr>148</gpxtpx:hr></gpxtpx:TrackPointExtension></extensions>
      </trkpt>
      <trkpt lat="60.004162491666" lon="15.770260200676">
        <ele>134</ele>
        <time>2015-01-14T20:41:13Z</time>
        <extensions><gpxtpx:TrackPointExtension><gpxtpx:hr>149</gpxtpx:hr></gpxtpx:TrackPointExtension></extensions>
      </trkpt>
      <trkpt lat="60.004136926871" lon="15.77021376495">
        <ele>134.4</ele>
        <time>2015-01-14T20:41:15Z</time>
        <extensions><gpxtpx:TrackPointExtension><gpxtpx:hr>150</gpxtpx:hr></gpxtpx:TrackPointExtension></extensions>
      </trkpt>
      <trkpt lat="60.004120582166" lon="15.770188870707">
        <ele>134.6</ele>
        <time>2015-01-14T20:41:16Z</time>
        <extensions><gpxtpx:TrackPointExtension><gpxtpx:hr>151</gpxtpx:hr></gpxtpx:TrackPointExtension></extensions>
      </trkpt>
      <trkpt lat="60.004107422583" lon="15.770184679757">
        <ele>134.8</ele>
        <time>2015-01-14T20:41:17Z</time>
        <extensions><gpxtpx:TrackPointExtension><gpxtpx:hr>151</gpxtpx:hr></gpxtpx:TrackPointExtension></extensions>
      </trkpt>
      <trkpt lat="60.004079594675" lon="15.77016682631">
        <ele>135.2</ele>
        <time>2015-01-14T20:41:19Z</time>
        <extensions><gpxtpx:TrackPointExtension><gpxtpx:hr>153</gpxtpx:hr></gpxtpx:TrackPointExtension></extensions>
      </trkpt>
      <trkpt lat="60.004067608558" lon="15.770173028916">
        <ele>135.2</ele>
        <time>2015-01-14T20:41:20Z</time>
        <extensions><gpxtpx:TrackPointExtension><gpxtpx:hr>153</gpxtpx:hr></gpxtpx:TrackPointExtension></extensions>
      </trkpt>
      <trkpt lat="60.004019580271" lon="15.770203036118">
        <ele>135.6</ele>
        <time>2015-01-14T20:41:23Z</time>
        <extensions><gpxtpx:TrackPointExtension><gpxtpx:hr>154</gpxtpx:hr></gpxtpx:TrackPointExtension></extensions>
      </trkpt>
      <trkpt lat="60.003992422915" lon="15.770198174616">
        <ele>135.6</ele>
        <time>2015-01-14T20:41:24Z</time>
        <extensions><gpxtpx:TrackPointExtension><gpxtpx:hr>155</gpxtpx:hr></gpxtpx:TrackPointExtension></extensions>
      </trkpt>
      <trkpt lat="60.003975072382" lon="15.770198761349">
        <ele>135.4</ele>
        <time>2015-01-14T20:41:25Z</time>
        <extensions><gpxtpx:TrackPointExtension><gpxtpx:hr>155</gpxtpx:hr></gpxtpx:TrackPointExtension></extensions>
      </trkpt>
      <trkpt lat="60.00385705523" lon="15.770229103827">
        <ele>135.8</ele>
        <time>2015-01-14T20:41:30Z</time>
        <extensions><gpxtpx:TrackPointExtension><gpxtpx:hr>155</gpxtpx:hr></gpxtpx:TrackPointExtension></extensions>
      </trkpt>
      <trkpt lat="60.003709785247" lon="15.77032021508">
        <ele>136</ele>
        <time>2015-01-14T20:41:35Z</time>
        <extensions><gpxtpx:TrackPointExtension><gpxtpx:hr>153</gpxtpx:hr></gpxtpx:TrackPointExtension></extensions>
      </trkpt>
      <trkpt lat="60.003596629597" lon="15.770394478714">
        <ele>135.8</ele>
        <time>2015-01-14T20:41:40Z</time>
        <extensions><gpxtpx:TrackPointExtension><gpxtpx:hr>153</gpxtpx:hr></gpxtpx:TrackPointExtension></extensions>
      </trkpt>
      <trkpt lat="60.003478277169" lon="15.770448793426">
        <ele>136.2</ele>
        <time>2015-01-14T20:41:44Z</time>
        <extensions><gpxtpx:TrackPointExtension><gpxtpx:hr>153</gpxtpx:hr></gpxtpx:TrackPointExtension></extensions>
      </trkpt>
      <trkpt lat="60.003452460917" lon="15.770451475634">
        <ele>136.2</ele>
        <time>2015-01-14T20:41:45Z</time>
        <extensions><gpxtpx:TrackPointExtension><gpxtpx:hr>153</gpxtpx:hr></gpxtpx:TrackPointExtension></extensions>
      </trkpt>
      <trkpt lat="60.003415999652" lon="15.77045432548">
        <ele>136.6</ele>
        <time>2015-01-14T20:41:48Z</time>
        <extensions><gpxtpx:TrackPointExtension><gpxtpx:hr>153</gpxtpx:hr></gpxtpx:TrackPointExtension></extensions>
      </trkpt>
      <trkpt lat="60.003394877264" lon="15.770467820339">
        <ele>136.6</ele>
        <time>2015-01-14T20:41:53Z</time>
        <extensions><gpxtpx:TrackPointExtension><gpxtpx:hr>151</gpxtpx:hr></gpxtpx:TrackPointExtension></extensions>
      </trkpt>
      <trkpt lat="60.003364367148" lon="15.770475950782">
        <ele>136.2</ele>
        <time>2015-01-14T20:41:59Z</time>
        <extensions><gpxtpx:TrackPointExtension><gpxtpx:hr>149</gpxtpx:hr></gpxtpx:TrackPointExtension></extensions>
      </trkpt>
      <trkpt lat="60.003351123746" lon="15.770490702926">
        <ele>136.4</ele>
        <time>2015-01-14T20:42:04Z</time>
        <extensions><gpxtpx:TrackPointExtension><gpxtpx:hr>149</gpxtpx:hr></gpxtpx:TrackPointExtension></extensions>
      </trkpt>
      <trkpt lat="60.003338969991" lon="15.770505706527">
        <ele>135.8</ele>
        <time>2015-01-14T20:42:08Z</time>
        <extensions><gpxtpx:TrackPointExtension><gpxtpx:hr>147</gpxtpx:hr></gpxtpx:TrackPointExtension></extensions>
      </trkpt>
      <trkpt lat="60.003320529811" lon="15.770522386508">
        <ele>136</ele>
        <time>2015-01-14T20:42:14Z</time>
        <extensions><gpxtpx:TrackPointExtension><gpxtpx:hr>146</gpxtpx:hr></gpxtpx:TrackPointExtension></extensions>
      </trkpt>
      <trkpt lat="60.003311561178" lon="15.770530349313">
        <ele>136</ele>
        <time>2015-01-14T20:42:19Z</time>
        <extensions><gpxtpx:TrackPointExtension><gpxtpx:hr>145</gpxtpx:hr></gpxtpx:TrackPointExtension></extensions>
      </trkpt>
      <trkpt lat="60.003303179278" lon="15.770542419249">
        <ele>136</ele>
        <time>2015-01-14T20:42:24Z</time>
        <extensions><gpxtpx:TrackPointExtension><gpxtpx:hr>144</gpxtpx:hr></gpxtpx:TrackPointExtension></extensions>
      </trkpt>
      <trkpt lat="60.003292534265" lon="15.770551471701">
        <ele>136.2</ele>
        <time>2015-01-14T20:42:30Z</time>
        <extensions><gpxtpx:TrackPointExtension><gpxtpx:hr>145</gpxtpx:hr></gpxtpx:TrackPointExtension></extensions>
      </trkpt>
      <trkpt lat="60.003277949759" lon="15.770562032895">
        <ele>136.6</ele>
        <time>2015-01-14T20:42:37Z</time>
        <extensions><gpxtpx:TrackPointExtension><gpxtpx:hr>143</gpxtpx:hr></gpxtpx:TrackPointExtension></extensions>
      </trkpt>
      <trkpt lat="60.003255570086" lon="15.770570498614">
        <ele>136.4</ele>
        <time>2015-01-14T20:42:44Z</time>
        <extensions><gpxtpx:TrackPointExtension><gpxtpx:hr>140</gpxtpx:hr></gpxtpx:TrackPointExtension></extensions>
      </trkpt>
      <trkpt lat="60.003269651678" lon="15.77054485">
        <ele>136.4</ele>
        <time>2015-01-14T20:42:51Z</time>
        <extensions><gpxtpx:TrackPointExtension><gpxtpx:hr>139</gpxtpx:hr></gpxtpx:TrackPointExtension></extensions>
      </trkpt>
      <trkpt lat="60.003295635568" lon="15.770538898851">
        <ele>136</ele>
        <time>2015-01-14T20:42:57Z</time>
        <extensions><gpxtpx:TrackPointExtension><gpxtpx:hr>138</gpxtpx:hr></gpxtpx:TrackPointExtension></extensions>
      </trkpt>
      <trkpt lat="60.003312567006" lon="15.770536216643">
        <ele>136</ele>
        <time>2015-01-14T20:43:05Z</time>
        <extensions><gpxtpx:TrackPointExtension><gpxtpx:hr>136</gpxtpx:hr></gpxtpx:TrackPointExtension></extensions>
      </trkpt>
      <trkpt lat="60.003324720761" lon="15.770515094255">
        <ele>135.6</ele>
        <time>2015-01-14T20:43:12Z</time>
        <extensions><gpxtpx:TrackPointExtension><gpxtpx:hr>135</gpxtpx:hr></gpxtpx:TrackPointExtension></extensions>
      </trkpt>
      <trkpt lat="60.003343747674" lon="15.770493804229">
        <ele>135.6</ele>
        <time>2015-01-14T20:43:19Z</time>
        <extensions><gpxtpx:TrackPointExtension><gpxtpx:hr>135</gpxtpx:hr></gpxtpx:TrackPointExtension></extensions>
      </trkpt>
      <trkpt lat="60.00335414123" lon="15.770488607451">
        <ele>135.6</ele>
        <time>2015-01-14T20:43:25Z</time>
        <extensions><gpxtpx:TrackPointExtension><gpxtpx:hr>138</gpxtpx:hr></gpxtpx:TrackPointExtension></extensions>
      </trkpt>
      <trkpt lat="60.003358918913" lon="15.770488775089">
        <ele>135.6</ele>
        <time>2015-01-14T20:43:30Z</time>
        <extensions><gpxtpx:TrackPointExtension><gpxtpx:hr>139</gpxtpx:hr></gpxtpx:TrackPointExtension></extensions>
      </trkpt>
      <trkpt lat="60.003377359093" lon="15.770489697098">
        <ele>135.4</ele>
        <time>2015-01-14T20:43:36Z</time>
        <extensions><gpxtpx:TrackPointExtension><gpxtpx:hr>142</gpxtpx:hr></gpxtpx:TrackPointExtension></extensions>
      </trkpt>
      <trkpt lat="60.003384567527" lon="15.770498078998">
        <ele>135.8</ele>
        <time>2015-01-14T20:43:42Z</time>
        <extensions><gpxtpx:TrackPointExtension><gpxtpx:hr>142</gpxtpx:hr></gpxtpx:TrackPointExtension></extensions>
      </trkpt>
      <trkpt lat="60.003400576956" lon="15.770497492265">
        <ele>136</ele>
        <time>2015-01-14T20:43:48Z</time>
        <extensions><gpxtpx:TrackPointExtension><gpxtpx:hr>141</gpxtpx:hr></gpxtpx:TrackPointExtension></extensions>
      </trkpt>
      <trkpt lat="60.003375179799" lon="15.770498414274">
        <ele>136.2</ele>
        <time>2015-01-14T20:43:54Z</time>
        <extensions><gpxtpx:TrackPointExtension><gpxtpx:hr>141</gpxtpx:hr></gpxtpx:TrackPointExtension></extensions>
      </trkpt>
      <trkpt lat="60.003359757103" lon="15.770499755378">
        <ele>136.4</ele>
        <time>2015-01-14T20:44:00Z</time>
        <extensions><gpxtpx:TrackPointExtension><gpxtpx:hr>140</gpxtpx:hr></gpxtpx:TrackPointExtension></extensions>
      </trkpt>
      <trkpt lat="60.003348860633" lon="15.770513585513">
        <ele>136.2</ele>
        <time>2015-01-14T20:44:07Z</time>
        <extensions><gpxtpx:TrackPointExtension><gpxtpx:hr>139</gpxtpx:hr></gpxtpx:TrackPointExtension></extensions>
      </trkpt>
      <trkpt lat="60.003338131801" lon="15.770525906906">
        <ele>136.2</ele>
        <time>2015-01-14T20:44:15Z</time>
        <extensions><gpxtpx:TrackPointExtension><gpxtpx:hr>139</gpxtpx:hr></gpxtpx:TrackPointExtension></extensions>
      </trkpt>
      <trkpt lat="60.003325558951" lon="15.770531522779">
        <ele>136.2</ele>
        <time>2015-01-14T20:44:23Z</time>
        <extensions><gpxtpx:TrackPointExtension><gpxtpx:hr>136</gpxtpx:hr></gpxtpx:TrackPointExtension></extensions>
      </trkpt>
      <trkpt lat="60.003320445992" lon="15.77053395353">
        <ele>136.2</ele>
        <time>2015-01-14T20:44:27Z</time>
        <extensions><gpxtpx:TrackPointExtension><gpxtpx:hr>133</gpxtpx:hr></gpxtpx:TrackPointExtension></extensions>
      </trkpt>
      <trkpt lat="60.003313572834" lon="15.770530349313">
        <ele>136.2</ele>
        <time>2015-01-14T20:44:33Z</time>
        <extensions><gpxtpx:TrackPointExtension><gpxtpx:hr>130</gpxtpx:hr></gpxtpx:TrackPointExtension></extensions>
      </trkpt>
      <trkpt lat="60.00331139354" lon="15.77052892439">
        <ele>136.4</ele>
        <time>2015-01-14T20:44:35Z</time>
        <extensions><gpxtpx:TrackPointExtension><gpxtpx:hr>127</gpxtpx:hr></gpxtpx:TrackPointExtension></extensions>
      </trkpt>
      <trkpt lat="60.003285912564" lon="15.7705364681">
        <ele>136.6</ele>
        <time>2015-01-14T20:44:42Z</time>
        <extensions><gpxtpx:TrackPointExtension><gpxtpx:hr>128</gpxtpx:hr></gpxtpx:TrackPointExtension></extensions>
      </trkpt>
      <trkpt lat="60.003215756061" lon="15.770587513871">
        <ele>136.6</ele>
        <time>2015-01-14T20:44:47Z</time>
        <extensions><gpxtpx:TrackPointExtension><gpxtpx:hr>130</gpxtpx:hr></gpxtpx:TrackPointExtension></extensions>
      </trkpt>
      <trkpt lat="60.003166051394" lon="15.770614252132">
        <ele>137</ele>
        <time>2015-01-14T20:44:49Z</time>
        <extensions><gpxtpx:TrackPointExtension><gpxtpx:hr>133</gpxtpx:hr></gpxtpx:TrackPointExtension></extensions>
      </trkpt>
      <trkpt lat="60.003117939288" lon="15.770635793615">
        <ele>137</ele>
        <time>2015-01-14T20:44:51Z</time>
        <extensions><gpxtpx:TrackPointExtension><gpxtpx:hr>136</gpxtpx:hr></gpxtpx:TrackPointExtension></extensions>
      </trkpt>
      <trkpt lat="60.003094721425" lon="15.770646857723">
        <ele>137</ele>
        <time>2015-01-14T20:44:52Z</time>
        <extensions><gpxtpx:TrackPointExtension><gpxtpx:hr>138</gpxtpx:hr></gpxtpx:TrackPointExtension></extensions>
      </trkpt>
      <trkpt lat="60.003084830783" lon="15.770652054501">
        <ele>137.2</ele>
        <time>2015-01-14T20:44:54Z</time>
        <extensions><gpxtpx:TrackPointExtension><gpxtpx:hr>141</gpxtpx:hr></gpxtpx:TrackPointExtension></extensions>
      </trkpt>
      <trkpt lat="60.003060942368" lon="15.770664962627">
        <ele>137.2</ele>
        <time>2015-01-14T20:44:55Z</time>
        <extensions><gpxtpx:TrackPointExtension><gpxtpx:hr>143</gpxtpx:hr></gpxtpx:TrackPointExtension></extensions>
      </trkpt>
      <trkpt lat="60.003002017611" lon="15.770709051421">
        <ele>137.6</ele>
        <time>2015-01-14T20:44:58Z</time>
        <extensions><gpxtpx:TrackPointExtension><gpxtpx:hr>147</gpxtpx:hr></gpxtpx:TrackPointExtension></extensions>
      </trkpt>
      <trkpt lat="60.002949044003" lon="15.770751547654">
        <ele>138.4</ele>
        <time>2015-01-14T20:45:01Z</time>
        <extensions><gpxtpx:TrackPointExtension><gpxtpx:hr>150</gpxtpx:hr></gpxtpx:TrackPointExtension></extensions>
      </trkpt>
      <trkpt lat="60.002864302994" lon="15.770771077481">
        <ele>138.6</ele>
        <time>2015-01-14T20:45:05Z</time>
        <extensions><gpxtpx:TrackPointExtension><gpxtpx:hr>153</gpxtpx:hr></gpxtpx:TrackPointExtension></extensions>
      </trkpt>
      <trkpt lat="60.002836055991" lon="15.770779710838">
        <ele>138.8</ele>
        <time>2015-01-14T20:45:06Z</time>
        <extensions><gpxtpx:TrackPointExtension><gpxtpx:hr>153</gpxtpx:hr></gpxtpx:TrackPointExtension></extensions>
      </trkpt>
      <trkpt lat="60.002794984681" lon="15.770806700556">
        <ele>139.4</ele>
        <time>2015-01-14T20:45:08Z</time>
        <extensions><gpxtpx:TrackPointExtension><gpxtpx:hr>154</gpxtpx:hr></gpxtpx:TrackPointExtension></extensions>
      </trkpt>
      <trkpt lat="60.002749219507" lon="15.770777699182">
        <ele>139.6</ele>
        <time>2015-01-14T20:45:11Z</time>
        <extensions><gpxtpx:TrackPointExtension><gpxtpx:hr>154</gpxtpx:hr></gpxtpx:TrackPointExtension></extensions>
      </trkpt>
      <trkpt lat="60.002689624198" lon="15.7707041061">
        <ele>140.2</ele>
        <time>2015-01-14T20:45:15Z</time>
        <extensions><gpxtpx:TrackPointExtension><gpxtpx:hr>155</gpxtpx:hr></gpxtpx:TrackPointExtension></extensions>
      </trkpt>
      <trkpt lat="60.002674285321" lon="15.770684576273">
        <ele>140</ele>
        <time>2015-01-14T20:45:16Z</time>
        <extensions><gpxtpx:TrackPointExtension><gpxtpx:hr>155</gpxtpx:hr></gpxtpx:TrackPointExtension></extensions>
      </trkpt>
      <trkpt lat="60.002630112708" lon="15.770639314013">
        <ele>140.4</ele>
        <time>2015-01-14T20:45:19Z</time>
        <extensions><gpxtpx:TrackPointExtension><gpxtpx:hr>157</gpxtpx:hr></gpxtpx:TrackPointExtension></extensions>
      </trkpt>
      <trkpt lat="60.002616869306" lon="15.770625651516">
        <ele>140.6</ele>
        <time>2015-01-14T20:45:20Z</time>
        <extensions><gpxtpx:TrackPointExtension><gpxtpx:hr>157</gpxtpx:hr></gpxtpx:TrackPointExtension></extensions>
      </trkpt>
      <trkpt lat="60.002579402213" lon="15.770572761727">
        <ele>141.6</ele>
        <time>2015-01-14T20:45:23Z</time>
        <extensions><gpxtpx:TrackPointExtension><gpxtpx:hr>160</gpxtpx:hr></gpxtpx:TrackPointExtension></extensions>
      </trkpt>
      <trkpt lat="60.002558112187" lon="15.77053143896">
        <ele>142</ele>
        <time>2015-01-14T20:45:25Z</time>
        <extensions><gpxtpx:TrackPointExtension><gpxtpx:hr>161</gpxtpx:hr></gpxtpx:TrackPointExtension></extensions>
      </trkpt>
      <trkpt lat="60.002527350614" lon="15.770474022945">
        <ele>142.6</ele>
        <time>2015-01-14T20:45:27Z</time>
        <extensions><gpxtpx:TrackPointExtension><gpxtpx:hr>162</gpxtpx:hr></gpxtpx:TrackPointExtension></extensions>
      </trkpt>
      <trkpt lat="60.00250756933" lon="15.770436891128">
        <ele>142.6</ele>
        <time>2015-01-14T20:45:28Z</time>
        <extensions><gpxtpx:TrackPointExtension><gpxtpx:hr>162</gpxtpx:hr></gpxtpx:TrackPointExtension></extensions>
      </trkpt>
      <trkpt lat="60.002482507449" lon="15.770402273881">
        <ele>142.8</ele>
        <time>2015-01-14T20:45:30Z</time>
        <extensions><gpxtpx:TrackPointExtension><gpxtpx:hr>162</gpxtpx:hr></gpxtpx:TrackPointExtension></extensions>
      </trkpt>
      <trkpt lat="60.002457948482" lon="15.770389114298">
        <ele>143</ele>
        <time>2015-01-14T20:45:31Z</time>
        <extensions><gpxtpx:TrackPointExtension><gpxtpx:hr>163</gpxtpx:hr></gpxtpx:TrackPointExtension></extensions>
      </trkpt>
      <trkpt lat="60.002392485843" lon="15.77035961001">
        <ele>143.2</ele>
        <time>2015-01-14T20:45:34Z</time>
        <extensions><gpxtpx:TrackPointExtension><gpxtpx:hr>162</gpxtpx:hr></gpxtpx:TrackPointExtension></extensions>
      </trkpt>
      <trkpt lat="60.002315791458" lon="15.770374613611">
        <ele>143.4</ele>
        <time>2015-01-14T20:45:38Z</time>
        <extensions><gpxtpx:TrackPointExtension><gpxtpx:hr>162</gpxtpx:hr></gpxtpx:TrackPointExtension></extensions>
      </trkpt>
      <trkpt lat="60.002209676604" lon="15.770410907238">
        <ele>143.6</ele>
        <time>2015-01-14T20:45:43Z</time>
        <extensions><gpxtpx:TrackPointExtension><gpxtpx:hr>160</gpxtpx:hr></gpxtpx:TrackPointExtension></extensions>
      </trkpt>
      <trkpt lat="60.002111524555" lon="15.770460025172">
        <ele>143.8</ele>
        <time>2015-01-14T20:45:48Z</time>
        <extensions><gpxtpx:TrackPointExtension><gpxtpx:hr>159</gpxtpx:hr></gpxtpx:TrackPointExtension></extensions>
      </trkpt>
      <trkpt lat="60.001977917069" lon="15.770471676013">
        <ele>144</ele>
        <time>2015-01-14T20:45:54Z</time>
        <extensions><gpxtpx:TrackPointExtension><gpxtpx:hr>158</gpxtpx:hr></gpxtpx:TrackPointExtension></extensions>
      </trkpt>
      <trkpt lat="60.001851182741" lon="15.770487350166">
        <ele>143.6</ele>
        <time>2015-01-14T20:45:59Z</time>
        <extensions><gpxtpx:TrackPointExtension><gpxtpx:hr>157</gpxtpx:hr></gpxtpx:TrackPointExtension></extensions>
      </trkpt>
      <trkpt lat="60.001718413445" lon="15.770552561348">
        <ele>143.4</ele>
        <time>2015-01-14T20:46:04Z</time>
        <extensions><gpxtpx:TrackPointExtension><gpxtpx:hr>154</gpxtpx:hr></gpxtpx:TrackPointExtension></extensions>
      </trkpt>
      <trkpt lat="60.001708522803" lon="15.770549711502">
        <ele>143.4</ele>
        <time>2015-01-14T20:46:05Z</time>
        <extensions><gpxtpx:TrackPointExtension><gpxtpx:hr>153</gpxtpx:hr></gpxtpx:TrackPointExtension></extensions>
      </trkpt>
      <trkpt lat="60.001701565826" lon="15.770555075918">
        <ele>143.2</ele>
        <time>2015-01-14T20:46:08Z</time>
        <extensions><gpxtpx:TrackPointExtension><gpxtpx:hr>152</gpxtpx:hr></gpxtpx:TrackPointExtension></extensions>
      </trkpt>
      <trkpt lat="60.00170458331" lon="15.770589776984">
        <ele>143.4</ele>
        <time>2015-01-14T20:46:14Z</time>
        <extensions><gpxtpx:TrackPointExtension><gpxtpx:hr>149</gpxtpx:hr></gpxtpx:TrackPointExtension></extensions>
      </trkpt>
      <trkpt lat="60.001729142277" lon="15.770596482504">
        <ele>143.2</ele>
        <time>2015-01-14T20:46:16Z</time>
        <extensions><gpxtpx:TrackPointExtension><gpxtpx:hr>148</gpxtpx:hr></gpxtpx:TrackPointExtension></extensions>
      </trkpt>
      <trkpt lat="60.001749510294" lon="15.770593800296">
        <ele>143</ele>
        <time>2015-01-14T20:46:19Z</time>
        <extensions><gpxtpx:TrackPointExtension><gpxtpx:hr>148</gpxtpx:hr></gpxtpx:TrackPointExtension></extensions>
      </trkpt>
      <trkpt lat="60.001756634909" lon="15.770596482504">
        <ele>143.4</ele>
        <time>2015-01-14T20:46:24Z</time>
        <extensions><gpxtpx:TrackPointExtension><gpxtpx:hr>146</gpxtpx:hr></gpxtpx:TrackPointExtension></extensions>
      </trkpt>
      <trkpt lat="60.001753952701" lon="15.770581395084">
        <ele>143.4</ele>
        <time>2015-01-14T20:46:25Z</time>
        <extensions><gpxtpx:TrackPointExtension><gpxtpx:hr>146</gpxtpx:hr></gpxtpx:TrackPointExtension></extensions>
      </trkpt>
      <trkpt lat="60.001749175018" lon="15.770567984044">
        <ele>143.2</ele>
        <time>2015-01-14T20:46:28Z</time>
        <extensions><gpxtpx:TrackPointExtension><gpxtpx:hr>146</gpxtpx:hr></gpxtpx:TrackPointExtension></extensions>
      </trkpt>
      <trkpt lat="60.001739954928" lon="15.770567397311">
        <ele>142.8</ele>
        <time>2015-01-14T20:46:34Z</time>
        <extensions><gpxtpx:TrackPointExtension><gpxtpx:hr>146</gpxtpx:hr></gpxtpx:TrackPointExtension></extensions>
      </trkpt>
      <trkpt lat="60.00172889082" lon="15.770566223845">
        <ele>142.6</ele>
        <time>2015-01-14T20:46:36Z</time>
        <extensions><gpxtpx:TrackPointExtension><gpxtpx:hr>146</gpxtpx:hr></gpxtpx:TrackPointExtension></extensions>
      </trkpt>
      <trkpt lat="60.001720341282" lon="15.770556500841">
        <ele>142.6</ele>
        <time>2015-01-14T20:46:40Z</time>
        <extensions><gpxtpx:TrackPointExtension><gpxtpx:hr>146</gpxtpx:hr></gpxtpx:TrackPointExtension></extensions>
      </trkpt>
      <trkpt lat="60.001707768432" lon="15.770561865257">
        <ele>142.8</ele>
        <time>2015-01-14T20:46:45Z</time>
        <extensions><gpxtpx:TrackPointExtension><gpxtpx:hr>146</gpxtpx:hr></gpxtpx:TrackPointExtension></extensions>
      </trkpt>
      <trkpt lat="60.001702487835" lon="15.770562200533">
        <ele>142.8</ele>
        <time>2015-01-14T20:46:50Z</time>
        <extensions><gpxtpx:TrackPointExtension><gpxtpx:hr>144</gpxtpx:hr></gpxtpx:TrackPointExtension></extensions>
      </trkpt>
      <trkpt lat="60.001700224722" lon="15.770559685963">
        <ele>143</ele>
        <time>2015-01-14T20:46:55Z</time>
        <extensions><gpxtpx:TrackPointExtension><gpxtpx:hr>144</gpxtpx:hr></gpxtpx:TrackPointExtension></extensions>
      </trkpt>
      <trkpt lat="60.001695447039" lon="15.770555159737">
        <ele>142.8</ele>
        <time>2015-01-14T20:46:59Z</time>
        <extensions><gpxtpx:TrackPointExtension><gpxtpx:hr>142</gpxtpx:hr></gpxtpx:TrackPointExtension></extensions>
      </trkpt>
      <trkpt lat="60.001689914985" lon="15.770562200533">
        <ele>142.8</ele>
        <time>2015-01-14T20:47:06Z</time>
        <extensions><gpxtpx:TrackPointExtension><gpxtpx:hr>142</gpxtpx:hr></gpxtpx:TrackPointExtension></extensions>
      </trkpt>
      <trkpt lat="60.001678347963" lon="15.770555662651">
        <ele>142.6</ele>
        <time>2015-01-14T20:47:11Z</time>
        <extensions><gpxtpx:TrackPointExtension><gpxtpx:hr>143</gpxtpx:hr></gpxtpx:TrackPointExtension></extensions>
      </trkpt>
      <trkpt lat="60.001675665755" lon="15.770557925764">
        <ele>142.6</ele>
        <time>2015-01-14T20:47:16Z</time>
        <extensions><gpxtpx:TrackPointExtension><gpxtpx:hr>142</gpxtpx:hr></gpxtpx:TrackPointExtension></extensions>
      </trkpt>
      <trkpt lat="60.0016551301" lon="15.770577287953">
        <ele>142.8</ele>
        <time>2015-01-14T20:47:24Z</time>
        <extensions><gpxtpx:TrackPointExtension><gpxtpx:hr>141</gpxtpx:hr></gpxtpx:TrackPointExtension></extensions>
      </trkpt>
      <trkpt lat="60.001628643296" lon="15.770600757273">
        <ele>142.8</ele>
        <time>2015-01-14T20:47:28Z</time>
        <extensions><gpxtpx:TrackPointExtension><gpxtpx:hr>141</gpxtpx:hr></gpxtpx:TrackPointExtension></extensions>
      </trkpt>
      <trkpt lat="60.001613807333" lon="15.770604529128">
        <ele>142.8</ele>
        <time>2015-01-14T20:47:31Z</time>
        <extensions><gpxtpx:TrackPointExtension><gpxtpx:hr>141</gpxtpx:hr></gpxtpx:TrackPointExtension></extensions>
      </trkpt>
      <trkpt lat="60.001605257795" lon="15.77060771425">
        <ele>142.8</ele>
        <time>2015-01-14T20:47:37Z</time>
        <extensions><gpxtpx:TrackPointExtension><gpxtpx:hr>141</gpxtpx:hr></gpxtpx:TrackPointExtension></extensions>
      </trkpt>
      <trkpt lat="60.001529736876" lon="15.770631854122">
        <ele>143</ele>
        <time>2015-01-14T20:47:40Z</time>
        <extensions><gpxtpx:TrackPointExtension><gpxtpx:hr>143</gpxtpx:hr></gpxtpx:TrackPointExtension></extensions>
      </trkpt>
      <trkpt lat="60.001442565116" lon="15.770644929886">
        <ele>143.2</ele>
        <time>2015-01-14T20:47:44Z</time>
        <extensions><gpxtpx:TrackPointExtension><gpxtpx:hr>146</gpxtpx:hr></gpxtpx:TrackPointExtension></extensions>
      </trkpt>
      <trkpt lat="60.001376180468" lon="15.770654485252">
        <ele>143.4</ele>
        <time>2015-01-14T20:47:47Z</time>
        <extensions><gpxtpx:TrackPointExtension><gpxtpx:hr>149</gpxtpx:hr></gpxtpx:TrackPointExtension></extensions>
      </trkpt>
      <trkpt lat="60.001347262913" lon="15.770640571298">
        <ele>143.6</ele>
        <time>2015-01-14T20:47:48Z</time>
        <extensions><gpxtpx:TrackPointExtension><gpxtpx:hr>149</gpxtpx:hr></gpxtpx:TrackPointExtension></extensions>
      </trkpt>
      <trkpt lat="60.001328990371" lon="15.770647444456">
        <ele>143.8</ele>
        <time>2015-01-14T20:47:49Z</time>
        <extensions><gpxtpx:TrackPointExtension><gpxtpx:hr>150</gpxtpx:hr></gpxtpx:TrackPointExtension></extensions>
      </trkpt>
      <trkpt lat="60.001245590466" lon="15.770676110554">
        <ele>143.6</ele>
        <time>2015-01-14T20:47:52Z</time>
        <extensions><gpxtpx:TrackPointExtension><gpxtpx:hr>153</gpxtpx:hr></gpxtpx:TrackPointExtension></extensions>
      </trkpt>
      <trkpt lat="60.001231592693" lon="15.770687090843">
        <ele>143.8</ele>
        <time>2015-01-14T20:47:53Z</time>
        <extensions><gpxtpx:TrackPointExtension><gpxtpx:hr>154</gpxtpx:hr></gpxtpx:TrackPointExtension></extensions>
      </trkpt>
      <trkpt lat="60.001205944079" lon="15.770696478571">
        <ele>143.8</ele>
        <time>2015-01-14T20:47:54Z</time>
        <extensions><gpxtpx:TrackPointExtension><gpxtpx:hr>156</gpxtpx:hr></gpxtpx:TrackPointExtension></extensions>
      </trkpt>
      <trkpt lat="60.001105696555" lon="15.770730509085">
        <ele>144.6</ele>
        <time>2015-01-14T20:47:58Z</time>
        <extensions><gpxtpx:TrackPointExtension><gpxtpx:hr>159</gpxtpx:hr></gpxtpx:TrackPointExtension></extensions>
      </trkpt>
      <trkpt lat="60.001075605534" lon="15.770743165754">
        <ele>145</ele>
        <time>2015-01-14T20:47:59Z</time>
        <extensions><gpxtpx:TrackPointExtension><gpxtpx:hr>159</gpxtpx:hr></gpxtpx:TrackPointExtension></extensions>
      </trkpt>
      <trkpt lat="60.00100469466" lon="15.770752972577">
        <ele>145.2</ele>
        <time>2015-01-14T20:48:01Z</time>
        <extensions><gpxtpx:TrackPointExtension><gpxtpx:hr>159</gpxtpx:hr></gpxtpx:TrackPointExtension></extensions>
      </trkpt>
      <trkpt lat="60.00097451982" lon="15.770732688379">
        <ele>145.6</ele>
        <time>2015-01-14T20:48:02Z</time>
        <extensions><gpxtpx:TrackPointExtension><gpxtpx:hr>160</gpxtpx:hr></gpxtpx:TrackPointExtension></extensions>
      </trkpt>
      <trkpt lat="60.000939483478" lon="15.770578712876">
        <ele>146.2</ele>
        <time>2015-01-14T20:48:06Z</time>
        <extensions><gpxtpx:TrackPointExtension><gpxtpx:hr>160</gpxtpx:hr></gpxtpx:TrackPointExtension></extensions>
      </trkpt>
      <trkpt lat="60.000949709396" lon="15.770425491744">
        <ele>146.4</ele>
        <time>2015-01-14T20:48:10Z</time>
        <extensions><gpxtpx:TrackPointExtension><gpxtpx:hr>160</gpxtpx:hr></gpxtpx:TrackPointExtension></extensions>
      </trkpt>
      <trkpt lat="60.00095356507" lon="15.770378804561">
        <ele>146.6</ele>
        <time>2015-01-14T20:48:11Z</time>
        <extensions><gpxtpx:TrackPointExtension><gpxtpx:hr>160</gpxtpx:hr></gpxtpx:TrackPointExtension></extensions>
      </trkpt>
      <trkpt lat="60.001007041592" lon="15.7701676645">
        <ele>147</ele>
        <time>2015-01-14T20:48:16Z</time>
        <extensions><gpxtpx:TrackPointExtension><gpxtpx:hr>160</gpxtpx:hr></gpxtpx:TrackPointExtension></extensions>
      </trkpt>
      <trkpt lat="60.001078539199" lon="15.769961050665">
        <ele>147.2</ele>
        <time>2015-01-14T20:48:21Z</time>
        <extensions><gpxtpx:TrackPointExtension><gpxtpx:hr>160</gpxtpx:hr></gpxtpx:TrackPointExtension></extensions>
      </trkpt>
      <trkpt lat="60.001078623018" lon="15.769866167557">
        <ele>147.2</ele>
        <time>2015-01-14T20:48:23Z</time>
        <extensions><gpxtpx:TrackPointExtension><gpxtpx:hr>160</gpxtpx:hr></gpxtpx:TrackPointExtension></extensions>
      </trkpt>
      <trkpt lat="60.001098488121" lon="15.769798106529">
        <ele>147.6</ele>
        <time>2015-01-14T20:48:25Z</time>
        <extensions><gpxtpx:TrackPointExtension><gpxtpx:hr>160</gpxtpx:hr></gpxtpx:TrackPointExtension></extensions>
      </trkpt>
      <trkpt lat="60.001115419559" lon="15.769700373575">
        <ele>148</ele>
        <time>2015-01-14T20:48:27Z</time>
        <extensions><gpxtpx:TrackPointExtension><gpxtpx:hr>160</gpxtpx:hr></gpxtpx:TrackPointExtension></extensions>
      </trkpt>
      <trkpt lat="60.001123382364" lon="15.769656703876">
        <ele>148.4</ele>
        <time>2015-01-14T20:48:28Z</time>
        <extensions><gpxtpx:TrackPointExtension><gpxtpx:hr>161</gpxtpx:hr></gpxtpx:TrackPointExtension></extensions>
      </trkpt>
      <trkpt lat="60.00114970153" lon="15.769507757513">
        <ele>148.8</ele>
        <time>2015-01-14T20:48:31Z</time>
        <extensions><gpxtpx:TrackPointExtension><gpxtpx:hr>162</gpxtpx:hr></gpxtpx:TrackPointExtension></extensions>
      </trkpt>
      <trkpt lat="60.001168896081" lon="15.769462914348">
        <ele>148.6</ele>
        <time>2015-01-14T20:48:32Z</time>
        <extensions><gpxtpx:TrackPointExtension><gpxtpx:hr>162</gpxtpx:hr></gpxtpx:TrackPointExtension></extensions>
      </trkpt>
      <trkpt lat="60.001193371229" lon="15.769316398736">
        <ele>148.8</ele>
        <time>2015-01-14T20:48:35Z</time>
        <extensions><gpxtpx:TrackPointExtension><gpxtpx:hr>163</gpxtpx:hr></gpxtpx:TrackPointExtension></extensions>
      </trkpt>
      <trkpt lat="60.001231425055" lon="15.769041388597">
        <ele>149</ele>
        <time>2015-01-14T20:48:40Z</time>
        <extensions><gpxtpx:TrackPointExtension><gpxtpx:hr>164</gpxtpx:hr></gpxtpx:TrackPointExtension></extensions>
      </trkpt>
      <trkpt lat="60.001260091153" lon="15.768965113307">
        <ele>149</ele>
        <time>2015-01-14T20:48:41Z</time>
        <extensions><gpxtpx:TrackPointExtension><gpxtpx:hr>165</gpxtpx:hr></gpxtpx:TrackPointExtension></extensions>
      </trkpt>
      <trkpt lat="60.001281381179" lon="15.768846425603">
        <ele>149.4</ele>
        <time>2015-01-14T20:48:43Z</time>
        <extensions><gpxtpx:TrackPointExtension><gpxtpx:hr>164</gpxtpx:hr></gpxtpx:TrackPointExtension></extensions>
      </trkpt>
      <trkpt lat="60.001313651494" lon="15.768659676871">
        <ele>149</ele>
        <time>2015-01-14T20:48:49Z</time>
        <extensions><gpxtpx:TrackPointExtension><gpxtpx:hr>163</gpxtpx:hr></gpxtpx:TrackPointExtension></extensions>
      </trkpt>
      <trkpt lat="60.00131733953" lon="15.768643080709">
        <ele>149.2</ele>
        <time>2015-01-14T20:48:55Z</time>
        <extensions><gpxtpx:TrackPointExtension><gpxtpx:hr>161</gpxtpx:hr></gpxtpx:TrackPointExtension></extensions>
      </trkpt>
      <trkpt lat="60.001309460544" lon="15.768619862846">
        <ele>148.6</ele>
        <time>2015-01-14T20:49:00Z</time>
        <extensions><gpxtpx:TrackPointExtension><gpxtpx:hr>160</gpxtpx:hr></gpxtpx:TrackPointExtension></extensions>
      </trkpt>
      <trkpt lat="60.001307365069" lon="15.768612570593">
        <ele>148.4</ele>
        <time>2015-01-14T20:49:04Z</time>
        <extensions><gpxtpx:TrackPointExtension><gpxtpx:hr>158</gpxtpx:hr></gpxtpx:TrackPointExtension></extensions>
      </trkpt>
      <trkpt lat="60.001297977341" lon="15.768601003571">
        <ele>148.2</ele>
        <time>2015-01-14T20:49:09Z</time>
        <extensions><gpxtpx:TrackPointExtension><gpxtpx:hr>156</gpxtpx:hr></gpxtpx:TrackPointExtension></extensions>
      </trkpt>
      <trkpt lat="60.001293534934" lon="15.768579629726">
        <ele>148.2</ele>
        <time>2015-01-14T20:49:16Z</time>
        <extensions><gpxtpx:TrackPointExtension><gpxtpx:hr>155</gpxtpx:hr></gpxtpx:TrackPointExtension></extensions>
      </trkpt>
      <trkpt lat="60.001296887694" lon="15.768576109328">
        <ele>148.4</ele>
        <time>2015-01-14T20:49:23Z</time>
        <extensions><gpxtpx:TrackPointExtension><gpxtpx:hr>153</gpxtpx:hr></gpxtpx:TrackPointExtension></extensions>
      </trkpt>
      <trkpt lat="60.001292780563" lon="15.768569152351">
        <ele>148</ele>
        <time>2015-01-14T20:49:28Z</time>
        <extensions><gpxtpx:TrackPointExtension><gpxtpx:hr>151</gpxtpx:hr></gpxtpx:TrackPointExtension></extensions>
      </trkpt>
      <trkpt lat="60.001298731712" lon="15.768559932261">
        <ele>148.2</ele>
        <time>2015-01-14T20:49:32Z</time>
        <extensions><gpxtpx:TrackPointExtension><gpxtpx:hr>148</gpxtpx:hr></gpxtpx:TrackPointExtension></extensions>
      </trkpt>
      <trkpt lat="60.001299988997" lon="15.768547862325">
        <ele>148.4</ele>
        <time>2015-01-14T20:49:37Z</time>
        <extensions><gpxtpx:TrackPointExtension><gpxtpx:hr>147</gpxtpx:hr></gpxtpx:TrackPointExtension></extensions>
      </trkpt>
      <trkpt lat="60.001306945974" lon="15.768527159032">
        <ele>148.2</ele>
        <time>2015-01-14T20:49:48Z</time>
        <extensions><gpxtpx:TrackPointExtension><gpxtpx:hr>144</gpxtpx:hr></gpxtpx:TrackPointExtension></extensions>
      </trkpt>
      <trkpt lat="60.001313735313" lon="15.768517016933">
        <ele>148.2</ele>
        <time>2015-01-14T20:49:49Z</time>
        <extensions><gpxtpx:TrackPointExtension><gpxtpx:hr>144</gpxtpx:hr></gpxtpx:TrackPointExtension></extensions>
      </trkpt>
      <trkpt lat="60.001334438606" lon="15.768500085495">
        <ele>148</ele>
        <time>2015-01-14T20:49:57Z</time>
        <extensions><gpxtpx:TrackPointExtension><gpxtpx:hr>143</gpxtpx:hr></gpxtpx:TrackPointExtension></extensions>
      </trkpt>
      <trkpt lat="60.001329241828" lon="15.768494721079">
        <ele>147.8</ele>
        <time>2015-01-14T20:50:00Z</time>
        <extensions><gpxtpx:TrackPointExtension><gpxtpx:hr>144</gpxtpx:hr></gpxtpx:TrackPointExtension></extensions>
      </trkpt>
      <trkpt lat="60.001317171892" lon="15.768498912029">
        <ele>147.6</ele>
        <time>2015-01-14T20:50:06Z</time>
        <extensions><gpxtpx:TrackPointExtension><gpxtpx:hr>144</gpxtpx:hr></gpxtpx:TrackPointExtension></extensions>
      </trkpt>
      <trkpt lat="60.001317255711" lon="15.768488350835">
        <ele>147.6</ele>
        <time>2015-01-14T20:50:11Z</time>
        <extensions><gpxtpx:TrackPointExtension><gpxtpx:hr>144</gpxtpx:hr></gpxtpx:TrackPointExtension></extensions>
      </trkpt>
      <trkpt lat="60.001319686462" lon="15.76848206441">
        <ele>147.8</ele>
        <time>2015-01-14T20:50:15Z</time>
        <extensions><gpxtpx:TrackPointExtension><gpxtpx:hr>141</gpxtpx:hr></gpxtpx:TrackPointExtension></extensions>
      </trkpt>
      <trkpt lat="60.001318764453" lon="15.768464630058">
        <ele>148</ele>
        <time>2015-01-14T20:50:19Z</time>
        <extensions><gpxtpx:TrackPointExtension><gpxtpx:hr>140</gpxtpx:hr></gpxtpx:TrackPointExtension></extensions>
      </trkpt>
      <trkpt lat="60.00133577971" lon="15.768342170499">
        <ele>148</ele>
        <time>2015-01-14T20:50:27Z</time>
        <extensions><gpxtpx:TrackPointExtension><gpxtpx:hr>139</gpxtpx:hr></gpxtpx:TrackPointExtension></extensions>
      </trkpt>
      <trkpt lat="60.001331421122" lon="15.768361197412">
        <ele>148</ele>
        <time>2015-01-14T20:50:29Z</time>
        <extensions><gpxtpx:TrackPointExtension><gpxtpx:hr>139</gpxtpx:hr></gpxtpx:TrackPointExtension></extensions>
      </trkpt>
      <trkpt lat="60.001335276796" lon="15.768358263747">
        <ele>147.8</ele>
        <time>2015-01-14T20:50:31Z</time>
        <extensions><gpxtpx:TrackPointExtension><gpxtpx:hr>139</gpxtpx:hr></gpxtpx:TrackPointExtension></extensions>
      </trkpt>
      <trkpt lat="60.001342904325" lon="15.768331441667">
        <ele>147.4</ele>
        <time>2015-01-14T20:50:36Z</time>
        <extensions><gpxtpx:TrackPointExtension><gpxtpx:hr>140</gpxtpx:hr></gpxtpx:TrackPointExtension></extensions>
      </trkpt>
      <trkpt lat="60.001351621501" lon="15.768287855787">
        <ele>147.8</ele>
        <time>2015-01-14T20:50:42Z</time>
        <extensions><gpxtpx:TrackPointExtension><gpxtpx:hr>138</gpxtpx:hr></gpxtpx:TrackPointExtension></extensions>
      </trkpt>
      <trkpt lat="60.001394369191" lon="15.768149135342">
        <ele>148</ele>
        <time>2015-01-14T20:50:48Z</time>
        <extensions><gpxtpx:TrackPointExtension><gpxtpx:hr>139</gpxtpx:hr></gpxtpx:TrackPointExtension></extensions>
      </trkpt>
      <trkpt lat="60.001463352228" lon="15.767982922265">
        <ele>148.4</ele>
        <time>2015-01-14T20:50:53Z</time>
        <extensions><gpxtpx:TrackPointExtension><gpxtpx:hr>140</gpxtpx:hr></gpxtpx:TrackPointExtension></extensions>
      </trkpt>
      <trkpt lat="60.001495622543" lon="15.767952998882">
        <ele>148.2</ele>
        <time>2015-01-14T20:50:57Z</time>
        <extensions><gpxtpx:TrackPointExtension><gpxtpx:hr>142</gpxtpx:hr></gpxtpx:TrackPointExtension></extensions>
      </trkpt>
      <trkpt lat="60.001541890631" lon="15.767937827643">
        <ele>148.8</ele>
        <time>2015-01-14T20:51:02Z</time>
        <extensions><gpxtpx:TrackPointExtension><gpxtpx:hr>145</gpxtpx:hr></gpxtpx:TrackPointExtension></extensions>
      </trkpt>
      <trkpt lat="60.00154532721" lon="15.767945874267">
        <ele>149.2</ele>
        <time>2015-01-14T20:51:03Z</time>
        <extensions><gpxtpx:TrackPointExtension><gpxtpx:hr>146</gpxtpx:hr></gpxtpx:TrackPointExtension></extensions>
      </trkpt>
      <trkpt lat="60.001550523988" lon="15.767950987226">
        <ele>149.6</ele>
        <time>2015-01-14T20:51:05Z</time>
        <extensions><gpxtpx:TrackPointExtension><gpxtpx:hr>147</gpxtpx:hr></gpxtpx:TrackPointExtension></extensions>
      </trkpt>
      <trkpt lat="60.001564940856" lon="15.767968002483">
        <ele>150.2</ele>
        <time>2015-01-14T20:51:07Z</time>
        <extensions><gpxtpx:TrackPointExtension><gpxtpx:hr>147</gpxtpx:hr></gpxtpx:TrackPointExtension></extensions>
      </trkpt>
      <trkpt lat="60.00158639852" lon="15.767997087676">
        <ele>150.6</ele>
        <time>2015-01-14T20:51:09Z</time>
        <extensions><gpxtpx:TrackPointExtension><gpxtpx:hr>148</gpxtpx:hr></gpxtpx:TrackPointExtension></extensions>
      </trkpt>
      <trkpt lat="60.001603916691" lon="15.768036231149">
        <ele>150.8</ele>
        <time>2015-01-14T20:51:11Z</time>
        <extensions><gpxtpx:TrackPointExtension><gpxtpx:hr>148</gpxtpx:hr></gpxtpx:TrackPointExtension></extensions>
      </trkpt>
      <trkpt lat="60.001605341614" lon="15.768072021862">
        <ele>150.8</ele>
        <time>2015-01-14T20:51:12Z</time>
        <extensions><gpxtpx:TrackPointExtension><gpxtpx:hr>149</gpxtpx:hr></gpxtpx:TrackPointExtension></extensions>
      </trkpt>
      <trkpt lat="60.001631576961" lon="15.768113512267">
        <ele>151</ele>
        <time>2015-01-14T20:51:14Z</time>
        <extensions><gpxtpx:TrackPointExtension><gpxtpx:hr>150</gpxtpx:hr></gpxtpx:TrackPointExtension></extensions>
      </trkpt>
      <trkpt lat="60.001667870588" lon="15.768232199971">
        <ele>151.6</ele>
        <time>2015-01-14T20:51:18Z</time>
        <extensions><gpxtpx:TrackPointExtension><gpxtpx:hr>153</gpxtpx:hr></gpxtpx:TrackPointExtension></extensions>
      </trkpt>
      <trkpt lat="60.001672899728" lon="15.768256926576">
        <ele>151.8</ele>
        <time>2015-01-14T20:51:19Z</time>
        <extensions><gpxtpx:TrackPointExtension><gpxtpx:hr>153</gpxtpx:hr></gpxtpx:TrackPointExtension></extensions>
      </trkpt>
      <trkpt lat="60.001680359619" lon="15.768284838303">
        <ele>152</ele>
        <time>2015-01-14T20:51:20Z</time>
        <extensions><gpxtpx:TrackPointExtension><gpxtpx:hr>154</gpxtpx:hr></gpxtpx:TrackPointExtension></extensions>
      </trkpt>
      <trkpt lat="60.001731656847" lon="15.76849212269">
        <ele>152.2</ele>
        <time>2015-01-14T20:51:25Z</time>
        <extensions><gpxtpx:TrackPointExtension><gpxtpx:hr>155</gpxtpx:hr></gpxtpx:TrackPointExtension></extensions>
      </trkpt>
      <trkpt lat="60.00176912394" lon="15.768530763249">
        <ele>152.2</ele>
        <time>2015-01-14T20:51:26Z</time>
        <extensions><gpxtpx:TrackPointExtension><gpxtpx:hr>155</gpxtpx:hr></gpxtpx:TrackPointExtension></extensions>
      </trkpt>
      <trkpt lat="60.001794940192" lon="15.768664454554">
        <ele>151.8</ele>
        <time>2015-01-14T20:51:28Z</time>
        <extensions><gpxtpx:TrackPointExtension><gpxtpx:hr>155</gpxtpx:hr></gpxtpx:TrackPointExtension></extensions>
      </trkpt>
      <trkpt lat="60.001848416714" lon="15.768963688384">
        <ele>151</ele>
        <time>2015-01-14T20:51:34Z</time>
        <extensions><gpxtpx:TrackPointExtension><gpxtpx:hr>155</gpxtpx:hr></gpxtpx:TrackPointExtension></extensions>
      </trkpt>
      <trkpt lat="60.001869622921" lon="15.769055805465">
        <ele>151.2</ele>
        <time>2015-01-14T20:51:37Z</time>
        <extensions><gpxtpx:TrackPointExtension><gpxtpx:hr>155</gpxtpx:hr></gpxtpx:TrackPointExtension></extensions>
      </trkpt>
      <trkpt lat="60.001894181888" lon="15.769121268104">
        <ele>151.2</ele>
        <time>2015-01-14T20:51:39Z</time>
        <extensions><gpxtpx:TrackPointExtension><gpxtpx:hr>154</gpxtpx:hr></gpxtpx:TrackPointExtension></extensions>
      </trkpt>
      <trkpt lat="60.001932738628" lon="15.769228724062">
        <ele>151</ele>
        <time>2015-01-14T20:51:41Z</time>
        <extensions><gpxtpx:TrackPointExtension><gpxtpx:hr>152</gpxtpx:hr></gpxtpx:TrackPointExtension></extensions>
      </trkpt>
      <trkpt lat="60.00195939307" lon="15.76931773984">
        <ele>151</ele>
        <time>2015-01-14T20:51:42Z</time>
        <extensions><gpxtpx:TrackPointExtension><gpxtpx:hr>152</gpxtpx:hr></gpxtpx:TrackPointExtension></extensions>
      </trkpt>
      <trkpt lat="60.001984287313" lon="15.769391835836">
        <ele>150.8</ele>
        <time>2015-01-14T20:51:43Z</time>
        <extensions><gpxtpx:TrackPointExtension><gpxtpx:hr>152</gpxtpx:hr></gpxtpx:TrackPointExtension></extensions>
      </trkpt>
      <trkpt lat="60.002009600651" lon="15.769476660664">
        <ele>150.4</ele>
        <time>2015-01-14T20:51:44Z</time>
        <extensions><gpxtpx:TrackPointExtension><gpxtpx:hr>151</gpxtpx:hr></gpxtpx:TrackPointExtension></extensions>
      </trkpt>
      <trkpt lat="60.002072883996" lon="15.769648657252">
        <ele>149.4</ele>
        <time>2015-01-14T20:51:47Z</time>
        <extensions><gpxtpx:TrackPointExtension><gpxtpx:hr>150</gpxtpx:hr></gpxtpx:TrackPointExtension></extensions>
      </trkpt>
      <trkpt lat="60.00218067523" lon="15.769844793712">
        <ele>147.8</ele>
        <time>2015-01-14T20:51:51Z</time>
        <extensions><gpxtpx:TrackPointExtension><gpxtpx:hr>149</gpxtpx:hr></gpxtpx:TrackPointExtension></extensions>
      </trkpt>
      <trkpt lat="60.002211520622" lon="15.769893827827">
        <ele>147.6</ele>
        <time>2015-01-14T20:51:52Z</time>
        <extensions><gpxtpx:TrackPointExtension><gpxtpx:hr>148</gpxtpx:hr></gpxtpx:TrackPointExtension></extensions>
      </trkpt>
      <trkpt lat="60.002326185014" lon="15.770055263221">
        <ele>146.4</ele>
        <time>2015-01-14T20:51:54Z</time>
        <extensions><gpxtpx:TrackPointExtension><gpxtpx:hr>147</gpxtpx:hr></gpxtpx:TrackPointExtension></extensions>
      </trkpt>
      <trkpt lat="60.002436993732" lon="15.770219045547">
        <ele>145.4</ele>
        <time>2015-01-14T20:51:56Z</time>
        <extensions><gpxtpx:TrackPointExtension><gpxtpx:hr>146</gpxtpx:hr></gpxtpx:TrackPointExtension></extensions>
      </trkpt>
      <trkpt lat="60.00248326182" lon="15.77027998196">
        <ele>144.4</ele>
        <time>2015-01-14T20:51:57Z</time>
        <extensions><gpxtpx:TrackPointExtension><gpxtpx:hr>145</gpxtpx:hr></gpxtpx:TrackPointExtension></extensions>
      </trkpt>
      <trkpt lat="60.0025352296" lon="15.770330357179">
        <ele>143.2</ele>
        <time>2015-01-14T20:51:58Z</time>
        <extensions><gpxtpx:TrackPointExtension><gpxtpx:hr>145</gpxtpx:hr></gpxtpx:TrackPointExtension></extensions>
      </trkpt>
      <trkpt lat="60.002618042772" lon="15.770383498425">
        <ele>142.2</ele>
        <time>2015-01-14T20:52:00Z</time>
        <extensions><gpxtpx:TrackPointExtension><gpxtpx:hr>143</gpxtpx:hr></gpxtpx:TrackPointExtension></extensions>
      </trkpt>
      <trkpt lat="60.002746537299" lon="15.77042247426">
        <ele>141.2</ele>
        <time>2015-01-14T20:52:03Z</time>
        <extensions><gpxtpx:TrackPointExtension><gpxtpx:hr>142</gpxtpx:hr></gpxtpx:TrackPointExtension></extensions>
      </trkpt>
      <trkpt lat="60.002807473712" lon="15.77044175263">
        <ele>141.4</ele>
        <time>2015-01-14T20:52:05Z</time>
        <extensions><gpxtpx:TrackPointExtension><gpxtpx:hr>142</gpxtpx:hr></gpxtpx:TrackPointExtension></extensions>
      </trkpt>
      <trkpt lat="60.002944936872" lon="15.770501180301">
        <ele>141.4</ele>
        <time>2015-01-14T20:52:09Z</time>
        <extensions><gpxtpx:TrackPointExtension><gpxtpx:hr>142</gpxtpx:hr></gpxtpx:TrackPointExtension></extensions>
      </trkpt>
      <trkpt lat="60.003019871058" lon="15.770467904158">
        <ele>141</ele>
        <time>2015-01-14T20:52:12Z</time>
        <extensions><gpxtpx:TrackPointExtension><gpxtpx:hr>142</gpxtpx:hr></gpxtpx:TrackPointExtension></extensions>
      </trkpt>
      <trkpt lat="60.0030213798" lon="15.770455331308">
        <ele>140.8</ele>
        <time>2015-01-14T20:52:13Z</time>
        <extensions><gpxtpx:TrackPointExtension><gpxtpx:hr>143</gpxtpx:hr></gpxtpx:TrackPointExtension></extensions>
      </trkpt>
      <trkpt lat="60.002993803349" lon="15.770495815885">
        <ele>140</ele>
        <time>2015-01-14T20:52:17Z</time>
        <extensions><gpxtpx:TrackPointExtension><gpxtpx:hr>144</gpxtpx:hr></gpxtpx:TrackPointExtension></extensions>
      </trkpt>
      <trkpt lat="60.002925658502" lon="15.770506209441">
        <ele>140.4</ele>
        <time>2015-01-14T20:52:21Z</time>
        <extensions><gpxtpx:TrackPointExtension><gpxtpx:hr>146</gpxtpx:hr></gpxtpx:TrackPointExtension></extensions>
      </trkpt>
      <trkpt lat="60.002840498398" lon="15.770484584139">
        <ele>141.2</ele>
        <time>2015-01-14T20:52:26Z</time>
        <extensions><gpxtpx:TrackPointExtension><gpxtpx:hr>148</gpxtpx:hr></gpxtpx:TrackPointExtension></extensions>
      </trkpt>
      <trkpt lat="60.002782830926" lon="15.770473520031">
        <ele>141.2</ele>
        <time>2015-01-14T20:52:30Z</time>
        <extensions><gpxtpx:TrackPointExtension><gpxtpx:hr>150</gpxtpx:hr></gpxtpx:TrackPointExtension></extensions>
      </trkpt>
      <trkpt lat="60.002746704937" lon="15.770483410673">
        <ele>141.4</ele>
        <time>2015-01-14T20:52:32Z</time>
        <extensions><gpxtpx:TrackPointExtension><gpxtpx:hr>150</gpxtpx:hr></gpxtpx:TrackPointExtension></extensions>
      </trkpt>
      <trkpt lat="60.002733377716" lon="15.770467652701">
        <ele>141.8</ele>
        <time>2015-01-14T20:52:37Z</time>
        <extensions><gpxtpx:TrackPointExtension><gpxtpx:hr>151</gpxtpx:hr></gpxtpx:TrackPointExtension></extensions>
      </trkpt>
      <trkpt lat="60.002724325264" lon="15.770462288285">
        <ele>142.2</ele>
        <time>2015-01-14T20:52:39Z</time>
        <extensions><gpxtpx:TrackPointExtension><gpxtpx:hr>151</gpxtpx:hr></gpxtpx:TrackPointExtension></extensions>
      </trkpt>
      <trkpt lat="60.002718290296" lon="15.770464719036">
        <ele>142.2</ele>
        <time>2015-01-14T20:52:43Z</time>
        <extensions><gpxtpx:TrackPointExtension><gpxtpx:hr>150</gpxtpx:hr></gpxtpx:TrackPointExtension></extensions>
      </trkpt>
      <trkpt lat="60.002687025809" lon="15.770457175326">
        <ele>142.2</ele>
        <time>2015-01-14T20:52:49Z</time>
        <extensions><gpxtpx:TrackPointExtension><gpxtpx:hr>149</gpxtpx:hr></gpxtpx:TrackPointExtension></extensions>
      </trkpt>
      <trkpt lat="60.00267856009" lon="15.770490116193">
        <ele>141.8</ele>
        <time>2015-01-14T20:52:56Z</time>
        <extensions><gpxtpx:TrackPointExtension><gpxtpx:hr>150</gpxtpx:hr></gpxtpx:TrackPointExtension></extensions>
      </trkpt>
      <trkpt lat="60.002679649737" lon="15.770539066489">
        <ele>141.8</ele>
        <time>2015-01-14T20:53:00Z</time>
        <extensions><gpxtpx:TrackPointExtension><gpxtpx:hr>150</gpxtpx:hr></gpxtpx:TrackPointExtension></extensions>
      </trkpt>
      <trkpt lat="60.002686858171" lon="15.770563373999">
        <ele>141.6</ele>
        <time>2015-01-14T20:53:03Z</time>
        <extensions><gpxtpx:TrackPointExtension><gpxtpx:hr>150</gpxtpx:hr></gpxtpx:TrackPointExtension></extensions>
      </trkpt>
      <trkpt lat="60.002691384397" lon="15.770585166939">
        <ele>141.8</ele>
        <time>2015-01-14T20:53:08Z</time>
        <extensions><gpxtpx:TrackPointExtension><gpxtpx:hr>150</gpxtpx:hr></gpxtpx:TrackPointExtension></extensions>
      </trkpt>
      <trkpt lat="60.002686019981" lon="15.77059765597">
        <ele>142</ele>
        <time>2015-01-14T20:53:10Z</time>
        <extensions><gpxtpx:TrackPointExtension><gpxtpx:hr>150</gpxtpx:hr></gpxtpx:TrackPointExtension></extensions>
      </trkpt>
      <trkpt lat="60.002688199275" lon="15.770590363717">
        <ele>141.8</ele>
        <time>2015-01-14T20:53:12Z</time>
        <extensions><gpxtpx:TrackPointExtension><gpxtpx:hr>150</gpxtpx:hr></gpxtpx:TrackPointExtension></extensions>
      </trkpt>
      <trkpt lat="60.00268861837" lon="15.770604026214">
        <ele>141.6</ele>
        <time>2015-01-14T20:53:16Z</time>
        <extensions><gpxtpx:TrackPointExtension><gpxtpx:hr>150</gpxtpx:hr></gpxtpx:TrackPointExtension></extensions>
      </trkpt>
      <trkpt lat="60.002674285321" lon="15.770627746991">
        <ele>141.6</ele>
        <time>2015-01-14T20:53:17Z</time>
        <extensions><gpxtpx:TrackPointExtension><gpxtpx:hr>150</gpxtpx:hr></gpxtpx:TrackPointExtension></extensions>
      </trkpt>
      <trkpt lat="60.00267856009" lon="15.770628501362">
        <ele>141.4</ele>
        <time>2015-01-14T20:53:19Z</time>
        <extensions><gpxtpx:TrackPointExtension><gpxtpx:hr>150</gpxtpx:hr></gpxtpx:TrackPointExtension></extensions>
      </trkpt>
      <trkpt lat="60.002680404108" lon="15.770650210483">
        <ele>141.4</ele>
        <time>2015-01-14T20:53:24Z</time>
        <extensions><gpxtpx:TrackPointExtension><gpxtpx:hr>150</gpxtpx:hr></gpxtpx:TrackPointExtension></extensions>
      </trkpt>
      <trkpt lat="60.002685852343" lon="15.770668985939">
        <ele>141.6</ele>
        <time>2015-01-14T20:53:25Z</time>
        <extensions><gpxtpx:TrackPointExtension><gpxtpx:hr>150</gpxtpx:hr></gpxtpx:TrackPointExtension></extensions>
      </trkpt>
      <trkpt lat="60.002676632253" lon="15.770666555188">
        <ele>141.6</ele>
        <time>2015-01-14T20:53:28Z</time>
        <extensions><gpxtpx:TrackPointExtension><gpxtpx:hr>150</gpxtpx:hr></gpxtpx:TrackPointExtension></extensions>
      </trkpt>
      <trkpt lat="60.002693982786" lon="15.770673763622">
        <ele>141.4</ele>
        <time>2015-01-14T20:53:29Z</time>
        <extensions><gpxtpx:TrackPointExtension><gpxtpx:hr>150</gpxtpx:hr></gpxtpx:TrackPointExtension></extensions>
      </trkpt>
      <trkpt lat="60.002695156252" lon="15.770671165233">
        <ele>141.4</ele>
        <time>2015-01-14T20:53:31Z</time>
        <extensions><gpxtpx:TrackPointExtension><gpxtpx:hr>150</gpxtpx:hr></gpxtpx:TrackPointExtension></extensions>
      </trkpt>
      <trkpt lat="60.002701945591" lon="15.770662531876">
        <ele>141.4</ele>
        <time>2015-01-14T20:53:36Z</time>
        <extensions><gpxtpx:TrackPointExtension><gpxtpx:hr>149</gpxtpx:hr></gpxtpx:TrackPointExtension></extensions>
      </trkpt>
      <trkpt lat="60.002695994442" lon="15.770689773051">
        <ele>141.8</ele>
        <time>2015-01-14T20:53:45Z</time>
        <extensions><gpxtpx:TrackPointExtension><gpxtpx:hr>147</gpxtpx:hr></gpxtpx:TrackPointExtension></extensions>
      </trkpt>
      <trkpt lat="60.002705046894" lon="15.770706117756">
        <ele>142</ele>
        <time>2015-01-14T20:53:50Z</time>
        <extensions><gpxtpx:TrackPointExtension><gpxtpx:hr>145</gpxtpx:hr></gpxtpx:TrackPointExtension></extensions>
      </trkpt>
      <trkpt lat="60.00270873493" lon="15.770703184091">
        <ele>142.2</ele>
        <time>2015-01-14T20:53:56Z</time>
        <extensions><gpxtpx:TrackPointExtension><gpxtpx:hr>142</gpxtpx:hr></gpxtpx:TrackPointExtension></extensions>
      </trkpt>
      <trkpt lat="60.002711668595" lon="15.770704273738">
        <ele>142</ele>
        <time>2015-01-14T20:53:58Z</time>
        <extensions><gpxtpx:TrackPointExtension><gpxtpx:hr>142</gpxtpx:hr></gpxtpx:TrackPointExtension></extensions>
      </trkpt>
      <trkpt lat="60.002780232537" lon="15.770700501883">
        <ele>141.6</ele>
        <time>2015-01-14T20:54:04Z</time>
        <extensions><gpxtpx:TrackPointExtension><gpxtpx:hr>140</gpxtpx:hr></gpxtpx:TrackPointExtension></extensions>
      </trkpt>
      <trkpt lat="60.002937309343" lon="15.770683235169">
        <ele>141.4</ele>
        <time>2015-01-14T20:54:09Z</time>
        <extensions><gpxtpx:TrackPointExtension><gpxtpx:hr>138</gpxtpx:hr></gpxtpx:TrackPointExtension></extensions>
      </trkpt>
      <trkpt lat="60.00301467428" lon="15.77062615443">
        <ele>141</ele>
        <time>2015-01-14T20:54:11Z</time>
        <extensions><gpxtpx:TrackPointExtension><gpxtpx:hr>137</gpxtpx:hr></gpxtpx:TrackPointExtension></extensions>
      </trkpt>
      <trkpt lat="60.003108886836" lon="15.770535797548">
        <ele>140.4</ele>
        <time>2015-01-14T20:54:13Z</time>
        <extensions><gpxtpx:TrackPointExtension><gpxtpx:hr>136</gpxtpx:hr></gpxtpx:TrackPointExtension></extensions>
      </trkpt>
      <trkpt lat="60.00315632839" lon="15.770457845878">
        <ele>140.2</ele>
        <time>2015-01-14T20:54:14Z</time>
        <extensions><gpxtpx:TrackPointExtension><gpxtpx:hr>135</gpxtpx:hr></gpxtpx:TrackPointExtension></extensions>
      </trkpt>
      <trkpt lat="60.0031890178" lon="15.770393053791">
        <ele>139.8</ele>
        <time>2015-01-14T20:54:15Z</time>
        <extensions><gpxtpx:TrackPointExtension><gpxtpx:hr>134</gpxtpx:hr></gpxtpx:TrackPointExtension></extensions>
      </trkpt>
      <trkpt lat="60.003246769091" lon="15.770211418018">
        <ele>139.2</ele>
        <time>2015-01-14T20:54:17Z</time>
        <extensions><gpxtpx:TrackPointExtension><gpxtpx:hr>134</gpxtpx:hr></gpxtpx:TrackPointExtension></extensions>
      </trkpt>
      <trkpt lat="60.003269316402" lon="15.770107985372">
        <ele>138.6</ele>
        <time>2015-01-14T20:54:18Z</time>
        <extensions><gpxtpx:TrackPointExtension><gpxtpx:hr>134</gpxtpx:hr></gpxtpx:TrackPointExtension></extensions>
      </trkpt>
      <trkpt lat="60.003262946158" lon="15.769871867249">
        <ele>137.2</ele>
        <time>2015-01-14T20:54:21Z</time>
        <extensions><gpxtpx:TrackPointExtension><gpxtpx:hr>132</gpxtpx:hr></gpxtpx:TrackPointExtension></extensions>
      </trkpt>
      <trkpt lat="60.003252971697" lon="15.769834986889">
        <ele>137</ele>
        <time>2015-01-14T20:54:24Z</time>
        <extensions><gpxtpx:TrackPointExtension><gpxtpx:hr>131</gpxtpx:hr></gpxtpx:TrackPointExtension></extensions>
      </trkpt>
      <trkpt lat="60.003244003064" lon="15.769932468386">
        <ele>138.2</ele>
        <time>2015-01-14T20:54:29Z</time>
        <extensions><gpxtpx:TrackPointExtension><gpxtpx:hr>131</gpxtpx:hr></gpxtpx:TrackPointExtension></extensions>
      </trkpt>
      <trkpt lat="60.003242075227" lon="15.769957194991">
        <ele>138.2</ele>
        <time>2015-01-14T20:54:30Z</time>
        <extensions><gpxtpx:TrackPointExtension><gpxtpx:hr>131</gpxtpx:hr></gpxtpx:TrackPointExtension></extensions>
      </trkpt>
      <trkpt lat="60.003223970323" lon="15.770050150262">
        <ele>138</ele>
        <time>2015-01-14T20:54:33Z</time>
        <extensions><gpxtpx:TrackPointExtension><gpxtpx:hr>130</gpxtpx:hr></gpxtpx:TrackPointExtension></extensions>
      </trkpt>
      <trkpt lat="60.003213157672" lon="15.770078313446">
        <ele>137.8</ele>
        <time>2015-01-14T20:54:35Z</time>
        <extensions><gpxtpx:TrackPointExtension><gpxtpx:hr>131</gpxtpx:hr></gpxtpx:TrackPointExtension></extensions>
      </trkpt>
      <trkpt lat="60.003197483519" lon="15.770079319274">
        <ele>137</ele>
        <time>2015-01-14T20:54:42Z</time>
        <extensions><gpxtpx:TrackPointExtension><gpxtpx:hr>133</gpxtpx:hr></gpxtpx:TrackPointExtension></extensions>
      </trkpt>
      <trkpt lat="60.003196058596" lon="15.770096585988">
        <ele>136.6</ele>
        <time>2015-01-14T20:54:46Z</time>
        <extensions><gpxtpx:TrackPointExtension><gpxtpx:hr>134</gpxtpx:hr></gpxtpx:TrackPointExtension></extensions>
      </trkpt>
      <trkpt lat="60.003204272858" lon="15.770114607073">
        <ele>136.6</ele>
        <time>2015-01-14T20:54:51Z</time>
        <extensions><gpxtpx:TrackPointExtension><gpxtpx:hr>136</gpxtpx:hr></gpxtpx:TrackPointExtension></extensions>
      </trkpt>
      <trkpt lat="60.003224389418" lon="15.770128353389">
        <ele>136.2</ele>
        <time>2015-01-14T20:54:56Z</time>
        <extensions><gpxtpx:TrackPointExtension><gpxtpx:hr>137</gpxtpx:hr></gpxtpx:TrackPointExtension></extensions>
      </trkpt>
      <trkpt lat="60.003234950612" lon="15.770140674782">
        <ele>136</ele>
        <time>2015-01-14T20:55:02Z</time>
        <extensions><gpxtpx:TrackPointExtension><gpxtpx:hr>140</gpxtpx:hr></gpxtpx:TrackPointExtension></extensions>
      </trkpt>
      <trkpt lat="60.003230340567" lon="15.770164982292">
        <ele>136.6</ele>
        <time>2015-01-14T20:55:08Z</time>
        <extensions><gpxtpx:TrackPointExtension><gpxtpx:hr>141</gpxtpx:hr></gpxtpx:TrackPointExtension></extensions>
      </trkpt>
      <trkpt lat="60.003235788802" lon="15.770171520174">
        <ele>136.6</ele>
        <time>2015-01-14T20:55:14Z</time>
        <extensions><gpxtpx:TrackPointExtension><gpxtpx:hr>142</gpxtpx:hr></gpxtpx:TrackPointExtension></extensions>
      </trkpt>
      <trkpt lat="60.003233106594" lon="15.770182249006">
        <ele>136.6</ele>
        <time>2015-01-14T20:55:17Z</time>
        <extensions><gpxtpx:TrackPointExtension><gpxtpx:hr>142</gpxtpx:hr></gpxtpx:TrackPointExtension></extensions>
      </trkpt>
      <trkpt lat="60.003231430214" lon="15.770201611195">
        <ele>136.4</ele>
        <time>2015-01-14T20:55:19Z</time>
        <extensions><gpxtpx:TrackPointExtension><gpxtpx:hr>141</gpxtpx:hr></gpxtpx:TrackPointExtension></extensions>
      </trkpt>
      <trkpt lat="60.003235453526" lon="15.77021711771">
        <ele>136.8</ele>
        <time>2015-01-14T20:55:25Z</time>
        <extensions><gpxtpx:TrackPointExtension><gpxtpx:hr>139</gpxtpx:hr></gpxtpx:TrackPointExtension></extensions>
      </trkpt>
      <trkpt lat="60.00326361671" lon="15.770122150783">
        <ele>136.8</ele>
        <time>2015-01-14T20:55:32Z</time>
        <extensions><gpxtpx:TrackPointExtension><gpxtpx:hr>138</gpxtpx:hr></gpxtpx:TrackPointExtension></extensions>
      </trkpt>
      <trkpt lat="60.003274429361" lon="15.770082588215">
        <ele>136.2</ele>
        <time>2015-01-14T20:55:43Z</time>
        <extensions><gpxtpx:TrackPointExtension><gpxtpx:hr>137</gpxtpx:hr></gpxtpx:TrackPointExtension></extensions>
      </trkpt>
      <trkpt lat="60.003270992782" lon="15.770082085301">
        <ele>136</ele>
        <time>2015-01-14T20:55:44Z</time>
        <extensions><gpxtpx:TrackPointExtension><gpxtpx:hr>138</gpxtpx:hr></gpxtpx:TrackPointExtension></extensions>
      </trkpt>
      <trkpt lat="60.003258671389" lon="15.770065992053">
        <ele>135.4</ele>
        <time>2015-01-14T20:55:51Z</time>
        <extensions><gpxtpx:TrackPointExtension><gpxtpx:hr>138</gpxtpx:hr></gpxtpx:TrackPointExtension></extensions>
      </trkpt>
      <trkpt lat="60.003247439643" lon="15.770041684543">
        <ele>135.8</ele>
        <time>2015-01-14T20:55:59Z</time>
        <extensions><gpxtpx:TrackPointExtension><gpxtpx:hr>138</gpxtpx:hr></gpxtpx:TrackPointExtension></extensions>
      </trkpt>
      <trkpt lat="60.003251630593" lon="15.770011509703">
        <ele>135.8</ele>
        <time>2015-01-14T20:56:00Z</time>
        <extensions><gpxtpx:TrackPointExtension><gpxtpx:hr>139</gpxtpx:hr></gpxtpx:TrackPointExtension></extensions>
      </trkpt>
      <trkpt lat="60.003252804059" lon="15.76992961854">
        <ele>136</ele>
        <time>2015-01-14T20:56:03Z</time>
        <extensions><gpxtpx:TrackPointExtension><gpxtpx:hr>140</gpxtpx:hr></gpxtpx:TrackPointExtension></extensions>
      </trkpt>
      <trkpt lat="60.003254564258" lon="15.769893827827">
        <ele>136.4</ele>
        <time>2015-01-14T20:56:07Z</time>
        <extensions><gpxtpx:TrackPointExtension><gpxtpx:hr>140</gpxtpx:hr></gpxtpx:TrackPointExtension></extensions>
      </trkpt>
      <trkpt lat="60.003244589797" lon="15.769857031286">
        <ele>136.6</ele>
        <time>2015-01-14T20:56:15Z</time>
        <extensions><gpxtpx:TrackPointExtension><gpxtpx:hr>138</gpxtpx:hr></gpxtpx:TrackPointExtension></extensions>
      </trkpt>
      <trkpt lat="60.003233022775" lon="15.769803638583">
        <ele>137</ele>
        <time>2015-01-14T20:56:22Z</time>
        <extensions><gpxtpx:TrackPointExtension><gpxtpx:hr>140</gpxtpx:hr></gpxtpx:TrackPointExtension></extensions>
      </trkpt>
      <trkpt lat="60.003222126305" lon="15.769790479">
        <ele>136.8</ele>
        <time>2015-01-14T20:56:28Z</time>
        <extensions><gpxtpx:TrackPointExtension><gpxtpx:hr>141</gpxtpx:hr></gpxtpx:TrackPointExtension></extensions>
      </trkpt>
      <trkpt lat="60.003218438269" lon="15.769791820104">
        <ele>136.8</ele>
        <time>2015-01-14T20:56:33Z</time>
        <extensions><gpxtpx:TrackPointExtension><gpxtpx:hr>141</gpxtpx:hr></gpxtpx:TrackPointExtension></extensions>
      </trkpt>
      <trkpt lat="60.003213073853" lon="15.769771955001">
        <ele>136.8</ele>
        <time>2015-01-14T20:56:39Z</time>
        <extensions><gpxtpx:TrackPointExtension><gpxtpx:hr>142</gpxtpx:hr></gpxtpx:TrackPointExtension></extensions>
      </trkpt>
      <trkpt lat="60.003208379989" lon="15.769725016361">
        <ele>137.4</ele>
        <time>2015-01-14T20:56:46Z</time>
        <extensions><gpxtpx:TrackPointExtension><gpxtpx:hr>141</gpxtpx:hr></gpxtpx:TrackPointExtension></extensions>
      </trkpt>
      <trkpt lat="60.003205194867" lon="15.769688303639">
        <ele>137.8</ele>
        <time>2015-01-14T20:56:54Z</time>
        <extensions><gpxtpx:TrackPointExtension><gpxtpx:hr>142</gpxtpx:hr></gpxtpx:TrackPointExtension></extensions>
      </trkpt>
      <trkpt lat="60.00319907608" lon="15.769661146283">
        <ele>137.8</ele>
        <time>2015-01-14T20:56:55Z</time>
        <extensions><gpxtpx:TrackPointExtension><gpxtpx:hr>141</gpxtpx:hr></gpxtpx:TrackPointExtension></extensions>
      </trkpt>
      <trkpt lat="60.003187509058" lon="15.769595599825">
        <ele>138</ele>
        <time>2015-01-14T20:56:58Z</time>
        <extensions><gpxtpx:TrackPointExtension><gpxtpx:hr>142</gpxtpx:hr></gpxtpx:TrackPointExtension></extensions>
      </trkpt>
      <trkpt lat="60.00318315047" lon="15.769581182957">
        <ele>138.2</ele>
        <time>2015-01-14T20:57:00Z</time>
        <extensions><gpxtpx:TrackPointExtension><gpxtpx:hr>142</gpxtpx:hr></gpxtpx:TrackPointExtension></extensions>
      </trkpt>
      <trkpt lat="60.003172505457" lon="15.769577075826">
        <ele>138.4</ele>
        <time>2015-01-14T20:57:01Z</time>
        <extensions><gpxtpx:TrackPointExtension><gpxtpx:hr>143</gpxtpx:hr></gpxtpx:TrackPointExtension></extensions>
      </trkpt>
      <trkpt lat="60.003165045566" lon="15.769579422758">
        <ele>138.6</ele>
        <time>2015-01-14T20:57:04Z</time>
        <extensions><gpxtpx:TrackPointExtension><gpxtpx:hr>144</gpxtpx:hr></gpxtpx:TrackPointExtension></extensions>
      </trkpt>
      <trkpt lat="60.003160351702" lon="15.769576656731">
        <ele>138.8</ele>
        <time>2015-01-14T20:57:08Z</time>
        <extensions><gpxtpx:TrackPointExtension><gpxtpx:hr>143</gpxtpx:hr></gpxtpx:TrackPointExtension></extensions>
      </trkpt>
      <trkpt lat="60.003171248172" lon="15.769566095537">
        <ele>139</ele>
        <time>2015-01-14T20:57:15Z</time>
        <extensions><gpxtpx:TrackPointExtension><gpxtpx:hr>142</gpxtpx:hr></gpxtpx:TrackPointExtension></extensions>
      </trkpt>
      <trkpt lat="60.003160184064" lon="15.769568693926">
        <ele>138.6</ele>
        <time>2015-01-14T20:57:20Z</time>
        <extensions><gpxtpx:TrackPointExtension><gpxtpx:hr>143</gpxtpx:hr></gpxtpx:TrackPointExtension></extensions>
      </trkpt>
      <trkpt lat="60.003155741657" lon="15.769554612334">
        <ele>138.2</ele>
        <time>2015-01-14T20:57:24Z</time>
        <extensions><gpxtpx:TrackPointExtension><gpxtpx:hr>143</gpxtpx:hr></gpxtpx:TrackPointExtension></extensions>
      </trkpt>
      <trkpt lat="60.00314962287" lon="15.769566179356">
        <ele>138.2</ele>
        <time>2015-01-14T20:57:29Z</time>
        <extensions><gpxtpx:TrackPointExtension><gpxtpx:hr>143</gpxtpx:hr></gpxtpx:TrackPointExtension></extensions>
      </trkpt>
      <trkpt lat="60.003144090816" lon="15.769580763862">
        <ele>138.2</ele>
        <time>2015-01-14T20:57:36Z</time>
        <extensions><gpxtpx:TrackPointExtension><gpxtpx:hr>139</gpxtpx:hr></gpxtpx:TrackPointExtension></extensions>
      </trkpt>
      <trkpt lat="60.003137720572" lon="15.769595264549">
        <ele>138.4</ele>
        <time>2015-01-14T20:57:42Z</time>
        <extensions><gpxtpx:TrackPointExtension><gpxtpx:hr>139</gpxtpx:hr></gpxtpx:TrackPointExtension></extensions>
      </trkpt>
      <trkpt lat="60.003142749712" lon="15.769582440242">
        <ele>138.4</ele>
        <time>2015-01-14T20:57:44Z</time>
        <extensions><gpxtpx:TrackPointExtension><gpxtpx:hr>140</gpxtpx:hr></gpxtpx:TrackPointExtension></extensions>
      </trkpt>
      <trkpt lat="60.00314124097" lon="15.769584032803">
        <ele>138.4</ele>
        <time>2015-01-14T20:57:45Z</time>
        <extensions><gpxtpx:TrackPointExtension><gpxtpx:hr>139</gpxtpx:hr></gpxtpx:TrackPointExtension></extensions>
      </trkpt>
      <trkpt lat="60.003133948717" lon="15.769567185184">
        <ele>138.4</ele>
        <time>2015-01-14T20:57:50Z</time>
        <extensions><gpxtpx:TrackPointExtension><gpxtpx:hr>140</gpxtpx:hr></gpxtpx:TrackPointExtension></extensions>
      </trkpt>
      <trkpt lat="60.003122633152" lon="15.769565257347">
        <ele>138.4</ele>
        <time>2015-01-14T20:57:55Z</time>
        <extensions><gpxtpx:TrackPointExtension><gpxtpx:hr>137</gpxtpx:hr></gpxtpx:TrackPointExtension></extensions>
      </trkpt>
      <trkpt lat="60.003125399179" lon="15.769555534343">
        <ele>138.4</ele>
        <time>2015-01-14T20:57:56Z</time>
        <extensions><gpxtpx:TrackPointExtension><gpxtpx:hr>137</gpxtpx:hr></gpxtpx:TrackPointExtension></extensions>
      </trkpt>
      <trkpt lat="60.003124728627" lon="15.769538686724">
        <ele>138.8</ele>
        <time>2015-01-14T20:58:00Z</time>
        <extensions><gpxtpx:TrackPointExtension><gpxtpx:hr>137</gpxtpx:hr></gpxtpx:TrackPointExtension></extensions>
      </trkpt>
      <trkpt lat="60.003131853242" lon="15.769514295395">
        <ele>138.8</ele>
        <time>2015-01-14T20:58:05Z</time>
        <extensions><gpxtpx:TrackPointExtension><gpxtpx:hr>135</gpxtpx:hr></gpxtpx:TrackPointExtension></extensions>
      </trkpt>
      <trkpt lat="60.003140905694" lon="15.76950465621">
        <ele>139</ele>
        <time>2015-01-14T20:58:13Z</time>
        <extensions><gpxtpx:TrackPointExtension><gpxtpx:hr>134</gpxtpx:hr></gpxtpx:TrackPointExtension></extensions>
      </trkpt>
      <trkpt lat="60.003144258454" lon="15.769496693405">
        <ele>139</ele>
        <time>2015-01-14T20:58:17Z</time>
        <extensions><gpxtpx:TrackPointExtension><gpxtpx:hr>136</gpxtpx:hr></gpxtpx:TrackPointExtension></extensions>
      </trkpt>
      <trkpt lat="60.003134451631" lon="15.769486299849">
        <ele>138.6</ele>
        <time>2015-01-14T20:58:21Z</time>
        <extensions><gpxtpx:TrackPointExtension><gpxtpx:hr>139</gpxtpx:hr></gpxtpx:TrackPointExtension></extensions>
      </trkpt>
      <trkpt lat="60.003123974256" lon="15.769475068103">
        <ele>138.6</ele>
        <time>2015-01-14T20:58:24Z</time>
        <extensions><gpxtpx:TrackPointExtension><gpxtpx:hr>141</gpxtpx:hr></gpxtpx:TrackPointExtension></extensions>
      </trkpt>
      <trkpt lat="60.003107881008" lon="15.769457549932">
        <ele>138.6</ele>
        <time>2015-01-14T20:58:27Z</time>
        <extensions><gpxtpx:TrackPointExtension><gpxtpx:hr>142</gpxtpx:hr></gpxtpx:TrackPointExtension></extensions>
      </trkpt>
      <trkpt lat="60.003083238222" lon="15.769470541877">
        <ele>138.8</ele>
        <time>2015-01-14T20:58:30Z</time>
        <extensions><gpxtpx:TrackPointExtension><gpxtpx:hr>143</gpxtpx:hr></gpxtpx:TrackPointExtension></extensions>
      </trkpt>
      <trkpt lat="60.003078209082" lon="15.769471463886">
        <ele>139</ele>
        <time>2015-01-14T20:58:32Z</time>
        <extensions><gpxtpx:TrackPointExtension><gpxtpx:hr>142</gpxtpx:hr></gpxtpx:TrackPointExtension></extensions>
      </trkpt>
      <trkpt lat="60.003083992593" lon="15.769469619868">
        <ele>139.2</ele>
        <time>2015-01-14T20:58:33Z</time>
        <extensions><gpxtpx:TrackPointExtension><gpxtpx:hr>143</gpxtpx:hr></gpxtpx:TrackPointExtension></extensions>
      </trkpt>
      <trkpt lat="60.003079634005" lon="15.769467189117">
        <ele>139.4</ele>
        <time>2015-01-14T20:58:37Z</time>
        <extensions><gpxtpx:TrackPointExtension><gpxtpx:hr>143</gpxtpx:hr></gpxtpx:TrackPointExtension></extensions>
      </trkpt>
      <trkpt lat="60.003076784159" lon="15.769469368411">
        <ele>139.6</ele>
        <time>2015-01-14T20:58:44Z</time>
        <extensions><gpxtpx:TrackPointExtension><gpxtpx:hr>142</gpxtpx:hr></gpxtpx:TrackPointExtension></extensions>
      </trkpt>
      <trkpt lat="60.003079382548" lon="15.769456963199">
        <ele>139.4</ele>
        <time>2015-01-14T20:58:48Z</time>
        <extensions><gpxtpx:TrackPointExtension><gpxtpx:hr>142</gpxtpx:hr></gpxtpx:TrackPointExtension></extensions>
      </trkpt>
      <trkpt lat="60.003078544358" lon="15.769440869951">
        <ele>139.4</ele>
        <time>2015-01-14T20:58:54Z</time>
        <extensions><gpxtpx:TrackPointExtension><gpxtpx:hr>143</gpxtpx:hr></gpxtpx:TrackPointExtension></extensions>
      </trkpt>
      <trkpt lat="60.003065468594" lon="15.769427291273">
        <ele>139.4</ele>
        <time>2015-01-14T20:58:56Z</time>
        <extensions><gpxtpx:TrackPointExtension><gpxtpx:hr>143</gpxtpx:hr></gpxtpx:TrackPointExtension></extensions>
      </trkpt>
      <trkpt lat="60.003058343979" lon="15.769431649861">
        <ele>139.8</ele>
        <time>2015-01-14T20:58:59Z</time>
        <extensions><gpxtpx:TrackPointExtension><gpxtpx:hr>143</gpxtpx:hr></gpxtpx:TrackPointExtension></extensions>
      </trkpt>
      <trkpt lat="60.003040155256" lon="15.769431901318">
        <ele>139.8</ele>
        <time>2015-01-14T20:59:04Z</time>
        <extensions><gpxtpx:TrackPointExtension><gpxtpx:hr>143</gpxtpx:hr></gpxtpx:TrackPointExtension></extensions>
      </trkpt>
      <trkpt lat="60.003036970134" lon="15.769418406459">
        <ele>140</ele>
        <time>2015-01-14T20:59:09Z</time>
        <extensions><gpxtpx:TrackPointExtension><gpxtpx:hr>143</gpxtpx:hr></gpxtpx:TrackPointExtension></extensions>
      </trkpt>
      <trkpt lat="60.003021715076" lon="15.769399295727">
        <ele>140</ele>
        <time>2015-01-14T20:59:10Z</time>
        <extensions><gpxtpx:TrackPointExtension><gpxtpx:hr>143</gpxtpx:hr></gpxtpx:TrackPointExtension></extensions>
      </trkpt>
      <trkpt lat="60.00301383609" lon="15.769394769501">
        <ele>140</ele>
        <time>2015-01-14T20:59:13Z</time>
        <extensions><gpxtpx:TrackPointExtension><gpxtpx:hr>143</gpxtpx:hr></gpxtpx:TrackPointExtension></extensions>
      </trkpt>
      <trkpt lat="60.003013919909" lon="15.769391584379">
        <ele>140</ele>
        <time>2015-01-14T20:59:15Z</time>
        <extensions><gpxtpx:TrackPointExtension><gpxtpx:hr>143</gpxtpx:hr></gpxtpx:TrackPointExtension></extensions>
      </trkpt>
      <trkpt lat="60.00301802704" lon="15.769371216362">
        <ele>140</ele>
        <time>2015-01-14T20:59:18Z</time>
        <extensions><gpxtpx:TrackPointExtension><gpxtpx:hr>143</gpxtpx:hr></gpxtpx:TrackPointExtension></extensions>
      </trkpt>
      <trkpt lat="60.0030465255" lon="15.769399631003">
        <ele>140.2</ele>
        <time>2015-01-14T20:59:26Z</time>
        <extensions><gpxtpx:TrackPointExtension><gpxtpx:hr>142</gpxtpx:hr></gpxtpx:TrackPointExtension></extensions>
      </trkpt>
      <trkpt lat="60.00307083301" lon="15.769451934059">
        <ele>140</ele>
        <time>2015-01-14T20:59:30Z</time>
        <extensions><gpxtpx:TrackPointExtension><gpxtpx:hr>141</gpxtpx:hr></gpxtpx:TrackPointExtension></extensions>
      </trkpt>
      <trkpt lat="60.003089776104" lon="15.769496106672">
        <ele>140.2</ele>
        <time>2015-01-14T20:59:32Z</time>
        <extensions><gpxtpx:TrackPointExtension><gpxtpx:hr>140</gpxtpx:hr></gpxtpx:TrackPointExtension></extensions>
      </trkpt>
      <trkpt lat="60.003199327537" lon="15.769735829012">
        <ele>139.6</ele>
        <time>2015-01-14T20:59:37Z</time>
        <extensions><gpxtpx:TrackPointExtension><gpxtpx:hr>140</gpxtpx:hr></gpxtpx:TrackPointExtension></extensions>
      </trkpt>
      <trkpt lat="60.003206703609" lon="15.769914195844">
        <ele>139</ele>
        <time>2015-01-14T20:59:39Z</time>
        <extensions><gpxtpx:TrackPointExtension><gpxtpx:hr>139</gpxtpx:hr></gpxtpx:TrackPointExtension></extensions>
      </trkpt>
      <trkpt lat="60.003183737203" lon="15.77000086469">
        <ele>138.6</ele>
        <time>2015-01-14T20:59:40Z</time>
        <extensions><gpxtpx:TrackPointExtension><gpxtpx:hr>139</gpxtpx:hr></gpxtpx:TrackPointExtension></extensions>
      </trkpt>
      <trkpt lat="60.003147862671" lon="15.770118881842">
        <ele>137.2</ele>
        <time>2015-01-14T20:59:42Z</time>
        <extensions><gpxtpx:TrackPointExtension><gpxtpx:hr>139</gpxtpx:hr></gpxtpx:TrackPointExtension></extensions>
      </trkpt>
      <trkpt lat="60.003134870726" lon="15.770159869333">
        <ele>137</ele>
        <time>2015-01-14T20:59:43Z</time>
        <extensions><gpxtpx:TrackPointExtension><gpxtpx:hr>140</gpxtpx:hr></gpxtpx:TrackPointExtension></extensions>
      </trkpt>
      <trkpt lat="60.00311693346" lon="15.770209574">
        <ele>137.6</ele>
        <time>2015-01-14T20:59:47Z</time>
        <extensions><gpxtpx:TrackPointExtension><gpxtpx:hr>140</gpxtpx:hr></gpxtpx:TrackPointExtension></extensions>
      </trkpt>
      <trkpt lat="60.003111652863" lon="15.770230864026">
        <ele>138</ele>
        <time>2015-01-14T20:59:55Z</time>
        <extensions><gpxtpx:TrackPointExtension><gpxtpx:hr>137</gpxtpx:hr></gpxtpx:TrackPointExtension></extensions>
      </trkpt>
      <trkpt lat="60.003123555161" lon="15.770220302832">
        <ele>138</ele>
        <time>2015-01-14T20:59:58Z</time>
        <extensions><gpxtpx:TrackPointExtension><gpxtpx:hr>136</gpxtpx:hr></gpxtpx:TrackPointExtension></extensions>
      </trkpt>
      <trkpt lat="60.003127913749" lon="15.770205047774">
        <ele>138</ele>
        <time>2015-01-14T20:59:59Z</time>
        <extensions><gpxtpx:TrackPointExtension><gpxtpx:hr>136</gpxtpx:hr></gpxtpx:TrackPointExtension></extensions>
      </trkpt>
      <trkpt lat="60.003187844334" lon="15.769996506102">
        <ele>138</ele>
        <time>2015-01-14T21:00:04Z</time>
        <extensions><gpxtpx:TrackPointExtension><gpxtpx:hr>137</gpxtpx:hr></gpxtpx:TrackPointExtension></extensions>
      </trkpt>
      <trkpt lat="60.003174181837" lon="15.769821324392">
        <ele>137.8</ele>
        <time>2015-01-14T21:00:07Z</time>
        <extensions><gpxtpx:TrackPointExtension><gpxtpx:hr>139</gpxtpx:hr></gpxtpx:TrackPointExtension></extensions>
      </trkpt>
      <trkpt lat="60.003156663666" lon="15.769741361066">
        <ele>137.6</ele>
        <time>2015-01-14T21:00:09Z</time>
        <extensions><gpxtpx:TrackPointExtension><gpxtpx:hr>141</gpxtpx:hr></gpxtpx:TrackPointExtension></extensions>
      </trkpt>
      <trkpt lat="60.003138642581" lon="15.769660727188">
        <ele>137.6</ele>
        <time>2015-01-14T21:00:11Z</time>
        <extensions><gpxtpx:TrackPointExtension><gpxtpx:hr>144</gpxtpx:hr></gpxtpx:TrackPointExtension></extensions>
      </trkpt>
      <trkpt lat="60.003113245424" lon="15.769600628965">
        <ele>137.8</ele>
        <time>2015-01-14T21:00:14Z</time>
        <extensions><gpxtpx:TrackPointExtension><gpxtpx:hr>147</gpxtpx:hr></gpxtpx:TrackPointExtension></extensions>
      </trkpt>
      <trkpt lat="60.00308759681" lon="15.769540363104">
        <ele>138.2</ele>
        <time>2015-01-14T21:00:16Z</time>
        <extensions><gpxtpx:TrackPointExtension><gpxtpx:hr>149</gpxtpx:hr></gpxtpx:TrackPointExtension></extensions>
      </trkpt>
      <trkpt lat="60.003068988992" lon="15.769520414182">
        <ele>138.6</ele>
        <time>2015-01-14T21:00:17Z</time>
        <extensions><gpxtpx:TrackPointExtension><gpxtpx:hr>150</gpxtpx:hr></gpxtpx:TrackPointExtension></extensions>
      </trkpt>
      <trkpt lat="60.003061110006" lon="15.769510607359">
        <ele>138.8</ele>
        <time>2015-01-14T21:00:18Z</time>
        <extensions><gpxtpx:TrackPointExtension><gpxtpx:hr>151</gpxtpx:hr></gpxtpx:TrackPointExtension></extensions>
      </trkpt>
      <trkpt lat="60.003051303183" lon="15.769478001768">
        <ele>139.6</ele>
        <time>2015-01-14T21:00:20Z</time>
        <extensions><gpxtpx:TrackPointExtension><gpxtpx:hr>152</gpxtpx:hr></gpxtpx:TrackPointExtension></extensions>
      </trkpt>
      <trkpt lat="60.003039317066" lon="15.769444725625">
        <ele>140.2</ele>
        <time>2015-01-14T21:00:22Z</time>
        <extensions><gpxtpx:TrackPointExtension><gpxtpx:hr>153</gpxtpx:hr></gpxtpx:TrackPointExtension></extensions>
      </trkpt>
      <trkpt lat="60.003035880487" lon="15.769396948795">
        <ele>140.4</ele>
        <time>2015-01-14T21:00:24Z</time>
        <extensions><gpxtpx:TrackPointExtension><gpxtpx:hr>153</gpxtpx:hr></gpxtpx:TrackPointExtension></extensions>
      </trkpt>
      <trkpt lat="60.00303311446" lon="15.769342969359">
        <ele>140.6</ele>
        <time>2015-01-14T21:00:26Z</time>
        <extensions><gpxtpx:TrackPointExtension><gpxtpx:hr>152</gpxtpx:hr></gpxtpx:TrackPointExtension></extensions>
      </trkpt>
      <trkpt lat="60.003027330949" lon="15.769312375424">
        <ele>140.6</ele>
        <time>2015-01-14T21:00:27Z</time>
        <extensions><gpxtpx:TrackPointExtension><gpxtpx:hr>152</gpxtpx:hr></gpxtpx:TrackPointExtension></extensions>
      </trkpt>
      <trkpt lat="60.003028169139" lon="15.769258563626">
        <ele>140.6</ele>
        <time>2015-01-14T21:00:29Z</time>
        <extensions><gpxtpx:TrackPointExtension><gpxtpx:hr>151</gpxtpx:hr></gpxtpx:TrackPointExtension></extensions>
      </trkpt>
      <trkpt lat="60.003028588234" lon="15.769235932496">
        <ele>140.6</ele>
        <time>2015-01-14T21:00:33Z</time>
        <extensions><gpxtpx:TrackPointExtension><gpxtpx:hr>148</gpxtpx:hr></gpxtpx:TrackPointExtension></extensions>
      </trkpt>
      <trkpt lat="60.003020373972" lon="15.769205673837">
        <ele>140.2</ele>
        <time>2015-01-14T21:00:41Z</time>
        <extensions><gpxtpx:TrackPointExtension><gpxtpx:hr>148</gpxtpx:hr></gpxtpx:TrackPointExtension></extensions>
      </trkpt>
      <trkpt lat="60.003001347059" lon="15.769200560878">
        <ele>140</ele>
        <time>2015-01-14T21:00:48Z</time>
        <extensions><gpxtpx:TrackPointExtension><gpxtpx:hr>149</gpxtpx:hr></gpxtpx:TrackPointExtension></extensions>
      </trkpt>
      <trkpt lat="60.002997742842" lon="15.769193017168">
        <ele>140</ele>
        <time>2015-01-14T21:00:54Z</time>
        <extensions><gpxtpx:TrackPointExtension><gpxtpx:hr>150</gpxtpx:hr></gpxtpx:TrackPointExtension></extensions>
      </trkpt>
      <trkpt lat="60.002998329575" lon="15.769170721314">
        <ele>139.6</ele>
        <time>2015-01-14T21:00:59Z</time>
        <extensions><gpxtpx:TrackPointExtension><gpxtpx:hr>150</gpxtpx:hr></gpxtpx:TrackPointExtension></extensions>
      </trkpt>
      <trkpt lat="60.002999335403" lon="15.769165273079">
        <ele>139.6</ele>
        <time>2015-01-14T21:01:00Z</time>
        <extensions><gpxtpx:TrackPointExtension><gpxtpx:hr>149</gpxtpx:hr></gpxtpx:TrackPointExtension></extensions>
      </trkpt>
      <trkpt lat="60.002994390082" lon="15.769148257822">
        <ele>140</ele>
        <time>2015-01-14T21:01:05Z</time>
        <extensions><gpxtpx:TrackPointExtension><gpxtpx:hr>148</gpxtpx:hr></gpxtpx:TrackPointExtension></extensions>
      </trkpt>
      <trkpt lat="60.002994138625" lon="15.76914591089">
        <ele>140.4</ele>
        <time>2015-01-14T21:01:10Z</time>
        <extensions><gpxtpx:TrackPointExtension><gpxtpx:hr>148</gpxtpx:hr></gpxtpx:TrackPointExtension></extensions>
      </trkpt>
      <trkpt lat="60.002996569376" lon="15.769137277533">
        <ele>140.2</ele>
        <time>2015-01-14T21:01:16Z</time>
        <extensions><gpxtpx:TrackPointExtension><gpxtpx:hr>146</gpxtpx:hr></gpxtpx:TrackPointExtension></extensions>
      </trkpt>
      <trkpt lat="60.002994725358" lon="15.769117160973">
        <ele>140.2</ele>
        <time>2015-01-14T21:01:21Z</time>
        <extensions><gpxtpx:TrackPointExtension><gpxtpx:hr>146</gpxtpx:hr></gpxtpx:TrackPointExtension></extensions>
      </trkpt>
      <trkpt lat="60.002978548291" lon="15.769105510132">
        <ele>140.2</ele>
        <time>2015-01-14T21:01:27Z</time>
        <extensions><gpxtpx:TrackPointExtension><gpxtpx:hr>145</gpxtpx:hr></gpxtpx:TrackPointExtension></extensions>
      </trkpt>
      <trkpt lat="60.002993970987" lon="15.769082459907">
        <ele>140.4</ele>
        <time>2015-01-14T21:01:31Z</time>
        <extensions><gpxtpx:TrackPointExtension><gpxtpx:hr>145</gpxtpx:hr></gpxtpx:TrackPointExtension></extensions>
      </trkpt>
      <trkpt lat="60.002991037322" lon="15.769087908142">
        <ele>140.2</ele>
        <time>2015-01-14T21:01:32Z</time>
        <extensions><gpxtpx:TrackPointExtension><gpxtpx:hr>145</gpxtpx:hr></gpxtpx:TrackPointExtension></extensions>
      </trkpt>
      <trkpt lat="60.002991037322" lon="15.76909226673">
        <ele>140.2</ele>
        <time>2015-01-14T21:01:37Z</time>
        <extensions><gpxtpx:TrackPointExtension><gpxtpx:hr>146</gpxtpx:hr></gpxtpx:TrackPointExtension></extensions>
      </trkpt>
      <trkpt lat="60.002984834716" lon="15.769090757988">
        <ele>140</ele>
        <time>2015-01-14T21:01:43Z</time>
        <extensions><gpxtpx:TrackPointExtension><gpxtpx:hr>145</gpxtpx:hr></gpxtpx:TrackPointExtension></extensions>
      </trkpt>
      <trkpt lat="60.002981565775" lon="15.76908220845">
        <ele>140</ele>
        <time>2015-01-14T21:01:48Z</time>
        <extensions><gpxtpx:TrackPointExtension><gpxtpx:hr>144</gpxtpx:hr></gpxtpx:TrackPointExtension></extensions>
      </trkpt>
      <trkpt lat="60.002969160563" lon="15.769088411056">
        <ele>139.8</ele>
        <time>2015-01-14T21:01:53Z</time>
        <extensions><gpxtpx:TrackPointExtension><gpxtpx:hr>146</gpxtpx:hr></gpxtpx:TrackPointExtension></extensions>
      </trkpt>
      <trkpt lat="60.002960946301" lon="15.769084974477">
        <ele>140</ele>
        <time>2015-01-14T21:01:58Z</time>
        <extensions><gpxtpx:TrackPointExtension><gpxtpx:hr>146</gpxtpx:hr></gpxtpx:TrackPointExtension></extensions>
      </trkpt>
      <trkpt lat="60.002967987097" lon="15.769084303925">
        <ele>140.2</ele>
        <time>2015-01-14T21:02:02Z</time>
        <extensions><gpxtpx:TrackPointExtension><gpxtpx:hr>142</gpxtpx:hr></gpxtpx:TrackPointExtension></extensions>
      </trkpt>
      <trkpt lat="60.00297611754" lon="15.769091931454">
        <ele>140.6</ele>
        <time>2015-01-14T21:02:08Z</time>
        <extensions><gpxtpx:TrackPointExtension><gpxtpx:hr>140</gpxtpx:hr></gpxtpx:TrackPointExtension></extensions>
      </trkpt>
      <trkpt lat="60.002981565775" lon="15.769070892885">
        <ele>140.6</ele>
        <time>2015-01-14T21:02:11Z</time>
        <extensions><gpxtpx:TrackPointExtension><gpxtpx:hr>138</gpxtpx:hr></gpxtpx:TrackPointExtension></extensions>
      </trkpt>
      <trkpt lat="60.002984415621" lon="15.768992941215">
        <ele>140.4</ele>
        <time>2015-01-14T21:02:14Z</time>
        <extensions><gpxtpx:TrackPointExtension><gpxtpx:hr>136</gpxtpx:hr></gpxtpx:TrackPointExtension></extensions>
      </trkpt>
      <trkpt lat="60.002982990698" lon="15.76891708502">
        <ele>140</ele>
        <time>2015-01-14T21:02:16Z</time>
        <extensions><gpxtpx:TrackPointExtension><gpxtpx:hr>136</gpxtpx:hr></gpxtpx:TrackPointExtension></extensions>
      </trkpt>
      <trkpt lat="60.00297695573" lon="15.768826811957">
        <ele>139.6</ele>
        <time>2015-01-14T21:02:18Z</time>
        <extensions><gpxtpx:TrackPointExtension><gpxtpx:hr>136</gpxtpx:hr></gpxtpx:TrackPointExtension></extensions>
      </trkpt>
      <trkpt lat="60.002980224671" lon="15.768802755904">
        <ele>139.2</ele>
        <time>2015-01-14T21:02:21Z</time>
        <extensions><gpxtpx:TrackPointExtension><gpxtpx:hr>136</gpxtpx:hr></gpxtpx:TrackPointExtension></extensions>
      </trkpt>
      <trkpt lat="60.002978045377" lon="15.768800828067">
        <ele>139.2</ele>
        <time>2015-01-14T21:02:27Z</time>
        <extensions><gpxtpx:TrackPointExtension><gpxtpx:hr>134</gpxtpx:hr></gpxtpx:TrackPointExtension></extensions>
      </trkpt>
      <trkpt lat="60.002974357341" lon="15.768789931597">
        <ele>139.2</ele>
        <time>2015-01-14T21:02:34Z</time>
        <extensions><gpxtpx:TrackPointExtension><gpxtpx:hr>134</gpxtpx:hr></gpxtpx:TrackPointExtension></extensions>
      </trkpt>
      <trkpt lat="60.002973854427" lon="15.768742322405">
        <ele>139</ele>
        <time>2015-01-14T21:02:36Z</time>
        <extensions><gpxtpx:TrackPointExtension><gpxtpx:hr>135</gpxtpx:hr></gpxtpx:TrackPointExtension></extensions>
      </trkpt>
      <trkpt lat="60.002975782264" lon="15.768752296866">
        <ele>139.2</ele>
        <time>2015-01-14T21:02:37Z</time>
        <extensions><gpxtpx:TrackPointExtension><gpxtpx:hr>136</gpxtpx:hr></gpxtpx:TrackPointExtension></extensions>
      </trkpt>
      <trkpt lat="60.00297863211" lon="15.768730420107">
        <ele>139.4</ele>
        <time>2015-01-14T21:02:41Z</time>
        <extensions><gpxtpx:TrackPointExtension><gpxtpx:hr>138</gpxtpx:hr></gpxtpx:TrackPointExtension></extensions>
      </trkpt>
      <trkpt lat="60.002981733413" lon="15.768724971872">
        <ele>139.4</ele>
        <time>2015-01-14T21:02:45Z</time>
        <extensions><gpxtpx:TrackPointExtension><gpxtpx:hr>140</gpxtpx:hr></gpxtpx:TrackPointExtension></extensions>
      </trkpt>
      <trkpt lat="60.002989360942" lon="15.768732850858">
        <ele>139.6</ele>
        <time>2015-01-14T21:02:51Z</time>
        <extensions><gpxtpx:TrackPointExtension><gpxtpx:hr>140</gpxtpx:hr></gpxtpx:TrackPointExtension></extensions>
      </trkpt>
      <trkpt lat="60.00299288134" lon="15.768701334914">
        <ele>139.4</ele>
        <time>2015-01-14T21:02:56Z</time>
        <extensions><gpxtpx:TrackPointExtension><gpxtpx:hr>140</gpxtpx:hr></gpxtpx:TrackPointExtension></extensions>
      </trkpt>
      <trkpt lat="60.002991624055" lon="15.768705190588">
        <ele>139.2</ele>
        <time>2015-01-14T21:03:02Z</time>
        <extensions><gpxtpx:TrackPointExtension><gpxtpx:hr>140</gpxtpx:hr></gpxtpx:TrackPointExtension></extensions>
      </trkpt>
      <trkpt lat="60.002991540236" lon="15.768742992957">
        <ele>139</ele>
        <time>2015-01-14T21:03:07Z</time>
        <extensions><gpxtpx:TrackPointExtension><gpxtpx:hr>140</gpxtpx:hr></gpxtpx:TrackPointExtension></extensions>
      </trkpt>
      <trkpt lat="60.003014841918" lon="15.768760092033">
        <ele>139.4</ele>
        <time>2015-01-14T21:03:14Z</time>
        <extensions><gpxtpx:TrackPointExtension><gpxtpx:hr>138</gpxtpx:hr></gpxtpx:TrackPointExtension></extensions>
      </trkpt>
      <trkpt lat="60.003017691764" lon="15.768766378458">
        <ele>139.6</ele>
        <time>2015-01-14T21:03:16Z</time>
        <extensions><gpxtpx:TrackPointExtension><gpxtpx:hr>135</gpxtpx:hr></gpxtpx:TrackPointExtension></extensions>
      </trkpt>
      <trkpt lat="60.003017943221" lon="15.768772329607">
        <ele>139.8</ele>
        <time>2015-01-14T21:03:20Z</time>
        <extensions><gpxtpx:TrackPointExtension><gpxtpx:hr>133</gpxtpx:hr></gpxtpx:TrackPointExtension></extensions>
      </trkpt>
      <trkpt lat="60.003006711475" lon="15.768803510275">
        <ele>139.8</ele>
        <time>2015-01-14T21:03:24Z</time>
        <extensions><gpxtpx:TrackPointExtension><gpxtpx:hr>133</gpxtpx:hr></gpxtpx:TrackPointExtension></extensions>
      </trkpt>
      <trkpt lat="60.003004951276" lon="15.768824716482">
        <ele>139.8</ele>
        <time>2015-01-14T21:03:25Z</time>
        <extensions><gpxtpx:TrackPointExtension><gpxtpx:hr>133</gpxtpx:hr></gpxtpx:TrackPointExtension></extensions>
      </trkpt>
      <trkpt lat="60.003004951276" lon="15.768883641239">
        <ele>139.8</ele>
        <time>2015-01-14T21:03:29Z</time>
        <extensions><gpxtpx:TrackPointExtension><gpxtpx:hr>134</gpxtpx:hr></gpxtpx:TrackPointExtension></extensions>
      </trkpt>
      <trkpt lat="60.00300293962" lon="15.76887852828">
        <ele>139.6</ele>
        <time>2015-01-14T21:03:33Z</time>
        <extensions><gpxtpx:TrackPointExtension><gpxtpx:hr>135</gpxtpx:hr></gpxtpx:TrackPointExtension></extensions>
      </trkpt>
      <trkpt lat="60.00300210143" lon="15.768866625982">
        <ele>139.6</ele>
        <time>2015-01-14T21:03:37Z</time>
        <extensions><gpxtpx:TrackPointExtension><gpxtpx:hr>136</gpxtpx:hr></gpxtpx:TrackPointExtension></extensions>
      </trkpt>
      <trkpt lat="60.002999922136" lon="15.76887182276">
        <ele>139.6</ele>
        <time>2015-01-14T21:03:38Z</time>
        <extensions><gpxtpx:TrackPointExtension><gpxtpx:hr>136</gpxtpx:hr></gpxtpx:TrackPointExtension></extensions>
      </trkpt>
      <trkpt lat="60.002995731186" lon="15.768861932118">
        <ele>139.4</ele>
        <time>2015-01-14T21:03:43Z</time>
        <extensions><gpxtpx:TrackPointExtension><gpxtpx:hr>137</gpxtpx:hr></gpxtpx:TrackPointExtension></extensions>
      </trkpt>
      <trkpt lat="60.003000844145" lon="15.768864111412">
        <ele>139.4</ele>
        <time>2015-01-14T21:03:49Z</time>
        <extensions><gpxtpx:TrackPointExtension><gpxtpx:hr>134</gpxtpx:hr></gpxtpx:TrackPointExtension></extensions>
      </trkpt>
      <trkpt lat="60.002999083946" lon="15.768864614326">
        <ele>139.4</ele>
        <time>2015-01-14T21:03:50Z</time>
        <extensions><gpxtpx:TrackPointExtension><gpxtpx:hr>134</gpxtpx:hr></gpxtpx:TrackPointExtension></extensions>
      </trkpt>
      <trkpt lat="60.003007465846" lon="15.768786746475">
        <ele>139.4</ele>
        <time>2015-01-14T21:03:57Z</time>
        <extensions><gpxtpx:TrackPointExtension><gpxtpx:hr>134</gpxtpx:hr></gpxtpx:TrackPointExtension></extensions>
      </trkpt>
      <trkpt lat="60.003013165538" lon="15.768697563059">
        <ele>139.8</ele>
        <time>2015-01-14T21:04:02Z</time>
        <extensions><gpxtpx:TrackPointExtension><gpxtpx:hr>136</gpxtpx:hr></gpxtpx:TrackPointExtension></extensions>
      </trkpt>
      <trkpt lat="60.003013081719" lon="15.768680799259">
        <ele>139.8</ele>
        <time>2015-01-14T21:04:03Z</time>
        <extensions><gpxtpx:TrackPointExtension><gpxtpx:hr>137</gpxtpx:hr></gpxtpx:TrackPointExtension></extensions>
      </trkpt>
      <trkpt lat="60.003026995673" lon="15.76864970241">
        <ele>140.6</ele>
        <time>2015-01-14T21:04:06Z</time>
        <extensions><gpxtpx:TrackPointExtension><gpxtpx:hr>141</gpxtpx:hr></gpxtpx:TrackPointExtension></extensions>
      </trkpt>
      <trkpt lat="60.00302724713" lon="15.768648361306">
        <ele>140.6</ele>
        <time>2015-01-14T21:04:07Z</time>
        <extensions><gpxtpx:TrackPointExtension><gpxtpx:hr>141</gpxtpx:hr></gpxtpx:TrackPointExtension></extensions>
      </trkpt>
      <trkpt lat="60.003032863003" lon="15.768647355478">
        <ele>141.2</ele>
        <time>2015-01-14T21:04:14Z</time>
        <extensions><gpxtpx:TrackPointExtension><gpxtpx:hr>141</gpxtpx:hr></gpxtpx:TrackPointExtension></extensions>
      </trkpt>
      <trkpt lat="60.003037640686" lon="15.768646684926">
        <ele>141</ele>
        <time>2015-01-14T21:04:21Z</time>
        <extensions><gpxtpx:TrackPointExtension><gpxtpx:hr>139</gpxtpx:hr></gpxtpx:TrackPointExtension></extensions>
      </trkpt>
      <trkpt lat="60.003033533555" lon="15.768618354104">
        <ele>140.4</ele>
        <time>2015-01-14T21:04:27Z</time>
        <extensions><gpxtpx:TrackPointExtension><gpxtpx:hr>138</gpxtpx:hr></gpxtpx:TrackPointExtension></extensions>
      </trkpt>
      <trkpt lat="60.003026492759" lon="15.768605948892">
        <ele>140.2</ele>
        <time>2015-01-14T21:04:35Z</time>
        <extensions><gpxtpx:TrackPointExtension><gpxtpx:hr>136</gpxtpx:hr></gpxtpx:TrackPointExtension></extensions>
      </trkpt>
      <trkpt lat="60.003028672053" lon="15.768505366092">
        <ele>140.6</ele>
        <time>2015-01-14T21:04:38Z</time>
        <extensions><gpxtpx:TrackPointExtension><gpxtpx:hr>139</gpxtpx:hr></gpxtpx:TrackPointExtension></extensions>
      </trkpt>
      <trkpt lat="60.003034287926" lon="15.768468066637">
        <ele>140.6</ele>
        <time>2015-01-14T21:04:39Z</time>
        <extensions><gpxtpx:TrackPointExtension><gpxtpx:hr>139</gpxtpx:hr></gpxtpx:TrackPointExtension></extensions>
      </trkpt>
      <trkpt lat="60.003045100577" lon="15.768383325628">
        <ele>140.8</ele>
        <time>2015-01-14T21:04:41Z</time>
        <extensions><gpxtpx:TrackPointExtension><gpxtpx:hr>142</gpxtpx:hr></gpxtpx:TrackPointExtension></extensions>
      </trkpt>
      <trkpt lat="60.00306077473" lon="15.768272013996">
        <ele>141.2</ele>
        <time>2015-01-14T21:04:44Z</time>
        <extensions><gpxtpx:TrackPointExtension><gpxtpx:hr>145</gpxtpx:hr></gpxtpx:TrackPointExtension></extensions>
      </trkpt>
      <trkpt lat="60.003079634005" lon="15.768203869149">
        <ele>141.6</ele>
        <time>2015-01-14T21:04:46Z</time>
        <extensions><gpxtpx:TrackPointExtension><gpxtpx:hr>148</gpxtpx:hr></gpxtpx:TrackPointExtension></extensions>
      </trkpt>
      <trkpt lat="60.003083154403" lon="15.768182160028">
        <ele>141.8</ele>
        <time>2015-01-14T21:04:47Z</time>
        <extensions><gpxtpx:TrackPointExtension><gpxtpx:hr>148</gpxtpx:hr></gpxtpx:TrackPointExtension></extensions>
      </trkpt>
      <trkpt lat="60.003091536303" lon="15.768154080663">
        <ele>142.2</ele>
        <time>2015-01-14T21:04:48Z</time>
        <extensions><gpxtpx:TrackPointExtension><gpxtpx:hr>149</gpxtpx:hr></gpxtpx:TrackPointExtension></extensions>
      </trkpt>
      <trkpt lat="60.003143587902" lon="15.76791125702">
        <ele>142.8</ele>
        <time>2015-01-14T21:04:54Z</time>
        <extensions><gpxtpx:TrackPointExtension><gpxtpx:hr>148</gpxtpx:hr></gpxtpx:TrackPointExtension></extensions>
      </trkpt>
      <trkpt lat="60.003164542652" lon="15.767814697532">
        <ele>142.6</ele>
        <time>2015-01-14T21:05:00Z</time>
        <extensions><gpxtpx:TrackPointExtension><gpxtpx:hr>147</gpxtpx:hr></gpxtpx:TrackPointExtension></extensions>
      </trkpt>
      <trkpt lat="60.003152388897" lon="15.767799358655">
        <ele>142.6</ele>
        <time>2015-01-14T21:05:06Z</time>
        <extensions><gpxtpx:TrackPointExtension><gpxtpx:hr>145</gpxtpx:hr></gpxtpx:TrackPointExtension></extensions>
      </trkpt>
      <trkpt lat="60.003149790508" lon="15.767788462185">
        <ele>142.4</ele>
        <time>2015-01-14T21:05:11Z</time>
        <extensions><gpxtpx:TrackPointExtension><gpxtpx:hr>142</gpxtpx:hr></gpxtpx:TrackPointExtension></extensions>
      </trkpt>
      <trkpt lat="60.003141660065" lon="15.767758203526">
        <ele>142</ele>
        <time>2015-01-14T21:05:17Z</time>
        <extensions><gpxtpx:TrackPointExtension><gpxtpx:hr>140</gpxtpx:hr></gpxtpx:TrackPointExtension></extensions>
      </trkpt>
      <trkpt lat="60.003139313133" lon="15.767732303455">
        <ele>142</ele>
        <time>2015-01-14T21:05:22Z</time>
        <extensions><gpxtpx:TrackPointExtension><gpxtpx:hr>142</gpxtpx:hr></gpxtpx:TrackPointExtension></extensions>
      </trkpt>
      <trkpt lat="60.003137552934" lon="15.767702128615">
        <ele>142.2</ele>
        <time>2015-01-14T21:05:28Z</time>
        <extensions><gpxtpx:TrackPointExtension><gpxtpx:hr>142</gpxtpx:hr></gpxtpx:TrackPointExtension></extensions>
      </trkpt>
      <trkpt lat="60.003149036137" lon="15.767689555765">
        <ele>142</ele>
        <time>2015-01-14T21:05:33Z</time>
        <extensions><gpxtpx:TrackPointExtension><gpxtpx:hr>139</gpxtpx:hr></gpxtpx:TrackPointExtension></extensions>
      </trkpt>
      <trkpt lat="60.003153478544" lon="15.767672959603">
        <ele>142.2</ele>
        <time>2015-01-14T21:05:34Z</time>
        <extensions><gpxtpx:TrackPointExtension><gpxtpx:hr>139</gpxtpx:hr></gpxtpx:TrackPointExtension></extensions>
      </trkpt>
      <trkpt lat="60.003174852389" lon="15.767597019589">
        <ele>142.2</ele>
        <time>2015-01-14T21:05:41Z</time>
        <extensions><gpxtpx:TrackPointExtension><gpxtpx:hr>136</gpxtpx:hr></gpxtpx:TrackPointExtension></extensions>
      </trkpt>
      <trkpt lat="60.003174014199" lon="15.767588302413">
        <ele>141.6</ele>
        <time>2015-01-14T21:05:46Z</time>
        <extensions><gpxtpx:TrackPointExtension><gpxtpx:hr>138</gpxtpx:hr></gpxtpx:TrackPointExtension></extensions>
      </trkpt>
      <trkpt lat="60.003177031683" lon="15.767585787843">
        <ele>141.6</ele>
        <time>2015-01-14T21:05:52Z</time>
        <extensions><gpxtpx:TrackPointExtension><gpxtpx:hr>135</gpxtpx:hr></gpxtpx:TrackPointExtension></extensions>
      </trkpt>
      <trkpt lat="60.003184575393" lon="15.767575729563">
        <ele>141.8</ele>
        <time>2015-01-14T21:05:54Z</time>
        <extensions><gpxtpx:TrackPointExtension><gpxtpx:hr>133</gpxtpx:hr></gpxtpx:TrackPointExtension></extensions>
      </trkpt>
      <trkpt lat="60.003221288115" lon="15.767503645223">
        <ele>141.6</ele>
        <time>2015-01-14T21:05:59Z</time>
        <extensions><gpxtpx:TrackPointExtension><gpxtpx:hr>133</gpxtpx:hr></gpxtpx:TrackPointExtension></extensions>
      </trkpt>
      <trkpt lat="60.003227993635" lon="15.767488473984">
        <ele>141.6</ele>
        <time>2015-01-14T21:06:00Z</time>
        <extensions><gpxtpx:TrackPointExtension><gpxtpx:hr>134</gpxtpx:hr></gpxtpx:TrackPointExtension></extensions>
      </trkpt>
      <trkpt lat="60.003343077122" lon="15.767395518713">
        <ele>141</ele>
        <time>2015-01-14T21:06:05Z</time>
        <extensions><gpxtpx:TrackPointExtension><gpxtpx:hr>137</gpxtpx:hr></gpxtpx:TrackPointExtension></extensions>
      </trkpt>
      <trkpt lat="60.003371910858" lon="15.76737565361">
        <ele>140.6</ele>
        <time>2015-01-14T21:06:06Z</time>
        <extensions><gpxtpx:TrackPointExtension><gpxtpx:hr>137</gpxtpx:hr></gpxtpx:TrackPointExtension></extensions>
      </trkpt>
      <trkpt lat="60.003471068735" lon="15.767369367185">
        <ele>139.4</ele>
        <time>2015-01-14T21:06:08Z</time>
        <extensions><gpxtpx:TrackPointExtension><gpxtpx:hr>138</gpxtpx:hr></gpxtpx:TrackPointExtension></extensions>
      </trkpt>
      <trkpt lat="60.003552456984" lon="15.767384119329">
        <ele>138.2</ele>
        <time>2015-01-14T21:06:10Z</time>
        <extensions><gpxtpx:TrackPointExtension><gpxtpx:hr>139</gpxtpx:hr></gpxtpx:TrackPointExtension></extensions>
      </trkpt>
      <trkpt lat="60.00361817108" lon="15.767400044939">
        <ele>137.6</ele>
        <time>2015-01-14T21:06:11Z</time>
        <extensions><gpxtpx:TrackPointExtension><gpxtpx:hr>139</gpxtpx:hr></gpxtpx:TrackPointExtension></extensions>
      </trkpt>
      <trkpt lat="60.003677598751" lon="15.767424017173">
        <ele>137.2</ele>
        <time>2015-01-14T21:06:12Z</time>
        <extensions><gpxtpx:TrackPointExtension><gpxtpx:hr>139</gpxtpx:hr></gpxtpx:TrackPointExtension></extensions>
      </trkpt>
      <trkpt lat="60.003782288682" lon="15.767475482039">
        <ele>136.4</ele>
        <time>2015-01-14T21:06:14Z</time>
        <extensions><gpxtpx:TrackPointExtension><gpxtpx:hr>139</gpxtpx:hr></gpxtpx:TrackPointExtension></extensions>
      </trkpt>
      <trkpt lat="60.003823695268" lon="15.767523007412">
        <ele>135.8</ele>
        <time>2015-01-14T21:06:15Z</time>
        <extensions><gpxtpx:TrackPointExtension><gpxtpx:hr>139</gpxtpx:hr></gpxtpx:TrackPointExtension></extensions>
      </trkpt>
      <trkpt lat="60.003880943645" lon="15.767710259058">
        <ele>134.6</ele>
        <time>2015-01-14T21:06:17Z</time>
        <extensions><gpxtpx:TrackPointExtension><gpxtpx:hr>138</gpxtpx:hr></gpxtpx:TrackPointExtension></extensions>
      </trkpt>
      <trkpt lat="60.003905251155" lon="15.76781989431">
        <ele>134</ele>
        <time>2015-01-14T21:06:18Z</time>
        <extensions><gpxtpx:TrackPointExtension><gpxtpx:hr>138</gpxtpx:hr></gpxtpx:TrackPointExtension></extensions>
      </trkpt>
      <trkpt lat="60.003911705218" lon="15.767896337238">
        <ele>133.6</ele>
        <time>2015-01-14T21:06:19Z</time>
        <extensions><gpxtpx:TrackPointExtension><gpxtpx:hr>138</gpxtpx:hr></gpxtpx:TrackPointExtension></extensions>
      </trkpt>
      <trkpt lat="60.003914471245" lon="15.767978479858">
        <ele>133.4</ele>
        <time>2015-01-14T21:06:20Z</time>
        <extensions><gpxtpx:TrackPointExtension><gpxtpx:hr>138</gpxtpx:hr></gpxtpx:TrackPointExtension></extensions>
      </trkpt>
      <trkpt lat="60.003918075462" lon="15.768079649391">
        <ele>133.2</ele>
        <time>2015-01-14T21:06:21Z</time>
        <extensions><gpxtpx:TrackPointExtension><gpxtpx:hr>137</gpxtpx:hr></gpxtpx:TrackPointExtension></extensions>
      </trkpt>
      <trkpt lat="60.003915141797" lon="15.768194313783">
        <ele>132.6</ele>
        <time>2015-01-14T21:06:24Z</time>
        <extensions><gpxtpx:TrackPointExtension><gpxtpx:hr>137</gpxtpx:hr></gpxtpx:TrackPointExtension></extensions>
      </trkpt>
      <trkpt lat="60.003932157054" lon="15.768213927429">
        <ele>132.8</ele>
        <time>2015-01-14T21:06:30Z</time>
        <extensions><gpxtpx:TrackPointExtension><gpxtpx:hr>137</gpxtpx:hr></gpxtpx:TrackPointExtension></extensions>
      </trkpt>
      <trkpt lat="60.003960655514" lon="15.768166150599">
        <ele>133.2</ele>
        <time>2015-01-14T21:06:36Z</time>
        <extensions><gpxtpx:TrackPointExtension><gpxtpx:hr>134</gpxtpx:hr></gpxtpx:TrackPointExtension></extensions>
      </trkpt>
      <trkpt lat="60.003958979134" lon="15.768168916626">
        <ele>133.2</ele>
        <time>2015-01-14T21:06:37Z</time>
        <extensions><gpxtpx:TrackPointExtension><gpxtpx:hr>134</gpxtpx:hr></gpxtpx:TrackPointExtension></extensions>
      </trkpt>
      <trkpt lat="60.003965600835" lon="15.76814511203">
        <ele>132.8</ele>
        <time>2015-01-14T21:06:45Z</time>
        <extensions><gpxtpx:TrackPointExtension><gpxtpx:hr>134</gpxtpx:hr></gpxtpx:TrackPointExtension></extensions>
      </trkpt>
      <trkpt lat="60.003974234192" lon="15.768139579976">
        <ele>132.6</ele>
        <time>2015-01-14T21:06:49Z</time>
        <extensions><gpxtpx:TrackPointExtension><gpxtpx:hr>134</gpxtpx:hr></gpxtpx:TrackPointExtension></extensions>
      </trkpt>
      <trkpt lat="60.003977084038" lon="15.768116948846">
        <ele>132.6</ele>
        <time>2015-01-14T21:06:55Z</time>
        <extensions><gpxtpx:TrackPointExtension><gpxtpx:hr>136</gpxtpx:hr></gpxtpx:TrackPointExtension></extensions>
      </trkpt>
      <trkpt lat="60.003977838409" lon="15.768107980213">
        <ele>132.4</ele>
        <time>2015-01-14T21:06:59Z</time>
        <extensions><gpxtpx:TrackPointExtension><gpxtpx:hr>136</gpxtpx:hr></gpxtpx:TrackPointExtension></extensions>
      </trkpt>
      <trkpt lat="60.003978928056" lon="15.768093311888">
        <ele>132.2</ele>
        <time>2015-01-14T21:07:04Z</time>
        <extensions><gpxtpx:TrackPointExtension><gpxtpx:hr>136</gpxtpx:hr></gpxtpx:TrackPointExtension></extensions>
      </trkpt>
      <trkpt lat="60.003980436798" lon="15.768094150078">
        <ele>132.2</ele>
        <time>2015-01-14T21:07:06Z</time>
        <extensions><gpxtpx:TrackPointExtension><gpxtpx:hr>136</gpxtpx:hr></gpxtpx:TrackPointExtension></extensions>
      </trkpt>
      <trkpt lat="60.00398278373" lon="15.76809230606">
        <ele>132.6</ele>
        <time>2015-01-14T21:07:11Z</time>
        <extensions><gpxtpx:TrackPointExtension><gpxtpx:hr>136</gpxtpx:hr></gpxtpx:TrackPointExtension></extensions>
      </trkpt>
      <trkpt lat="60.003984124834" lon="15.768087612196">
        <ele>132.4</ele>
        <time>2015-01-14T21:07:16Z</time>
        <extensions><gpxtpx:TrackPointExtension><gpxtpx:hr>137</gpxtpx:hr></gpxtpx:TrackPointExtension></extensions>
      </trkpt>
      <trkpt lat="60.003979682427" lon="15.768073111509">
        <ele>132.6</ele>
        <time>2015-01-14T21:07:21Z</time>
        <extensions><gpxtpx:TrackPointExtension><gpxtpx:hr>137</gpxtpx:hr></gpxtpx:TrackPointExtension></extensions>
      </trkpt>
      <trkpt lat="60.003987729051" lon="15.768061628306">
        <ele>132.4</ele>
        <time>2015-01-14T21:07:29Z</time>
        <extensions><gpxtpx:TrackPointExtension><gpxtpx:hr>137</gpxtpx:hr></gpxtpx:TrackPointExtension></extensions>
      </trkpt>
      <trkpt lat="60.003990662716" lon="15.768056012433">
        <ele>132.6</ele>
        <time>2015-01-14T21:07:33Z</time>
        <extensions><gpxtpx:TrackPointExtension><gpxtpx:hr>137</gpxtpx:hr></gpxtpx:TrackPointExtension></extensions>
      </trkpt>
      <trkpt lat="60.004000720996" lon="15.768035812054">
        <ele>132.8</ele>
        <time>2015-01-14T21:07:39Z</time>
        <extensions><gpxtpx:TrackPointExtension><gpxtpx:hr>138</gpxtpx:hr></gpxtpx:TrackPointExtension></extensions>
      </trkpt>
      <trkpt lat="60.004004241394" lon="15.768031202009">
        <ele>132.6</ele>
        <time>2015-01-14T21:07:45Z</time>
        <extensions><gpxtpx:TrackPointExtension><gpxtpx:hr>139</gpxtpx:hr></gpxtpx:TrackPointExtension></extensions>
      </trkpt>
      <trkpt lat="60.003993261105" lon="15.767995243658">
        <ele>133</ele>
        <time>2015-01-14T21:07:50Z</time>
        <extensions><gpxtpx:TrackPointExtension><gpxtpx:hr>136</gpxtpx:hr></gpxtpx:TrackPointExtension></extensions>
      </trkpt>
      <trkpt lat="60.003990075983" lon="15.76797328308">
        <ele>133</ele>
        <time>2015-01-14T21:07:51Z</time>
        <extensions><gpxtpx:TrackPointExtension><gpxtpx:hr>136</gpxtpx:hr></gpxtpx:TrackPointExtension></extensions>
      </trkpt>
      <trkpt lat="60.003974066554" lon="15.767891894831">
        <ele>132.4</ele>
        <time>2015-01-14T21:07:55Z</time>
        <extensions><gpxtpx:TrackPointExtension><gpxtpx:hr>135</gpxtpx:hr></gpxtpx:TrackPointExtension></extensions>
      </trkpt>
      <trkpt lat="60.003966774301" lon="15.767858367231">
        <ele>132</ele>
        <time>2015-01-14T21:08:01Z</time>
        <extensions><gpxtpx:TrackPointExtension><gpxtpx:hr>132</gpxtpx:hr></gpxtpx:TrackPointExtension></extensions>
      </trkpt>
      <trkpt lat="60.003964092093" lon="15.767853254272">
        <ele>131.8</ele>
        <time>2015-01-14T21:08:03Z</time>
        <extensions><gpxtpx:TrackPointExtension><gpxtpx:hr>129</gpxtpx:hr></gpxtpx:TrackPointExtension></extensions>
      </trkpt>
      <trkpt lat="60.003959565867" lon="15.767858283412">
        <ele>131.4</ele>
        <time>2015-01-14T21:08:07Z</time>
        <extensions><gpxtpx:TrackPointExtension><gpxtpx:hr>130</gpxtpx:hr></gpxtpx:TrackPointExtension></extensions>
      </trkpt>
      <trkpt lat="60.003961912799" lon="15.767875717764">
        <ele>131.6</ele>
        <time>2015-01-14T21:08:08Z</time>
        <extensions><gpxtpx:TrackPointExtension><gpxtpx:hr>131</gpxtpx:hr></gpxtpx:TrackPointExtension></extensions>
      </trkpt>
      <trkpt lat="60.003961074609" lon="15.768008822336">
        <ele>132</ele>
        <time>2015-01-14T21:08:11Z</time>
        <extensions><gpxtpx:TrackPointExtension><gpxtpx:hr>132</gpxtpx:hr></gpxtpx:TrackPointExtension></extensions>
      </trkpt>
      <trkpt lat="60.003959733505" lon="15.768058610822">
        <ele>131.8</ele>
        <time>2015-01-14T21:08:13Z</time>
        <extensions><gpxtpx:TrackPointExtension><gpxtpx:hr>134</gpxtpx:hr></gpxtpx:TrackPointExtension></extensions>
      </trkpt>
      <trkpt lat="60.003957470392" lon="15.768088701843">
        <ele>131.6</ele>
        <time>2015-01-14T21:08:15Z</time>
        <extensions><gpxtpx:TrackPointExtension><gpxtpx:hr>136</gpxtpx:hr></gpxtpx:TrackPointExtension></extensions>
      </trkpt>
      <trkpt lat="60.003957470392" lon="15.768093060431">
        <ele>131.8</ele>
        <time>2015-01-14T21:08:19Z</time>
        <extensions><gpxtpx:TrackPointExtension><gpxtpx:hr>138</gpxtpx:hr></gpxtpx:TrackPointExtension></extensions>
      </trkpt>
      <trkpt lat="60.00395847622" lon="15.768131784809">
        <ele>132.2</ele>
        <time>2015-01-14T21:08:25Z</time>
        <extensions><gpxtpx:TrackPointExtension><gpxtpx:hr>139</gpxtpx:hr></gpxtpx:TrackPointExtension></extensions>
      </trkpt>
      <trkpt lat="60.003967612491" lon="15.768125414565">
        <ele>133</ele>
        <time>2015-01-14T21:08:31Z</time>
        <extensions><gpxtpx:TrackPointExtension><gpxtpx:hr>136</gpxtpx:hr></gpxtpx:TrackPointExtension></extensions>
      </trkpt>
      <trkpt lat="60.003967780129" lon="15.768112590258">
        <ele>133.2</ele>
        <time>2015-01-14T21:08:32Z</time>
        <extensions><gpxtpx:TrackPointExtension><gpxtpx:hr>136</gpxtpx:hr></gpxtpx:TrackPointExtension></extensions>
      </trkpt>
      <trkpt lat="60.003955039641" lon="15.767997506771">
        <ele>133.2</ele>
        <time>2015-01-14T21:08:36Z</time>
        <extensions><gpxtpx:TrackPointExtension><gpxtpx:hr>134</gpxtpx:hr></gpxtpx:TrackPointExtension></extensions>
      </trkpt>
      <trkpt lat="60.003956716021" lon="15.767967834845">
        <ele>133</ele>
        <time>2015-01-14T21:08:37Z</time>
        <extensions><gpxtpx:TrackPointExtension><gpxtpx:hr>133</gpxtpx:hr></gpxtpx:TrackPointExtension></extensions>
      </trkpt>
      <trkpt lat="60.003957470392" lon="15.76797831222">
        <ele>132.8</ele>
        <time>2015-01-14T21:08:41Z</time>
        <extensions><gpxtpx:TrackPointExtension><gpxtpx:hr>134</gpxtpx:hr></gpxtpx:TrackPointExtension></extensions>
      </trkpt>
      <trkpt lat="60.003962415713" lon="15.768000272798">
        <ele>133</ele>
        <time>2015-01-14T21:08:43Z</time>
        <extensions><gpxtpx:TrackPointExtension><gpxtpx:hr>134</gpxtpx:hr></gpxtpx:TrackPointExtension></extensions>
      </trkpt>
      <trkpt lat="60.003967277215" lon="15.768049642189">
        <ele>133</ele>
        <time>2015-01-14T21:08:46Z</time>
        <extensions><gpxtpx:TrackPointExtension><gpxtpx:hr>133</gpxtpx:hr></gpxtpx:TrackPointExtension></extensions>
      </trkpt>
      <trkpt lat="60.003967780129" lon="15.768049893646">
        <ele>132.6</ele>
        <time>2015-01-14T21:08:50Z</time>
        <extensions><gpxtpx:TrackPointExtension><gpxtpx:hr>136</gpxtpx:hr></gpxtpx:TrackPointExtension></extensions>
      </trkpt>
      <trkpt lat="60.003968366862" lon="15.768053916958">
        <ele>132.2</ele>
        <time>2015-01-14T21:08:52Z</time>
        <extensions><gpxtpx:TrackPointExtension><gpxtpx:hr>137</gpxtpx:hr></gpxtpx:TrackPointExtension></extensions>
      </trkpt>
      <trkpt lat="60.003968953595" lon="15.768070177844">
        <ele>131.6</ele>
        <time>2015-01-14T21:09:00Z</time>
        <extensions><gpxtpx:TrackPointExtension><gpxtpx:hr>138</gpxtpx:hr></gpxtpx:TrackPointExtension></extensions>
      </trkpt>
      <trkpt lat="60.00396937269" lon="15.768081996323">
        <ele>131.4</ele>
        <time>2015-01-14T21:09:06Z</time>
        <extensions><gpxtpx:TrackPointExtension><gpxtpx:hr>139</gpxtpx:hr></gpxtpx:TrackPointExtension></extensions>
      </trkpt>
      <trkpt lat="60.00395428527" lon="15.768112254982">
        <ele>131.8</ele>
        <time>2015-01-14T21:09:14Z</time>
        <extensions><gpxtpx:TrackPointExtension><gpxtpx:hr>137</gpxtpx:hr></gpxtpx:TrackPointExtension></extensions>
      </trkpt>
      <trkpt lat="60.00394087423" lon="15.768134383198">
        <ele>132</ele>
        <time>2015-01-14T21:09:19Z</time>
        <extensions><gpxtpx:TrackPointExtension><gpxtpx:hr>134</gpxtpx:hr></gpxtpx:TrackPointExtension></extensions>
      </trkpt>
      <trkpt lat="60.00394087423" lon="15.768176544155">
        <ele>131.6</ele>
        <time>2015-01-14T21:09:25Z</time>
        <extensions><gpxtpx:TrackPointExtension><gpxtpx:hr>136</gpxtpx:hr></gpxtpx:TrackPointExtension></extensions>
      </trkpt>
      <trkpt lat="60.003939952221" lon="15.768256507481">
        <ele>132</ele>
        <time>2015-01-14T21:09:31Z</time>
        <extensions><gpxtpx:TrackPointExtension><gpxtpx:hr>139</gpxtpx:hr></gpxtpx:TrackPointExtension></extensions>
      </trkpt>
      <trkpt lat="60.00394003604" lon="15.768264805562">
        <ele>132</ele>
        <time>2015-01-14T21:09:32Z</time>
        <extensions><gpxtpx:TrackPointExtension><gpxtpx:hr>139</gpxtpx:hr></gpxtpx:TrackPointExtension></extensions>
      </trkpt>
      <trkpt lat="60.003939700764" lon="15.768279809163">
        <ele>132.2</ele>
        <time>2015-01-14T21:09:33Z</time>
        <extensions><gpxtpx:TrackPointExtension><gpxtpx:hr>139</gpxtpx:hr></gpxtpx:TrackPointExtension></extensions>
      </trkpt>
      <trkpt lat="60.00394255061" lon="15.76829514804">
        <ele>132.2</ele>
        <time>2015-01-14T21:09:37Z</time>
        <extensions><gpxtpx:TrackPointExtension><gpxtpx:hr>140</gpxtpx:hr></gpxtpx:TrackPointExtension></extensions>
      </trkpt>
      <trkpt lat="60.003950429596" lon="15.768302021198">
        <ele>131.8</ele>
        <time>2015-01-14T21:09:42Z</time>
        <extensions><gpxtpx:TrackPointExtension><gpxtpx:hr>140</gpxtpx:hr></gpxtpx:TrackPointExtension></extensions>
      </trkpt>
      <trkpt lat="60.003951435424" lon="15.768295650954">
        <ele>132</ele>
        <time>2015-01-14T21:09:46Z</time>
        <extensions><gpxtpx:TrackPointExtension><gpxtpx:hr>141</gpxtpx:hr></gpxtpx:TrackPointExtension></extensions>
      </trkpt>
      <trkpt lat="60.00396350536" lon="15.768281653181">
        <ele>132.2</ele>
        <time>2015-01-14T21:09:50Z</time>
        <extensions><gpxtpx:TrackPointExtension><gpxtpx:hr>143</gpxtpx:hr></gpxtpx:TrackPointExtension></extensions>
      </trkpt>
      <trkpt lat="60.003966355206" lon="15.768268996512">
        <ele>132.2</ele>
        <time>2015-01-14T21:09:54Z</time>
        <extensions><gpxtpx:TrackPointExtension><gpxtpx:hr>144</gpxtpx:hr></gpxtpx:TrackPointExtension></extensions>
      </trkpt>
      <trkpt lat="60.003993261105" lon="15.768231697057">
        <ele>132</ele>
        <time>2015-01-14T21:10:02Z</time>
        <extensions><gpxtpx:TrackPointExtension><gpxtpx:hr>144</gpxtpx:hr></gpxtpx:TrackPointExtension></extensions>
      </trkpt>
      <trkpt lat="60.003992590553" lon="15.768218621293">
        <ele>132.2</ele>
        <time>2015-01-14T21:10:06Z</time>
        <extensions><gpxtpx:TrackPointExtension><gpxtpx:hr>144</gpxtpx:hr></gpxtpx:TrackPointExtension></extensions>
      </trkpt>
      <trkpt lat="60.003993177286" lon="15.768199929656">
        <ele>132</ele>
        <time>2015-01-14T21:10:10Z</time>
        <extensions><gpxtpx:TrackPointExtension><gpxtpx:hr>143</gpxtpx:hr></gpxtpx:TrackPointExtension></extensions>
      </trkpt>
      <trkpt lat="60.003994434571" lon="15.768200684027">
        <ele>132.2</ele>
        <time>2015-01-14T21:10:11Z</time>
        <extensions><gpxtpx:TrackPointExtension><gpxtpx:hr>143</gpxtpx:hr></gpxtpx:TrackPointExtension></extensions>
      </trkpt>
      <trkpt lat="60.003992339096" lon="15.768188865548">
        <ele>132</ele>
        <time>2015-01-14T21:10:15Z</time>
        <extensions><gpxtpx:TrackPointExtension><gpxtpx:hr>142</gpxtpx:hr></gpxtpx:TrackPointExtension></extensions>
      </trkpt>
      <trkpt lat="60.004003989937" lon="15.768170844463">
        <ele>132.2</ele>
        <time>2015-01-14T21:10:19Z</time>
        <extensions><gpxtpx:TrackPointExtension><gpxtpx:hr>142</gpxtpx:hr></gpxtpx:TrackPointExtension></extensions>
      </trkpt>
      <trkpt lat="60.00398865106" lon="15.768176208879">
        <ele>132.2</ele>
        <time>2015-01-14T21:10:20Z</time>
        <extensions><gpxtpx:TrackPointExtension><gpxtpx:hr>142</gpxtpx:hr></gpxtpx:TrackPointExtension></extensions>
      </trkpt>
      <trkpt lat="60.003983957196" lon="15.768180399829">
        <ele>132</ele>
        <time>2015-01-14T21:10:23Z</time>
        <extensions><gpxtpx:TrackPointExtension><gpxtpx:hr>141</gpxtpx:hr></gpxtpx:TrackPointExtension></extensions>
      </trkpt>
      <trkpt lat="60.003981526445" lon="15.768130276067">
        <ele>132.2</ele>
        <time>2015-01-14T21:10:30Z</time>
        <extensions><gpxtpx:TrackPointExtension><gpxtpx:hr>139</gpxtpx:hr></gpxtpx:TrackPointExtension></extensions>
      </trkpt>
      <trkpt lat="60.003959733505" lon="15.767999686065">
        <ele>131.8</ele>
        <time>2015-01-14T21:10:36Z</time>
        <extensions><gpxtpx:TrackPointExtension><gpxtpx:hr>138</gpxtpx:hr></gpxtpx:TrackPointExtension></extensions>
      </trkpt>
      <trkpt lat="60.003962248075" lon="15.768078978839">
        <ele>131.6</ele>
        <time>2015-01-14T21:10:41Z</time>
        <extensions><gpxtpx:TrackPointExtension><gpxtpx:hr>139</gpxtpx:hr></gpxtpx:TrackPointExtension></extensions>
      </trkpt>
      <trkpt lat="60.003943221162" lon="15.768283329561">
        <ele>131.8</ele>
        <time>2015-01-14T21:10:47Z</time>
        <extensions><gpxtpx:TrackPointExtension><gpxtpx:hr>142</gpxtpx:hr></gpxtpx:TrackPointExtension></extensions>
      </trkpt>
      <trkpt lat="60.003942382972" lon="15.76831777917">
        <ele>131.8</ele>
        <time>2015-01-14T21:10:48Z</time>
        <extensions><gpxtpx:TrackPointExtension><gpxtpx:hr>142</gpxtpx:hr></gpxtpx:TrackPointExtension></extensions>
      </trkpt>
      <trkpt lat="60.003961577523" lon="15.76858264721">
        <ele>132.2</ele>
        <time>2015-01-14T21:10:54Z</time>
        <extensions><gpxtpx:TrackPointExtension><gpxtpx:hr>143</gpxtpx:hr></gpxtpx:TrackPointExtension></extensions>
      </trkpt>
      <trkpt lat="60.003959398229" lon="15.768604523969">
        <ele>132.2</ele>
        <time>2015-01-14T21:10:58Z</time>
        <extensions><gpxtpx:TrackPointExtension><gpxtpx:hr>141</gpxtpx:hr></gpxtpx:TrackPointExtension></extensions>
      </trkpt>
      <trkpt lat="60.00395009432" lon="15.768626736004">
        <ele>132.4</ele>
        <time>2015-01-14T21:11:03Z</time>
        <extensions><gpxtpx:TrackPointExtension><gpxtpx:hr>139</gpxtpx:hr></gpxtpx:TrackPointExtension></extensions>
      </trkpt>
      <trkpt lat="60.003958643858" lon="15.768632519515">
        <ele>131.8</ele>
        <time>2015-01-14T21:11:08Z</time>
        <extensions><gpxtpx:TrackPointExtension><gpxtpx:hr>140</gpxtpx:hr></gpxtpx:TrackPointExtension></extensions>
      </trkpt>
      <trkpt lat="60.003982951368" lon="15.768641152872">
        <ele>131.6</ele>
        <time>2015-01-14T21:11:15Z</time>
        <extensions><gpxtpx:TrackPointExtension><gpxtpx:hr>141</gpxtpx:hr></gpxtpx:TrackPointExtension></extensions>
      </trkpt>
      <trkpt lat="60.004015556959" lon="15.768632519515">
        <ele>132</ele>
        <time>2015-01-14T21:11:21Z</time>
        <extensions><gpxtpx:TrackPointExtension><gpxtpx:hr>140</gpxtpx:hr></gpxtpx:TrackPointExtension></extensions>
      </trkpt>
      <trkpt lat="60.004025447601" lon="15.768624053796">
        <ele>132</ele>
        <time>2015-01-14T21:11:25Z</time>
        <extensions><gpxtpx:TrackPointExtension><gpxtpx:hr>137</gpxtpx:hr></gpxtpx:TrackPointExtension></extensions>
      </trkpt>
      <trkpt lat="60.004024944687" lon="15.768630591678">
        <ele>132.2</ele>
        <time>2015-01-14T21:11:29Z</time>
        <extensions><gpxtpx:TrackPointExtension><gpxtpx:hr>136</gpxtpx:hr></gpxtpx:TrackPointExtension></extensions>
      </trkpt>
      <trkpt lat="60.004025279963" lon="15.768642661614">
        <ele>132.4</ele>
        <time>2015-01-14T21:11:32Z</time>
        <extensions><gpxtpx:TrackPointExtension><gpxtpx:hr>136</gpxtpx:hr></gpxtpx:TrackPointExtension></extensions>
      </trkpt>
      <trkpt lat="60.004022513936" lon="15.768650708238">
        <ele>132.4</ele>
        <time>2015-01-14T21:11:35Z</time>
        <extensions><gpxtpx:TrackPointExtension><gpxtpx:hr>137</gpxtpx:hr></gpxtpx:TrackPointExtension></extensions>
      </trkpt>
      <trkpt lat="60.004018993538" lon="15.768639392673">
        <ele>132.6</ele>
        <time>2015-01-14T21:11:42Z</time>
        <extensions><gpxtpx:TrackPointExtension><gpxtpx:hr>140</gpxtpx:hr></gpxtpx:TrackPointExtension></extensions>
      </trkpt>
      <trkpt lat="60.004013042389" lon="15.768631513687">
        <ele>132.4</ele>
        <time>2015-01-14T21:11:46Z</time>
        <extensions><gpxtpx:TrackPointExtension><gpxtpx:hr>140</gpxtpx:hr></gpxtpx:TrackPointExtension></extensions>
      </trkpt>
      <trkpt lat="60.004009857267" lon="15.768710806461">
        <ele>132</ele>
        <time>2015-01-14T21:11:51Z</time>
        <extensions><gpxtpx:TrackPointExtension><gpxtpx:hr>140</gpxtpx:hr></gpxtpx:TrackPointExtension></extensions>
      </trkpt>
      <trkpt lat="60.004006504507" lon="15.768757242187">
        <ele>132.2</ele>
        <time>2015-01-14T21:11:53Z</time>
        <extensions><gpxtpx:TrackPointExtension><gpxtpx:hr>141</gpxtpx:hr></gpxtpx:TrackPointExtension></extensions>
      </trkpt>
      <trkpt lat="60.004012790932" lon="15.768826644319">
        <ele>132.8</ele>
        <time>2015-01-14T21:11:56Z</time>
        <extensions><gpxtpx:TrackPointExtension><gpxtpx:hr>143</gpxtpx:hr></gpxtpx:TrackPointExtension></extensions>
      </trkpt>
      <trkpt lat="60.00402134047" lon="15.76887266095">
        <ele>133.4</ele>
        <time>2015-01-14T21:11:58Z</time>
        <extensions><gpxtpx:TrackPointExtension><gpxtpx:hr>145</gpxtpx:hr></gpxtpx:TrackPointExtension></extensions>
      </trkpt>
      <trkpt lat="60.004042043763" lon="15.768965280945">
        <ele>134</ele>
        <time>2015-01-14T21:12:01Z</time>
        <extensions><gpxtpx:TrackPointExtension><gpxtpx:hr>148</gpxtpx:hr></gpxtpx:TrackPointExtension></extensions>
      </trkpt>
      <trkpt lat="60.004057047364" lon="15.769007441902">
        <ele>134.6</ele>
        <time>2015-01-14T21:12:03Z</time>
        <extensions><gpxtpx:TrackPointExtension><gpxtpx:hr>150</gpxtpx:hr></gpxtpx:TrackPointExtension></extensions>
      </trkpt>
      <trkpt lat="60.004074314078" lon="15.769043232615">
        <ele>134.8</ele>
        <time>2015-01-14T21:12:04Z</time>
        <extensions><gpxtpx:TrackPointExtension><gpxtpx:hr>151</gpxtpx:hr></gpxtpx:TrackPointExtension></extensions>
      </trkpt>
      <trkpt lat="60.004098370131" lon="15.769086902314">
        <ele>135.2</ele>
        <time>2015-01-14T21:12:06Z</time>
        <extensions><gpxtpx:TrackPointExtension><gpxtpx:hr>151</gpxtpx:hr></gpxtpx:TrackPointExtension></extensions>
      </trkpt>
      <trkpt lat="60.004121504175" lon="15.769126883977">
        <ele>135.6</ele>
        <time>2015-01-14T21:12:09Z</time>
        <extensions><gpxtpx:TrackPointExtension><gpxtpx:hr>151</gpxtpx:hr></gpxtpx:TrackPointExtension></extensions>
      </trkpt>
      <trkpt lat="60.004126198039" lon="15.769127805986">
        <ele>135.6</ele>
        <time>2015-01-14T21:12:10Z</time>
        <extensions><gpxtpx:TrackPointExtension><gpxtpx:hr>152</gpxtpx:hr></gpxtpx:TrackPointExtension></extensions>
      </trkpt>
      <trkpt lat="60.004137513604" lon="15.769137193714">
        <ele>135.8</ele>
        <time>2015-01-14T21:12:11Z</time>
        <extensions><gpxtpx:TrackPointExtension><gpxtpx:hr>152</gpxtpx:hr></gpxtpx:TrackPointExtension></extensions>
      </trkpt>
      <trkpt lat="60.004197695646" lon="15.769143731596">
        <ele>135.8</ele>
        <time>2015-01-14T21:12:16Z</time>
        <extensions><gpxtpx:TrackPointExtension><gpxtpx:hr>152</gpxtpx:hr></gpxtpx:TrackPointExtension></extensions>
      </trkpt>
      <trkpt lat="60.004289225994" lon="15.769171140409">
        <ele>135.6</ele>
        <time>2015-01-14T21:12:22Z</time>
        <extensions><gpxtpx:TrackPointExtension><gpxtpx:hr>151</gpxtpx:hr></gpxtpx:TrackPointExtension></extensions>
      </trkpt>
      <trkpt lat="60.004301128292" lon="15.769164853984">
        <ele>135.6</ele>
        <time>2015-01-14T21:12:23Z</time>
        <extensions><gpxtpx:TrackPointExtension><gpxtpx:hr>150</gpxtpx:hr></gpxtpx:TrackPointExtension></extensions>
      </trkpt>
      <trkpt lat="60.004316467169" lon="15.769151526763">
        <ele>135.4</ele>
        <time>2015-01-14T21:12:27Z</time>
        <extensions><gpxtpx:TrackPointExtension><gpxtpx:hr>149</gpxtpx:hr></gpxtpx:TrackPointExtension></extensions>
      </trkpt>
      <trkpt lat="60.004339936489" lon="15.769144318329">
        <ele>134.6</ele>
        <time>2015-01-14T21:12:35Z</time>
        <extensions><gpxtpx:TrackPointExtension><gpxtpx:hr>150</gpxtpx:hr></gpxtpx:TrackPointExtension></extensions>
      </trkpt>
      <trkpt lat="60.004359550135" lon="15.769151610582">
        <ele>134.4</ele>
        <time>2015-01-14T21:12:41Z</time>
        <extensions><gpxtpx:TrackPointExtension><gpxtpx:hr>150</gpxtpx:hr></gpxtpx:TrackPointExtension></extensions>
      </trkpt>
      <trkpt lat="60.004361561791" lon="15.769157394093">
        <ele>134.4</ele>
        <time>2015-01-14T21:12:46Z</time>
        <extensions><gpxtpx:TrackPointExtension><gpxtpx:hr>149</gpxtpx:hr></gpxtpx:TrackPointExtension></extensions>
      </trkpt>
      <trkpt lat="60.004367345302" lon="15.769158819016">
        <ele>134.2</ele>
        <time>2015-01-14T21:12:51Z</time>
        <extensions><gpxtpx:TrackPointExtension><gpxtpx:hr>147</gpxtpx:hr></gpxtpx:TrackPointExtension></extensions>
      </trkpt>
      <trkpt lat="60.004376816849" lon="15.769170386038">
        <ele>134.6</ele>
        <time>2015-01-14T21:12:56Z</time>
        <extensions><gpxtpx:TrackPointExtension><gpxtpx:hr>147</gpxtpx:hr></gpxtpx:TrackPointExtension></extensions>
      </trkpt>
      <trkpt lat="60.004373547908" lon="15.769190502598">
        <ele>134.6</ele>
        <time>2015-01-14T21:13:01Z</time>
        <extensions><gpxtpx:TrackPointExtension><gpxtpx:hr>146</gpxtpx:hr></gpxtpx:TrackPointExtension></extensions>
      </trkpt>
      <trkpt lat="60.004381426894" lon="15.769172481513">
        <ele>134.6</ele>
        <time>2015-01-14T21:13:06Z</time>
        <extensions><gpxtpx:TrackPointExtension><gpxtpx:hr>146</gpxtpx:hr></gpxtpx:TrackPointExtension></extensions>
      </trkpt>
      <trkpt lat="60.004400286169" lon="15.769168961115">
        <ele>134.4</ele>
        <time>2015-01-14T21:13:12Z</time>
        <extensions><gpxtpx:TrackPointExtension><gpxtpx:hr>143</gpxtpx:hr></gpxtpx:TrackPointExtension></extensions>
      </trkpt>
      <trkpt lat="60.004406656413" lon="15.769169715486">
        <ele>134.6</ele>
        <time>2015-01-14T21:13:15Z</time>
        <extensions><gpxtpx:TrackPointExtension><gpxtpx:hr>142</gpxtpx:hr></gpxtpx:TrackPointExtension></extensions>
      </trkpt>
      <trkpt lat="60.004407662241" lon="15.769180779594">
        <ele>134.8</ele>
        <time>2015-01-14T21:13:21Z</time>
        <extensions><gpxtpx:TrackPointExtension><gpxtpx:hr>140</gpxtpx:hr></gpxtpx:TrackPointExtension></extensions>
      </trkpt>
      <trkpt lat="60.004392491002" lon="15.7691786003">
        <ele>134.8</ele>
        <time>2015-01-14T21:13:26Z</time>
        <extensions><gpxtpx:TrackPointExtension><gpxtpx:hr>138</gpxtpx:hr></gpxtpx:TrackPointExtension></extensions>
      </trkpt>
      <trkpt lat="60.004433059398" lon="15.769175498997">
        <ele>135.4</ele>
        <time>2015-01-14T21:13:32Z</time>
        <extensions><gpxtpx:TrackPointExtension><gpxtpx:hr>137</gpxtpx:hr></gpxtpx:TrackPointExtension></extensions>
      </trkpt>
      <trkpt lat="60.004547388514" lon="15.769243727663">
        <ele>134.6</ele>
        <time>2015-01-14T21:13:36Z</time>
        <extensions><gpxtpx:TrackPointExtension><gpxtpx:hr>137</gpxtpx:hr></gpxtpx:TrackPointExtension></extensions>
      </trkpt>
      <trkpt lat="60.004563314124" lon="15.769227802053">
        <ele>133.8</ele>
        <time>2015-01-14T21:13:39Z</time>
        <extensions><gpxtpx:TrackPointExtension><gpxtpx:hr>138</gpxtpx:hr></gpxtpx:TrackPointExtension></extensions>
      </trkpt>
      <trkpt lat="60.0045636494" lon="15.769228640243">
        <ele>133.6</ele>
        <time>2015-01-14T21:13:41Z</time>
        <extensions><gpxtpx:TrackPointExtension><gpxtpx:hr>138</gpxtpx:hr></gpxtpx:TrackPointExtension></extensions>
      </trkpt>
      <trkpt lat="60.00457622225" lon="15.76921799523">
        <ele>133.8</ele>
        <time>2015-01-14T21:13:44Z</time>
        <extensions><gpxtpx:TrackPointExtension><gpxtpx:hr>138</gpxtpx:hr></gpxtpx:TrackPointExtension></extensions>
      </trkpt>
      <trkpt lat="60.004576473707" lon="15.769190167322">
        <ele>133.6</ele>
        <time>2015-01-14T21:13:49Z</time>
        <extensions><gpxtpx:TrackPointExtension><gpxtpx:hr>138</gpxtpx:hr></gpxtpx:TrackPointExtension></extensions>
      </trkpt>
      <trkpt lat="60.004574126775" lon="15.769189329132">
        <ele>133.2</ele>
        <time>2015-01-14T21:13:53Z</time>
        <extensions><gpxtpx:TrackPointExtension><gpxtpx:hr>138</gpxtpx:hr></gpxtpx:TrackPointExtension></extensions>
      </trkpt>
      <trkpt lat="60.004572953309" lon="15.76919955505">
        <ele>133</ele>
        <time>2015-01-14T21:13:55Z</time>
        <extensions><gpxtpx:TrackPointExtension><gpxtpx:hr>138</gpxtpx:hr></gpxtpx:TrackPointExtension></extensions>
      </trkpt>
      <trkpt lat="60.004575551698" lon="15.769192765711">
        <ele>132.8</ele>
        <time>2015-01-14T21:13:57Z</time>
        <extensions><gpxtpx:TrackPointExtension><gpxtpx:hr>139</gpxtpx:hr></gpxtpx:TrackPointExtension></extensions>
      </trkpt>
      <trkpt lat="60.00457454587" lon="15.769188071847">
        <ele>132.6</ele>
        <time>2015-01-14T21:13:59Z</time>
        <extensions><gpxtpx:TrackPointExtension><gpxtpx:hr>139</gpxtpx:hr></gpxtpx:TrackPointExtension></extensions>
      </trkpt>
      <trkpt lat="60.00456281121" lon="15.769194777367">
        <ele>132.8</ele>
        <time>2015-01-14T21:14:02Z</time>
        <extensions><gpxtpx:TrackPointExtension><gpxtpx:hr>138</gpxtpx:hr></gpxtpx:TrackPointExtension></extensions>
      </trkpt>
      <trkpt lat="60.004564822866" lon="15.76919452591">
        <ele>133.2</ele>
        <time>2015-01-14T21:14:06Z</time>
        <extensions><gpxtpx:TrackPointExtension><gpxtpx:hr>134</gpxtpx:hr></gpxtpx:TrackPointExtension></extensions>
      </trkpt>
      <trkpt lat="60.004561721563" lon="15.769204668009">
        <ele>133.4</ele>
        <time>2015-01-14T21:14:08Z</time>
        <extensions><gpxtpx:TrackPointExtension><gpxtpx:hr>134</gpxtpx:hr></gpxtpx:TrackPointExtension></extensions>
      </trkpt>
      <trkpt lat="60.004568091807" lon="15.769193184806">
        <ele>133.6</ele>
        <time>2015-01-14T21:14:14Z</time>
        <extensions><gpxtpx:TrackPointExtension><gpxtpx:hr>133</gpxtpx:hr></gpxtpx:TrackPointExtension></extensions>
      </trkpt>
      <trkpt lat="60.004574042956" lon="15.769196369928">
        <ele>133.4</ele>
        <time>2015-01-14T21:14:21Z</time>
        <extensions><gpxtpx:TrackPointExtension><gpxtpx:hr>133</gpxtpx:hr></gpxtpx:TrackPointExtension></extensions>
      </trkpt>
      <trkpt lat="60.004563984676" lon="15.76918279125">
        <ele>133.2</ele>
        <time>2015-01-14T21:14:28Z</time>
        <extensions><gpxtpx:TrackPointExtension><gpxtpx:hr>133</gpxtpx:hr></gpxtpx:TrackPointExtension></extensions>
      </trkpt>
      <trkpt lat="60.004558871717" lon="15.769200979973">
        <ele>133.2</ele>
        <time>2015-01-14T21:14:32Z</time>
        <extensions><gpxtpx:TrackPointExtension><gpxtpx:hr>133</gpxtpx:hr></gpxtpx:TrackPointExtension></extensions>
      </trkpt>
      <trkpt lat="60.00455442931" lon="15.769214893927">
        <ele>131.8</ele>
        <time>2015-01-14T21:14:38Z</time>
        <extensions><gpxtpx:TrackPointExtension><gpxtpx:hr>134</gpxtpx:hr></gpxtpx:TrackPointExtension></extensions>
      </trkpt>
      <trkpt lat="60.004560045183" lon="15.76921631885">
        <ele>132</ele>
        <time>2015-01-14T21:14:43Z</time>
        <extensions><gpxtpx:TrackPointExtension><gpxtpx:hr>134</gpxtpx:hr></gpxtpx:TrackPointExtension></extensions>
      </trkpt>
      <trkpt lat="60.004575300241" lon="15.76921799523">
        <ele>131.8</ele>
        <time>2015-01-14T21:14:46Z</time>
        <extensions><gpxtpx:TrackPointExtension><gpxtpx:hr>132</gpxtpx:hr></gpxtpx:TrackPointExtension></extensions>
      </trkpt>
      <trkpt lat="60.004568846178" lon="15.769221264171">
        <ele>131.8</ele>
        <time>2015-01-14T21:14:47Z</time>
        <extensions><gpxtpx:TrackPointExtension><gpxtpx:hr>132</gpxtpx:hr></gpxtpx:TrackPointExtension></extensions>
      </trkpt>
      <trkpt lat="60.004582424856" lon="15.769206092932">
        <ele>131.8</ele>
        <time>2015-01-14T21:14:52Z</time>
        <extensions><gpxtpx:TrackPointExtension><gpxtpx:hr>133</gpxtpx:hr></gpxtpx:TrackPointExtension></extensions>
      </trkpt>
      <trkpt lat="60.004586448168" lon="15.769212546995">
        <ele>131.8</ele>
        <time>2015-01-14T21:14:57Z</time>
        <extensions><gpxtpx:TrackPointExtension><gpxtpx:hr>129</gpxtpx:hr></gpxtpx:TrackPointExtension></extensions>
      </trkpt>
      <trkpt lat="60.004591561127" lon="15.769206763484">
        <ele>131.8</ele>
        <time>2015-01-14T21:15:01Z</time>
        <extensions><gpxtpx:TrackPointExtension><gpxtpx:hr>129</gpxtpx:hr></gpxtpx:TrackPointExtension></extensions>
      </trkpt>
      <trkpt lat="60.004601870864" lon="15.76920206962">
        <ele>131.8</ele>
        <time>2015-01-14T21:15:05Z</time>
        <extensions><gpxtpx:TrackPointExtension><gpxtpx:hr>131</gpxtpx:hr></gpxtpx:TrackPointExtension></extensions>
      </trkpt>
      <trkpt lat="60.004603379606" lon="15.769193855358">
        <ele>131.8</ele>
        <time>2015-01-14T21:15:10Z</time>
        <extensions><gpxtpx:TrackPointExtension><gpxtpx:hr>131</gpxtpx:hr></gpxtpx:TrackPointExtension></extensions>
      </trkpt>
      <trkpt lat="60.004606061814" lon="15.76919452591">
        <ele>132.4</ele>
        <time>2015-01-14T21:15:18Z</time>
        <extensions><gpxtpx:TrackPointExtension><gpxtpx:hr>130</gpxtpx:hr></gpxtpx:TrackPointExtension></extensions>
      </trkpt>
      <trkpt lat="60.004607989651" lon="15.769196705204">
        <ele>133.2</ele>
        <time>2015-01-14T21:15:23Z</time>
        <extensions><gpxtpx:TrackPointExtension><gpxtpx:hr>133</gpxtpx:hr></gpxtpx:TrackPointExtension></extensions>
      </trkpt>
      <trkpt lat="60.004610420402" lon="15.769188574761">
        <ele>133.2</ele>
        <time>2015-01-14T21:15:25Z</time>
        <extensions><gpxtpx:TrackPointExtension><gpxtpx:hr>133</gpxtpx:hr></gpxtpx:TrackPointExtension></extensions>
      </trkpt>
      <trkpt lat="60.004644450916" lon="15.769148676917">
        <ele>132.6</ele>
        <time>2015-01-14T21:15:31Z</time>
        <extensions><gpxtpx:TrackPointExtension><gpxtpx:hr>131</gpxtpx:hr></gpxtpx:TrackPointExtension></extensions>
      </trkpt>
      <trkpt lat="60.004686276597" lon="15.769074078007">
        <ele>131.6</ele>
        <time>2015-01-14T21:15:33Z</time>
        <extensions><gpxtpx:TrackPointExtension><gpxtpx:hr>131</gpxtpx:hr></gpxtpx:TrackPointExtension></extensions>
      </trkpt>
      <trkpt lat="60.004725503889" lon="15.769034934534">
        <ele>130.6</ele>
        <time>2015-01-14T21:15:34Z</time>
        <extensions><gpxtpx:TrackPointExtension><gpxtpx:hr>132</gpxtpx:hr></gpxtpx:TrackPointExtension></extensions>
      </trkpt>
      <trkpt lat="60.004797085315" lon="15.7689858166">
        <ele>129.8</ele>
        <time>2015-01-14T21:15:35Z</time>
        <extensions><gpxtpx:TrackPointExtension><gpxtpx:hr>133</gpxtpx:hr></gpxtpx:TrackPointExtension></extensions>
      </trkpt>
      <trkpt lat="60.004876042813" lon="15.768946840765">
        <ele>128.6</ele>
        <time>2015-01-14T21:15:36Z</time>
        <extensions><gpxtpx:TrackPointExtension><gpxtpx:hr>133</gpxtpx:hr></gpxtpx:TrackPointExtension></extensions>
      </trkpt>
      <trkpt lat="60.005051727437" lon="15.76895815633">
        <ele>127</ele>
        <time>2015-01-14T21:15:38Z</time>
        <extensions><gpxtpx:TrackPointExtension><gpxtpx:hr>134</gpxtpx:hr></gpxtpx:TrackPointExtension></extensions>
      </trkpt>
      <trkpt lat="60.005120375198" lon="15.768986990066">
        <ele>125.8</ele>
        <time>2015-01-14T21:15:39Z</time>
        <extensions><gpxtpx:TrackPointExtension><gpxtpx:hr>135</gpxtpx:hr></gpxtpx:TrackPointExtension></extensions>
      </trkpt>
      <trkpt lat="60.005250881381" lon="15.769087656685">
        <ele>124.6</ele>
        <time>2015-01-14T21:15:41Z</time>
        <extensions><gpxtpx:TrackPointExtension><gpxtpx:hr>134</gpxtpx:hr></gpxtpx:TrackPointExtension></extensions>
      </trkpt>
      <trkpt lat="60.005313661812" lon="15.769152113496">
        <ele>124</ele>
        <time>2015-01-14T21:15:42Z</time>
        <extensions><gpxtpx:TrackPointExtension><gpxtpx:hr>134</gpxtpx:hr></gpxtpx:TrackPointExtension></extensions>
      </trkpt>
      <trkpt lat="60.005359259348" lon="15.769193603901">
        <ele>123.4</ele>
        <time>2015-01-14T21:15:43Z</time>
        <extensions><gpxtpx:TrackPointExtension><gpxtpx:hr>134</gpxtpx:hr></gpxtpx:TrackPointExtension></extensions>
      </trkpt>
      <trkpt lat="60.005486328952" lon="15.769339197504">
        <ele>122.6</ele>
        <time>2015-01-14T21:15:46Z</time>
        <extensions><gpxtpx:TrackPointExtension><gpxtpx:hr>135</gpxtpx:hr></gpxtpx:TrackPointExtension></extensions>
      </trkpt>
      <trkpt lat="60.005571824332" lon="15.769364594661">
        <ele>122.4</ele>
        <time>2015-01-14T21:15:48Z</time>
        <extensions><gpxtpx:TrackPointExtension><gpxtpx:hr>134</gpxtpx:hr></gpxtpx:TrackPointExtension></extensions>
      </trkpt>
      <trkpt lat="60.005646674699" lon="15.769348501413">
        <ele>122.4</ele>
        <time>2015-01-14T21:15:50Z</time>
        <extensions><gpxtpx:TrackPointExtension><gpxtpx:hr>135</gpxtpx:hr></gpxtpx:TrackPointExtension></extensions>
      </trkpt>
      <trkpt lat="60.005730242242" lon="15.769267364621">
        <ele>121.8</ele>
        <time>2015-01-14T21:15:52Z</time>
        <extensions><gpxtpx:TrackPointExtension><gpxtpx:hr>136</gpxtpx:hr></gpxtpx:TrackPointExtension></extensions>
      </trkpt>
      <trkpt lat="60.005753208648" lon="15.769218246687">
        <ele>121.4</ele>
        <time>2015-01-14T21:15:53Z</time>
        <extensions><gpxtpx:TrackPointExtension><gpxtpx:hr>135</gpxtpx:hr></gpxtpx:TrackPointExtension></extensions>
      </trkpt>
      <trkpt lat="60.005773744303" lon="15.769176169549">
        <ele>121</ele>
        <time>2015-01-14T21:15:54Z</time>
        <extensions><gpxtpx:TrackPointExtension><gpxtpx:hr>135</gpxtpx:hr></gpxtpx:TrackPointExtension></extensions>
      </trkpt>
      <trkpt lat="60.005794363777" lon="15.769125542873">
        <ele>120.2</ele>
        <time>2015-01-14T21:15:56Z</time>
        <extensions><gpxtpx:TrackPointExtension><gpxtpx:hr>135</gpxtpx:hr></gpxtpx:TrackPointExtension></extensions>
      </trkpt>
      <trkpt lat="60.005809786473" lon="15.769105091037">
        <ele>120.4</ele>
        <time>2015-01-14T21:16:01Z</time>
        <extensions><gpxtpx:TrackPointExtension><gpxtpx:hr>136</gpxtpx:hr></gpxtpx:TrackPointExtension></extensions>
      </trkpt>
      <trkpt lat="60.005814731794" lon="15.769099056069">
        <ele>120.4</ele>
        <time>2015-01-14T21:16:05Z</time>
        <extensions><gpxtpx:TrackPointExtension><gpxtpx:hr>135</gpxtpx:hr></gpxtpx:TrackPointExtension></extensions>
      </trkpt>
      <trkpt lat="60.005808445369" lon="15.769087153771">
        <ele>120.4</ele>
        <time>2015-01-14T21:16:06Z</time>
        <extensions><gpxtpx:TrackPointExtension><gpxtpx:hr>136</gpxtpx:hr></gpxtpx:TrackPointExtension></extensions>
      </trkpt>
      <trkpt lat="60.005817078726" lon="15.769082124631">
        <ele>120.4</ele>
        <time>2015-01-14T21:16:08Z</time>
        <extensions><gpxtpx:TrackPointExtension><gpxtpx:hr>136</gpxtpx:hr></gpxtpx:TrackPointExtension></extensions>
      </trkpt>
      <trkpt lat="60.005821604952" lon="15.76907298836">
        <ele>120.4</ele>
        <time>2015-01-14T21:16:10Z</time>
        <extensions><gpxtpx:TrackPointExtension><gpxtpx:hr>136</gpxtpx:hr></gpxtpx:TrackPointExtension></extensions>
      </trkpt>
      <trkpt lat="60.005817414002" lon="15.769071228161">
        <ele>120.4</ele>
        <time>2015-01-14T21:16:11Z</time>
        <extensions><gpxtpx:TrackPointExtension><gpxtpx:hr>136</gpxtpx:hr></gpxtpx:TrackPointExtension></extensions>
      </trkpt>
      <trkpt lat="60.005827556101" lon="15.769056895112">
        <ele>120.8</ele>
        <time>2015-01-14T21:16:15Z</time>
        <extensions><gpxtpx:TrackPointExtension><gpxtpx:hr>135</gpxtpx:hr></gpxtpx:TrackPointExtension></extensions>
      </trkpt>
      <trkpt lat="60.005812301043" lon="15.769047926479">
        <ele>120.6</ele>
        <time>2015-01-14T21:16:18Z</time>
        <extensions><gpxtpx:TrackPointExtension><gpxtpx:hr>135</gpxtpx:hr></gpxtpx:TrackPointExtension></extensions>
      </trkpt>
      <trkpt lat="60.005823532789" lon="15.76905706275">
        <ele>120.4</ele>
        <time>2015-01-14T21:16:19Z</time>
        <extensions><gpxtpx:TrackPointExtension><gpxtpx:hr>135</gpxtpx:hr></gpxtpx:TrackPointExtension></extensions>
      </trkpt>
      <trkpt lat="60.005831411775" lon="15.769051865972">
        <ele>120.6</ele>
        <time>2015-01-14T21:16:23Z</time>
        <extensions><gpxtpx:TrackPointExtension><gpxtpx:hr>135</gpxtpx:hr></gpxtpx:TrackPointExtension></extensions>
      </trkpt>
      <trkpt lat="60.005827137006" lon="15.769051614515">
        <ele>120.6</ele>
        <time>2015-01-14T21:16:27Z</time>
        <extensions><gpxtpx:TrackPointExtension><gpxtpx:hr>135</gpxtpx:hr></gpxtpx:TrackPointExtension></extensions>
      </trkpt>
      <trkpt lat="60.005833842526" lon="15.769052117429">
        <ele>120.6</ele>
        <time>2015-01-14T21:16:31Z</time>
        <extensions><gpxtpx:TrackPointExtension><gpxtpx:hr>135</gpxtpx:hr></gpxtpx:TrackPointExtension></extensions>
      </trkpt>
      <trkpt lat="60.005832417603" lon="15.769040550407">
        <ele>120.4</ele>
        <time>2015-01-14T21:16:35Z</time>
        <extensions><gpxtpx:TrackPointExtension><gpxtpx:hr>136</gpxtpx:hr></gpxtpx:TrackPointExtension></extensions>
      </trkpt>
      <trkpt lat="60.0058376982" lon="15.7690444899">
        <ele>120.2</ele>
        <time>2015-01-14T21:16:36Z</time>
        <extensions><gpxtpx:TrackPointExtension><gpxtpx:hr>136</gpxtpx:hr></gpxtpx:TrackPointExtension></extensions>
      </trkpt>
      <trkpt lat="60.005837279105" lon="15.769043986986">
        <ele>120.4</ele>
        <time>2015-01-14T21:16:38Z</time>
        <extensions><gpxtpx:TrackPointExtension><gpxtpx:hr>136</gpxtpx:hr></gpxtpx:TrackPointExtension></extensions>
      </trkpt>
      <trkpt lat="60.005846583014" lon="15.76903778438">
        <ele>120.2</ele>
        <time>2015-01-14T21:16:43Z</time>
        <extensions><gpxtpx:TrackPointExtension><gpxtpx:hr>137</gpxtpx:hr></gpxtpx:TrackPointExtension></extensions>
      </trkpt>
      <trkpt lat="60.005851276878" lon="15.769032168507">
        <ele>120</ele>
        <time>2015-01-14T21:16:50Z</time>
        <extensions><gpxtpx:TrackPointExtension><gpxtpx:hr>137</gpxtpx:hr></gpxtpx:TrackPointExtension></extensions>
      </trkpt>
      <trkpt lat="60.005853456172" lon="15.769010375567">
        <ele>120.4</ele>
        <time>2015-01-14T21:16:57Z</time>
        <extensions><gpxtpx:TrackPointExtension><gpxtpx:hr>137</gpxtpx:hr></gpxtpx:TrackPointExtension></extensions>
      </trkpt>
      <trkpt lat="60.005844738996" lon="15.768998557088">
        <ele>120.4</ele>
        <time>2015-01-14T21:17:01Z</time>
        <extensions><gpxtpx:TrackPointExtension><gpxtpx:hr>138</gpxtpx:hr></gpxtpx:TrackPointExtension></extensions>
      </trkpt>
      <trkpt lat="60.005842056788" lon="15.768982715297">
        <ele>120.4</ele>
        <time>2015-01-14T21:17:05Z</time>
        <extensions><gpxtpx:TrackPointExtension><gpxtpx:hr>138</gpxtpx:hr></gpxtpx:TrackPointExtension></extensions>
      </trkpt>
      <trkpt lat="60.005841637693" lon="15.768966957325">
        <ele>120.2</ele>
        <time>2015-01-14T21:17:09Z</time>
        <extensions><gpxtpx:TrackPointExtension><gpxtpx:hr>138</gpxtpx:hr></gpxtpx:TrackPointExtension></extensions>
      </trkpt>
      <trkpt lat="60.005839793675" lon="15.768949522973">
        <ele>120.2</ele>
        <time>2015-01-14T21:17:13Z</time>
        <extensions><gpxtpx:TrackPointExtension><gpxtpx:hr>138</gpxtpx:hr></gpxtpx:TrackPointExtension></extensions>
      </trkpt>
      <trkpt lat="60.005847337385" lon="15.768941224892">
        <ele>120.2</ele>
        <time>2015-01-14T21:17:20Z</time>
        <extensions><gpxtpx:TrackPointExtension><gpxtpx:hr>139</gpxtpx:hr></gpxtpx:TrackPointExtension></extensions>
      </trkpt>
      <trkpt lat="60.005841386236" lon="15.768937453037">
        <ele>120</ele>
        <time>2015-01-14T21:17:23Z</time>
        <extensions><gpxtpx:TrackPointExtension><gpxtpx:hr>140</gpxtpx:hr></gpxtpx:TrackPointExtension></extensions>
      </trkpt>
      <trkpt lat="60.005839793675" lon="15.768931418069">
        <ele>120.2</ele>
        <time>2015-01-14T21:17:25Z</time>
        <extensions><gpxtpx:TrackPointExtension><gpxtpx:hr>140</gpxtpx:hr></gpxtpx:TrackPointExtension></extensions>
      </trkpt>
      <trkpt lat="60.005822359323" lon="15.768893364243">
        <ele>120</ele>
        <time>2015-01-14T21:17:32Z</time>
        <extensions><gpxtpx:TrackPointExtension><gpxtpx:hr>138</gpxtpx:hr></gpxtpx:TrackPointExtension></extensions>
      </trkpt>
      <trkpt lat="60.005789334637" lon="15.768885904352">
        <ele>120.6</ele>
        <time>2015-01-14T21:17:39Z</time>
        <extensions><gpxtpx:TrackPointExtension><gpxtpx:hr>137</gpxtpx:hr></gpxtpx:TrackPointExtension></extensions>
      </trkpt>
      <trkpt lat="60.005792016845" lon="15.768919264314">
        <ele>119.8</ele>
        <time>2015-01-14T21:17:47Z</time>
        <extensions><gpxtpx:TrackPointExtension><gpxtpx:hr>136</gpxtpx:hr></gpxtpx:TrackPointExtension></extensions>
      </trkpt>
      <trkpt lat="60.00579662689" lon="15.768916665925">
        <ele>119.8</ele>
        <time>2015-01-14T21:17:52Z</time>
        <extensions><gpxtpx:TrackPointExtension><gpxtpx:hr>136</gpxtpx:hr></gpxtpx:TrackPointExtension></extensions>
      </trkpt>
      <trkpt lat="60.005803919143" lon="15.768931501888">
        <ele>120</ele>
        <time>2015-01-14T21:17:57Z</time>
        <extensions><gpxtpx:TrackPointExtension><gpxtpx:hr>137</gpxtpx:hr></gpxtpx:TrackPointExtension></extensions>
      </trkpt>
      <trkpt lat="60.005815150889" lon="15.768957401959">
        <ele>120.2</ele>
        <time>2015-01-14T21:18:04Z</time>
        <extensions><gpxtpx:TrackPointExtension><gpxtpx:hr>139</gpxtpx:hr></gpxtpx:TrackPointExtension></extensions>
      </trkpt>
      <trkpt lat="60.005817078726" lon="15.76896486185">
        <ele>120</ele>
        <time>2015-01-14T21:18:10Z</time>
        <extensions><gpxtpx:TrackPointExtension><gpxtpx:hr>140</gpxtpx:hr></gpxtpx:TrackPointExtension></extensions>
      </trkpt>
      <trkpt lat="60.005831076499" lon="15.768996796889">
        <ele>120</ele>
        <time>2015-01-14T21:18:16Z</time>
        <extensions><gpxtpx:TrackPointExtension><gpxtpx:hr>139</gpxtpx:hr></gpxtpx:TrackPointExtension></extensions>
      </trkpt>
      <trkpt lat="60.005826214997" lon="15.76901682963">
        <ele>120</ele>
        <time>2015-01-14T21:18:24Z</time>
        <extensions><gpxtpx:TrackPointExtension><gpxtpx:hr>138</gpxtpx:hr></gpxtpx:TrackPointExtension></extensions>
      </trkpt>
      <trkpt lat="60.005833339612" lon="15.769046920651">
        <ele>120</ele>
        <time>2015-01-14T21:18:30Z</time>
        <extensions><gpxtpx:TrackPointExtension><gpxtpx:hr>136</gpxtpx:hr></gpxtpx:TrackPointExtension></extensions>
      </trkpt>
      <trkpt lat="60.005825460626" lon="15.769055805465">
        <ele>119.6</ele>
        <time>2015-01-14T21:18:35Z</time>
        <extensions><gpxtpx:TrackPointExtension><gpxtpx:hr>138</gpxtpx:hr></gpxtpx:TrackPointExtension></extensions>
      </trkpt>
      <trkpt lat="60.00582009621" lon="15.769061002243">
        <ele>119.8</ele>
        <time>2015-01-14T21:18:39Z</time>
        <extensions><gpxtpx:TrackPointExtension><gpxtpx:hr>139</gpxtpx:hr></gpxtpx:TrackPointExtension></extensions>
      </trkpt>
      <trkpt lat="60.005825879721" lon="15.769082292269">
        <ele>119.8</ele>
        <time>2015-01-14T21:18:42Z</time>
        <extensions><gpxtpx:TrackPointExtension><gpxtpx:hr>139</gpxtpx:hr></gpxtpx:TrackPointExtension></extensions>
      </trkpt>
      <trkpt lat="60.005831998508" lon="15.769079274785">
        <ele>119.8</ele>
        <time>2015-01-14T21:18:43Z</time>
        <extensions><gpxtpx:TrackPointExtension><gpxtpx:hr>138</gpxtpx:hr></gpxtpx:TrackPointExtension></extensions>
      </trkpt>
      <trkpt lat="60.0058293163" lon="15.769088830151">
        <ele>119.6</ele>
        <time>2015-01-14T21:18:49Z</time>
        <extensions><gpxtpx:TrackPointExtension><gpxtpx:hr>137</gpxtpx:hr></gpxtpx:TrackPointExtension></extensions>
      </trkpt>
      <trkpt lat="60.005824790074" lon="15.769131410203">
        <ele>120.2</ele>
        <time>2015-01-14T21:18:57Z</time>
        <extensions><gpxtpx:TrackPointExtension><gpxtpx:hr>137</gpxtpx:hr></gpxtpx:TrackPointExtension></extensions>
      </trkpt>
      <trkpt lat="60.005829986852" lon="15.769054883456">
        <ele>120.6</ele>
        <time>2015-01-14T21:19:04Z</time>
        <extensions><gpxtpx:TrackPointExtension><gpxtpx:hr>135</gpxtpx:hr></gpxtpx:TrackPointExtension></extensions>
      </trkpt>
      <trkpt lat="60.005819090382" lon="15.768981290374">
        <ele>120.6</ele>
        <time>2015-01-14T21:19:13Z</time>
        <extensions><gpxtpx:TrackPointExtension><gpxtpx:hr>133</gpxtpx:hr></gpxtpx:TrackPointExtension></extensions>
      </trkpt>
      <trkpt lat="60.005811462853" lon="15.76898497841">
        <ele>120.6</ele>
        <time>2015-01-14T21:19:17Z</time>
        <extensions><gpxtpx:TrackPointExtension><gpxtpx:hr>130</gpxtpx:hr></gpxtpx:TrackPointExtension></extensions>
      </trkpt>
      <trkpt lat="60.005810373206" lon="15.769014398879">
        <ele>120.8</ele>
        <time>2015-01-14T21:19:20Z</time>
        <extensions><gpxtpx:TrackPointExtension><gpxtpx:hr>131</gpxtpx:hr></gpxtpx:TrackPointExtension></extensions>
      </trkpt>
      <trkpt lat="60.005811295215" lon="15.769110036358">
        <ele>120.6</ele>
        <time>2015-01-14T21:19:28Z</time>
        <extensions><gpxtpx:TrackPointExtension><gpxtpx:hr>133</gpxtpx:hr></gpxtpx:TrackPointExtension></extensions>
      </trkpt>
      <trkpt lat="60.005796794528" lon="15.76913836718">
        <ele>120.6</ele>
        <time>2015-01-14T21:19:37Z</time>
        <extensions><gpxtpx:TrackPointExtension><gpxtpx:hr>132</gpxtpx:hr></gpxtpx:TrackPointExtension></extensions>
      </trkpt>
      <trkpt lat="60.005783467307" lon="15.76914842546">
        <ele>120.4</ele>
        <time>2015-01-14T21:19:42Z</time>
        <extensions><gpxtpx:TrackPointExtension><gpxtpx:hr>133</gpxtpx:hr></gpxtpx:TrackPointExtension></extensions>
      </trkpt>
      <trkpt lat="60.005784808411" lon="15.769161333586">
        <ele>120.2</ele>
        <time>2015-01-14T21:19:43Z</time>
        <extensions><gpxtpx:TrackPointExtension><gpxtpx:hr>134</gpxtpx:hr></gpxtpx:TrackPointExtension></extensions>
      </trkpt>
      <trkpt lat="60.005778521986" lon="15.769183880897">
        <ele>119.6</ele>
        <time>2015-01-14T21:19:47Z</time>
        <extensions><gpxtpx:TrackPointExtension><gpxtpx:hr>136</gpxtpx:hr></gpxtpx:TrackPointExtension></extensions>
      </trkpt>
      <trkpt lat="60.005765110946" lon="15.769231238632">
        <ele>119.6</ele>
        <time>2015-01-14T21:19:52Z</time>
        <extensions><gpxtpx:TrackPointExtension><gpxtpx:hr>139</gpxtpx:hr></gpxtpx:TrackPointExtension></extensions>
      </trkpt>
      <trkpt lat="60.005763015471" lon="15.769227466777">
        <ele>119.8</ele>
        <time>2015-01-14T21:19:53Z</time>
        <extensions><gpxtpx:TrackPointExtension><gpxtpx:hr>140</gpxtpx:hr></gpxtpx:TrackPointExtension></extensions>
      </trkpt>
      <trkpt lat="60.005755723218" lon="15.769246996604">
        <ele>120.2</ele>
        <time>2015-01-14T21:19:58Z</time>
        <extensions><gpxtpx:TrackPointExtension><gpxtpx:hr>143</gpxtpx:hr></gpxtpx:TrackPointExtension></extensions>
      </trkpt>
      <trkpt lat="60.00574968825" lon="15.769265017689">
        <ele>120.2</ele>
        <time>2015-01-14T21:20:01Z</time>
        <extensions><gpxtpx:TrackPointExtension><gpxtpx:hr>143</gpxtpx:hr></gpxtpx:TrackPointExtension></extensions>
      </trkpt>
      <trkpt lat="60.005765446222" lon="15.769256803427">
        <ele>120.6</ele>
        <time>2015-01-14T21:20:09Z</time>
        <extensions><gpxtpx:TrackPointExtension><gpxtpx:hr>140</gpxtpx:hr></gpxtpx:TrackPointExtension></extensions>
      </trkpt>
      <trkpt lat="60.005769553353" lon="15.76924146455">
        <ele>120.6</ele>
        <time>2015-01-14T21:20:10Z</time>
        <extensions><gpxtpx:TrackPointExtension><gpxtpx:hr>140</gpxtpx:hr></gpxtpx:TrackPointExtension></extensions>
      </trkpt>
      <trkpt lat="60.005786820067" lon="15.769092853463">
        <ele>120.6</ele>
        <time>2015-01-14T21:20:18Z</time>
        <extensions><gpxtpx:TrackPointExtension><gpxtpx:hr>138</gpxtpx:hr></gpxtpx:TrackPointExtension></extensions>
      </trkpt>
      <trkpt lat="60.005771229733" lon="15.769029067204">
        <ele>120.4</ele>
        <time>2015-01-14T21:20:24Z</time>
        <extensions><gpxtpx:TrackPointExtension><gpxtpx:hr>140</gpxtpx:hr></gpxtpx:TrackPointExtension></extensions>
      </trkpt>
      <trkpt lat="60.005771648828" lon="15.768990594283">
        <ele>119.4</ele>
        <time>2015-01-14T21:20:30Z</time>
        <extensions><gpxtpx:TrackPointExtension><gpxtpx:hr>142</gpxtpx:hr></gpxtpx:TrackPointExtension></extensions>
      </trkpt>
      <trkpt lat="60.005774331036" lon="15.768986906247">
        <ele>119.6</ele>
        <time>2015-01-14T21:20:34Z</time>
        <extensions><gpxtpx:TrackPointExtension><gpxtpx:hr>141</gpxtpx:hr></gpxtpx:TrackPointExtension></extensions>
      </trkpt>
      <trkpt lat="60.005778019072" lon="15.768953462466">
        <ele>120</ele>
        <time>2015-01-14T21:20:38Z</time>
        <extensions><gpxtpx:TrackPointExtension><gpxtpx:hr>138</gpxtpx:hr></gpxtpx:TrackPointExtension></extensions>
      </trkpt>
      <trkpt lat="60.005767038783" lon="15.768904931265">
        <ele>120.2</ele>
        <time>2015-01-14T21:20:41Z</time>
        <extensions><gpxtpx:TrackPointExtension><gpxtpx:hr>137</gpxtpx:hr></gpxtpx:TrackPointExtension></extensions>
      </trkpt>
      <trkpt lat="60.005730242242" lon="15.768813317098">
        <ele>120.2</ele>
        <time>2015-01-14T21:20:47Z</time>
        <extensions><gpxtpx:TrackPointExtension><gpxtpx:hr>134</gpxtpx:hr></gpxtpx:TrackPointExtension></extensions>
      </trkpt>
      <trkpt lat="60.005720519238" lon="15.768809712881">
        <ele>120.2</ele>
        <time>2015-01-14T21:20:49Z</time>
        <extensions><gpxtpx:TrackPointExtension><gpxtpx:hr>135</gpxtpx:hr></gpxtpx:TrackPointExtension></extensions>
      </trkpt>
      <trkpt lat="60.005715071003" lon="15.768793954909">
        <ele>119.8</ele>
        <time>2015-01-14T21:20:54Z</time>
        <extensions><gpxtpx:TrackPointExtension><gpxtpx:hr>137</gpxtpx:hr></gpxtpx:TrackPointExtension></extensions>
      </trkpt>
      <trkpt lat="60.005708449302" lon="15.768789931597">
        <ele>119.4</ele>
        <time>2015-01-14T21:20:58Z</time>
        <extensions><gpxtpx:TrackPointExtension><gpxtpx:hr>137</gpxtpx:hr></gpxtpx:TrackPointExtension></extensions>
      </trkpt>
      <trkpt lat="60.005703252524" lon="15.768784651">
        <ele>119.4</ele>
        <time>2015-01-14T21:21:02Z</time>
        <extensions><gpxtpx:TrackPointExtension><gpxtpx:hr>139</gpxtpx:hr></gpxtpx:TrackPointExtension></extensions>
      </trkpt>
      <trkpt lat="60.005700905592" lon="15.768781214421">
        <ele>119.4</ele>
        <time>2015-01-14T21:21:11Z</time>
        <extensions><gpxtpx:TrackPointExtension><gpxtpx:hr>140</gpxtpx:hr></gpxtpx:TrackPointExtension></extensions>
      </trkpt>
      <trkpt lat="60.005697469013" lon="15.768740729844">
        <ele>119.4</ele>
        <time>2015-01-14T21:21:17Z</time>
        <extensions><gpxtpx:TrackPointExtension><gpxtpx:hr>139</gpxtpx:hr></gpxtpx:TrackPointExtension></extensions>
      </trkpt>
      <trkpt lat="60.005697385194" lon="15.768736203618">
        <ele>119.2</ele>
        <time>2015-01-14T21:21:20Z</time>
        <extensions><gpxtpx:TrackPointExtension><gpxtpx:hr>137</gpxtpx:hr></gpxtpx:TrackPointExtension></extensions>
      </trkpt>
      <trkpt lat="60.00567760391" lon="15.768719020723">
        <ele>119</ele>
        <time>2015-01-14T21:21:23Z</time>
        <extensions><gpxtpx:TrackPointExtension><gpxtpx:hr>136</gpxtpx:hr></gpxtpx:TrackPointExtension></extensions>
      </trkpt>
      <trkpt lat="60.005669976381" lon="15.768714662135">
        <ele>119</ele>
        <time>2015-01-14T21:21:25Z</time>
        <extensions><gpxtpx:TrackPointExtension><gpxtpx:hr>135</gpxtpx:hr></gpxtpx:TrackPointExtension></extensions>
      </trkpt>
      <trkpt lat="60.005668132363" lon="15.768721200017">
        <ele>119.6</ele>
        <time>2015-01-14T21:21:30Z</time>
        <extensions><gpxtpx:TrackPointExtension><gpxtpx:hr>134</gpxtpx:hr></gpxtpx:TrackPointExtension></extensions>
      </trkpt>
      <trkpt lat="60.005680286118" lon="15.768727570261">
        <ele>119.6</ele>
        <time>2015-01-14T21:21:31Z</time>
        <extensions><gpxtpx:TrackPointExtension><gpxtpx:hr>134</gpxtpx:hr></gpxtpx:TrackPointExtension></extensions>
      </trkpt>
      <trkpt lat="60.00570191142" lon="15.76874106512">
        <ele>119.6</ele>
        <time>2015-01-14T21:21:34Z</time>
        <extensions><gpxtpx:TrackPointExtension><gpxtpx:hr>134</gpxtpx:hr></gpxtpx:TrackPointExtension></extensions>
      </trkpt>
      <trkpt lat="60.005699815945" lon="15.768734611057">
        <ele>119.8</ele>
        <time>2015-01-14T21:21:40Z</time>
        <extensions><gpxtpx:TrackPointExtension><gpxtpx:hr>134</gpxtpx:hr></gpxtpx:TrackPointExtension></extensions>
      </trkpt>
      <trkpt lat="60.005758992159" lon="15.768830416174">
        <ele>120.2</ele>
        <time>2015-01-14T21:21:47Z</time>
        <extensions><gpxtpx:TrackPointExtension><gpxtpx:hr>134</gpxtpx:hr></gpxtpx:TrackPointExtension></extensions>
      </trkpt>
      <trkpt lat="60.005796543071" lon="15.768981038917">
        <ele>119.8</ele>
        <time>2015-01-14T21:21:54Z</time>
        <extensions><gpxtpx:TrackPointExtension><gpxtpx:hr>134</gpxtpx:hr></gpxtpx:TrackPointExtension></extensions>
      </trkpt>
      <trkpt lat="60.005800482564" lon="15.76901850601">
        <ele>119.8</ele>
        <time>2015-01-14T21:22:00Z</time>
        <extensions><gpxtpx:TrackPointExtension><gpxtpx:hr>133</gpxtpx:hr></gpxtpx:TrackPointExtension></extensions>
      </trkpt>
      <trkpt lat="60.00580081784" lon="15.769031330317">
        <ele>120.2</ele>
        <time>2015-01-14T21:22:03Z</time>
        <extensions><gpxtpx:TrackPointExtension><gpxtpx:hr>133</gpxtpx:hr></gpxtpx:TrackPointExtension></extensions>
      </trkpt>
      <trkpt lat="60.005799560555" lon="15.769039963674">
        <ele>120.4</ele>
        <time>2015-01-14T21:22:08Z</time>
        <extensions><gpxtpx:TrackPointExtension><gpxtpx:hr>131</gpxtpx:hr></gpxtpx:TrackPointExtension></extensions>
      </trkpt>
      <trkpt lat="60.005797716537" lon="15.769069300324">
        <ele>120</ele>
        <time>2015-01-14T21:22:13Z</time>
        <extensions><gpxtpx:TrackPointExtension><gpxtpx:hr>132</gpxtpx:hr></gpxtpx:TrackPointExtension></extensions>
      </trkpt>
      <trkpt lat="60.005810792301" lon="15.769058403854">
        <ele>119.4</ele>
        <time>2015-01-14T21:22:19Z</time>
        <extensions><gpxtpx:TrackPointExtension><gpxtpx:hr>133</gpxtpx:hr></gpxtpx:TrackPointExtension></extensions>
      </trkpt>
      <trkpt lat="60.005821102038" lon="15.769048261755">
        <ele>119.2</ele>
        <time>2015-01-14T21:22:20Z</time>
        <extensions><gpxtpx:TrackPointExtension><gpxtpx:hr>133</gpxtpx:hr></gpxtpx:TrackPointExtension></extensions>
      </trkpt>
      <trkpt lat="60.005827220825" lon="15.769046250099">
        <ele>119.6</ele>
        <time>2015-01-14T21:22:24Z</time>
        <extensions><gpxtpx:TrackPointExtension><gpxtpx:hr>133</gpxtpx:hr></gpxtpx:TrackPointExtension></extensions>
      </trkpt>
      <trkpt lat="60.005831747051" lon="15.769037616742">
        <ele>119.6</ele>
        <time>2015-01-14T21:22:33Z</time>
        <extensions><gpxtpx:TrackPointExtension><gpxtpx:hr>132</gpxtpx:hr></gpxtpx:TrackPointExtension></extensions>
      </trkpt>
      <trkpt lat="60.00583266906" lon="15.769055805465">
        <ele>119.8</ele>
        <time>2015-01-14T21:22:40Z</time>
        <extensions><gpxtpx:TrackPointExtension><gpxtpx:hr>133</gpxtpx:hr></gpxtpx:TrackPointExtension></extensions>
      </trkpt>
      <trkpt lat="60.00583183087" lon="15.769054715818">
        <ele>120.2</ele>
        <time>2015-01-14T21:22:43Z</time>
        <extensions><gpxtpx:TrackPointExtension><gpxtpx:hr>133</gpxtpx:hr></gpxtpx:TrackPointExtension></extensions>
      </trkpt>
      <trkpt lat="60.005829735395" lon="15.769085896486">
        <ele>120</ele>
        <time>2015-01-14T21:22:47Z</time>
        <extensions><gpxtpx:TrackPointExtension><gpxtpx:hr>135</gpxtpx:hr></gpxtpx:TrackPointExtension></extensions>
      </trkpt>
      <trkpt lat="60.005827891377" lon="15.769115484593">
        <ele>120</ele>
        <time>2015-01-14T21:22:48Z</time>
        <extensions><gpxtpx:TrackPointExtension><gpxtpx:hr>135</gpxtpx:hr></gpxtpx:TrackPointExtension></extensions>
      </trkpt>
      <trkpt lat="60.005817749278" lon="15.769246326052">
        <ele>119.8</ele>
        <time>2015-01-14T21:22:53Z</time>
        <extensions><gpxtpx:TrackPointExtension><gpxtpx:hr>136</gpxtpx:hr></gpxtpx:TrackPointExtension></extensions>
      </trkpt>
      <trkpt lat="60.005844152263" lon="15.769278847824">
        <ele>119.8</ele>
        <time>2015-01-14T21:22:55Z</time>
        <extensions><gpxtpx:TrackPointExtension><gpxtpx:hr>136</gpxtpx:hr></gpxtpx:TrackPointExtension></extensions>
      </trkpt>
      <trkpt lat="60.005877260768" lon="15.769343472273">
        <ele>120</ele>
        <time>2015-01-14T21:22:58Z</time>
        <extensions><gpxtpx:TrackPointExtension><gpxtpx:hr>137</gpxtpx:hr></gpxtpx:TrackPointExtension></extensions>
      </trkpt>
      <trkpt lat="60.005907770884" lon="15.7694887306">
        <ele>120.4</ele>
        <time>2015-01-14T21:23:03Z</time>
        <extensions><gpxtpx:TrackPointExtension><gpxtpx:hr>138</gpxtpx:hr></gpxtpx:TrackPointExtension></extensions>
      </trkpt>
      <trkpt lat="60.005912213291" lon="15.769620410249">
        <ele>120.4</ele>
        <time>2015-01-14T21:23:07Z</time>
        <extensions><gpxtpx:TrackPointExtension><gpxtpx:hr>138</gpxtpx:hr></gpxtpx:TrackPointExtension></extensions>
      </trkpt>
      <trkpt lat="60.00590642978" lon="15.769728620578">
        <ele>120.4</ele>
        <time>2015-01-14T21:23:10Z</time>
        <extensions><gpxtpx:TrackPointExtension><gpxtpx:hr>139</gpxtpx:hr></gpxtpx:TrackPointExtension></extensions>
      </trkpt>
      <trkpt lat="60.005868375954" lon="15.769884440099">
        <ele>120.4</ele>
        <time>2015-01-14T21:23:15Z</time>
        <extensions><gpxtpx:TrackPointExtension><gpxtpx:hr>141</gpxtpx:hr></gpxtpx:TrackPointExtension></extensions>
      </trkpt>
      <trkpt lat="60.005831579413" lon="15.769949902738">
        <ele>121.2</ele>
        <time>2015-01-14T21:23:19Z</time>
        <extensions><gpxtpx:TrackPointExtension><gpxtpx:hr>143</gpxtpx:hr></gpxtpx:TrackPointExtension></extensions>
      </trkpt>
      <trkpt lat="60.005828729567" lon="15.769945795607">
        <ele>121.6</ele>
        <time>2015-01-14T21:23:21Z</time>
        <extensions><gpxtpx:TrackPointExtension><gpxtpx:hr>143</gpxtpx:hr></gpxtpx:TrackPointExtension></extensions>
      </trkpt>
      <trkpt lat="60.005814061242" lon="15.769948561634">
        <ele>121.4</ele>
        <time>2015-01-14T21:23:27Z</time>
        <extensions><gpxtpx:TrackPointExtension><gpxtpx:hr>140</gpxtpx:hr></gpxtpx:TrackPointExtension></extensions>
      </trkpt>
      <trkpt lat="60.005813223052" lon="15.769946130883">
        <ele>121.4</ele>
        <time>2015-01-14T21:23:28Z</time>
        <extensions><gpxtpx:TrackPointExtension><gpxtpx:hr>140</gpxtpx:hr></gpxtpx:TrackPointExtension></extensions>
      </trkpt>
      <trkpt lat="60.00579997965" lon="15.769955853887">
        <ele>121.8</ele>
        <time>2015-01-14T21:23:32Z</time>
        <extensions><gpxtpx:TrackPointExtension><gpxtpx:hr>141</gpxtpx:hr></gpxtpx:TrackPointExtension></extensions>
      </trkpt>
      <trkpt lat="60.005769720991" lon="15.769981753958">
        <ele>122.4</ele>
        <time>2015-01-14T21:23:35Z</time>
        <extensions><gpxtpx:TrackPointExtension><gpxtpx:hr>143</gpxtpx:hr></gpxtpx:TrackPointExtension></extensions>
      </trkpt>
      <trkpt lat="60.005756561408" lon="15.769989297668">
        <ele>122.6</ele>
        <time>2015-01-14T21:23:37Z</time>
        <extensions><gpxtpx:TrackPointExtension><gpxtpx:hr>144</gpxtpx:hr></gpxtpx:TrackPointExtension></extensions>
      </trkpt>
      <trkpt lat="60.00575304101" lon="15.770012096436">
        <ele>122.6</ele>
        <time>2015-01-14T21:23:44Z</time>
        <extensions><gpxtpx:TrackPointExtension><gpxtpx:hr>145</gpxtpx:hr></gpxtpx:TrackPointExtension></extensions>
      </trkpt>
      <trkpt lat="60.0057371154" lon="15.770010671513">
        <ele>122.4</ele>
        <time>2015-01-14T21:23:49Z</time>
        <extensions><gpxtpx:TrackPointExtension><gpxtpx:hr>145</gpxtpx:hr></gpxtpx:TrackPointExtension></extensions>
      </trkpt>
      <trkpt lat="60.005712137338" lon="15.770002708708">
        <ele>123</ele>
        <time>2015-01-14T21:24:06Z</time>
        <extensions><gpxtpx:TrackPointExtension><gpxtpx:hr>144</gpxtpx:hr></gpxtpx:TrackPointExtension></extensions>
      </trkpt>
      <trkpt lat="60.005705767094" lon="15.769994075351">
        <ele>122.4</ele>
        <time>2015-01-14T21:24:16Z</time>
        <extensions><gpxtpx:TrackPointExtension><gpxtpx:hr>140</gpxtpx:hr></gpxtpx:TrackPointExtension></extensions>
      </trkpt>
      <trkpt lat="60.005704258352" lon="15.769995416455">
        <ele>122</ele>
        <time>2015-01-14T21:24:18Z</time>
        <extensions><gpxtpx:TrackPointExtension><gpxtpx:hr>135</gpxtpx:hr></gpxtpx:TrackPointExtension></extensions>
      </trkpt>
      <trkpt lat="60.005704090714" lon="15.769996925197">
        <ele>122.2</ele>
        <time>2015-01-14T21:24:19Z</time>
        <extensions><gpxtpx:TrackPointExtension><gpxtpx:hr>132</gpxtpx:hr></gpxtpx:TrackPointExtension></extensions>
      </trkpt>
      <trkpt lat="60.005703755438" lon="15.769993991532">
        <ele>121.8</ele>
        <time>2015-01-14T21:24:21Z</time>
        <extensions><gpxtpx:TrackPointExtension><gpxtpx:hr>129</gpxtpx:hr></gpxtpx:TrackPointExtension></extensions>
      </trkpt>
      <trkpt lat="60.005699564488" lon="15.769977982103">
        <ele>122.4</ele>
        <time>2015-01-14T21:24:27Z</time>
        <extensions><gpxtpx:TrackPointExtension><gpxtpx:hr>130</gpxtpx:hr></gpxtpx:TrackPointExtension></extensions>
      </trkpt>
      <trkpt lat="60.005673832055" lon="15.769976389542">
        <ele>122.4</ele>
        <time>2015-01-14T21:24:31Z</time>
        <extensions><gpxtpx:TrackPointExtension><gpxtpx:hr>133</gpxtpx:hr></gpxtpx:TrackPointExtension></extensions>
      </trkpt>
      <trkpt lat="60.005643405758" lon="15.769974629343">
        <ele>122.8</ele>
        <time>2015-01-14T21:24:34Z</time>
        <extensions><gpxtpx:TrackPointExtension><gpxtpx:hr>132</gpxtpx:hr></gpxtpx:TrackPointExtension></extensions>
      </trkpt>
      <trkpt lat="60.005626139044" lon="15.769975216076">
        <ele>122.6</ele>
        <time>2015-01-14T21:24:40Z</time>
        <extensions><gpxtpx:TrackPointExtension><gpxtpx:hr>130</gpxtpx:hr></gpxtpx:TrackPointExtension></extensions>
      </trkpt>
      <trkpt lat="60.005610967805" lon="15.769989465306">
        <ele>122.4</ele>
        <time>2015-01-14T21:24:51Z</time>
        <extensions><gpxtpx:TrackPointExtension><gpxtpx:hr>133</gpxtpx:hr></gpxtpx:TrackPointExtension></extensions>
      </trkpt>
      <trkpt lat="60.005604932837" lon="15.769999775043">
        <ele>122.2</ele>
        <time>2015-01-14T21:24:59Z</time>
        <extensions><gpxtpx:TrackPointExtension><gpxtpx:hr>135</gpxtpx:hr></gpxtpx:TrackPointExtension></extensions>
      </trkpt>
      <trkpt lat="60.00560216681" lon="15.769998769215">
        <ele>122.2</ele>
        <time>2015-01-14T21:25:03Z</time>
        <extensions><gpxtpx:TrackPointExtension><gpxtpx:hr>138</gpxtpx:hr></gpxtpx:TrackPointExtension></extensions>
      </trkpt>
      <trkpt lat="60.005601831534" lon="15.76999918831">
        <ele>122.2</ele>
        <time>2015-01-14T21:25:07Z</time>
        <extensions><gpxtpx:TrackPointExtension><gpxtpx:hr>138</gpxtpx:hr></gpxtpx:TrackPointExtension></extensions>
      </trkpt>
      <trkpt lat="60.005593281996" lon="15.769966834176">
        <ele>122.6</ele>
        <time>2015-01-14T21:25:14Z</time>
        <extensions><gpxtpx:TrackPointExtension><gpxtpx:hr>139</gpxtpx:hr></gpxtpx:TrackPointExtension></extensions>
      </trkpt>
      <trkpt lat="60.005585235372" lon="15.769967588547">
        <ele>122.6</ele>
        <time>2015-01-14T21:25:21Z</time>
        <extensions><gpxtpx:TrackPointExtension><gpxtpx:hr>137</gpxtpx:hr></gpxtpx:TrackPointExtension></extensions>
      </trkpt>
      <trkpt lat="60.005587833761" lon="15.769967588547">
        <ele>122.8</ele>
        <time>2015-01-14T21:25:26Z</time>
        <extensions><gpxtpx:TrackPointExtension><gpxtpx:hr>134</gpxtpx:hr></gpxtpx:TrackPointExtension></extensions>
      </trkpt>
      <trkpt lat="60.005590264512" lon="15.769967169452">
        <ele>123</ele>
        <time>2015-01-14T21:25:29Z</time>
        <extensions><gpxtpx:TrackPointExtension><gpxtpx:hr>132</gpxtpx:hr></gpxtpx:TrackPointExtension></extensions>
      </trkpt>
      <trkpt lat="60.00557953568" lon="15.769958284638">
        <ele>122.6</ele>
        <time>2015-01-14T21:25:35Z</time>
        <extensions><gpxtpx:TrackPointExtension><gpxtpx:hr>131</gpxtpx:hr></gpxtpx:TrackPointExtension></extensions>
      </trkpt>
      <trkpt lat="60.005564951174" lon="15.769961721217">
        <ele>122.4</ele>
        <time>2015-01-14T21:25:42Z</time>
        <extensions><gpxtpx:TrackPointExtension><gpxtpx:hr>131</gpxtpx:hr></gpxtpx:TrackPointExtension></extensions>
      </trkpt>
      <trkpt lat="60.005556233998" lon="15.769965325434">
        <ele>122</ele>
        <time>2015-01-14T21:25:48Z</time>
        <extensions><gpxtpx:TrackPointExtension><gpxtpx:hr>134</gpxtpx:hr></gpxtpx:TrackPointExtension></extensions>
      </trkpt>
      <trkpt lat="60.005557407464" lon="15.769976054266">
        <ele>122.4</ele>
        <time>2015-01-14T21:25:52Z</time>
        <extensions><gpxtpx:TrackPointExtension><gpxtpx:hr>134</gpxtpx:hr></gpxtpx:TrackPointExtension></extensions>
      </trkpt>
      <trkpt lat="60.00555774274" lon="15.769961050665">
        <ele>122.4</ele>
        <time>2015-01-14T21:25:57Z</time>
        <extensions><gpxtpx:TrackPointExtension><gpxtpx:hr>135</gpxtpx:hr></gpxtpx:TrackPointExtension></extensions>
      </trkpt>
      <trkpt lat="60.005561849871" lon="15.769963565235">
        <ele>122.6</ele>
        <time>2015-01-14T21:26:02Z</time>
        <extensions><gpxtpx:TrackPointExtension><gpxtpx:hr>135</gpxtpx:hr></gpxtpx:TrackPointExtension></extensions>
      </trkpt>
      <trkpt lat="60.005567130468" lon="15.769967420909">
        <ele>122.6</ele>
        <time>2015-01-14T21:26:07Z</time>
        <extensions><gpxtpx:TrackPointExtension><gpxtpx:hr>135</gpxtpx:hr></gpxtpx:TrackPointExtension></extensions>
      </trkpt>
      <trkpt lat="60.005563358613" lon="15.769957111172">
        <ele>122.8</ele>
        <time>2015-01-14T21:26:14Z</time>
        <extensions><gpxtpx:TrackPointExtension><gpxtpx:hr>134</gpxtpx:hr></gpxtpx:TrackPointExtension></extensions>
      </trkpt>
      <trkpt lat="60.005512312842" lon="15.769947891082">
        <ele>122.6</ele>
        <time>2015-01-14T21:26:20Z</time>
        <extensions><gpxtpx:TrackPointExtension><gpxtpx:hr>134</gpxtpx:hr></gpxtpx:TrackPointExtension></extensions>
      </trkpt>
      <trkpt lat="60.005492783015" lon="15.769936994612">
        <ele>122.8</ele>
        <time>2015-01-14T21:26:22Z</time>
        <extensions><gpxtpx:TrackPointExtension><gpxtpx:hr>135</gpxtpx:hr></gpxtpx:TrackPointExtension></extensions>
      </trkpt>
      <trkpt lat="60.005463614003" lon="15.769936659336">
        <ele>122.8</ele>
        <time>2015-01-14T21:26:26Z</time>
        <extensions><gpxtpx:TrackPointExtension><gpxtpx:hr>135</gpxtpx:hr></gpxtpx:TrackPointExtension></extensions>
      </trkpt>
      <trkpt lat="60.005435115543" lon="15.769928528893">
        <ele>123</ele>
        <time>2015-01-14T21:26:31Z</time>
        <extensions><gpxtpx:TrackPointExtension><gpxtpx:hr>135</gpxtpx:hr></gpxtpx:TrackPointExtension></extensions>
      </trkpt>
      <trkpt lat="60.005389015093" lon="15.769903215555">
        <ele>123</ele>
        <time>2015-01-14T21:26:35Z</time>
        <extensions><gpxtpx:TrackPointExtension><gpxtpx:hr>136</gpxtpx:hr></gpxtpx:TrackPointExtension></extensions>
      </trkpt>
      <trkpt lat="60.005362528289" lon="15.769903383193">
        <ele>123.2</ele>
        <time>2015-01-14T21:26:37Z</time>
        <extensions><gpxtpx:TrackPointExtension><gpxtpx:hr>137</gpxtpx:hr></gpxtpx:TrackPointExtension></extensions>
      </trkpt>
      <trkpt lat="60.005334532743" lon="15.769904556659">
        <ele>123.6</ele>
        <time>2015-01-14T21:26:41Z</time>
        <extensions><gpxtpx:TrackPointExtension><gpxtpx:hr>137</gpxtpx:hr></gpxtpx:TrackPointExtension></extensions>
      </trkpt>
      <trkpt lat="60.005326234662" lon="15.769911765093">
        <ele>123.6</ele>
        <time>2015-01-14T21:26:42Z</time>
        <extensions><gpxtpx:TrackPointExtension><gpxtpx:hr>137</gpxtpx:hr></gpxtpx:TrackPointExtension></extensions>
      </trkpt>
      <trkpt lat="60.005298825849" lon="15.76991369293">
        <ele>123.4</ele>
        <time>2015-01-14T21:26:49Z</time>
        <extensions><gpxtpx:TrackPointExtension><gpxtpx:hr>138</gpxtpx:hr></gpxtpx:TrackPointExtension></extensions>
      </trkpt>
      <trkpt lat="60.005263370412" lon="15.769920985183">
        <ele>123.8</ele>
        <time>2015-01-14T21:26:54Z</time>
        <extensions><gpxtpx:TrackPointExtension><gpxtpx:hr>139</gpxtpx:hr></gpxtpx:TrackPointExtension></extensions>
      </trkpt>
      <trkpt lat="60.005240320187" lon="15.769907322686">
        <ele>124.4</ele>
        <time>2015-01-14T21:27:00Z</time>
        <extensions><gpxtpx:TrackPointExtension><gpxtpx:hr>138</gpxtpx:hr></gpxtpx:TrackPointExtension></extensions>
      </trkpt>
      <trkpt lat="60.005234788133" lon="15.769895588026">
        <ele>124.2</ele>
        <time>2015-01-14T21:27:05Z</time>
        <extensions><gpxtpx:TrackPointExtension><gpxtpx:hr>138</gpxtpx:hr></gpxtpx:TrackPointExtension></extensions>
      </trkpt>
      <trkpt lat="60.005225568043" lon="15.769905813944">
        <ele>124.4</ele>
        <time>2015-01-14T21:27:11Z</time>
        <extensions><gpxtpx:TrackPointExtension><gpxtpx:hr>137</gpxtpx:hr></gpxtpx:TrackPointExtension></extensions>
      </trkpt>
      <trkpt lat="60.00521911398" lon="15.769902209727">
        <ele>124.6</ele>
        <time>2015-01-14T21:27:13Z</time>
        <extensions><gpxtpx:TrackPointExtension><gpxtpx:hr>137</gpxtpx:hr></gpxtpx:TrackPointExtension></extensions>
      </trkpt>
      <trkpt lat="60.005209390976" lon="15.769894582198">
        <ele>124.4</ele>
        <time>2015-01-14T21:27:18Z</time>
        <extensions><gpxtpx:TrackPointExtension><gpxtpx:hr>138</gpxtpx:hr></gpxtpx:TrackPointExtension></extensions>
      </trkpt>
      <trkpt lat="60.005201344352" lon="15.769888798687">
        <ele>124.4</ele>
        <time>2015-01-14T21:27:26Z</time>
        <extensions><gpxtpx:TrackPointExtension><gpxtpx:hr>139</gpxtpx:hr></gpxtpx:TrackPointExtension></extensions>
      </trkpt>
      <trkpt lat="60.005195225565" lon="15.769882260805">
        <ele>124.2</ele>
        <time>2015-01-14T21:27:30Z</time>
        <extensions><gpxtpx:TrackPointExtension><gpxtpx:hr>136</gpxtpx:hr></gpxtpx:TrackPointExtension></extensions>
      </trkpt>
      <trkpt lat="60.005188017131" lon="15.769888631049">
        <ele>124</ele>
        <time>2015-01-14T21:27:33Z</time>
        <extensions><gpxtpx:TrackPointExtension><gpxtpx:hr>137</gpxtpx:hr></gpxtpx:TrackPointExtension></extensions>
      </trkpt>
      <trkpt lat="60.005148035468" lon="15.769903550831">
        <ele>124.2</ele>
        <time>2015-01-14T21:27:38Z</time>
        <extensions><gpxtpx:TrackPointExtension><gpxtpx:hr>138</gpxtpx:hr></gpxtpx:TrackPointExtension></extensions>
      </trkpt>
      <trkpt lat="60.005111658022" lon="15.769903131736">
        <ele>124.4</ele>
        <time>2015-01-14T21:27:41Z</time>
        <extensions><gpxtpx:TrackPointExtension><gpxtpx:hr>138</gpxtpx:hr></gpxtpx:TrackPointExtension></extensions>
      </trkpt>
      <trkpt lat="60.005092714928" lon="15.76990279646">
        <ele>124.4</ele>
        <time>2015-01-14T21:27:43Z</time>
        <extensions><gpxtpx:TrackPointExtension><gpxtpx:hr>137</gpxtpx:hr></gpxtpx:TrackPointExtension></extensions>
      </trkpt>
      <trkpt lat="60.005067988323" lon="15.769887792859">
        <ele>124.6</ele>
        <time>2015-01-14T21:27:48Z</time>
        <extensions><gpxtpx:TrackPointExtension><gpxtpx:hr>137</gpxtpx:hr></gpxtpx:TrackPointExtension></extensions>
      </trkpt>
      <trkpt lat="60.005039825139" lon="15.769873962724">
        <ele>124.6</ele>
        <time>2015-01-14T21:27:54Z</time>
        <extensions><gpxtpx:TrackPointExtension><gpxtpx:hr>137</gpxtpx:hr></gpxtpx:TrackPointExtension></extensions>
      </trkpt>
      <trkpt lat="60.00501794838" lon="15.769887206126">
        <ele>124.6</ele>
        <time>2015-01-14T21:28:00Z</time>
        <extensions><gpxtpx:TrackPointExtension><gpxtpx:hr>138</gpxtpx:hr></gpxtpx:TrackPointExtension></extensions>
      </trkpt>
      <trkpt lat="60.005005878444" lon="15.769907574143">
        <ele>124.4</ele>
        <time>2015-01-14T21:28:05Z</time>
        <extensions><gpxtpx:TrackPointExtension><gpxtpx:hr>137</gpxtpx:hr></gpxtpx:TrackPointExtension></extensions>
      </trkpt>
      <trkpt lat="60.004989366101" lon="15.769914866396">
        <ele>124.6</ele>
        <time>2015-01-14T21:28:12Z</time>
        <extensions><gpxtpx:TrackPointExtension><gpxtpx:hr>138</gpxtpx:hr></gpxtpx:TrackPointExtension></extensions>
      </trkpt>
      <trkpt lat="60.004981319477" lon="15.769918219156">
        <ele>124.6</ele>
        <time>2015-01-14T21:28:16Z</time>
        <extensions><gpxtpx:TrackPointExtension><gpxtpx:hr>139</gpxtpx:hr></gpxtpx:TrackPointExtension></extensions>
      </trkpt>
      <trkpt lat="60.004980565106" lon="15.769921907192">
        <ele>124.6</ele>
        <time>2015-01-14T21:28:17Z</time>
        <extensions><gpxtpx:TrackPointExtension><gpxtpx:hr>139</gpxtpx:hr></gpxtpx:TrackPointExtension></extensions>
      </trkpt>
      <trkpt lat="60.004967573161" lon="15.769946633797">
        <ele>124.6</ele>
        <time>2015-01-14T21:28:23Z</time>
        <extensions><gpxtpx:TrackPointExtension><gpxtpx:hr>139</gpxtpx:hr></gpxtpx:TrackPointExtension></extensions>
      </trkpt>
      <trkpt lat="60.004942343642" lon="15.76996482252">
        <ele>124.8</ele>
        <time>2015-01-14T21:28:28Z</time>
        <extensions><gpxtpx:TrackPointExtension><gpxtpx:hr>138</gpxtpx:hr></gpxtpx:TrackPointExtension></extensions>
      </trkpt>
      <trkpt lat="60.004925663661" lon="15.769957530267">
        <ele>124.8</ele>
        <time>2015-01-14T21:28:35Z</time>
        <extensions><gpxtpx:TrackPointExtension><gpxtpx:hr>136</gpxtpx:hr></gpxtpx:TrackPointExtension></extensions>
      </trkpt>
      <trkpt lat="60.004920969797" lon="15.76993800044">
        <ele>124.2</ele>
        <time>2015-01-14T21:28:41Z</time>
        <extensions><gpxtpx:TrackPointExtension><gpxtpx:hr>138</gpxtpx:hr></gpxtpx:TrackPointExtension></extensions>
      </trkpt>
      <trkpt lat="60.004932369181" lon="15.769964906339">
        <ele>124.8</ele>
        <time>2015-01-14T21:28:47Z</time>
        <extensions><gpxtpx:TrackPointExtension><gpxtpx:hr>139</gpxtpx:hr></gpxtpx:TrackPointExtension></extensions>
      </trkpt>
      <trkpt lat="60.004969836274" lon="15.769953506955">
        <ele>124.8</ele>
        <time>2015-01-14T21:28:54Z</time>
        <extensions><gpxtpx:TrackPointExtension><gpxtpx:hr>136</gpxtpx:hr></gpxtpx:TrackPointExtension></extensions>
      </trkpt>
      <trkpt lat="60.004982073848" lon="15.769951327661">
        <ele>125</ele>
        <time>2015-01-14T21:28:56Z</time>
        <extensions><gpxtpx:TrackPointExtension><gpxtpx:hr>136</gpxtpx:hr></gpxtpx:TrackPointExtension></extensions>
      </trkpt>
      <trkpt lat="60.005012751602" lon="15.769948477815">
        <ele>125</ele>
        <time>2015-01-14T21:29:03Z</time>
        <extensions><gpxtpx:TrackPointExtension><gpxtpx:hr>133</gpxtpx:hr></gpxtpx:TrackPointExtension></extensions>
      </trkpt>
      <trkpt lat="60.005028090479" lon="15.769934480042">
        <ele>124.6</ele>
        <time>2015-01-14T21:29:08Z</time>
        <extensions><gpxtpx:TrackPointExtension><gpxtpx:hr>133</gpxtpx:hr></gpxtpx:TrackPointExtension></extensions>
      </trkpt>
      <trkpt lat="60.005045524831" lon="15.769926014323">
        <ele>124.6</ele>
        <time>2015-01-14T21:29:14Z</time>
        <extensions><gpxtpx:TrackPointExtension><gpxtpx:hr>133</gpxtpx:hr></gpxtpx:TrackPointExtension></extensions>
      </trkpt>
      <trkpt lat="60.005042591166" lon="15.769935402051">
        <ele>124.8</ele>
        <time>2015-01-14T21:29:20Z</time>
        <extensions><gpxtpx:TrackPointExtension><gpxtpx:hr>131</gpxtpx:hr></gpxtpx:TrackPointExtension></extensions>
      </trkpt>
      <trkpt lat="60.005041669157" lon="15.769955770068">
        <ele>124.2</ele>
        <time>2015-01-14T21:29:26Z</time>
        <extensions><gpxtpx:TrackPointExtension><gpxtpx:hr>130</gpxtpx:hr></gpxtpx:TrackPointExtension></extensions>
      </trkpt>
      <trkpt lat="60.005022642244" lon="15.769974126429">
        <ele>124</ele>
        <time>2015-01-14T21:29:30Z</time>
        <extensions><gpxtpx:TrackPointExtension><gpxtpx:hr>129</gpxtpx:hr></gpxtpx:TrackPointExtension></extensions>
      </trkpt>
      <trkpt lat="60.004998334734" lon="15.769966415081">
        <ele>124.8</ele>
        <time>2015-01-14T21:29:39Z</time>
        <extensions><gpxtpx:TrackPointExtension><gpxtpx:hr>130</gpxtpx:hr></gpxtpx:TrackPointExtension></extensions>
      </trkpt>
      <trkpt lat="60.004968076075" lon="15.769955183335">
        <ele>124.6</ele>
        <time>2015-01-14T21:29:46Z</time>
        <extensions><gpxtpx:TrackPointExtension><gpxtpx:hr>132</gpxtpx:hr></gpxtpx:TrackPointExtension></extensions>
      </trkpt>
      <trkpt lat="60.004930189887" lon="15.769964654882">
        <ele>124.6</ele>
        <time>2015-01-14T21:29:53Z</time>
        <extensions><gpxtpx:TrackPointExtension><gpxtpx:hr>132</gpxtpx:hr></gpxtpx:TrackPointExtension></extensions>
      </trkpt>
      <trkpt lat="60.004916778847" lon="15.769960212475">
        <ele>124.6</ele>
        <time>2015-01-14T21:29:59Z</time>
        <extensions><gpxtpx:TrackPointExtension><gpxtpx:hr>132</gpxtpx:hr></gpxtpx:TrackPointExtension></extensions>
      </trkpt>
      <trkpt lat="60.004890124405" lon="15.769945879426">
        <ele>124.8</ele>
        <time>2015-01-14T21:30:03Z</time>
        <extensions><gpxtpx:TrackPointExtension><gpxtpx:hr>132</gpxtpx:hr></gpxtpx:TrackPointExtension></extensions>
      </trkpt>
      <trkpt lat="60.004870259302" lon="15.769937078431">
        <ele>125.6</ele>
        <time>2015-01-14T21:30:08Z</time>
        <extensions><gpxtpx:TrackPointExtension><gpxtpx:hr>134</gpxtpx:hr></gpxtpx:TrackPointExtension></extensions>
      </trkpt>
      <trkpt lat="60.004866990361" lon="15.769937078431">
        <ele>125.6</ele>
        <time>2015-01-14T21:30:10Z</time>
        <extensions><gpxtpx:TrackPointExtension><gpxtpx:hr>134</gpxtpx:hr></gpxtpx:TrackPointExtension></extensions>
      </trkpt>
      <trkpt lat="60.004866822723" lon="15.769934731499">
        <ele>125.4</ele>
        <time>2015-01-14T21:30:15Z</time>
        <extensions><gpxtpx:TrackPointExtension><gpxtpx:hr>135</gpxtpx:hr></gpxtpx:TrackPointExtension></extensions>
      </trkpt>
      <trkpt lat="60.004857434995" lon="15.769947471987">
        <ele>125.2</ele>
        <time>2015-01-14T21:30:21Z</time>
        <extensions><gpxtpx:TrackPointExtension><gpxtpx:hr>134</gpxtpx:hr></gpxtpx:TrackPointExtension></extensions>
      </trkpt>
      <trkpt lat="60.004838072806" lon="15.769990387315">
        <ele>125.4</ele>
        <time>2015-01-14T21:30:27Z</time>
        <extensions><gpxtpx:TrackPointExtension><gpxtpx:hr>133</gpxtpx:hr></gpxtpx:TrackPointExtension></extensions>
      </trkpt>
      <trkpt lat="60.004820638454" lon="15.770010168599">
        <ele>126</ele>
        <time>2015-01-14T21:30:34Z</time>
        <extensions><gpxtpx:TrackPointExtension><gpxtpx:hr>132</gpxtpx:hr></gpxtpx:TrackPointExtension></extensions>
      </trkpt>
      <trkpt lat="60.004806221586" lon="15.770033889376">
        <ele>126.2</ele>
        <time>2015-01-14T21:30:40Z</time>
        <extensions><gpxtpx:TrackPointExtension><gpxtpx:hr>129</gpxtpx:hr></gpxtpx:TrackPointExtension></extensions>
      </trkpt>
      <trkpt lat="60.00480504812" lon="15.770035062842">
        <ele>126.2</ele>
        <time>2015-01-14T21:30:41Z</time>
        <extensions><gpxtpx:TrackPointExtension><gpxtpx:hr>129</gpxtpx:hr></gpxtpx:TrackPointExtension></extensions>
      </trkpt>
      <trkpt lat="60.004789038691" lon="15.770032883548">
        <ele>126.2</ele>
        <time>2015-01-14T21:30:44Z</time>
        <extensions><gpxtpx:TrackPointExtension><gpxtpx:hr>129</gpxtpx:hr></gpxtpx:TrackPointExtension></extensions>
      </trkpt>
      <trkpt lat="60.004784680103" lon="15.77004109781">
        <ele>126.2</ele>
        <time>2015-01-14T21:30:45Z</time>
        <extensions><gpxtpx:TrackPointExtension><gpxtpx:hr>129</gpxtpx:hr></gpxtpx:TrackPointExtension></extensions>
      </trkpt>
      <trkpt lat="60.004773280719" lon="15.770068255166">
        <ele>125.6</ele>
        <time>2015-01-14T21:30:51Z</time>
        <extensions><gpxtpx:TrackPointExtension><gpxtpx:hr>130</gpxtpx:hr></gpxtpx:TrackPointExtension></extensions>
      </trkpt>
      <trkpt lat="60.004766239923" lon="15.770093400866">
        <ele>126</ele>
        <time>2015-01-14T21:30:57Z</time>
        <extensions><gpxtpx:TrackPointExtension><gpxtpx:hr>132</gpxtpx:hr></gpxtpx:TrackPointExtension></extensions>
      </trkpt>
      <trkpt lat="60.004762132792" lon="15.770123743344">
        <ele>126</ele>
        <time>2015-01-14T21:31:02Z</time>
        <extensions><gpxtpx:TrackPointExtension><gpxtpx:hr>132</gpxtpx:hr></gpxtpx:TrackPointExtension></extensions>
      </trkpt>
      <trkpt lat="60.004757690385" lon="15.770129023941">
        <ele>126</ele>
        <time>2015-01-14T21:31:06Z</time>
        <extensions><gpxtpx:TrackPointExtension><gpxtpx:hr>131</gpxtpx:hr></gpxtpx:TrackPointExtension></extensions>
      </trkpt>
      <trkpt lat="60.004747548286" lon="15.770150397786">
        <ele>126.4</ele>
        <time>2015-01-14T21:31:12Z</time>
        <extensions><gpxtpx:TrackPointExtension><gpxtpx:hr>130</gpxtpx:hr></gpxtpx:TrackPointExtension></extensions>
      </trkpt>
      <trkpt lat="60.004748637933" lon="15.770136483832">
        <ele>126.2</ele>
        <time>2015-01-14T21:31:17Z</time>
        <extensions><gpxtpx:TrackPointExtension><gpxtpx:hr>130</gpxtpx:hr></gpxtpx:TrackPointExtension></extensions>
      </trkpt>
      <trkpt lat="60.004739250205" lon="15.770147715578">
        <ele>126</ele>
        <time>2015-01-14T21:31:24Z</time>
        <extensions><gpxtpx:TrackPointExtension><gpxtpx:hr>131</gpxtpx:hr></gpxtpx:TrackPointExtension></extensions>
      </trkpt>
      <trkpt lat="60.004734723979" lon="15.770149391958">
        <ele>126</ele>
        <time>2015-01-14T21:31:29Z</time>
        <extensions><gpxtpx:TrackPointExtension><gpxtpx:hr>133</gpxtpx:hr></gpxtpx:TrackPointExtension></extensions>
      </trkpt>
      <trkpt lat="60.004734221065" lon="15.770181829911">
        <ele>126</ele>
        <time>2015-01-14T21:31:35Z</time>
        <extensions><gpxtpx:TrackPointExtension><gpxtpx:hr>134</gpxtpx:hr></gpxtpx:TrackPointExtension></extensions>
      </trkpt>
      <trkpt lat="60.004716451437" lon="15.770198509892">
        <ele>126</ele>
        <time>2015-01-14T21:31:42Z</time>
        <extensions><gpxtpx:TrackPointExtension><gpxtpx:hr>134</gpxtpx:hr></gpxtpx:TrackPointExtension></extensions>
      </trkpt>
      <trkpt lat="60.004706896071" lon="15.770202700842">
        <ele>126</ele>
        <time>2015-01-14T21:31:45Z</time>
        <extensions><gpxtpx:TrackPointExtension><gpxtpx:hr>135</gpxtpx:hr></gpxtpx:TrackPointExtension></extensions>
      </trkpt>
      <trkpt lat="60.004705387329" lon="15.770194654218">
        <ele>126.2</ele>
        <time>2015-01-14T21:31:46Z</time>
        <extensions><gpxtpx:TrackPointExtension><gpxtpx:hr>136</gpxtpx:hr></gpxtpx:TrackPointExtension></extensions>
      </trkpt>
      <trkpt lat="60.004705890243" lon="15.770202700842">
        <ele>126.2</ele>
        <time>2015-01-14T21:31:52Z</time>
        <extensions><gpxtpx:TrackPointExtension><gpxtpx:hr>137</gpxtpx:hr></gpxtpx:TrackPointExtension></extensions>
      </trkpt>
      <trkpt lat="60.004699352361" lon="15.770227092171">
        <ele>125.8</ele>
        <time>2015-01-14T21:31:58Z</time>
        <extensions><gpxtpx:TrackPointExtension><gpxtpx:hr>137</gpxtpx:hr></gpxtpx:TrackPointExtension></extensions>
      </trkpt>
      <trkpt lat="60.004686528054" lon="15.770263888712">
        <ele>126.2</ele>
        <time>2015-01-14T21:32:05Z</time>
        <extensions><gpxtpx:TrackPointExtension><gpxtpx:hr>136</gpxtpx:hr></gpxtpx:TrackPointExtension></extensions>
      </trkpt>
      <trkpt lat="60.004689880814" lon="15.77027579101">
        <ele>126</ele>
        <time>2015-01-14T21:32:10Z</time>
        <extensions><gpxtpx:TrackPointExtension><gpxtpx:hr>136</gpxtpx:hr></gpxtpx:TrackPointExtension></extensions>
      </trkpt>
      <trkpt lat="60.004677727059" lon="15.770303283642">
        <ele>126.4</ele>
        <time>2015-01-14T21:32:15Z</time>
        <extensions><gpxtpx:TrackPointExtension><gpxtpx:hr>137</gpxtpx:hr></gpxtpx:TrackPointExtension></extensions>
      </trkpt>
      <trkpt lat="60.004675044851" lon="15.770292890086">
        <ele>126</ele>
        <time>2015-01-14T21:32:23Z</time>
        <extensions><gpxtpx:TrackPointExtension><gpxtpx:hr>137</gpxtpx:hr></gpxtpx:TrackPointExtension></extensions>
      </trkpt>
      <trkpt lat="60.004672781738" lon="15.770318873976">
        <ele>126</ele>
        <time>2015-01-14T21:32:28Z</time>
        <extensions><gpxtpx:TrackPointExtension><gpxtpx:hr>138</gpxtpx:hr></gpxtpx:TrackPointExtension></extensions>
      </trkpt>
      <trkpt lat="60.00468434876" lon="15.770289704964">
        <ele>125.8</ele>
        <time>2015-01-14T21:32:35Z</time>
        <extensions><gpxtpx:TrackPointExtension><gpxtpx:hr>138</gpxtpx:hr></gpxtpx:TrackPointExtension></extensions>
      </trkpt>
      <trkpt lat="60.004692563022" lon="15.770284927281">
        <ele>125.8</ele>
        <time>2015-01-14T21:32:41Z</time>
        <extensions><gpxtpx:TrackPointExtension><gpxtpx:hr>137</gpxtpx:hr></gpxtpx:TrackPointExtension></extensions>
      </trkpt>
      <trkpt lat="60.0046977598" lon="15.770288280041">
        <ele>126.2</ele>
        <time>2015-01-14T21:32:45Z</time>
        <extensions><gpxtpx:TrackPointExtension><gpxtpx:hr>134</gpxtpx:hr></gpxtpx:TrackPointExtension></extensions>
      </trkpt>
      <trkpt lat="60.004690886642" lon="15.770296242846">
        <ele>126.6</ele>
        <time>2015-01-14T21:32:47Z</time>
        <extensions><gpxtpx:TrackPointExtension><gpxtpx:hr>134</gpxtpx:hr></gpxtpx:TrackPointExtension></extensions>
      </trkpt>
      <trkpt lat="60.004674541937" lon="15.770327088238">
        <ele>126.4</ele>
        <time>2015-01-14T21:32:53Z</time>
        <extensions><gpxtpx:TrackPointExtension><gpxtpx:hr>134</gpxtpx:hr></gpxtpx:TrackPointExtension></extensions>
      </trkpt>
      <trkpt lat="60.004665824761" lon="15.770338990536">
        <ele>126.2</ele>
        <time>2015-01-14T21:32:58Z</time>
        <extensions><gpxtpx:TrackPointExtension><gpxtpx:hr>134</gpxtpx:hr></gpxtpx:TrackPointExtension></extensions>
      </trkpt>
      <trkpt lat="60.004664567476" lon="15.770333207025">
        <ele>125.4</ele>
        <time>2015-01-14T21:33:05Z</time>
        <extensions><gpxtpx:TrackPointExtension><gpxtpx:hr>134</gpxtpx:hr></gpxtpx:TrackPointExtension></extensions>
      </trkpt>
      <trkpt lat="60.004654928291" lon="15.770346785703">
        <ele>126.4</ele>
        <time>2015-01-14T21:33:10Z</time>
        <extensions><gpxtpx:TrackPointExtension><gpxtpx:hr>131</gpxtpx:hr></gpxtpx:TrackPointExtension></extensions>
      </trkpt>
      <trkpt lat="60.004655682662" lon="15.770344774047">
        <ele>126.4</ele>
        <time>2015-01-14T21:33:11Z</time>
        <extensions><gpxtpx:TrackPointExtension><gpxtpx:hr>129</gpxtpx:hr></gpxtpx:TrackPointExtension></extensions>
      </trkpt>
      <trkpt lat="60.004652078445" lon="15.77034871354">
        <ele>126.4</ele>
        <time>2015-01-14T21:33:13Z</time>
        <extensions><gpxtpx:TrackPointExtension><gpxtpx:hr>126</gpxtpx:hr></gpxtpx:TrackPointExtension></extensions>
      </trkpt>
      <trkpt lat="60.004653084273" lon="15.770346366608">
        <ele>126.4</ele>
        <time>2015-01-14T21:33:17Z</time>
        <extensions><gpxtpx:TrackPointExtension><gpxtpx:hr>126</gpxtpx:hr></gpxtpx:TrackPointExtension></extensions>
      </trkpt>
      <trkpt lat="60.004628022392" lon="15.770381654407">
        <ele>126.2</ele>
        <time>2015-01-14T21:33:24Z</time>
        <extensions><gpxtpx:TrackPointExtension><gpxtpx:hr>126</gpxtpx:hr></gpxtpx:TrackPointExtension></extensions>
      </trkpt>
      <trkpt lat="60.004623579985" lon="15.770388611384">
        <ele>126</ele>
        <time>2015-01-14T21:33:30Z</time>
        <extensions><gpxtpx:TrackPointExtension><gpxtpx:hr>126</gpxtpx:hr></gpxtpx:TrackPointExtension></extensions>
      </trkpt>
      <trkpt lat="60.004620730139" lon="15.770394562533">
        <ele>126</ele>
        <time>2015-01-14T21:33:34Z</time>
        <extensions><gpxtpx:TrackPointExtension><gpxtpx:hr>129</gpxtpx:hr></gpxtpx:TrackPointExtension></extensions>
      </trkpt>
      <trkpt lat="60.004625507822" lon="15.770407470659">
        <ele>126</ele>
        <time>2015-01-14T21:33:36Z</time>
        <extensions><gpxtpx:TrackPointExtension><gpxtpx:hr>130</gpxtpx:hr></gpxtpx:TrackPointExtension></extensions>
      </trkpt>
      <trkpt lat="60.004608995479" lon="15.77039649037">
        <ele>126.4</ele>
        <time>2015-01-14T21:33:42Z</time>
        <extensions><gpxtpx:TrackPointExtension><gpxtpx:hr>131</gpxtpx:hr></gpxtpx:TrackPointExtension></extensions>
      </trkpt>
      <trkpt lat="60.004600445941" lon="15.770416187835">
        <ele>126.6</ele>
        <time>2015-01-14T21:33:45Z</time>
        <extensions><gpxtpx:TrackPointExtension><gpxtpx:hr>131</gpxtpx:hr></gpxtpx:TrackPointExtension></extensions>
      </trkpt>
      <trkpt lat="60.004603966339" lon="15.770413086532">
        <ele>126.8</ele>
        <time>2015-01-14T21:33:48Z</time>
        <extensions><gpxtpx:TrackPointExtension><gpxtpx:hr>130</gpxtpx:hr></gpxtpx:TrackPointExtension></extensions>
      </trkpt>
      <trkpt lat="60.004599859208" lon="15.77042498883">
        <ele>126.6</ele>
        <time>2015-01-14T21:33:55Z</time>
        <extensions><gpxtpx:TrackPointExtension><gpxtpx:hr>128</gpxtpx:hr></gpxtpx:TrackPointExtension></extensions>
      </trkpt>
      <trkpt lat="60.004574042956" lon="15.770453068195">
        <ele>126.6</ele>
        <time>2015-01-14T21:34:02Z</time>
        <extensions><gpxtpx:TrackPointExtension><gpxtpx:hr>128</gpxtpx:hr></gpxtpx:TrackPointExtension></extensions>
      </trkpt>
      <trkpt lat="60.004550573636" lon="15.770479219723">
        <ele>126.2</ele>
        <time>2015-01-14T21:34:10Z</time>
        <extensions><gpxtpx:TrackPointExtension><gpxtpx:hr>128</gpxtpx:hr></gpxtpx:TrackPointExtension></extensions>
      </trkpt>
      <trkpt lat="60.004541605003" lon="15.770492211668">
        <ele>126.8</ele>
        <time>2015-01-14T21:34:17Z</time>
        <extensions><gpxtpx:TrackPointExtension><gpxtpx:hr>129</gpxtpx:hr></gpxtpx:TrackPointExtension></extensions>
      </trkpt>
      <trkpt lat="60.004549064894" lon="15.770484584139">
        <ele>126.4</ele>
        <time>2015-01-14T21:34:23Z</time>
        <extensions><gpxtpx:TrackPointExtension><gpxtpx:hr>129</gpxtpx:hr></gpxtpx:TrackPointExtension></extensions>
      </trkpt>
      <trkpt lat="60.004528529239" lon="15.77051886611">
        <ele>126.6</ele>
        <time>2015-01-14T21:34:28Z</time>
        <extensions><gpxtpx:TrackPointExtension><gpxtpx:hr>126</gpxtpx:hr></gpxtpx:TrackPointExtension></extensions>
      </trkpt>
      <trkpt lat="60.004538252243" lon="15.770505287432">
        <ele>126.4</ele>
        <time>2015-01-14T21:34:34Z</time>
        <extensions><gpxtpx:TrackPointExtension><gpxtpx:hr>126</gpxtpx:hr></gpxtpx:TrackPointExtension></extensions>
      </trkpt>
      <trkpt lat="60.004542443193" lon="15.770497408446">
        <ele>126.4</ele>
        <time>2015-01-14T21:34:40Z</time>
        <extensions><gpxtpx:TrackPointExtension><gpxtpx:hr>128</gpxtpx:hr></gpxtpx:TrackPointExtension></extensions>
      </trkpt>
      <trkpt lat="60.004535234759" lon="15.770500593568">
        <ele>126.2</ele>
        <time>2015-01-14T21:34:45Z</time>
        <extensions><gpxtpx:TrackPointExtension><gpxtpx:hr>130</gpxtpx:hr></gpxtpx:TrackPointExtension></extensions>
      </trkpt>
      <trkpt lat="60.0045301218" lon="15.7705280862">
        <ele>126.2</ele>
        <time>2015-01-14T21:34:51Z</time>
        <extensions><gpxtpx:TrackPointExtension><gpxtpx:hr>131</gpxtpx:hr></gpxtpx:TrackPointExtension></extensions>
      </trkpt>
      <trkpt lat="60.004529870343" lon="15.77053562991">
        <ele>126.2</ele>
        <time>2015-01-14T21:34:52Z</time>
        <extensions><gpxtpx:TrackPointExtension><gpxtpx:hr>132</gpxtpx:hr></gpxtpx:TrackPointExtension></extensions>
      </trkpt>
      <trkpt lat="60.004513525638" lon="15.770555914108">
        <ele>126.4</ele>
        <time>2015-01-14T21:34:59Z</time>
        <extensions><gpxtpx:TrackPointExtension><gpxtpx:hr>131</gpxtpx:hr></gpxtpx:TrackPointExtension></extensions>
      </trkpt>
      <trkpt lat="60.004499779322" lon="15.770549208588">
        <ele>126.2</ele>
        <time>2015-01-14T21:35:05Z</time>
        <extensions><gpxtpx:TrackPointExtension><gpxtpx:hr>128</gpxtpx:hr></gpxtpx:TrackPointExtension></extensions>
      </trkpt>
      <trkpt lat="60.004487960843" lon="15.770557841945">
        <ele>126.2</ele>
        <time>2015-01-14T21:35:06Z</time>
        <extensions><gpxtpx:TrackPointExtension><gpxtpx:hr>128</gpxtpx:hr></gpxtpx:TrackPointExtension></extensions>
      </trkpt>
      <trkpt lat="60.004477651106" lon="15.770535713729">
        <ele>126.2</ele>
        <time>2015-01-14T21:35:12Z</time>
        <extensions><gpxtpx:TrackPointExtension><gpxtpx:hr>130</gpxtpx:hr></gpxtpx:TrackPointExtension></extensions>
      </trkpt>
      <trkpt lat="60.004469520663" lon="15.7705197043">
        <ele>126.4</ele>
        <time>2015-01-14T21:35:19Z</time>
        <extensions><gpxtpx:TrackPointExtension><gpxtpx:hr>133</gpxtpx:hr></gpxtpx:TrackPointExtension></extensions>
      </trkpt>
      <trkpt lat="60.004464072428" lon="15.770516602997">
        <ele>126</ele>
        <time>2015-01-14T21:35:23Z</time>
        <extensions><gpxtpx:TrackPointExtension><gpxtpx:hr>134</gpxtpx:hr></gpxtpx:TrackPointExtension></extensions>
      </trkpt>
      <trkpt lat="60.004451583397" lon="15.770509143106">
        <ele>126.6</ele>
        <time>2015-01-14T21:35:31Z</time>
        <extensions><gpxtpx:TrackPointExtension><gpxtpx:hr>132</gpxtpx:hr></gpxtpx:TrackPointExtension></extensions>
      </trkpt>
      <trkpt lat="60.004446554257" lon="15.770499755378">
        <ele>126.2</ele>
        <time>2015-01-14T21:35:36Z</time>
        <extensions><gpxtpx:TrackPointExtension><gpxtpx:hr>131</gpxtpx:hr></gpxtpx:TrackPointExtension></extensions>
      </trkpt>
      <trkpt lat="60.004444039687" lon="15.770490786745">
        <ele>126.4</ele>
        <time>2015-01-14T21:35:44Z</time>
        <extensions><gpxtpx:TrackPointExtension><gpxtpx:hr>132</gpxtpx:hr></gpxtpx:TrackPointExtension></extensions>
      </trkpt>
      <trkpt lat="60.004421660014" lon="15.770491960211">
        <ele>126.4</ele>
        <time>2015-01-14T21:35:51Z</time>
        <extensions><gpxtpx:TrackPointExtension><gpxtpx:hr>131</gpxtpx:hr></gpxtpx:TrackPointExtension></extensions>
      </trkpt>
      <trkpt lat="60.004420570367" lon="15.770455331308">
        <ele>126</ele>
        <time>2015-01-14T21:35:56Z</time>
        <extensions><gpxtpx:TrackPointExtension><gpxtpx:hr>132</gpxtpx:hr></gpxtpx:TrackPointExtension></extensions>
      </trkpt>
      <trkpt lat="60.004415457408" lon="15.770457929697">
        <ele>126.2</ele>
        <time>2015-01-14T21:36:01Z</time>
        <extensions><gpxtpx:TrackPointExtension><gpxtpx:hr>132</gpxtpx:hr></gpxtpx:TrackPointExtension></extensions>
      </trkpt>
      <trkpt lat="60.004409925354" lon="15.770474693497">
        <ele>126.2</ele>
        <time>2015-01-14T21:36:07Z</time>
        <extensions><gpxtpx:TrackPointExtension><gpxtpx:hr>132</gpxtpx:hr></gpxtpx:TrackPointExtension></extensions>
      </trkpt>
      <trkpt lat="60.004404477119" lon="15.770459522258">
        <ele>126.8</ele>
        <time>2015-01-14T21:36:14Z</time>
        <extensions><gpxtpx:TrackPointExtension><gpxtpx:hr>130</gpxtpx:hr></gpxtpx:TrackPointExtension></extensions>
      </trkpt>
      <trkpt lat="60.004434651959" lon="15.770428090133">
        <ele>127.2</ele>
        <time>2015-01-14T21:36:26Z</time>
        <extensions><gpxtpx:TrackPointExtension><gpxtpx:hr>129</gpxtpx:hr></gpxtpx:TrackPointExtension></extensions>
      </trkpt>
      <trkpt lat="60.004420989462" lon="15.770442507001">
        <ele>126.8</ele>
        <time>2015-01-14T21:36:33Z</time>
        <extensions><gpxtpx:TrackPointExtension><gpxtpx:hr>129</gpxtpx:hr></gpxtpx:TrackPointExtension></extensions>
      </trkpt>
      <trkpt lat="60.004398274513" lon="15.77044761996">
        <ele>126.8</ele>
        <time>2015-01-14T21:36:39Z</time>
        <extensions><gpxtpx:TrackPointExtension><gpxtpx:hr>129</gpxtpx:hr></gpxtpx:TrackPointExtension></extensions>
      </trkpt>
      <trkpt lat="60.004385534025" lon="15.770446949408">
        <ele>126.6</ele>
        <time>2015-01-14T21:36:45Z</time>
        <extensions><gpxtpx:TrackPointExtension><gpxtpx:hr>129</gpxtpx:hr></gpxtpx:TrackPointExtension></extensions>
      </trkpt>
      <trkpt lat="60.004381594532" lon="15.770455331308">
        <ele>126.4</ele>
        <time>2015-01-14T21:36:50Z</time>
        <extensions><gpxtpx:TrackPointExtension><gpxtpx:hr>129</gpxtpx:hr></gpxtpx:TrackPointExtension></extensions>
      </trkpt>
      <trkpt lat="60.004381259256" lon="15.770457175326">
        <ele>126</ele>
        <time>2015-01-14T21:36:55Z</time>
        <extensions><gpxtpx:TrackPointExtension><gpxtpx:hr>128</gpxtpx:hr></gpxtpx:TrackPointExtension></extensions>
      </trkpt>
      <trkpt lat="60.004364411637" lon="15.770437226404">
        <ele>126.6</ele>
        <time>2015-01-14T21:37:01Z</time>
        <extensions><gpxtpx:TrackPointExtension><gpxtpx:hr>128</gpxtpx:hr></gpxtpx:TrackPointExtension></extensions>
      </trkpt>
      <trkpt lat="60.004360639782" lon="15.77041576874">
        <ele>126.4</ele>
        <time>2015-01-14T21:37:07Z</time>
        <extensions><gpxtpx:TrackPointExtension><gpxtpx:hr>127</gpxtpx:hr></gpxtpx:TrackPointExtension></extensions>
      </trkpt>
      <trkpt lat="60.004352341701" lon="15.770399424035">
        <ele>126.6</ele>
        <time>2015-01-14T21:37:13Z</time>
        <extensions><gpxtpx:TrackPointExtension><gpxtpx:hr>127</gpxtpx:hr></gpxtpx:TrackPointExtension></extensions>
      </trkpt>
      <trkpt lat="60.004337002824" lon="15.770389281936">
        <ele>126</ele>
        <time>2015-01-14T21:37:19Z</time>
        <extensions><gpxtpx:TrackPointExtension><gpxtpx:hr>124</gpxtpx:hr></gpxtpx:TrackPointExtension></extensions>
      </trkpt>
      <trkpt lat="60.004331554589" lon="15.77038727028">
        <ele>126</ele>
        <time>2015-01-14T21:37:20Z</time>
        <extensions><gpxtpx:TrackPointExtension><gpxtpx:hr>125</gpxtpx:hr></gpxtpx:TrackPointExtension></extensions>
      </trkpt>
      <trkpt lat="60.004300960654" lon="15.770357011621">
        <ele>126.2</ele>
        <time>2015-01-14T21:37:28Z</time>
        <extensions><gpxtpx:TrackPointExtension><gpxtpx:hr>125</gpxtpx:hr></gpxtpx:TrackPointExtension></extensions>
      </trkpt>
      <trkpt lat="60.004276820782" lon="15.770341672744">
        <ele>126.4</ele>
        <time>2015-01-14T21:37:35Z</time>
        <extensions><gpxtpx:TrackPointExtension><gpxtpx:hr>122</gpxtpx:hr></gpxtpx:TrackPointExtension></extensions>
      </trkpt>
      <trkpt lat="60.00426944471" lon="15.770333458482">
        <ele>126.4</ele>
        <time>2015-01-14T21:37:36Z</time>
        <extensions><gpxtpx:TrackPointExtension><gpxtpx:hr>122</gpxtpx:hr></gpxtpx:TrackPointExtension></extensions>
      </trkpt>
      <trkpt lat="60.0042535191" lon="15.770326752962">
        <ele>126.8</ele>
        <time>2015-01-14T21:37:43Z</time>
        <extensions><gpxtpx:TrackPointExtension><gpxtpx:hr>125</gpxtpx:hr></gpxtpx:TrackPointExtension></extensions>
      </trkpt>
      <trkpt lat="60.004253938195" lon="15.770328261704">
        <ele>126.8</ele>
        <time>2015-01-14T21:37:44Z</time>
        <extensions><gpxtpx:TrackPointExtension><gpxtpx:hr>124</gpxtpx:hr></gpxtpx:TrackPointExtension></extensions>
      </trkpt>
      <trkpt lat="60.004264331751" lon="15.770310827352">
        <ele>126.6</ele>
        <time>2015-01-14T21:37:52Z</time>
        <extensions><gpxtpx:TrackPointExtension><gpxtpx:hr>127</gpxtpx:hr></gpxtpx:TrackPointExtension></extensions>
      </trkpt>
      <trkpt lat="60.004266678683" lon="15.77029590757">
        <ele>126.6</ele>
        <time>2015-01-14T21:37:55Z</time>
        <extensions><gpxtpx:TrackPointExtension><gpxtpx:hr>129</gpxtpx:hr></gpxtpx:TrackPointExtension></extensions>
      </trkpt>
      <trkpt lat="60.004267433054" lon="15.770245113256">
        <ele>126.6</ele>
        <time>2015-01-14T21:38:08Z</time>
        <extensions><gpxtpx:TrackPointExtension><gpxtpx:hr>129</gpxtpx:hr></gpxtpx:TrackPointExtension></extensions>
      </trkpt>
      <trkpt lat="60.004256368946" lon="15.77025232169">
        <ele>126.6</ele>
        <time>2015-01-14T21:38:12Z</time>
        <extensions><gpxtpx:TrackPointExtension><gpxtpx:hr>125</gpxtpx:hr></gpxtpx:TrackPointExtension></extensions>
      </trkpt>
      <trkpt lat="60.004219907681" lon="15.770278892313">
        <ele>127</ele>
        <time>2015-01-14T21:38:18Z</time>
        <extensions><gpxtpx:TrackPointExtension><gpxtpx:hr>123</gpxtpx:hr></gpxtpx:TrackPointExtension></extensions>
      </trkpt>
      <trkpt lat="60.004211022867" lon="15.77028584929">
        <ele>127.2</ele>
        <time>2015-01-14T21:38:22Z</time>
        <extensions><gpxtpx:TrackPointExtension><gpxtpx:hr>122</gpxtpx:hr></gpxtpx:TrackPointExtension></extensions>
      </trkpt>
      <trkpt lat="60.004195935447" lon="15.7702850111">
        <ele>127.2</ele>
        <time>2015-01-14T21:38:26Z</time>
        <extensions><gpxtpx:TrackPointExtension><gpxtpx:hr>119</gpxtpx:hr></gpxtpx:TrackPointExtension></extensions>
      </trkpt>
      <trkpt lat="60.004191576859" lon="15.770288866774">
        <ele>127.2</ele>
        <time>2015-01-14T21:38:28Z</time>
        <extensions><gpxtpx:TrackPointExtension><gpxtpx:hr>118</gpxtpx:hr></gpxtpx:TrackPointExtension></extensions>
      </trkpt>
      <trkpt lat="60.004158468354" lon="15.770340499278">
        <ele>127</ele>
        <time>2015-01-14T21:38:41Z</time>
        <extensions><gpxtpx:TrackPointExtension><gpxtpx:hr>120</gpxtpx:hr></gpxtpx:TrackPointExtension></extensions>
      </trkpt>
      <trkpt lat="60.004134328482" lon="15.770343265305">
        <ele>127.6</ele>
        <time>2015-01-14T21:38:48Z</time>
        <extensions><gpxtpx:TrackPointExtension><gpxtpx:hr>119</gpxtpx:hr></gpxtpx:TrackPointExtension></extensions>
      </trkpt>
      <trkpt lat="60.004129047885" lon="15.770341421287">
        <ele>127.6</ele>
        <time>2015-01-14T21:38:50Z</time>
        <extensions><gpxtpx:TrackPointExtension><gpxtpx:hr>121</gpxtpx:hr></gpxtpx:TrackPointExtension></extensions>
      </trkpt>
      <trkpt lat="60.004127455324" lon="15.770342510934">
        <ele>127.4</ele>
        <time>2015-01-14T21:38:53Z</time>
        <extensions><gpxtpx:TrackPointExtension><gpxtpx:hr>124</gpxtpx:hr></gpxtpx:TrackPointExtension></extensions>
      </trkpt>
      <trkpt lat="60.004125946582" lon="15.770339577269">
        <ele>127.4</ele>
        <time>2015-01-14T21:38:55Z</time>
        <extensions><gpxtpx:TrackPointExtension><gpxtpx:hr>120</gpxtpx:hr></gpxtpx:TrackPointExtension></extensions>
      </trkpt>
      <trkpt lat="60.00412527603" lon="15.770329518989">
        <ele>127.4</ele>
        <time>2015-01-14T21:38:57Z</time>
        <extensions><gpxtpx:TrackPointExtension><gpxtpx:hr>117</gpxtpx:hr></gpxtpx:TrackPointExtension></extensions>
      </trkpt>
      <trkpt lat="60.004121504175" lon="15.770340164002">
        <ele>127.6</ele>
        <time>2015-01-14T21:38:59Z</time>
        <extensions><gpxtpx:TrackPointExtension><gpxtpx:hr>117</gpxtpx:hr></gpxtpx:TrackPointExtension></extensions>
      </trkpt>
      <trkpt lat="60.004118821967" lon="15.77033446431">
        <ele>127.4</ele>
        <time>2015-01-14T21:39:01Z</time>
        <extensions><gpxtpx:TrackPointExtension><gpxtpx:hr>120</gpxtpx:hr></gpxtpx:TrackPointExtension></extensions>
      </trkpt>
      <trkpt lat="60.004124940754" lon="15.770294985561">
        <ele>127.4</ele>
        <time>2015-01-14T21:39:09Z</time>
        <extensions><gpxtpx:TrackPointExtension><gpxtpx:hr>121</gpxtpx:hr></gpxtpx:TrackPointExtension></extensions>
      </trkpt>
      <trkpt lat="60.004132568283" lon="15.770298673597">
        <ele>127.4</ele>
        <time>2015-01-14T21:39:15Z</time>
        <extensions><gpxtpx:TrackPointExtension><gpxtpx:hr>117</gpxtpx:hr></gpxtpx:TrackPointExtension></extensions>
      </trkpt>
      <trkpt lat="60.004133322654" lon="15.770308564239">
        <ele>127.4</ele>
        <time>2015-01-14T21:39:21Z</time>
        <extensions><gpxtpx:TrackPointExtension><gpxtpx:hr>119</gpxtpx:hr></gpxtpx:TrackPointExtension></extensions>
      </trkpt>
      <trkpt lat="60.004141872192" lon="15.770303116004">
        <ele>127.2</ele>
        <time>2015-01-14T21:39:26Z</time>
        <extensions><gpxtpx:TrackPointExtension><gpxtpx:hr>116</gpxtpx:hr></gpxtpx:TrackPointExtension></extensions>
      </trkpt>
      <trkpt lat="60.004145644047" lon="15.770298505959">
        <ele>127.2</ele>
        <time>2015-01-14T21:39:28Z</time>
        <extensions><gpxtpx:TrackPointExtension><gpxtpx:hr>112</gpxtpx:hr></gpxtpx:TrackPointExtension></extensions>
      </trkpt>
      <trkpt lat="60.004148326255" lon="15.770297667769">
        <ele>127.2</ele>
        <time>2015-01-14T21:39:32Z</time>
        <extensions><gpxtpx:TrackPointExtension><gpxtpx:hr>110</gpxtpx:hr></gpxtpx:TrackPointExtension></extensions>
      </trkpt>
      <trkpt lat="60.004152517205" lon="15.770294398828">
        <ele>127</ele>
        <time>2015-01-14T21:39:37Z</time>
        <extensions><gpxtpx:TrackPointExtension><gpxtpx:hr>114</gpxtpx:hr></gpxtpx:TrackPointExtension></extensions>
      </trkpt>
      <trkpt lat="60.004157462526" lon="15.770284927281">
        <ele>127.2</ele>
        <time>2015-01-14T21:39:41Z</time>
        <extensions><gpxtpx:TrackPointExtension><gpxtpx:hr>111</gpxtpx:hr></gpxtpx:TrackPointExtension></extensions>
      </trkpt>
      <trkpt lat="60.00415964182" lon="15.770280317236">
        <ele>127.2</ele>
        <time>2015-01-14T21:39:43Z</time>
        <extensions><gpxtpx:TrackPointExtension><gpxtpx:hr>108</gpxtpx:hr></gpxtpx:TrackPointExtension></extensions>
      </trkpt>
      <trkpt lat="60.004161821114" lon="15.770276796838">
        <ele>127.2</ele>
        <time>2015-01-14T21:39:47Z</time>
        <extensions><gpxtpx:TrackPointExtension><gpxtpx:hr>111</gpxtpx:hr></gpxtpx:TrackPointExtension></extensions>
      </trkpt>
      <trkpt lat="60.004167436987" lon="15.770273192621">
        <ele>127.4</ele>
        <time>2015-01-14T21:39:52Z</time>
        <extensions><gpxtpx:TrackPointExtension><gpxtpx:hr>113</gpxtpx:hr></gpxtpx:TrackPointExtension></extensions>
      </trkpt>
      <trkpt lat="60.004173388136" lon="15.770248549835">
        <ele>127.4</ele>
        <time>2015-01-14T21:40:05Z</time>
        <extensions><gpxtpx:TrackPointExtension><gpxtpx:hr>110</gpxtpx:hr></gpxtpx:TrackPointExtension></extensions>
      </trkpt>
      <trkpt lat="60.00417389105" lon="15.770247711645">
        <ele>127.4</ele>
        <time>2015-01-14T21:40:07Z</time>
        <extensions><gpxtpx:TrackPointExtension><gpxtpx:hr>110</gpxtpx:hr></gpxtpx:TrackPointExtension></extensions>
      </trkpt>
      <trkpt lat="60.004171544118" lon="15.770243185419">
        <ele>127.4</ele>
        <time>2015-01-14T21:40:16Z</time>
        <extensions><gpxtpx:TrackPointExtension><gpxtpx:hr>107</gpxtpx:hr></gpxtpx:TrackPointExtension></extensions>
      </trkpt>
      <trkpt lat="60.004170622109" lon="15.770240670849">
        <ele>127.4</ele>
        <time>2015-01-14T21:40:19Z</time>
        <extensions><gpxtpx:TrackPointExtension><gpxtpx:hr>110</gpxtpx:hr></gpxtpx:TrackPointExtension></extensions>
      </trkpt>
      <trkpt lat="60.004171292661" lon="15.770237904822">
        <ele>127.4</ele>
        <time>2015-01-14T21:40:21Z</time>
        <extensions><gpxtpx:TrackPointExtension><gpxtpx:hr>113</gpxtpx:hr></gpxtpx:TrackPointExtension></extensions>
      </trkpt>
      <trkpt lat="60.00417305286" lon="15.770231953673">
        <ele>127.4</ele>
        <time>2015-01-14T21:40:25Z</time>
        <extensions><gpxtpx:TrackPointExtension><gpxtpx:hr>109</gpxtpx:hr></gpxtpx:TrackPointExtension></extensions>
      </trkpt>
      <trkpt lat="60.004157630164" lon="15.770252489328">
        <ele>127.4</ele>
        <time>2015-01-14T21:40:34Z</time>
        <extensions><gpxtpx:TrackPointExtension><gpxtpx:hr>110</gpxtpx:hr></gpxtpx:TrackPointExtension></extensions>
      </trkpt>
      <trkpt lat="60.004133071197" lon="15.770290375516">
        <ele>127.4</ele>
        <time>2015-01-14T21:40:39Z</time>
        <extensions><gpxtpx:TrackPointExtension><gpxtpx:hr>113</gpxtpx:hr></gpxtpx:TrackPointExtension></extensions>
      </trkpt>
      <trkpt lat="60.00412946698" lon="15.770293560638">
        <ele>127.4</ele>
        <time>2015-01-14T21:40:43Z</time>
        <extensions><gpxtpx:TrackPointExtension><gpxtpx:hr>109</gpxtpx:hr></gpxtpx:TrackPointExtension></extensions>
      </trkpt>
      <trkpt lat="60.004124186383" lon="15.770291968077">
        <ele>127.4</ele>
        <time>2015-01-14T21:40:47Z</time>
        <extensions><gpxtpx:TrackPointExtension><gpxtpx:hr>110</gpxtpx:hr></gpxtpx:TrackPointExtension></extensions>
      </trkpt>
      <trkpt lat="60.004103231633" lon="15.770292722448">
        <ele>127.6</ele>
        <time>2015-01-14T21:40:50Z</time>
        <extensions><gpxtpx:TrackPointExtension><gpxtpx:hr>114</gpxtpx:hr></gpxtpx:TrackPointExtension></extensions>
      </trkpt>
      <trkpt lat="60.004093843905" lon="15.770304876203">
        <ele>128</ele>
        <time>2015-01-14T21:40:53Z</time>
        <extensions><gpxtpx:TrackPointExtension><gpxtpx:hr>117</gpxtpx:hr></gpxtpx:TrackPointExtension></extensions>
      </trkpt>
      <trkpt lat="60.004085964919" lon="15.770312419913">
        <ele>128</ele>
        <time>2015-01-14T21:40:54Z</time>
        <extensions><gpxtpx:TrackPointExtension><gpxtpx:hr>117</gpxtpx:hr></gpxtpx:TrackPointExtension></extensions>
      </trkpt>
      <trkpt lat="60.0040691173" lon="15.770339912545">
        <ele>128.2</ele>
        <time>2015-01-14T21:41:00Z</time>
        <extensions><gpxtpx:TrackPointExtension><gpxtpx:hr>114</gpxtpx:hr></gpxtpx:TrackPointExtension></extensions>
      </trkpt>
      <trkpt lat="60.004055287165" lon="15.770371177032">
        <ele>128.4</ele>
        <time>2015-01-14T21:41:06Z</time>
        <extensions><gpxtpx:TrackPointExtension><gpxtpx:hr>113</gpxtpx:hr></gpxtpx:TrackPointExtension></extensions>
      </trkpt>
      <trkpt lat="60.004043217229" lon="15.770365561159">
        <ele>128.4</ele>
        <time>2015-01-14T21:41:14Z</time>
        <extensions><gpxtpx:TrackPointExtension><gpxtpx:hr>110</gpxtpx:hr></gpxtpx:TrackPointExtension></extensions>
      </trkpt>
      <trkpt lat="60.004041959944" lon="15.770321975279">
        <ele>128.4</ele>
        <time>2015-01-14T21:41:20Z</time>
        <extensions><gpxtpx:TrackPointExtension><gpxtpx:hr>113</gpxtpx:hr></gpxtpx:TrackPointExtension></extensions>
      </trkpt>
      <trkpt lat="60.004031817845" lon="15.770333123206">
        <ele>128.4</ele>
        <time>2015-01-14T21:41:22Z</time>
        <extensions><gpxtpx:TrackPointExtension><gpxtpx:hr>115</gpxtpx:hr></gpxtpx:TrackPointExtension></extensions>
      </trkpt>
      <trkpt lat="60.004023519764" lon="15.770369081557">
        <ele>128.2</ele>
        <time>2015-01-14T21:41:25Z</time>
        <extensions><gpxtpx:TrackPointExtension><gpxtpx:hr>111</gpxtpx:hr></gpxtpx:TrackPointExtension></extensions>
      </trkpt>
      <trkpt lat="60.004016478968" lon="15.770427754857">
        <ele>128</ele>
        <time>2015-01-14T21:41:29Z</time>
        <extensions><gpxtpx:TrackPointExtension><gpxtpx:hr>113</gpxtpx:hr></gpxtpx:TrackPointExtension></extensions>
      </trkpt>
      <trkpt lat="60.00402553142" lon="15.770505287432">
        <ele>128</ele>
        <time>2015-01-14T21:41:36Z</time>
        <extensions><gpxtpx:TrackPointExtension><gpxtpx:hr>116</gpxtpx:hr></gpxtpx:TrackPointExtension></extensions>
      </trkpt>
      <trkpt lat="60.004019999366" lon="15.770600924911">
        <ele>127.6</ele>
        <time>2015-01-14T21:41:43Z</time>
        <extensions><gpxtpx:TrackPointExtension><gpxtpx:hr>116</gpxtpx:hr></gpxtpx:TrackPointExtension></extensions>
      </trkpt>
      <trkpt lat="60.00402050228" lon="15.770722630099">
        <ele>126.8</ele>
        <time>2015-01-14T21:41:51Z</time>
        <extensions><gpxtpx:TrackPointExtension><gpxtpx:hr>116</gpxtpx:hr></gpxtpx:TrackPointExtension></extensions>
      </trkpt>
      <trkpt lat="60.004028213628" lon="15.770760181011">
        <ele>126.6</ele>
        <time>2015-01-14T21:41:54Z</time>
        <extensions><gpxtpx:TrackPointExtension><gpxtpx:hr>115</gpxtpx:hr></gpxtpx:TrackPointExtension></extensions>
      </trkpt>
      <trkpt lat="60.004037014623" lon="15.770815836827">
        <ele>126.4</ele>
        <time>2015-01-14T21:41:58Z</time>
        <extensions><gpxtpx:TrackPointExtension><gpxtpx:hr>115</gpxtpx:hr></gpxtpx:TrackPointExtension></extensions>
      </trkpt>
      <trkpt lat="60.004058723744" lon="15.770979954429">
        <ele>126</ele>
        <time>2015-01-14T21:42:06Z</time>
        <extensions><gpxtpx:TrackPointExtension><gpxtpx:hr>116</gpxtpx:hr></gpxtpx:TrackPointExtension></extensions>
      </trkpt>
      <trkpt lat="60.004067692377" lon="15.771058073737">
        <ele>125.6</ele>
        <time>2015-01-14T21:42:09Z</time>
        <extensions><gpxtpx:TrackPointExtension><gpxtpx:hr>115</gpxtpx:hr></gpxtpx:TrackPointExtension></extensions>
      </trkpt>
      <trkpt lat="60.004087389842" lon="15.771139210529">
        <ele>125.4</ele>
        <time>2015-01-14T21:42:12Z</time>
        <extensions><gpxtpx:TrackPointExtension><gpxtpx:hr>115</gpxtpx:hr></gpxtpx:TrackPointExtension></extensions>
      </trkpt>
      <trkpt lat="60.004140028174" lon="15.771292599299">
        <ele>124.6</ele>
        <time>2015-01-14T21:42:17Z</time>
        <extensions><gpxtpx:TrackPointExtension><gpxtpx:hr>117</gpxtpx:hr></gpxtpx:TrackPointExtension></extensions>
      </trkpt>
      <trkpt lat="60.004146482237" lon="15.771310452746">
        <ele>124.6</ele>
        <time>2015-01-14T21:42:18Z</time>
        <extensions><gpxtpx:TrackPointExtension><gpxtpx:hr>117</gpxtpx:hr></gpxtpx:TrackPointExtension></extensions>
      </trkpt>
      <trkpt lat="60.004188559375" lon="15.771410364994">
        <ele>124.4</ele>
        <time>2015-01-14T21:42:24Z</time>
        <extensions><gpxtpx:TrackPointExtension><gpxtpx:hr>119</gpxtpx:hr></gpxtpx:TrackPointExtension></extensions>
      </trkpt>
      <trkpt lat="60.004242371173" lon="15.77149368108">
        <ele>124.4</ele>
        <time>2015-01-14T21:42:31Z</time>
        <extensions><gpxtpx:TrackPointExtension><gpxtpx:hr>118</gpxtpx:hr></gpxtpx:TrackPointExtension></extensions>
      </trkpt>
      <trkpt lat="60.004291824383" lon="15.771558137891">
        <ele>124.8</ele>
        <time>2015-01-14T21:42:38Z</time>
        <extensions><gpxtpx:TrackPointExtension><gpxtpx:hr>119</gpxtpx:hr></gpxtpx:TrackPointExtension></extensions>
      </trkpt>
      <trkpt lat="60.004320993395" lon="15.771596946088">
        <ele>124.8</ele>
        <time>2015-01-14T21:42:44Z</time>
        <extensions><gpxtpx:TrackPointExtension><gpxtpx:hr>115</gpxtpx:hr></gpxtpx:TrackPointExtension></extensions>
      </trkpt>
      <trkpt lat="60.004326944544" lon="15.77160432216">
        <ele>124.8</ele>
        <time>2015-01-14T21:42:45Z</time>
        <extensions><gpxtpx:TrackPointExtension><gpxtpx:hr>114</gpxtpx:hr></gpxtpx:TrackPointExtension></extensions>
      </trkpt>
      <trkpt lat="60.004346139095" lon="15.771599712115">
        <ele>124.8</ele>
        <time>2015-01-14T21:42:47Z</time>
        <extensions><gpxtpx:TrackPointExtension><gpxtpx:hr>114</gpxtpx:hr></gpxtpx:TrackPointExtension></extensions>
      </trkpt>
      <trkpt lat="60.004374469917" lon="15.771587223084">
        <ele>124.8</ele>
        <time>2015-01-14T21:42:51Z</time>
        <extensions><gpxtpx:TrackPointExtension><gpxtpx:hr>115</gpxtpx:hr></gpxtpx:TrackPointExtension></extensions>
      </trkpt>
      <trkpt lat="60.004389892613" lon="15.771583870324">
        <ele>124.8</ele>
        <time>2015-01-14T21:42:55Z</time>
        <extensions><gpxtpx:TrackPointExtension><gpxtpx:hr>118</gpxtpx:hr></gpxtpx:TrackPointExtension></extensions>
      </trkpt>
      <trkpt lat="60.004394083563" lon="15.77159007293">
        <ele>125</ele>
        <time>2015-01-14T21:42:59Z</time>
        <extensions><gpxtpx:TrackPointExtension><gpxtpx:hr>117</gpxtpx:hr></gpxtpx:TrackPointExtension></extensions>
      </trkpt>
      <trkpt lat="60.004429790457" lon="15.771533159829">
        <ele>124.6</ele>
        <time>2015-01-14T21:43:07Z</time>
        <extensions><gpxtpx:TrackPointExtension><gpxtpx:hr>119</gpxtpx:hr></gpxtpx:TrackPointExtension></extensions>
      </trkpt>
      <trkpt lat="60.004446218981" lon="15.771518323866">
        <ele>124.4</ele>
        <time>2015-01-14T21:43:16Z</time>
        <extensions><gpxtpx:TrackPointExtension><gpxtpx:hr>120</gpxtpx:hr></gpxtpx:TrackPointExtension></extensions>
      </trkpt>
      <trkpt lat="60.004456277261" lon="15.771512791812">
        <ele>124.2</ele>
        <time>2015-01-14T21:43:21Z</time>
        <extensions><gpxtpx:TrackPointExtension><gpxtpx:hr>117</gpxtpx:hr></gpxtpx:TrackPointExtension></extensions>
      </trkpt>
      <trkpt lat="60.004464323885" lon="15.771514384373">
        <ele>124</ele>
        <time>2015-01-14T21:43:23Z</time>
        <extensions><gpxtpx:TrackPointExtension><gpxtpx:hr>117</gpxtpx:hr></gpxtpx:TrackPointExtension></extensions>
      </trkpt>
      <trkpt lat="60.004468011921" lon="15.771510612518">
        <ele>124.6</ele>
        <time>2015-01-14T21:43:28Z</time>
        <extensions><gpxtpx:TrackPointExtension><gpxtpx:hr>118</gpxtpx:hr></gpxtpx:TrackPointExtension></extensions>
      </trkpt>
      <trkpt lat="60.004469353025" lon="15.771515809296">
        <ele>124.8</ele>
        <time>2015-01-14T21:43:32Z</time>
        <extensions><gpxtpx:TrackPointExtension><gpxtpx:hr>115</gpxtpx:hr></gpxtpx:TrackPointExtension></extensions>
      </trkpt>
      <trkpt lat="60.004468850111" lon="15.771516396029">
        <ele>124.6</ele>
        <time>2015-01-14T21:43:38Z</time>
        <extensions><gpxtpx:TrackPointExtension><gpxtpx:hr>113</gpxtpx:hr></gpxtpx:TrackPointExtension></extensions>
      </trkpt>
      <trkpt lat="60.004468850111" lon="15.771514384373">
        <ele>125</ele>
        <time>2015-01-14T21:43:45Z</time>
        <extensions><gpxtpx:TrackPointExtension><gpxtpx:hr>116</gpxtpx:hr></gpxtpx:TrackPointExtension></extensions>
      </trkpt>
      <trkpt lat="60.004463569514" lon="15.771508014129">
        <ele>125.6</ele>
        <time>2015-01-14T21:43:50Z</time>
        <extensions><gpxtpx:TrackPointExtension><gpxtpx:hr>116</gpxtpx:hr></gpxtpx:TrackPointExtension></extensions>
      </trkpt>
      <trkpt lat="60.004460719668" lon="15.771496782383">
        <ele>125</ele>
        <time>2015-01-14T21:43:56Z</time>
        <extensions><gpxtpx:TrackPointExtension><gpxtpx:hr>113</gpxtpx:hr></gpxtpx:TrackPointExtension></extensions>
      </trkpt>
      <trkpt lat="60.004459881478" lon="15.771503655541">
        <ele>125</ele>
        <time>2015-01-14T21:44:05Z</time>
        <extensions><gpxtpx:TrackPointExtension><gpxtpx:hr>116</gpxtpx:hr></gpxtpx:TrackPointExtension></extensions>
      </trkpt>
      <trkpt lat="60.004459294745" lon="15.771496698564">
        <ele>124.6</ele>
        <time>2015-01-14T21:44:08Z</time>
        <extensions><gpxtpx:TrackPointExtension><gpxtpx:hr>112</gpxtpx:hr></gpxtpx:TrackPointExtension></extensions>
      </trkpt>
      <trkpt lat="60.004460468211" lon="15.771491501786">
        <ele>124.6</ele>
        <time>2015-01-14T21:44:11Z</time>
        <extensions><gpxtpx:TrackPointExtension><gpxtpx:hr>107</gpxtpx:hr></gpxtpx:TrackPointExtension></extensions>
      </trkpt>
      <trkpt lat="60.004458540374" lon="15.771481611144">
        <ele>124.6</ele>
        <time>2015-01-14T21:44:13Z</time>
        <extensions><gpxtpx:TrackPointExtension><gpxtpx:hr>106</gpxtpx:hr></gpxtpx:TrackPointExtension></extensions>
      </trkpt>
      <trkpt lat="60.004459462383" lon="15.771485550637">
        <ele>124.6</ele>
        <time>2015-01-14T21:44:15Z</time>
        <extensions><gpxtpx:TrackPointExtension><gpxtpx:hr>109</gpxtpx:hr></gpxtpx:TrackPointExtension></extensions>
      </trkpt>
      <trkpt lat="60.004465916446" lon="15.771497285297">
        <ele>124</ele>
        <time>2015-01-14T21:44:21Z</time>
        <extensions><gpxtpx:TrackPointExtension><gpxtpx:hr>110</gpxtpx:hr></gpxtpx:TrackPointExtension></extensions>
      </trkpt>
      <trkpt lat="60.004461557858" lon="15.771497955849">
        <ele>124.6</ele>
        <time>2015-01-14T21:44:29Z</time>
        <extensions><gpxtpx:TrackPointExtension><gpxtpx:hr>109</gpxtpx:hr></gpxtpx:TrackPointExtension></extensions>
      </trkpt>
      <trkpt lat="60.004461138763" lon="15.771495860374">
        <ele>124.4</ele>
        <time>2015-01-14T21:44:32Z</time>
        <extensions><gpxtpx:TrackPointExtension><gpxtpx:hr>106</gpxtpx:hr></gpxtpx:TrackPointExtension></extensions>
      </trkpt>
      <trkpt lat="60.004458456555" lon="15.771497788211">
        <ele>124.6</ele>
        <time>2015-01-14T21:44:41Z</time>
        <extensions><gpxtpx:TrackPointExtension><gpxtpx:hr>107</gpxtpx:hr></gpxtpx:TrackPointExtension></extensions>
      </trkpt>
      <trkpt lat="60.004453930329" lon="15.771497704392">
        <ele>125</ele>
        <time>2015-01-14T21:44:47Z</time>
        <extensions><gpxtpx:TrackPointExtension><gpxtpx:hr>108</gpxtpx:hr></gpxtpx:TrackPointExtension></extensions>
      </trkpt>
      <trkpt lat="60.004454768519" lon="15.771503906998">
        <ele>124.8</ele>
        <time>2015-01-14T21:44:51Z</time>
        <extensions><gpxtpx:TrackPointExtension><gpxtpx:hr>105</gpxtpx:hr></gpxtpx:TrackPointExtension></extensions>
      </trkpt>
      <trkpt lat="60.004450745207" lon="15.77150625393">
        <ele>124.8</ele>
        <time>2015-01-14T21:44:56Z</time>
        <extensions><gpxtpx:TrackPointExtension><gpxtpx:hr>106</gpxtpx:hr></gpxtpx:TrackPointExtension></extensions>
      </trkpt>
      <trkpt lat="60.004454014148" lon="15.771495692736">
        <ele>124.6</ele>
        <time>2015-01-14T21:44:59Z</time>
        <extensions><gpxtpx:TrackPointExtension><gpxtpx:hr>103</gpxtpx:hr></gpxtpx:TrackPointExtension></extensions>
      </trkpt>
      <trkpt lat="60.004461222582" lon="15.771492759071">
        <ele>124.6</ele>
        <time>2015-01-14T21:45:04Z</time>
        <extensions><gpxtpx:TrackPointExtension><gpxtpx:hr>104</gpxtpx:hr></gpxtpx:TrackPointExtension></extensions>
      </trkpt>
      <trkpt lat="60.004464491523" lon="15.771488987216">
        <ele>124.4</ele>
        <time>2015-01-14T21:45:06Z</time>
        <extensions><gpxtpx:TrackPointExtension><gpxtpx:hr>107</gpxtpx:hr></gpxtpx:TrackPointExtension></extensions>
      </trkpt>
      <trkpt lat="60.004464240066" lon="15.77149116651">
        <ele>124.2</ele>
        <time>2015-01-14T21:45:08Z</time>
        <extensions><gpxtpx:TrackPointExtension><gpxtpx:hr>110</gpxtpx:hr></gpxtpx:TrackPointExtension></extensions>
      </trkpt>
      <trkpt lat="60.004456277261" lon="15.771500051324">
        <ele>124</ele>
        <time>2015-01-14T21:45:11Z</time>
        <extensions><gpxtpx:TrackPointExtension><gpxtpx:hr>111</gpxtpx:hr></gpxtpx:TrackPointExtension></extensions>
      </trkpt>
      <trkpt lat="60.004453762691" lon="15.771497201478">
        <ele>123.8</ele>
        <time>2015-01-14T21:45:21Z</time>
        <extensions><gpxtpx:TrackPointExtension><gpxtpx:hr>113</gpxtpx:hr></gpxtpx:TrackPointExtension></extensions>
      </trkpt>
      <trkpt lat="60.004449152646" lon="15.771501727704">
        <ele>124.4</ele>
        <time>2015-01-14T21:45:31Z</time>
        <extensions><gpxtpx:TrackPointExtension><gpxtpx:hr>114</gpxtpx:hr></gpxtpx:TrackPointExtension></extensions>
      </trkpt>
      <trkpt lat="60.00444546461" lon="15.771497369116">
        <ele>124.4</ele>
        <time>2015-01-14T21:45:39Z</time>
        <extensions><gpxtpx:TrackPointExtension><gpxtpx:hr>112</gpxtpx:hr></gpxtpx:TrackPointExtension></extensions>
      </trkpt>
      <trkpt lat="60.004442028031" lon="15.771497704392">
        <ele>124.6</ele>
        <time>2015-01-14T21:45:47Z</time>
        <extensions><gpxtpx:TrackPointExtension><gpxtpx:hr>109</gpxtpx:hr></gpxtpx:TrackPointExtension></extensions>
      </trkpt>
      <trkpt lat="60.00444211185" lon="15.77149032832">
        <ele>124.4</ele>
        <time>2015-01-14T21:45:52Z</time>
        <extensions><gpxtpx:TrackPointExtension><gpxtpx:hr>109</gpxtpx:hr></gpxtpx:TrackPointExtension></extensions>
      </trkpt>
      <trkpt lat="60.004442447126" lon="15.77148446099">
        <ele>124.6</ele>
        <time>2015-01-14T21:45:56Z</time>
        <extensions><gpxtpx:TrackPointExtension><gpxtpx:hr>105</gpxtpx:hr></gpxtpx:TrackPointExtension></extensions>
      </trkpt>
      <trkpt lat="60.004441525117" lon="15.771486472646">
        <ele>124.4</ele>
        <time>2015-01-14T21:45:59Z</time>
        <extensions><gpxtpx:TrackPointExtension><gpxtpx:hr>102</gpxtpx:hr></gpxtpx:TrackPointExtension></extensions>
      </trkpt>
      <trkpt lat="60.004441357479" lon="15.771487897569">
        <ele>124.4</ele>
        <time>2015-01-14T21:46:02Z</time>
        <extensions><gpxtpx:TrackPointExtension><gpxtpx:hr>105</gpxtpx:hr></gpxtpx:TrackPointExtension></extensions>
      </trkpt>
      <trkpt lat="60.00444127366" lon="15.771486891741">
        <ele>124.4</ele>
        <time>2015-01-14T21:46:04Z</time>
        <extensions><gpxtpx:TrackPointExtension><gpxtpx:hr>108</gpxtpx:hr></gpxtpx:TrackPointExtension></extensions>
      </trkpt>
      <trkpt lat="60.004440938384" lon="15.771486472646">
        <ele>124.4</ele>
        <time>2015-01-14T21:46:05Z</time>
        <extensions><gpxtpx:TrackPointExtension><gpxtpx:hr>108</gpxtpx:hr></gpxtpx:TrackPointExtension></extensions>
      </trkpt>
      <trkpt lat="60.004439178185" lon="15.771499967505">
        <ele>124</ele>
        <time>2015-01-14T21:46:16Z</time>
        <extensions><gpxtpx:TrackPointExtension><gpxtpx:hr>105</gpxtpx:hr></gpxtpx:TrackPointExtension></extensions>
      </trkpt>
      <trkpt lat="60.004438339995" lon="15.77150541574">
        <ele>124</ele>
        <time>2015-01-14T21:46:19Z</time>
        <extensions><gpxtpx:TrackPointExtension><gpxtpx:hr>108</gpxtpx:hr></gpxtpx:TrackPointExtension></extensions>
      </trkpt>
      <trkpt lat="60.004438256176" lon="15.77150625393">
        <ele>124</ele>
        <time>2015-01-14T21:46:20Z</time>
        <extensions><gpxtpx:TrackPointExtension><gpxtpx:hr>109</gpxtpx:hr></gpxtpx:TrackPointExtension></extensions>
      </trkpt>
      <trkpt lat="60.004439178185" lon="15.771511702165">
        <ele>123.8</ele>
        <time>2015-01-14T21:46:33Z</time>
        <extensions><gpxtpx:TrackPointExtension><gpxtpx:hr>109</gpxtpx:hr></gpxtpx:TrackPointExtension></extensions>
      </trkpt>
      <trkpt lat="60.004437417986" lon="15.771488484302">
        <ele>124</ele>
        <time>2015-01-14T21:46:45Z</time>
        <extensions><gpxtpx:TrackPointExtension><gpxtpx:hr>108</gpxtpx:hr></gpxtpx:TrackPointExtension></extensions>
      </trkpt>
      <trkpt lat="60.004435741606" lon="15.771489657768">
        <ele>124</ele>
        <time>2015-01-14T21:46:48Z</time>
        <extensions><gpxtpx:TrackPointExtension><gpxtpx:hr>104</gpxtpx:hr></gpxtpx:TrackPointExtension></extensions>
      </trkpt>
      <trkpt lat="60.004430628647" lon="15.771470463217">
        <ele>124</ele>
        <time>2015-01-14T21:46:52Z</time>
        <extensions><gpxtpx:TrackPointExtension><gpxtpx:hr>106</gpxtpx:hr></gpxtpx:TrackPointExtension></extensions>
      </trkpt>
      <trkpt lat="60.004437334167" lon="15.77146015348">
        <ele>124</ele>
        <time>2015-01-14T21:46:55Z</time>
        <extensions><gpxtpx:TrackPointExtension><gpxtpx:hr>109</gpxtpx:hr></gpxtpx:TrackPointExtension></extensions>
      </trkpt>
      <trkpt lat="60.004440267832" lon="15.771460488756">
        <ele>124.2</ele>
        <time>2015-01-14T21:47:00Z</time>
        <extensions><gpxtpx:TrackPointExtension><gpxtpx:hr>108</gpxtpx:hr></gpxtpx:TrackPointExtension></extensions>
      </trkpt>
      <trkpt lat="60.004444123506" lon="15.771463170964">
        <ele>124</ele>
        <time>2015-01-14T21:47:07Z</time>
        <extensions><gpxtpx:TrackPointExtension><gpxtpx:hr>109</gpxtpx:hr></gpxtpx:TrackPointExtension></extensions>
      </trkpt>
      <trkpt lat="60.00444546461" lon="15.771467361914">
        <ele>124.2</ele>
        <time>2015-01-14T21:47:13Z</time>
        <extensions><gpxtpx:TrackPointExtension><gpxtpx:hr>106</gpxtpx:hr></gpxtpx:TrackPointExtension></extensions>
      </trkpt>
      <trkpt lat="60.004456612537" lon="15.771487310836">
        <ele>124.4</ele>
        <time>2015-01-14T21:47:16Z</time>
        <extensions><gpxtpx:TrackPointExtension><gpxtpx:hr>108</gpxtpx:hr></gpxtpx:TrackPointExtension></extensions>
      </trkpt>
      <trkpt lat="60.004470358853" lon="15.771481275868">
        <ele>124.2</ele>
        <time>2015-01-14T21:47:23Z</time>
        <extensions><gpxtpx:TrackPointExtension><gpxtpx:hr>107</gpxtpx:hr></gpxtpx:TrackPointExtension></extensions>
      </trkpt>
      <trkpt lat="60.004476812916" lon="15.771451101028">
        <ele>124.2</ele>
        <time>2015-01-14T21:47:29Z</time>
        <extensions><gpxtpx:TrackPointExtension><gpxtpx:hr>104</gpxtpx:hr></gpxtpx:TrackPointExtension></extensions>
      </trkpt>
      <trkpt lat="60.004480249495" lon="15.771441964757">
        <ele>124.2</ele>
        <time>2015-01-14T21:47:32Z</time>
        <extensions><gpxtpx:TrackPointExtension><gpxtpx:hr>103</gpxtpx:hr></gpxtpx:TrackPointExtension></extensions>
      </trkpt>
      <trkpt lat="60.004481758237" lon="15.771429224269">
        <ele>124.2</ele>
        <time>2015-01-14T21:47:38Z</time>
        <extensions><gpxtpx:TrackPointExtension><gpxtpx:hr>106</gpxtpx:hr></gpxtpx:TrackPointExtension></extensions>
      </trkpt>
      <trkpt lat="60.004482177332" lon="15.771426709699">
        <ele>124.2</ele>
        <time>2015-01-14T21:47:43Z</time>
        <extensions><gpxtpx:TrackPointExtension><gpxtpx:hr>108</gpxtpx:hr></gpxtpx:TrackPointExtension></extensions>
      </trkpt>
      <trkpt lat="60.00448905049" lon="15.771417992523">
        <ele>124</ele>
        <time>2015-01-14T21:47:50Z</time>
        <extensions><gpxtpx:TrackPointExtension><gpxtpx:hr>101</gpxtpx:hr></gpxtpx:TrackPointExtension></extensions>
      </trkpt>
      <trkpt lat="60.004488715214" lon="15.771422518749">
        <ele>124</ele>
        <time>2015-01-14T21:47:52Z</time>
        <extensions><gpxtpx:TrackPointExtension><gpxtpx:hr>97</gpxtpx:hr></gpxtpx:TrackPointExtension></extensions>
      </trkpt>
      <trkpt lat="60.004481842056" lon="15.771415477953">
        <ele>123.8</ele>
        <time>2015-01-14T21:47:57Z</time>
        <extensions><gpxtpx:TrackPointExtension><gpxtpx:hr>100</gpxtpx:hr></gpxtpx:TrackPointExtension></extensions>
      </trkpt>
      <trkpt lat="60.004483015522" lon="15.771414220668">
        <ele>123.8</ele>
        <time>2015-01-14T21:47:58Z</time>
        <extensions><gpxtpx:TrackPointExtension><gpxtpx:hr>101</gpxtpx:hr></gpxtpx:TrackPointExtension></extensions>
      </trkpt>
      <trkpt lat="60.004485613911" lon="15.771409191528">
        <ele>123.6</ele>
        <time>2015-01-14T21:48:01Z</time>
        <extensions><gpxtpx:TrackPointExtension><gpxtpx:hr>98</gpxtpx:hr></gpxtpx:TrackPointExtension></extensions>
      </trkpt>
      <trkpt lat="60.004487541748" lon="15.771414472125">
        <ele>124</ele>
        <time>2015-01-14T21:48:05Z</time>
        <extensions><gpxtpx:TrackPointExtension><gpxtpx:hr>101</gpxtpx:hr></gpxtpx:TrackPointExtension></extensions>
      </trkpt>
      <trkpt lat="60.004493660535" lon="15.771421932016">
        <ele>124</ele>
        <time>2015-01-14T21:48:11Z</time>
        <extensions><gpxtpx:TrackPointExtension><gpxtpx:hr>99</gpxtpx:hr></gpxtpx:TrackPointExtension></extensions>
      </trkpt>
      <trkpt lat="60.004523583918" lon="15.771439953101">
        <ele>124</ele>
        <time>2015-01-14T21:48:23Z</time>
        <extensions><gpxtpx:TrackPointExtension><gpxtpx:hr>96</gpxtpx:hr></gpxtpx:TrackPointExtension></extensions>
      </trkpt>
      <trkpt lat="60.004527774868" lon="15.771444060232">
        <ele>124.2</ele>
        <time>2015-01-14T21:48:28Z</time>
        <extensions><gpxtpx:TrackPointExtension><gpxtpx:hr>99</gpxtpx:hr></gpxtpx:TrackPointExtension></extensions>
      </trkpt>
      <trkpt lat="60.004530037981" lon="15.771447999725">
        <ele>124.2</ele>
        <time>2015-01-14T21:48:31Z</time>
        <extensions><gpxtpx:TrackPointExtension><gpxtpx:hr>102</gpxtpx:hr></gpxtpx:TrackPointExtension></extensions>
      </trkpt>
      <trkpt lat="60.004528948334" lon="15.771448586458">
        <ele>124.4</ele>
        <time>2015-01-14T21:48:33Z</time>
        <extensions><gpxtpx:TrackPointExtension><gpxtpx:hr>103</gpxtpx:hr></gpxtpx:TrackPointExtension></extensions>
      </trkpt>
      <trkpt lat="60.004522494271" lon="15.771451017209">
        <ele>124.4</ele>
        <time>2015-01-14T21:48:36Z</time>
        <extensions><gpxtpx:TrackPointExtension><gpxtpx:hr>100</gpxtpx:hr></gpxtpx:TrackPointExtension></extensions>
      </trkpt>
      <trkpt lat="60.004522913366" lon="15.771461997498">
        <ele>124.4</ele>
        <time>2015-01-14T21:48:43Z</time>
        <extensions><gpxtpx:TrackPointExtension><gpxtpx:hr>101</gpxtpx:hr></gpxtpx:TrackPointExtension></extensions>
      </trkpt>
      <trkpt lat="60.004531379085" lon="15.771444395508">
        <ele>124.2</ele>
        <time>2015-01-14T21:48:55Z</time>
        <extensions><gpxtpx:TrackPointExtension><gpxtpx:hr>104</gpxtpx:hr></gpxtpx:TrackPointExtension></extensions>
      </trkpt>
      <trkpt lat="60.004532133456" lon="15.77144422787">
        <ele>124.2</ele>
        <time>2015-01-14T21:48:56Z</time>
        <extensions><gpxtpx:TrackPointExtension><gpxtpx:hr>105</gpxtpx:hr></gpxtpx:TrackPointExtension></extensions>
      </trkpt>
      <trkpt lat="60.00452844542" lon="15.77144338968">
        <ele>124</ele>
        <time>2015-01-14T21:49:10Z</time>
        <extensions><gpxtpx:TrackPointExtension><gpxtpx:hr>108</gpxtpx:hr></gpxtpx:TrackPointExtension></extensions>
      </trkpt>
      <trkpt lat="60.004528361601" lon="15.771444814603">
        <ele>124</ele>
        <time>2015-01-14T21:49:11Z</time>
        <extensions><gpxtpx:TrackPointExtension><gpxtpx:hr>109</gpxtpx:hr></gpxtpx:TrackPointExtension></extensions>
      </trkpt>
      <trkpt lat="60.004546382686" lon="15.771465266439">
        <ele>124</ele>
        <time>2015-01-14T21:49:23Z</time>
        <extensions><gpxtpx:TrackPointExtension><gpxtpx:hr>106</gpxtpx:hr></gpxtpx:TrackPointExtension></extensions>
      </trkpt>
      <trkpt lat="60.004545963591" lon="15.77146602081">
        <ele>124</ele>
        <time>2015-01-14T21:49:24Z</time>
        <extensions><gpxtpx:TrackPointExtension><gpxtpx:hr>103</gpxtpx:hr></gpxtpx:TrackPointExtension></extensions>
      </trkpt>
      <trkpt lat="60.004545293039" lon="15.771467948647">
        <ele>124.2</ele>
        <time>2015-01-14T21:49:26Z</time>
        <extensions><gpxtpx:TrackPointExtension><gpxtpx:hr>100</gpxtpx:hr></gpxtpx:TrackPointExtension></extensions>
      </trkpt>
      <trkpt lat="60.004547053238" lon="15.771470463217">
        <ele>124.2</ele>
        <time>2015-01-14T21:49:28Z</time>
        <extensions><gpxtpx:TrackPointExtension><gpxtpx:hr>98</gpxtpx:hr></gpxtpx:TrackPointExtension></extensions>
      </trkpt>
      <trkpt lat="60.004545376858" lon="15.771471971959">
        <ele>124.2</ele>
        <time>2015-01-14T21:49:30Z</time>
        <extensions><gpxtpx:TrackPointExtension><gpxtpx:hr>101</gpxtpx:hr></gpxtpx:TrackPointExtension></extensions>
      </trkpt>
      <trkpt lat="60.004542275555" lon="15.771473480701">
        <ele>124.2</ele>
        <time>2015-01-14T21:49:32Z</time>
        <extensions><gpxtpx:TrackPointExtension><gpxtpx:hr>105</gpxtpx:hr></gpxtpx:TrackPointExtension></extensions>
      </trkpt>
      <trkpt lat="60.004538336062" lon="15.771476498185">
        <ele>124</ele>
        <time>2015-01-14T21:49:35Z</time>
        <extensions><gpxtpx:TrackPointExtension><gpxtpx:hr>106</gpxtpx:hr></gpxtpx:TrackPointExtension></extensions>
      </trkpt>
      <trkpt lat="60.004541772641" lon="15.77149032832">
        <ele>123.8</ele>
        <time>2015-01-14T21:49:42Z</time>
        <extensions><gpxtpx:TrackPointExtension><gpxtpx:hr>105</gpxtpx:hr></gpxtpx:TrackPointExtension></extensions>
      </trkpt>
      <trkpt lat="60.004548059066" lon="15.771487478474">
        <ele>124</ele>
        <time>2015-01-14T21:49:48Z</time>
        <extensions><gpxtpx:TrackPointExtension><gpxtpx:hr>103</gpxtpx:hr></gpxtpx:TrackPointExtension></extensions>
      </trkpt>
      <trkpt lat="60.004548142885" lon="15.771488819578">
        <ele>123.8</ele>
        <time>2015-01-14T21:49:50Z</time>
        <extensions><gpxtpx:TrackPointExtension><gpxtpx:hr>100</gpxtpx:hr></gpxtpx:TrackPointExtension></extensions>
      </trkpt>
      <trkpt lat="60.004546717962" lon="15.771489573949">
        <ele>123.6</ele>
        <time>2015-01-14T21:49:52Z</time>
        <extensions><gpxtpx:TrackPointExtension><gpxtpx:hr>97</gpxtpx:hr></gpxtpx:TrackPointExtension></extensions>
      </trkpt>
      <trkpt lat="60.004541940279" lon="15.771486556465">
        <ele>123.6</ele>
        <time>2015-01-14T21:49:56Z</time>
        <extensions><gpxtpx:TrackPointExtension><gpxtpx:hr>99</gpxtpx:hr></gpxtpx:TrackPointExtension></extensions>
      </trkpt>
      <trkpt lat="60.004538336062" lon="15.771478677479">
        <ele>123.6</ele>
        <time>2015-01-14T21:49:58Z</time>
        <extensions><gpxtpx:TrackPointExtension><gpxtpx:hr>98</gpxtpx:hr></gpxtpx:TrackPointExtension></extensions>
      </trkpt>
      <trkpt lat="60.004532468732" lon="15.771441294205">
        <ele>123.6</ele>
        <time>2015-01-14T21:50:05Z</time>
        <extensions><gpxtpx:TrackPointExtension><gpxtpx:hr>101</gpxtpx:hr></gpxtpx:TrackPointExtension></extensions>
      </trkpt>
      <trkpt lat="60.00453095999" lon="15.771441378024">
        <ele>123.8</ele>
        <time>2015-01-14T21:50:08Z</time>
        <extensions><gpxtpx:TrackPointExtension><gpxtpx:hr>98</gpxtpx:hr></gpxtpx:TrackPointExtension></extensions>
      </trkpt>
      <trkpt lat="60.004514950561" lon="15.771452190675">
        <ele>123.6</ele>
        <time>2015-01-14T21:50:18Z</time>
        <extensions><gpxtpx:TrackPointExtension><gpxtpx:hr>101</gpxtpx:hr></gpxtpx:TrackPointExtension></extensions>
      </trkpt>
      <trkpt lat="60.004512938905" lon="15.771454789064">
        <ele>123.6</ele>
        <time>2015-01-14T21:50:22Z</time>
        <extensions><gpxtpx:TrackPointExtension><gpxtpx:hr>98</gpxtpx:hr></gpxtpx:TrackPointExtension></extensions>
      </trkpt>
      <trkpt lat="60.004515788751" lon="15.771454872883">
        <ele>123.6</ele>
        <time>2015-01-14T21:50:28Z</time>
        <extensions><gpxtpx:TrackPointExtension><gpxtpx:hr>102</gpxtpx:hr></gpxtpx:TrackPointExtension></extensions>
      </trkpt>
      <trkpt lat="60.004521236986" lon="15.771455291978">
        <ele>123.6</ele>
        <time>2015-01-14T21:50:31Z</time>
        <extensions><gpxtpx:TrackPointExtension><gpxtpx:hr>104</gpxtpx:hr></gpxtpx:TrackPointExtension></extensions>
      </trkpt>
      <trkpt lat="60.004521823719" lon="15.771465014982">
        <ele>124</ele>
        <time>2015-01-14T21:50:37Z</time>
        <extensions><gpxtpx:TrackPointExtension><gpxtpx:hr>103</gpxtpx:hr></gpxtpx:TrackPointExtension></extensions>
      </trkpt>
      <trkpt lat="60.004512268353" lon="15.77147021176">
        <ele>123.8</ele>
        <time>2015-01-14T21:50:46Z</time>
        <extensions><gpxtpx:TrackPointExtension><gpxtpx:hr>99</gpxtpx:hr></gpxtpx:TrackPointExtension></extensions>
      </trkpt>
      <trkpt lat="60.004506484842" lon="15.771474318891">
        <ele>123.6</ele>
        <time>2015-01-14T21:50:48Z</time>
        <extensions><gpxtpx:TrackPointExtension><gpxtpx:hr>94</gpxtpx:hr></gpxtpx:TrackPointExtension></extensions>
      </trkpt>
      <trkpt lat="60.004507742127" lon="15.77147272633">
        <ele>123.6</ele>
        <time>2015-01-14T21:50:49Z</time>
        <extensions><gpxtpx:TrackPointExtension><gpxtpx:hr>94</gpxtpx:hr></gpxtpx:TrackPointExtension></extensions>
      </trkpt>
      <trkpt lat="60.004500449874" lon="15.771475827633">
        <ele>123.6</ele>
        <time>2015-01-14T21:50:53Z</time>
        <extensions><gpxtpx:TrackPointExtension><gpxtpx:hr>97</gpxtpx:hr></gpxtpx:TrackPointExtension></extensions>
      </trkpt>
      <trkpt lat="60.004496678019" lon="15.771472307235">
        <ele>123.8</ele>
        <time>2015-01-14T21:50:54Z</time>
        <extensions><gpxtpx:TrackPointExtension><gpxtpx:hr>98</gpxtpx:hr></gpxtpx:TrackPointExtension></extensions>
      </trkpt>
      <trkpt lat="60.004501455702" lon="15.771494603089">
        <ele>123.8</ele>
        <time>2015-01-14T21:51:01Z</time>
        <extensions><gpxtpx:TrackPointExtension><gpxtpx:hr>96</gpxtpx:hr></gpxtpx:TrackPointExtension></extensions>
      </trkpt>
      <trkpt lat="60.004530373257" lon="15.77149116651">
        <ele>123.6</ele>
        <time>2015-01-14T21:51:19Z</time>
        <extensions><gpxtpx:TrackPointExtension><gpxtpx:hr>98</gpxtpx:hr></gpxtpx:TrackPointExtension></extensions>
      </trkpt>
      <trkpt lat="60.004534648026" lon="15.77148949013">
        <ele>123.6</ele>
        <time>2015-01-14T21:51:21Z</time>
        <extensions><gpxtpx:TrackPointExtension><gpxtpx:hr>101</gpxtpx:hr></gpxtpx:TrackPointExtension></extensions>
      </trkpt>
      <trkpt lat="60.004541185908" lon="15.771486807922">
        <ele>123.6</ele>
        <time>2015-01-14T21:51:24Z</time>
        <extensions><gpxtpx:TrackPointExtension><gpxtpx:hr>104</gpxtpx:hr></gpxtpx:TrackPointExtension></extensions>
      </trkpt>
      <trkpt lat="60.00455275293" lon="15.771487478474">
        <ele>123.6</ele>
        <time>2015-01-14T21:51:28Z</time>
        <extensions><gpxtpx:TrackPointExtension><gpxtpx:hr>101</gpxtpx:hr></gpxtpx:TrackPointExtension></extensions>
      </trkpt>
      <trkpt lat="60.004553842577" lon="15.771493010528">
        <ele>123.6</ele>
        <time>2015-01-14T21:51:30Z</time>
        <extensions><gpxtpx:TrackPointExtension><gpxtpx:hr>100</gpxtpx:hr></gpxtpx:TrackPointExtension></extensions>
      </trkpt>
      <trkpt lat="60.004522745728" lon="15.771500302781">
        <ele>123.6</ele>
        <time>2015-01-14T21:51:42Z</time>
        <extensions><gpxtpx:TrackPointExtension><gpxtpx:hr>97</gpxtpx:hr></gpxtpx:TrackPointExtension></extensions>
      </trkpt>
      <trkpt lat="60.004519560606" lon="15.771500302781">
        <ele>123.6</ele>
        <time>2015-01-14T21:51:44Z</time>
        <extensions><gpxtpx:TrackPointExtension><gpxtpx:hr>98</gpxtpx:hr></gpxtpx:TrackPointExtension></extensions>
      </trkpt>
      <trkpt lat="60.004504389367" lon="15.771501057152">
        <ele>123.8</ele>
        <time>2015-01-14T21:51:53Z</time>
        <extensions><gpxtpx:TrackPointExtension><gpxtpx:hr>100</gpxtpx:hr></gpxtpx:TrackPointExtension></extensions>
      </trkpt>
      <trkpt lat="60.004499360227" lon="15.771496111831">
        <ele>124</ele>
        <time>2015-01-14T21:52:00Z</time>
        <extensions><gpxtpx:TrackPointExtension><gpxtpx:hr>100</gpxtpx:hr></gpxtpx:TrackPointExtension></extensions>
      </trkpt>
      <trkpt lat="60.00449994696" lon="15.771495525098">
        <ele>123.8</ele>
        <time>2015-01-14T21:52:03Z</time>
        <extensions><gpxtpx:TrackPointExtension><gpxtpx:hr>104</gpxtpx:hr></gpxtpx:TrackPointExtension></extensions>
      </trkpt>
      <trkpt lat="60.004502042435" lon="15.771499799867">
        <ele>123.8</ele>
        <time>2015-01-14T21:52:07Z</time>
        <extensions><gpxtpx:TrackPointExtension><gpxtpx:hr>104</gpxtpx:hr></gpxtpx:TrackPointExtension></extensions>
      </trkpt>
      <trkpt lat="60.004501539521" lon="15.771496866202">
        <ele>123.8</ele>
        <time>2015-01-14T21:52:10Z</time>
        <extensions><gpxtpx:TrackPointExtension><gpxtpx:hr>99</gpxtpx:hr></gpxtpx:TrackPointExtension></extensions>
      </trkpt>
      <trkpt lat="60.00450246153" lon="15.771494603089">
        <ele>123.8</ele>
        <time>2015-01-14T21:52:15Z</time>
        <extensions><gpxtpx:TrackPointExtension><gpxtpx:hr>104</gpxtpx:hr></gpxtpx:TrackPointExtension></extensions>
      </trkpt>
      <trkpt lat="60.004514447647" lon="15.771473396882">
        <ele>123.8</ele>
        <time>2015-01-14T21:52:25Z</time>
        <extensions><gpxtpx:TrackPointExtension><gpxtpx:hr>105</gpxtpx:hr></gpxtpx:TrackPointExtension></extensions>
      </trkpt>
      <trkpt lat="60.004524338289" lon="15.771457303634">
        <ele>123.6</ele>
        <time>2015-01-14T21:52:36Z</time>
        <extensions><gpxtpx:TrackPointExtension><gpxtpx:hr>105</gpxtpx:hr></gpxtpx:TrackPointExtension></extensions>
      </trkpt>
      <trkpt lat="60.004522661909" lon="15.77146266805">
        <ele>123.6</ele>
        <time>2015-01-14T21:52:45Z</time>
        <extensions><gpxtpx:TrackPointExtension><gpxtpx:hr>105</gpxtpx:hr></gpxtpx:TrackPointExtension></extensions>
      </trkpt>
      <trkpt lat="60.004522242814" lon="15.771472977787">
        <ele>123.8</ele>
        <time>2015-01-14T21:52:52Z</time>
        <extensions><gpxtpx:TrackPointExtension><gpxtpx:hr>101</gpxtpx:hr></gpxtpx:TrackPointExtension></extensions>
      </trkpt>
      <trkpt lat="60.004521153167" lon="15.771473983615">
        <ele>123.6</ele>
        <time>2015-01-14T21:52:55Z</time>
        <extensions><gpxtpx:TrackPointExtension><gpxtpx:hr>104</gpxtpx:hr></gpxtpx:TrackPointExtension></extensions>
      </trkpt>
      <trkpt lat="60.004520985529" lon="15.77147607909">
        <ele>123.6</ele>
        <time>2015-01-14T21:52:56Z</time>
        <extensions><gpxtpx:TrackPointExtension><gpxtpx:hr>106</gpxtpx:hr></gpxtpx:TrackPointExtension></extensions>
      </trkpt>
      <trkpt lat="60.004514866742" lon="15.771486221189">
        <ele>123.4</ele>
        <time>2015-01-14T21:53:05Z</time>
        <extensions><gpxtpx:TrackPointExtension><gpxtpx:hr>106</gpxtpx:hr></gpxtpx:TrackPointExtension></extensions>
      </trkpt>
      <trkpt lat="60.004516794579" lon="15.771482868429">
        <ele>123.4</ele>
        <time>2015-01-14T21:53:07Z</time>
        <extensions><gpxtpx:TrackPointExtension><gpxtpx:hr>101</gpxtpx:hr></gpxtpx:TrackPointExtension></extensions>
      </trkpt>
      <trkpt lat="60.004511094887" lon="15.771480856773">
        <ele>123.6</ele>
        <time>2015-01-14T21:53:11Z</time>
        <extensions><gpxtpx:TrackPointExtension><gpxtpx:hr>100</gpxtpx:hr></gpxtpx:TrackPointExtension></extensions>
      </trkpt>
      <trkpt lat="60.004503048263" lon="15.771475492357">
        <ele>123.6</ele>
        <time>2015-01-14T21:53:20Z</time>
        <extensions><gpxtpx:TrackPointExtension><gpxtpx:hr>97</gpxtpx:hr></gpxtpx:TrackPointExtension></extensions>
      </trkpt>
      <trkpt lat="60.00449827058" lon="15.771472307235">
        <ele>123.6</ele>
        <time>2015-01-14T21:53:27Z</time>
        <extensions><gpxtpx:TrackPointExtension><gpxtpx:hr>93</gpxtpx:hr></gpxtpx:TrackPointExtension></extensions>
      </trkpt>
      <trkpt lat="60.004491145965" lon="15.771472893968">
        <ele>123.6</ele>
        <time>2015-01-14T21:53:38Z</time>
        <extensions><gpxtpx:TrackPointExtension><gpxtpx:hr>92</gpxtpx:hr></gpxtpx:TrackPointExtension></extensions>
      </trkpt>
      <trkpt lat="60.004491816517" lon="15.771469122113">
        <ele>123.6</ele>
        <time>2015-01-14T21:53:43Z</time>
        <extensions><gpxtpx:TrackPointExtension><gpxtpx:hr>95</gpxtpx:hr></gpxtpx:TrackPointExtension></extensions>
      </trkpt>
      <trkpt lat="60.004492487069" lon="15.77146182986">
        <ele>123.6</ele>
        <time>2015-01-14T21:53:45Z</time>
        <extensions><gpxtpx:TrackPointExtension><gpxtpx:hr>99</gpxtpx:hr></gpxtpx:TrackPointExtension></extensions>
      </trkpt>
      <trkpt lat="60.004492570888" lon="15.771465601715">
        <ele>123.6</ele>
        <time>2015-01-14T21:53:47Z</time>
        <extensions><gpxtpx:TrackPointExtension><gpxtpx:hr>102</gpxtpx:hr></gpxtpx:TrackPointExtension></extensions>
      </trkpt>
      <trkpt lat="60.004493576716" lon="15.771470882312">
        <ele>123.8</ele>
        <time>2015-01-14T21:53:48Z</time>
        <extensions><gpxtpx:TrackPointExtension><gpxtpx:hr>102</gpxtpx:hr></gpxtpx:TrackPointExtension></extensions>
      </trkpt>
      <trkpt lat="60.004490559232" lon="15.771470798493">
        <ele>123.8</ele>
        <time>2015-01-14T21:53:51Z</time>
        <extensions><gpxtpx:TrackPointExtension><gpxtpx:hr>99</gpxtpx:hr></gpxtpx:TrackPointExtension></extensions>
      </trkpt>
      <trkpt lat="60.004486955015" lon="15.771475659995">
        <ele>123.8</ele>
        <time>2015-01-14T21:53:57Z</time>
        <extensions><gpxtpx:TrackPointExtension><gpxtpx:hr>98</gpxtpx:hr></gpxtpx:TrackPointExtension></extensions>
      </trkpt>
      <trkpt lat="60.00448485954" lon="15.771476498185">
        <ele>123.6</ele>
        <time>2015-01-14T21:54:02Z</time>
        <extensions><gpxtpx:TrackPointExtension><gpxtpx:hr>95</gpxtpx:hr></gpxtpx:TrackPointExtension></extensions>
      </trkpt>
      <trkpt lat="60.004483434617" lon="15.771475492357">
        <ele>123.6</ele>
        <time>2015-01-14T21:54:06Z</time>
        <extensions><gpxtpx:TrackPointExtension><gpxtpx:hr>98</gpxtpx:hr></gpxtpx:TrackPointExtension></extensions>
      </trkpt>
      <trkpt lat="60.004479243667" lon="15.771468619199">
        <ele>123.6</ele>
        <time>2015-01-14T21:54:11Z</time>
        <extensions><gpxtpx:TrackPointExtension><gpxtpx:hr>102</gpxtpx:hr></gpxtpx:TrackPointExtension></extensions>
      </trkpt>
      <trkpt lat="60.004474214527" lon="15.771472391054">
        <ele>123.6</ele>
        <time>2015-01-14T21:54:13Z</time>
        <extensions><gpxtpx:TrackPointExtension><gpxtpx:hr>103</gpxtpx:hr></gpxtpx:TrackPointExtension></extensions>
      </trkpt>
      <trkpt lat="60.004473543975" lon="15.771467613371">
        <ele>123.4</ele>
        <time>2015-01-14T21:54:16Z</time>
        <extensions><gpxtpx:TrackPointExtension><gpxtpx:hr>100</gpxtpx:hr></gpxtpx:TrackPointExtension></extensions>
      </trkpt>
      <trkpt lat="60.00447396307" lon="15.771466356086">
        <ele>123.6</ele>
        <time>2015-01-14T21:54:18Z</time>
        <extensions><gpxtpx:TrackPointExtension><gpxtpx:hr>97</gpxtpx:hr></gpxtpx:TrackPointExtension></extensions>
      </trkpt>
      <trkpt lat="60.004474382165" lon="15.771465517896">
        <ele>123.6</ele>
        <time>2015-01-14T21:54:19Z</time>
        <extensions><gpxtpx:TrackPointExtension><gpxtpx:hr>95</gpxtpx:hr></gpxtpx:TrackPointExtension></extensions>
      </trkpt>
      <trkpt lat="60.004483853712" lon="15.771447664449">
        <ele>123.6</ele>
        <time>2015-01-14T21:54:30Z</time>
        <extensions><gpxtpx:TrackPointExtension><gpxtpx:hr>96</gpxtpx:hr></gpxtpx:TrackPointExtension></extensions>
      </trkpt>
      <trkpt lat="60.004486955015" lon="15.771441294205">
        <ele>123.8</ele>
        <time>2015-01-14T21:54:37Z</time>
        <extensions><gpxtpx:TrackPointExtension><gpxtpx:hr>99</gpxtpx:hr></gpxtpx:TrackPointExtension></extensions>
      </trkpt>
      <trkpt lat="60.004488044662" lon="15.771443557318">
        <ele>123.6</ele>
        <time>2015-01-14T21:54:43Z</time>
        <extensions><gpxtpx:TrackPointExtension><gpxtpx:hr>100</gpxtpx:hr></gpxtpx:TrackPointExtension></extensions>
      </trkpt>
      <trkpt lat="60.004488631395" lon="15.771447077716">
        <ele>123.6</ele>
        <time>2015-01-14T21:54:47Z</time>
        <extensions><gpxtpx:TrackPointExtension><gpxtpx:hr>97</gpxtpx:hr></gpxtpx:TrackPointExtension></extensions>
      </trkpt>
      <trkpt lat="60.004492151793" lon="15.771457555091">
        <ele>123.6</ele>
        <time>2015-01-14T21:55:02Z</time>
        <extensions><gpxtpx:TrackPointExtension><gpxtpx:hr>97</gpxtpx:hr></gpxtpx:TrackPointExtension></extensions>
      </trkpt>
      <trkpt lat="60.004484188988" lon="15.771472474873">
        <ele>123.6</ele>
        <time>2015-01-14T21:55:21Z</time>
        <extensions><gpxtpx:TrackPointExtension><gpxtpx:hr>98</gpxtpx:hr></gpxtpx:TrackPointExtension></extensions>
      </trkpt>
      <trkpt lat="60.00448402135" lon="15.771476162909">
        <ele>123.6</ele>
        <time>2015-01-14T21:55:27Z</time>
        <extensions><gpxtpx:TrackPointExtension><gpxtpx:hr>95</gpxtpx:hr></gpxtpx:TrackPointExtension></extensions>
      </trkpt>
      <trkpt lat="60.00448737411" lon="15.771475827633">
        <ele>123.6</ele>
        <time>2015-01-14T21:55:31Z</time>
        <extensions><gpxtpx:TrackPointExtension><gpxtpx:hr>98</gpxtpx:hr></gpxtpx:TrackPointExtension></extensions>
      </trkpt>
      <trkpt lat="60.004485278635" lon="15.771475659995">
        <ele>123.4</ele>
        <time>2015-01-14T21:55:35Z</time>
        <extensions><gpxtpx:TrackPointExtension><gpxtpx:hr>101</gpxtpx:hr></gpxtpx:TrackPointExtension></extensions>
      </trkpt>
      <trkpt lat="60.004483937531" lon="15.771475073262">
        <ele>123.4</ele>
        <time>2015-01-14T21:55:38Z</time>
        <extensions><gpxtpx:TrackPointExtension><gpxtpx:hr>98</gpxtpx:hr></gpxtpx:TrackPointExtension></extensions>
      </trkpt>
      <trkpt lat="60.004479746581" lon="15.771485718275">
        <ele>123.2</ele>
        <time>2015-01-14T21:55:55Z</time>
        <extensions><gpxtpx:TrackPointExtension><gpxtpx:hr>98</gpxtpx:hr></gpxtpx:TrackPointExtension></extensions>
      </trkpt>
      <trkpt lat="60.00448234497" lon="15.771472307235">
        <ele>123.2</ele>
        <time>2015-01-14T21:56:10Z</time>
        <extensions><gpxtpx:TrackPointExtension><gpxtpx:hr>97</gpxtpx:hr></gpxtpx:TrackPointExtension></extensions>
      </trkpt>
      <trkpt lat="60.004482177332" lon="15.77147272633">
        <ele>123.2</ele>
        <time>2015-01-14T21:56:12Z</time>
        <extensions><gpxtpx:TrackPointExtension><gpxtpx:hr>94</gpxtpx:hr></gpxtpx:TrackPointExtension></extensions>
      </trkpt>
      <trkpt lat="60.004482261151" lon="15.771471385226">
        <ele>123.2</ele>
        <time>2015-01-14T21:56:19Z</time>
        <extensions><gpxtpx:TrackPointExtension><gpxtpx:hr>97</gpxtpx:hr></gpxtpx:TrackPointExtension></extensions>
      </trkpt>
      <trkpt lat="60.004482261151" lon="15.771466607543">
        <ele>123.2</ele>
        <time>2015-01-14T21:56:21Z</time>
        <extensions><gpxtpx:TrackPointExtension><gpxtpx:hr>100</gpxtpx:hr></gpxtpx:TrackPointExtension></extensions>
      </trkpt>
      <trkpt lat="60.004482764065" lon="15.771465350258">
        <ele>123.2</ele>
        <time>2015-01-14T21:56:22Z</time>
        <extensions><gpxtpx:TrackPointExtension><gpxtpx:hr>100</gpxtpx:hr></gpxtpx:TrackPointExtension></extensions>
      </trkpt>
      <trkpt lat="60.004490391594" lon="15.771468786837">
        <ele>123.2</ele>
        <time>2015-01-14T21:56:25Z</time>
        <extensions><gpxtpx:TrackPointExtension><gpxtpx:hr>99</gpxtpx:hr></gpxtpx:TrackPointExtension></extensions>
      </trkpt>
      <trkpt lat="60.00448988868" lon="15.771466942819">
        <ele>123.4</ele>
        <time>2015-01-14T21:56:27Z</time>
        <extensions><gpxtpx:TrackPointExtension><gpxtpx:hr>99</gpxtpx:hr></gpxtpx:TrackPointExtension></extensions>
      </trkpt>
      <trkpt lat="60.004489218128" lon="15.771459063833">
        <ele>123.4</ele>
        <time>2015-01-14T21:56:31Z</time>
        <extensions><gpxtpx:TrackPointExtension><gpxtpx:hr>96</gpxtpx:hr></gpxtpx:TrackPointExtension></extensions>
      </trkpt>
      <trkpt lat="60.00448988868" lon="15.771458812376">
        <ele>123.4</ele>
        <time>2015-01-14T21:56:32Z</time>
        <extensions><gpxtpx:TrackPointExtension><gpxtpx:hr>93</gpxtpx:hr></gpxtpx:TrackPointExtension></extensions>
      </trkpt>
      <trkpt lat="60.004488715214" lon="15.771457219815">
        <ele>123.4</ele>
        <time>2015-01-14T21:56:35Z</time>
        <extensions><gpxtpx:TrackPointExtension><gpxtpx:hr>90</gpxtpx:hr></gpxtpx:TrackPointExtension></extensions>
      </trkpt>
      <trkpt lat="60.00448737411" lon="15.771447915906">
        <ele>123.2</ele>
        <time>2015-01-14T21:56:49Z</time>
        <extensions><gpxtpx:TrackPointExtension><gpxtpx:hr>91</gpxtpx:hr></gpxtpx:TrackPointExtension></extensions>
      </trkpt>
      <trkpt lat="60.00448988868" lon="15.771446658621">
        <ele>123.2</ele>
        <time>2015-01-14T21:56:55Z</time>
        <extensions><gpxtpx:TrackPointExtension><gpxtpx:hr>94</gpxtpx:hr></gpxtpx:TrackPointExtension></extensions>
      </trkpt>
      <trkpt lat="60.004491816517" lon="15.771450765752">
        <ele>123.2</ele>
        <time>2015-01-14T21:56:58Z</time>
        <extensions><gpxtpx:TrackPointExtension><gpxtpx:hr>97</gpxtpx:hr></gpxtpx:TrackPointExtension></extensions>
      </trkpt>
      <trkpt lat="60.004491313603" lon="15.771455627254">
        <ele>123.6</ele>
        <time>2015-01-14T21:57:01Z</time>
        <extensions><gpxtpx:TrackPointExtension><gpxtpx:hr>100</gpxtpx:hr></gpxtpx:TrackPointExtension></extensions>
      </trkpt>
      <trkpt lat="60.004495001639" lon="15.771456381625">
        <ele>123.4</ele>
        <time>2015-01-14T21:57:04Z</time>
        <extensions><gpxtpx:TrackPointExtension><gpxtpx:hr>103</gpxtpx:hr></gpxtpx:TrackPointExtension></extensions>
      </trkpt>
      <trkpt lat="60.004492654707" lon="15.771463925335">
        <ele>123.2</ele>
        <time>2015-01-14T21:57:09Z</time>
        <extensions><gpxtpx:TrackPointExtension><gpxtpx:hr>101</gpxtpx:hr></gpxtpx:TrackPointExtension></extensions>
      </trkpt>
      <trkpt lat="60.004489972499" lon="15.771473983615">
        <ele>123.6</ele>
        <time>2015-01-14T21:57:14Z</time>
        <extensions><gpxtpx:TrackPointExtension><gpxtpx:hr>97</gpxtpx:hr></gpxtpx:TrackPointExtension></extensions>
      </trkpt>
      <trkpt lat="60.004491145965" lon="15.771479767126">
        <ele>123</ele>
        <time>2015-01-14T21:57:22Z</time>
        <extensions><gpxtpx:TrackPointExtension><gpxtpx:hr>100</gpxtpx:hr></gpxtpx:TrackPointExtension></extensions>
      </trkpt>
      <trkpt lat="60.00449156506" lon="15.771480186221">
        <ele>123</ele>
        <time>2015-01-14T21:57:25Z</time>
        <extensions><gpxtpx:TrackPointExtension><gpxtpx:hr>98</gpxtpx:hr></gpxtpx:TrackPointExtension></extensions>
      </trkpt>
      <trkpt lat="60.004491816517" lon="15.771479096574">
        <ele>123</ele>
        <time>2015-01-14T21:57:27Z</time>
        <extensions><gpxtpx:TrackPointExtension><gpxtpx:hr>94</gpxtpx:hr></gpxtpx:TrackPointExtension></extensions>
      </trkpt>
      <trkpt lat="60.004492570888" lon="15.771480521497">
        <ele>122.8</ele>
        <time>2015-01-14T21:57:37Z</time>
        <extensions><gpxtpx:TrackPointExtension><gpxtpx:hr>91</gpxtpx:hr></gpxtpx:TrackPointExtension></extensions>
      </trkpt>
      <trkpt lat="60.004492319431" lon="15.771482952248">
        <ele>122.8</ele>
        <time>2015-01-14T21:57:42Z</time>
        <extensions><gpxtpx:TrackPointExtension><gpxtpx:hr>94</gpxtpx:hr></gpxtpx:TrackPointExtension></extensions>
      </trkpt>
      <trkpt lat="60.004492067974" lon="15.771483790438">
        <ele>122.6</ele>
        <time>2015-01-14T21:57:44Z</time>
        <extensions><gpxtpx:TrackPointExtension><gpxtpx:hr>95</gpxtpx:hr></gpxtpx:TrackPointExtension></extensions>
      </trkpt>
      <trkpt lat="60.004491229784" lon="15.771479683307">
        <ele>122.6</ele>
        <time>2015-01-14T21:57:53Z</time>
        <extensions><gpxtpx:TrackPointExtension><gpxtpx:hr>98</gpxtpx:hr></gpxtpx:TrackPointExtension></extensions>
      </trkpt>
      <trkpt lat="60.004490894508" lon="15.771478006927">
        <ele>122.6</ele>
        <time>2015-01-14T21:57:56Z</time>
        <extensions><gpxtpx:TrackPointExtension><gpxtpx:hr>101</gpxtpx:hr></gpxtpx:TrackPointExtension></extensions>
      </trkpt>
      <trkpt lat="60.004487122653" lon="15.77147607909">
        <ele>122.6</ele>
        <time>2015-01-14T21:57:59Z</time>
        <extensions><gpxtpx:TrackPointExtension><gpxtpx:hr>98</gpxtpx:hr></gpxtpx:TrackPointExtension></extensions>
      </trkpt>
      <trkpt lat="60.004469185387" lon="15.771481862601">
        <ele>122.6</ele>
        <time>2015-01-14T21:58:04Z</time>
        <extensions><gpxtpx:TrackPointExtension><gpxtpx:hr>100</gpxtpx:hr></gpxtpx:TrackPointExtension></extensions>
      </trkpt>
      <trkpt lat="60.004467760464" lon="15.771485382999">
        <ele>122.6</ele>
        <time>2015-01-14T21:58:05Z</time>
        <extensions><gpxtpx:TrackPointExtension><gpxtpx:hr>100</gpxtpx:hr></gpxtpx:TrackPointExtension></extensions>
      </trkpt>
      <trkpt lat="60.004462731324" lon="15.771487981388">
        <ele>122.6</ele>
        <time>2015-01-14T21:58:12Z</time>
        <extensions><gpxtpx:TrackPointExtension><gpxtpx:hr>102</gpxtpx:hr></gpxtpx:TrackPointExtension></extensions>
      </trkpt>
      <trkpt lat="60.004462815143" lon="15.771490998872">
        <ele>122.6</ele>
        <time>2015-01-14T21:58:14Z</time>
        <extensions><gpxtpx:TrackPointExtension><gpxtpx:hr>105</gpxtpx:hr></gpxtpx:TrackPointExtension></extensions>
      </trkpt>
      <trkpt lat="60.004456780175" lon="15.771494770727">
        <ele>122.6</ele>
        <time>2015-01-14T21:58:19Z</time>
        <extensions><gpxtpx:TrackPointExtension><gpxtpx:hr>108</gpxtpx:hr></gpxtpx:TrackPointExtension></extensions>
      </trkpt>
      <trkpt lat="60.004456947813" lon="15.771494016356">
        <ele>121.8</ele>
        <time>2015-01-14T21:58:23Z</time>
        <extensions><gpxtpx:TrackPointExtension><gpxtpx:hr>104</gpxtpx:hr></gpxtpx:TrackPointExtension></extensions>
      </trkpt>
      <trkpt lat="60.004454181786" lon="15.771493094347">
        <ele>121.6</ele>
        <time>2015-01-14T21:58:25Z</time>
        <extensions><gpxtpx:TrackPointExtension><gpxtpx:hr>98</gpxtpx:hr></gpxtpx:TrackPointExtension></extensions>
      </trkpt>
      <trkpt lat="60.004442530945" lon="15.771460237299">
        <ele>121.8</ele>
        <time>2015-01-14T21:58:28Z</time>
        <extensions><gpxtpx:TrackPointExtension><gpxtpx:hr>96</gpxtpx:hr></gpxtpx:TrackPointExtension></extensions>
      </trkpt>
      <trkpt lat="60.004441860393" lon="15.771418160161">
        <ele>121.8</ele>
        <time>2015-01-14T21:58:30Z</time>
        <extensions><gpxtpx:TrackPointExtension><gpxtpx:hr>96</gpxtpx:hr></gpxtpx:TrackPointExtension></extensions>
      </trkpt>
      <trkpt lat="60.004453595053" lon="15.771401815456">
        <ele>121.8</ele>
        <time>2015-01-14T21:58:31Z</time>
        <extensions><gpxtpx:TrackPointExtension><gpxtpx:hr>94</gpxtpx:hr></gpxtpx:TrackPointExtension></extensions>
      </trkpt>
      <trkpt lat="60.004457283089" lon="15.771394942298">
        <ele>121.6</ele>
        <time>2015-01-14T21:58:35Z</time>
        <extensions><gpxtpx:TrackPointExtension><gpxtpx:hr>95</gpxtpx:hr></gpxtpx:TrackPointExtension></extensions>
      </trkpt>
      <trkpt lat="60.004454936157" lon="15.771402569827">
        <ele>121.6</ele>
        <time>2015-01-14T21:58:37Z</time>
        <extensions><gpxtpx:TrackPointExtension><gpxtpx:hr>98</gpxtpx:hr></gpxtpx:TrackPointExtension></extensions>
      </trkpt>
      <trkpt lat="60.004454936157" lon="15.771402569827">
        <ele>121.4</ele>
        <time>2015-01-14T21:58:38Z</time>
        <extensions><gpxtpx:TrackPointExtension><gpxtpx:hr>99</gpxtpx:hr></gpxtpx:TrackPointExtension></extensions>
      </trkpt>
      <trkpt lat="60.004477818744" lon="15.77140231837">
        <ele>121.4</ele>
        <time>2015-01-14T21:58:40Z</time>
        <extensions><gpxtpx:TrackPointExtension><gpxtpx:hr>101</gpxtpx:hr></gpxtpx:TrackPointExtension></extensions>
      </trkpt>
      <trkpt lat="60.004505730471" lon="15.771416399962">
        <ele>121.6</ele>
        <time>2015-01-14T21:58:41Z</time>
        <extensions><gpxtpx:TrackPointExtension><gpxtpx:hr>101</gpxtpx:hr></gpxtpx:TrackPointExtension></extensions>
      </trkpt>
      <trkpt lat="60.004664651295" lon="15.771341214319">
        <ele>121.8</ele>
        <time>2015-01-14T21:58:45Z</time>
        <extensions><gpxtpx:TrackPointExtension><gpxtpx:hr>100</gpxtpx:hr></gpxtpx:TrackPointExtension></extensions>
      </trkpt>
      <trkpt lat="60.00475894767" lon="15.771147340972">
        <ele>121.8</ele>
        <time>2015-01-14T21:58:47Z</time>
        <extensions><gpxtpx:TrackPointExtension><gpxtpx:hr>97</gpxtpx:hr></gpxtpx:TrackPointExtension></extensions>
      </trkpt>
      <trkpt lat="60.004832205476" lon="15.770919437111">
        <ele>122</ele>
        <time>2015-01-14T21:58:49Z</time>
        <extensions><gpxtpx:TrackPointExtension><gpxtpx:hr>97</gpxtpx:hr></gpxtpx:TrackPointExtension></extensions>
      </trkpt>
      <trkpt lat="60.004918539046" lon="15.770749871274">
        <ele>122</ele>
        <time>2015-01-14T21:58:51Z</time>
        <extensions><gpxtpx:TrackPointExtension><gpxtpx:hr>97</gpxtpx:hr></gpxtpx:TrackPointExtension></extensions>
      </trkpt>
      <trkpt lat="60.005034125447" lon="15.770622466394">
        <ele>122</ele>
        <time>2015-01-14T21:58:53Z</time>
        <extensions><gpxtpx:TrackPointExtension><gpxtpx:hr>96</gpxtpx:hr></gpxtpx:TrackPointExtension></extensions>
      </trkpt>
      <trkpt lat="60.00526521443" lon="15.770465305769">
        <ele>122</ele>
        <time>2015-01-14T21:58:56Z</time>
        <extensions><gpxtpx:TrackPointExtension><gpxtpx:hr>93</gpxtpx:hr></gpxtpx:TrackPointExtension></extensions>
      </trkpt>
      <trkpt lat="60.005353894932" lon="15.770427419581">
        <ele>122</ele>
        <time>2015-01-14T21:58:57Z</time>
        <extensions><gpxtpx:TrackPointExtension><gpxtpx:hr>93</gpxtpx:hr></gpxtpx:TrackPointExtension></extensions>
      </trkpt>
      <trkpt lat="60.005650195097" lon="15.770319795985">
        <ele>121</ele>
        <time>2015-01-14T21:59:01Z</time>
        <extensions><gpxtpx:TrackPointExtension><gpxtpx:hr>93</gpxtpx:hr></gpxtpx:TrackPointExtension></extensions>
      </trkpt>
      <trkpt lat="60.005713226985" lon="15.770313425741">
        <ele>120.8</ele>
        <time>2015-01-14T21:59:02Z</time>
        <extensions><gpxtpx:TrackPointExtension><gpxtpx:hr>93</gpxtpx:hr></gpxtpx:TrackPointExtension></extensions>
      </trkpt>
      <trkpt lat="60.005772989932" lon="15.770319879804">
        <ele>120.2</ele>
        <time>2015-01-14T21:59:03Z</time>
        <extensions><gpxtpx:TrackPointExtension><gpxtpx:hr>93</gpxtpx:hr></gpxtpx:TrackPointExtension></extensions>
      </trkpt>
      <trkpt lat="60.005899221346" lon="15.770343432943">
        <ele>119.6</ele>
        <time>2015-01-14T21:59:05Z</time>
        <extensions><gpxtpx:TrackPointExtension><gpxtpx:hr>96</gpxtpx:hr></gpxtpx:TrackPointExtension></extensions>
      </trkpt>
      <trkpt lat="60.005947584909" lon="15.770368159548">
        <ele>119.6</ele>
        <time>2015-01-14T21:59:06Z</time>
        <extensions><gpxtpx:TrackPointExtension><gpxtpx:hr>96</gpxtpx:hr></gpxtpx:TrackPointExtension></extensions>
      </trkpt>
      <trkpt lat="60.005982453613" lon="15.770392718515">
        <ele>119.2</ele>
        <time>2015-01-14T21:59:07Z</time>
        <extensions><gpxtpx:TrackPointExtension><gpxtpx:hr>96</gpxtpx:hr></gpxtpx:TrackPointExtension></extensions>
      </trkpt>
      <trkpt lat="60.006028554063" lon="15.770507802002">
        <ele>118.8</ele>
        <time>2015-01-14T21:59:09Z</time>
        <extensions><gpxtpx:TrackPointExtension><gpxtpx:hr>97</gpxtpx:hr></gpxtpx:TrackPointExtension></extensions>
      </trkpt>
      <trkpt lat="60.006049005899" lon="15.77094550482">
        <ele>118.2</ele>
        <time>2015-01-14T21:59:12Z</time>
        <extensions><gpxtpx:TrackPointExtension><gpxtpx:hr>96</gpxtpx:hr></gpxtpx:TrackPointExtension></extensions>
      </trkpt>
      <trkpt lat="60.006049341175" lon="15.771413298659">
        <ele>118.6</ele>
        <time>2015-01-14T21:59:15Z</time>
        <extensions><gpxtpx:TrackPointExtension><gpxtpx:hr>99</gpxtpx:hr></gpxtpx:TrackPointExtension></extensions>
      </trkpt>
      <trkpt lat="60.0060137181" lon="15.771745473356">
        <ele>118.6</ele>
        <time>2015-01-14T21:59:17Z</time>
        <extensions><gpxtpx:TrackPointExtension><gpxtpx:hr>102</gpxtpx:hr></gpxtpx:TrackPointExtension></extensions>
      </trkpt>
      <trkpt lat="60.005940879389" lon="15.772045713014">
        <ele>118.2</ele>
        <time>2015-01-14T21:59:19Z</time>
        <extensions><gpxtpx:TrackPointExtension><gpxtpx:hr>103</gpxtpx:hr></gpxtpx:TrackPointExtension></extensions>
      </trkpt>
      <trkpt lat="60.005893102559" lon="15.772194240282">
        <ele>117.8</ele>
        <time>2015-01-14T21:59:20Z</time>
        <extensions><gpxtpx:TrackPointExtension><gpxtpx:hr>103</gpxtpx:hr></gpxtpx:TrackPointExtension></extensions>
      </trkpt>
      <trkpt lat="60.005825795902" lon="15.772335391478">
        <ele>117.4</ele>
        <time>2015-01-14T21:59:21Z</time>
        <extensions><gpxtpx:TrackPointExtension><gpxtpx:hr>102</gpxtpx:hr></gpxtpx:TrackPointExtension></extensions>
      </trkpt>
      <trkpt lat="60.005679950842" lon="15.77256991704">
        <ele>116.6</ele>
        <time>2015-01-14T21:59:23Z</time>
        <extensions><gpxtpx:TrackPointExtension><gpxtpx:hr>101</gpxtpx:hr></gpxtpx:TrackPointExtension></extensions>
      </trkpt>
      <trkpt lat="60.005457076121" lon="15.77286747449">
        <ele>116</ele>
        <time>2015-01-14T21:59:26Z</time>
        <extensions><gpxtpx:TrackPointExtension><gpxtpx:hr>98</gpxtpx:hr></gpxtpx:TrackPointExtension></extensions>
      </trkpt>
      <trkpt lat="60.005315589649" lon="15.773048272073">
        <ele>115.8</ele>
        <time>2015-01-14T21:59:28Z</time>
        <extensions><gpxtpx:TrackPointExtension><gpxtpx:hr>94</gpxtpx:hr></gpxtpx:TrackPointExtension></extensions>
      </trkpt>
      <trkpt lat="60.00516882258" lon="15.773237703013">
        <ele>115.6</ele>
        <time>2015-01-14T21:59:30Z</time>
        <extensions><gpxtpx:TrackPointExtension><gpxtpx:hr>92</gpxtpx:hr></gpxtpx:TrackPointExtension></extensions>
      </trkpt>
      <trkpt lat="60.004933961742" lon="15.773559987068">
        <ele>114.2</ele>
        <time>2015-01-14T21:59:33Z</time>
        <extensions><gpxtpx:TrackPointExtension><gpxtpx:hr>90</gpxtpx:hr></gpxtpx:TrackPointExtension></extensions>
      </trkpt>
      <trkpt lat="60.004840922652" lon="15.773687056672">
        <ele>113.8</ele>
        <time>2015-01-14T21:59:34Z</time>
        <extensions><gpxtpx:TrackPointExtension><gpxtpx:hr>89</gpxtpx:hr></gpxtpx:TrackPointExtension></extensions>
      </trkpt>
      <trkpt lat="60.004744446983" lon="15.773812449896">
        <ele>113</ele>
        <time>2015-01-14T21:59:35Z</time>
        <extensions><gpxtpx:TrackPointExtension><gpxtpx:hr>89</gpxtpx:hr></gpxtpx:TrackPointExtension></extensions>
      </trkpt>
      <trkpt lat="60.004509669964" lon="15.774120736178">
        <ele>111.8</ele>
        <time>2015-01-14T21:59:38Z</time>
        <extensions><gpxtpx:TrackPointExtension><gpxtpx:hr>89</gpxtpx:hr></gpxtpx:TrackPointExtension></extensions>
      </trkpt>
      <trkpt lat="60.004372625899" lon="15.774314274249">
        <ele>111.6</ele>
        <time>2015-01-14T21:59:40Z</time>
        <extensions><gpxtpx:TrackPointExtension><gpxtpx:hr>90</gpxtpx:hr></gpxtpx:TrackPointExtension></extensions>
      </trkpt>
      <trkpt lat="60.004294171315" lon="15.774457353282">
        <ele>111.4</ele>
        <time>2015-01-14T21:59:41Z</time>
        <extensions><gpxtpx:TrackPointExtension><gpxtpx:hr>90</gpxtpx:hr></gpxtpx:TrackPointExtension></extensions>
      </trkpt>
      <trkpt lat="60.004196186904" lon="15.774712833594">
        <ele>111.4</ele>
        <time>2015-01-14T21:59:43Z</time>
        <extensions><gpxtpx:TrackPointExtension><gpxtpx:hr>89</gpxtpx:hr></gpxtpx:TrackPointExtension></extensions>
      </trkpt>
      <trkpt lat="60.004134160844" lon="15.774986586448">
        <ele>111.4</ele>
        <time>2015-01-14T21:59:45Z</time>
        <extensions><gpxtpx:TrackPointExtension><gpxtpx:hr>90</gpxtpx:hr></gpxtpx:TrackPointExtension></extensions>
      </trkpt>
      <trkpt lat="60.004068530567" lon="15.775436275383">
        <ele>111.4</ele>
        <time>2015-01-14T21:59:48Z</time>
        <extensions><gpxtpx:TrackPointExtension><gpxtpx:hr>92</gpxtpx:hr></gpxtpx:TrackPointExtension></extensions>
      </trkpt>
      <trkpt lat="60.003982448454" lon="15.77588244392">
        <ele>110.8</ele>
        <time>2015-01-14T21:59:51Z</time>
        <extensions><gpxtpx:TrackPointExtension><gpxtpx:hr>91</gpxtpx:hr></gpxtpx:TrackPointExtension></extensions>
      </trkpt>
      <trkpt lat="60.00394171242" lon="15.776020493813">
        <ele>110.8</ele>
        <time>2015-01-14T21:59:52Z</time>
        <extensions><gpxtpx:TrackPointExtension><gpxtpx:hr>91</gpxtpx:hr></gpxtpx:TrackPointExtension></extensions>
      </trkpt>
      <trkpt lat="60.003880859826" lon="15.776129793789">
        <ele>110.8</ele>
        <time>2015-01-14T21:59:53Z</time>
        <extensions><gpxtpx:TrackPointExtension><gpxtpx:hr>91</gpxtpx:hr></gpxtpx:TrackPointExtension></extensions>
      </trkpt>
      <trkpt lat="60.003750269824" lon="15.776330791751">
        <ele>111.4</ele>
        <time>2015-01-14T21:59:55Z</time>
        <extensions><gpxtpx:TrackPointExtension><gpxtpx:hr>93</gpxtpx:hr></gpxtpx:TrackPointExtension></extensions>
      </trkpt>
      <trkpt lat="60.003616327062" lon="15.776503961805">
        <ele>112</ele>
        <time>2015-01-14T21:59:57Z</time>
        <extensions><gpxtpx:TrackPointExtension><gpxtpx:hr>94</gpxtpx:hr></gpxtpx:TrackPointExtension></extensions>
      </trkpt>
      <trkpt lat="60.003308711332" lon="15.776894055431">
        <ele>112.6</ele>
        <time>2015-01-14T22:00:02Z</time>
        <extensions><gpxtpx:TrackPointExtension><gpxtpx:hr>92</gpxtpx:hr></gpxtpx:TrackPointExtension></extensions>
      </trkpt>
      <trkpt lat="60.003278787949" lon="15.776945436478">
        <ele>112.6</ele>
        <time>2015-01-14T22:00:03Z</time>
        <extensions><gpxtpx:TrackPointExtension><gpxtpx:hr>92</gpxtpx:hr></gpxtpx:TrackPointExtension></extensions>
      </trkpt>
      <trkpt lat="60.003234950612" lon="15.777089018425">
        <ele>112.4</ele>
        <time>2015-01-14T22:00:05Z</time>
        <extensions><gpxtpx:TrackPointExtension><gpxtpx:hr>93</gpxtpx:hr></gpxtpx:TrackPointExtension></extensions>
      </trkpt>
      <trkpt lat="60.003240901761" lon="15.777255315321">
        <ele>112.4</ele>
        <time>2015-01-14T22:00:07Z</time>
        <extensions><gpxtpx:TrackPointExtension><gpxtpx:hr>93</gpxtpx:hr></gpxtpx:TrackPointExtension></extensions>
      </trkpt>
      <trkpt lat="60.003281302519" lon="15.777400322191">
        <ele>112.2</ele>
        <time>2015-01-14T22:00:09Z</time>
        <extensions><gpxtpx:TrackPointExtension><gpxtpx:hr>93</gpxtpx:hr></gpxtpx:TrackPointExtension></extensions>
      </trkpt>
      <trkpt lat="60.003435697117" lon="15.777840036665">
        <ele>111.4</ele>
        <time>2015-01-14T22:00:13Z</time>
        <extensions><gpxtpx:TrackPointExtension><gpxtpx:hr>89</gpxtpx:hr></gpxtpx:TrackPointExtension></extensions>
      </trkpt>
      <trkpt lat="60.003516163357" lon="15.778063079024">
        <ele>110.8</ele>
        <time>2015-01-14T22:00:15Z</time>
        <extensions><gpxtpx:TrackPointExtension><gpxtpx:hr>87</gpxtpx:hr></gpxtpx:TrackPointExtension></extensions>
      </trkpt>
      <trkpt lat="60.003634599604" lon="15.77846993645">
        <ele>109</ele>
        <time>2015-01-14T22:00:19Z</time>
        <extensions><gpxtpx:TrackPointExtension><gpxtpx:hr>89</gpxtpx:hr></gpxtpx:TrackPointExtension></extensions>
      </trkpt>
      <trkpt lat="60.003615572691" lon="15.778660624675">
        <ele>107.6</ele>
        <time>2015-01-14T22:00:21Z</time>
        <extensions><gpxtpx:TrackPointExtension><gpxtpx:hr>87</gpxtpx:hr></gpxtpx:TrackPointExtension></extensions>
      </trkpt>
      <trkpt lat="60.003517839737" lon="15.778857347868">
        <ele>106.6</ele>
        <time>2015-01-14T22:00:23Z</time>
        <extensions><gpxtpx:TrackPointExtension><gpxtpx:hr>87</gpxtpx:hr></gpxtpx:TrackPointExtension></extensions>
      </trkpt>
      <trkpt lat="60.003452460917" lon="15.778954494089">
        <ele>106.6</ele>
        <time>2015-01-14T22:00:24Z</time>
        <extensions><gpxtpx:TrackPointExtension><gpxtpx:hr>87</gpxtpx:hr></gpxtpx:TrackPointExtension></extensions>
      </trkpt>
      <trkpt lat="60.00329379155" lon="15.779193378239">
        <ele>106.6</ele>
        <time>2015-01-14T22:00:26Z</time>
        <extensions><gpxtpx:TrackPointExtension><gpxtpx:hr>91</gpxtpx:hr></gpxtpx:TrackPointExtension></extensions>
      </trkpt>
      <trkpt lat="60.003130512138" lon="15.779416169141">
        <ele>106.8</ele>
        <time>2015-01-14T22:00:28Z</time>
        <extensions><gpxtpx:TrackPointExtension><gpxtpx:hr>94</gpxtpx:hr></gpxtpx:TrackPointExtension></extensions>
      </trkpt>
      <trkpt lat="60.002851143411" lon="15.779854961606">
        <ele>106.4</ele>
        <time>2015-01-14T22:00:32Z</time>
        <extensions><gpxtpx:TrackPointExtension><gpxtpx:hr>93</gpxtpx:hr></gpxtpx:TrackPointExtension></extensions>
      </trkpt>
      <trkpt lat="60.00281602325" lon="15.779956131139">
        <ele>106.2</ele>
        <time>2015-01-14T22:00:33Z</time>
        <extensions><gpxtpx:TrackPointExtension><gpxtpx:hr>92</gpxtpx:hr></gpxtpx:TrackPointExtension></extensions>
      </trkpt>
      <trkpt lat="60.002764306927" lon="15.780253269494">
        <ele>105.6</ele>
        <time>2015-01-14T22:00:35Z</time>
        <extensions><gpxtpx:TrackPointExtension><gpxtpx:hr>92</gpxtpx:hr></gpxtpx:TrackPointExtension></extensions>
      </trkpt>
      <trkpt lat="60.002753159" lon="15.780390565016">
        <ele>105.4</ele>
        <time>2015-01-14T22:00:36Z</time>
        <extensions><gpxtpx:TrackPointExtension><gpxtpx:hr>92</gpxtpx:hr></gpxtpx:TrackPointExtension></extensions>
      </trkpt>
      <trkpt lat="60.002767156773" lon="15.780544372881">
        <ele>104.6</ele>
        <time>2015-01-14T22:00:37Z</time>
        <extensions><gpxtpx:TrackPointExtension><gpxtpx:hr>91</gpxtpx:hr></gpxtpx:TrackPointExtension></extensions>
      </trkpt>
      <trkpt lat="60.002784423487" lon="15.780685356439">
        <ele>104.4</ele>
        <time>2015-01-14T22:00:38Z</time>
        <extensions><gpxtpx:TrackPointExtension><gpxtpx:hr>91</gpxtpx:hr></gpxtpx:TrackPointExtension></extensions>
      </trkpt>
      <trkpt lat="60.002833122326" lon="15.780797003347">
        <ele>103.8</ele>
        <time>2015-01-14T22:00:39Z</time>
        <extensions><gpxtpx:TrackPointExtension><gpxtpx:hr>90</gpxtpx:hr></gpxtpx:TrackPointExtension></extensions>
      </trkpt>
      <trkpt lat="60.002904200838" lon="15.780972520333">
        <ele>103.4</ele>
        <time>2015-01-14T22:00:40Z</time>
        <extensions><gpxtpx:TrackPointExtension><gpxtpx:hr>89</gpxtpx:hr></gpxtpx:TrackPointExtension></extensions>
      </trkpt>
      <trkpt lat="60.002994892996" lon="15.781134291003">
        <ele>102.4</ele>
        <time>2015-01-14T22:00:41Z</time>
        <extensions><gpxtpx:TrackPointExtension><gpxtpx:hr>88</gpxtpx:hr></gpxtpx:TrackPointExtension></extensions>
      </trkpt>
      <trkpt lat="60.003069240449" lon="15.781289356153">
        <ele>102</ele>
        <time>2015-01-14T22:00:42Z</time>
        <extensions><gpxtpx:TrackPointExtension><gpxtpx:hr>89</gpxtpx:hr></gpxtpx:TrackPointExtension></extensions>
      </trkpt>
      <trkpt lat="60.003147862671" lon="15.781446097683">
        <ele>101</ele>
        <time>2015-01-14T22:00:43Z</time>
        <extensions><gpxtpx:TrackPointExtension><gpxtpx:hr>89</gpxtpx:hr></gpxtpx:TrackPointExtension></extensions>
      </trkpt>
      <trkpt lat="60.003280883424" lon="15.781793778895">
        <ele>99.8</ele>
        <time>2015-01-14T22:00:45Z</time>
        <extensions><gpxtpx:TrackPointExtension><gpxtpx:hr>91</gpxtpx:hr></gpxtpx:TrackPointExtension></extensions>
      </trkpt>
      <trkpt lat="60.003415999652" lon="15.782188398747">
        <ele>99.4</ele>
        <time>2015-01-14T22:00:47Z</time>
        <extensions><gpxtpx:TrackPointExtension><gpxtpx:hr>92</gpxtpx:hr></gpxtpx:TrackPointExtension></extensions>
      </trkpt>
      <trkpt lat="60.003533094795" lon="15.782724169795">
        <ele>99.2</ele>
        <time>2015-01-14T22:00:50Z</time>
        <extensions><gpxtpx:TrackPointExtension><gpxtpx:hr>90</gpxtpx:hr></gpxtpx:TrackPointExtension></extensions>
      </trkpt>
      <trkpt lat="60.003542314885" lon="15.782941093367">
        <ele>99.2</ele>
        <time>2015-01-14T22:00:51Z</time>
        <extensions><gpxtpx:TrackPointExtension><gpxtpx:hr>88</gpxtpx:hr></gpxtpx:TrackPointExtension></extensions>
      </trkpt>
      <trkpt lat="60.003521443954" lon="15.783688255933">
        <ele>99.2</ele>
        <time>2015-01-14T22:00:54Z</time>
        <extensions><gpxtpx:TrackPointExtension><gpxtpx:hr>88</gpxtpx:hr></gpxtpx:TrackPointExtension></extensions>
      </trkpt>
      <trkpt lat="60.003490263286" lon="15.783893947759">
        <ele>98.8</ele>
        <time>2015-01-14T22:00:55Z</time>
        <extensions><gpxtpx:TrackPointExtension><gpxtpx:hr>90</gpxtpx:hr></gpxtpx:TrackPointExtension></extensions>
      </trkpt>
      <trkpt lat="60.003468637984" lon="15.784300134633">
        <ele>97.8</ele>
        <time>2015-01-14T22:00:57Z</time>
        <extensions><gpxtpx:TrackPointExtension><gpxtpx:hr>93</gpxtpx:hr></gpxtpx:TrackPointExtension></extensions>
      </trkpt>
      <trkpt lat="60.00345640041" lon="15.784508760124">
        <ele>97.8</ele>
        <time>2015-01-14T22:00:58Z</time>
        <extensions><gpxtpx:TrackPointExtension><gpxtpx:hr>95</gpxtpx:hr></gpxtpx:TrackPointExtension></extensions>
      </trkpt>
      <trkpt lat="60.003573160277" lon="15.784715876873">
        <ele>97.4</ele>
        <time>2015-01-14T22:01:00Z</time>
        <extensions><gpxtpx:TrackPointExtension><gpxtpx:hr>94</gpxtpx:hr></gpxtpx:TrackPointExtension></extensions>
      </trkpt>
      <trkpt lat="60.003678185484" lon="15.785097756237">
        <ele>97.2</ele>
        <time>2015-01-14T22:01:01Z</time>
        <extensions><gpxtpx:TrackPointExtension><gpxtpx:hr>94</gpxtpx:hr></gpxtpx:TrackPointExtension></extensions>
      </trkpt>
      <trkpt lat="60.003732919291" lon="15.785275620155">
        <ele>97.2</ele>
        <time>2015-01-14T22:01:02Z</time>
        <extensions><gpxtpx:TrackPointExtension><gpxtpx:hr>90</gpxtpx:hr></gpxtpx:TrackPointExtension></extensions>
      </trkpt>
      <trkpt lat="60.003869376623" lon="15.785805691511">
        <ele>97.2</ele>
        <time>2015-01-14T22:01:05Z</time>
        <extensions><gpxtpx:TrackPointExtension><gpxtpx:hr>90</gpxtpx:hr></gpxtpx:TrackPointExtension></extensions>
      </trkpt>
      <trkpt lat="60.003823192354" lon="15.786160664976">
        <ele>97.4</ele>
        <time>2015-01-14T22:01:07Z</time>
        <extensions><gpxtpx:TrackPointExtension><gpxtpx:hr>90</gpxtpx:hr></gpxtpx:TrackPointExtension></extensions>
      </trkpt>
      <trkpt lat="60.003778768284" lon="15.786457384236">
        <ele>98</ele>
        <time>2015-01-14T22:01:09Z</time>
        <extensions><gpxtpx:TrackPointExtension><gpxtpx:hr>87</gpxtpx:hr></gpxtpx:TrackPointExtension></extensions>
      </trkpt>
      <trkpt lat="60.003679526588" lon="15.786559224321">
        <ele>98.8</ele>
        <time>2015-01-14T22:01:10Z</time>
        <extensions><gpxtpx:TrackPointExtension><gpxtpx:hr>86</gpxtpx:hr></gpxtpx:TrackPointExtension></extensions>
      </trkpt>
      <trkpt lat="60.003581039263" lon="15.786700207879">
        <ele>99.4</ele>
        <time>2015-01-14T22:01:11Z</time>
        <extensions><gpxtpx:TrackPointExtension><gpxtpx:hr>86</gpxtpx:hr></gpxtpx:TrackPointExtension></extensions>
      </trkpt>
      <trkpt lat="60.003509290199" lon="15.786825517284">
        <ele>99.8</ele>
        <time>2015-01-14T22:01:12Z</time>
        <extensions><gpxtpx:TrackPointExtension><gpxtpx:hr>87</gpxtpx:hr></gpxtpx:TrackPointExtension></extensions>
      </trkpt>
      <trkpt lat="60.003323212019" lon="15.787028191626">
        <ele>101</ele>
        <time>2015-01-14T22:01:13Z</time>
        <extensions><gpxtpx:TrackPointExtension><gpxtpx:hr>88</gpxtpx:hr></gpxtpx:TrackPointExtension></extensions>
      </trkpt>
      <trkpt lat="60.003207038885" lon="15.787221226783">
        <ele>101.6</ele>
        <time>2015-01-14T22:01:14Z</time>
        <extensions><gpxtpx:TrackPointExtension><gpxtpx:hr>89</gpxtpx:hr></gpxtpx:TrackPointExtension></extensions>
      </trkpt>
      <trkpt lat="60.003073766675" lon="15.787417363243">
        <ele>102.2</ele>
        <time>2015-01-14T22:01:15Z</time>
        <extensions><gpxtpx:TrackPointExtension><gpxtpx:hr>89</gpxtpx:hr></gpxtpx:TrackPointExtension></extensions>
      </trkpt>
      <trkpt lat="60.00280093583" lon="15.787879960304">
        <ele>104.2</ele>
        <time>2015-01-14T22:01:17Z</time>
        <extensions><gpxtpx:TrackPointExtension><gpxtpx:hr>88</gpxtpx:hr></gpxtpx:TrackPointExtension></extensions>
      </trkpt>
      <trkpt lat="60.002438418655" lon="15.788515392143">
        <ele>104.6</ele>
        <time>2015-01-14T22:01:21Z</time>
        <extensions><gpxtpx:TrackPointExtension><gpxtpx:hr>87</gpxtpx:hr></gpxtpx:TrackPointExtension></extensions>
      </trkpt>
      <trkpt lat="60.002246305507" lon="15.788898193516">
        <ele>103.8</ele>
        <time>2015-01-14T22:01:24Z</time>
        <extensions><gpxtpx:TrackPointExtension><gpxtpx:hr>90</gpxtpx:hr></gpxtpx:TrackPointExtension></extensions>
      </trkpt>
      <trkpt lat="60.002202132894" lon="15.789002045257">
        <ele>103.6</ele>
        <time>2015-01-14T22:01:25Z</time>
        <extensions><gpxtpx:TrackPointExtension><gpxtpx:hr>90</gpxtpx:hr></gpxtpx:TrackPointExtension></extensions>
      </trkpt>
      <trkpt lat="60.002151757675" lon="15.789181753193">
        <ele>103.4</ele>
        <time>2015-01-14T22:01:27Z</time>
        <extensions><gpxtpx:TrackPointExtension><gpxtpx:hr>90</gpxtpx:hr></gpxtpx:TrackPointExtension></extensions>
      </trkpt>
      <trkpt lat="60.002138178997" lon="15.789278647957">
        <ele>103.2</ele>
        <time>2015-01-14T22:01:28Z</time>
        <extensions><gpxtpx:TrackPointExtension><gpxtpx:hr>90</gpxtpx:hr></gpxtpx:TrackPointExtension></extensions>
      </trkpt>
      <trkpt lat="60.002176568099" lon="15.789382080603">
        <ele>103</ele>
        <time>2015-01-14T22:01:29Z</time>
        <extensions><gpxtpx:TrackPointExtension><gpxtpx:hr>91</gpxtpx:hr></gpxtpx:TrackPointExtension></extensions>
      </trkpt>
      <trkpt lat="60.002301458409" lon="15.7894963259">
        <ele>103</ele>
        <time>2015-01-14T22:01:31Z</time>
        <extensions><gpxtpx:TrackPointExtension><gpxtpx:hr>91</gpxtpx:hr></gpxtpx:TrackPointExtension></extensions>
      </trkpt>
      <trkpt lat="60.002376644052" lon="15.789522728885">
        <ele>103</ele>
        <time>2015-01-14T22:01:32Z</time>
        <extensions><gpxtpx:TrackPointExtension><gpxtpx:hr>92</gpxtpx:hr></gpxtpx:TrackPointExtension></extensions>
      </trkpt>
      <trkpt lat="60.002651654191" lon="15.789656839285">
        <ele>104</ele>
        <time>2015-01-14T22:01:35Z</time>
        <extensions><gpxtpx:TrackPointExtension><gpxtpx:hr>92</gpxtpx:hr></gpxtpx:TrackPointExtension></extensions>
      </trkpt>
      <trkpt lat="60.002735724648" lon="15.789743089036">
        <ele>104.2</ele>
        <time>2015-01-14T22:01:36Z</time>
        <extensions><gpxtpx:TrackPointExtension><gpxtpx:hr>92</gpxtpx:hr></gpxtpx:TrackPointExtension></extensions>
      </trkpt>
      <trkpt lat="60.002897076223" lon="15.789953474726">
        <ele>105</ele>
        <time>2015-01-14T22:01:39Z</time>
        <extensions><gpxtpx:TrackPointExtension><gpxtpx:hr>93</gpxtpx:hr></gpxtpx:TrackPointExtension></extensions>
      </trkpt>
      <trkpt lat="60.002977961558" lon="15.790157825448">
        <ele>105.4</ele>
        <time>2015-01-14T22:01:41Z</time>
        <extensions><gpxtpx:TrackPointExtension><gpxtpx:hr>94</gpxtpx:hr></gpxtpx:TrackPointExtension></extensions>
      </trkpt>
      <trkpt lat="60.003000005955" lon="15.790262012465">
        <ele>105.6</ele>
        <time>2015-01-14T22:01:42Z</time>
        <extensions><gpxtpx:TrackPointExtension><gpxtpx:hr>95</gpxtpx:hr></gpxtpx:TrackPointExtension></extensions>
      </trkpt>
      <trkpt lat="60.002966813631" lon="15.790374916658">
        <ele>105.8</ele>
        <time>2015-01-14T22:01:43Z</time>
        <extensions><gpxtpx:TrackPointExtension><gpxtpx:hr>95</gpxtpx:hr></gpxtpx:TrackPointExtension></extensions>
      </trkpt>
      <trkpt lat="60.002937393162" lon="15.790484719548">
        <ele>105.8</ele>
        <time>2015-01-14T22:01:44Z</time>
        <extensions><gpxtpx:TrackPointExtension><gpxtpx:hr>94</gpxtpx:hr></gpxtpx:TrackPointExtension></extensions>
      </trkpt>
      <trkpt lat="60.002839660208" lon="15.790577591">
        <ele>106.2</ele>
        <time>2015-01-14T22:01:45Z</time>
        <extensions><gpxtpx:TrackPointExtension><gpxtpx:hr>94</gpxtpx:hr></gpxtpx:TrackPointExtension></extensions>
      </trkpt>
      <trkpt lat="60.002750728249" lon="15.79067733561">
        <ele>106.2</ele>
        <time>2015-01-14T22:01:46Z</time>
        <extensions><gpxtpx:TrackPointExtension><gpxtpx:hr>93</gpxtpx:hr></gpxtpx:TrackPointExtension></extensions>
      </trkpt>
      <trkpt lat="60.002467839124" lon="15.790932229189">
        <ele>106.6</ele>
        <time>2015-01-14T22:01:48Z</time>
        <extensions><gpxtpx:TrackPointExtension><gpxtpx:hr>93</gpxtpx:hr></gpxtpx:TrackPointExtension></extensions>
      </trkpt>
      <trkpt lat="60.002160307213" lon="15.791234480503">
        <ele>106.8</ele>
        <time>2015-01-14T22:01:50Z</time>
        <extensions><gpxtpx:TrackPointExtension><gpxtpx:hr>94</gpxtpx:hr></gpxtpx:TrackPointExtension></extensions>
      </trkpt>
      <trkpt lat="60.00163668992" lon="15.791754577398">
        <ele>106.8</ele>
        <time>2015-01-14T22:01:53Z</time>
        <extensions><gpxtpx:TrackPointExtension><gpxtpx:hr>90</gpxtpx:hr></gpxtpx:TrackPointExtension></extensions>
      </trkpt>
      <trkpt lat="60.001310550191" lon="15.792136205305">
        <ele>106.4</ele>
        <time>2015-01-14T22:01:55Z</time>
        <extensions><gpxtpx:TrackPointExtension><gpxtpx:hr>89</gpxtpx:hr></gpxtpx:TrackPointExtension></extensions>
      </trkpt>
      <trkpt lat="60.001010729628" lon="15.792581368014">
        <ele>106.2</ele>
        <time>2015-01-14T22:01:57Z</time>
        <extensions><gpxtpx:TrackPointExtension><gpxtpx:hr>90</gpxtpx:hr></gpxtpx:TrackPointExtension></extensions>
      </trkpt>
      <trkpt lat="60.000744436665" lon="15.793099369434">
        <ele>106</ele>
        <time>2015-01-14T22:01:59Z</time>
        <extensions><gpxtpx:TrackPointExtension><gpxtpx:hr>89</gpxtpx:hr></gpxtpx:TrackPointExtension></extensions>
      </trkpt>
      <trkpt lat="60.000515443157" lon="15.79368392314">
        <ele>105.8</ele>
        <time>2015-01-14T22:02:01Z</time>
        <extensions><gpxtpx:TrackPointExtension><gpxtpx:hr>87</gpxtpx:hr></gpxtpx:TrackPointExtension></extensions>
      </trkpt>
      <trkpt lat="60.000340512904" lon="15.794245175164">
        <ele>105.4</ele>
        <time>2015-01-14T22:02:03Z</time>
        <extensions><gpxtpx:TrackPointExtension><gpxtpx:hr>86</gpxtpx:hr></gpxtpx:TrackPointExtension></extensions>
      </trkpt>
      <trkpt lat="60.000126439178" lon="15.795176655711">
        <ele>104.2</ele>
        <time>2015-01-14T22:02:06Z</time>
        <extensions><gpxtpx:TrackPointExtension><gpxtpx:hr>87</gpxtpx:hr></gpxtpx:TrackPointExtension></extensions>
      </trkpt>
      <trkpt lat="60.000089642637" lon="15.7954307111">
        <ele>103.6</ele>
        <time>2015-01-14T22:02:07Z</time>
        <extensions><gpxtpx:TrackPointExtension><gpxtpx:hr>87</gpxtpx:hr></gpxtpx:TrackPointExtension></extensions>
      </trkpt>
      <trkpt lat="60.000030214966" lon="15.795875035619">
        <ele>103</ele>
        <time>2015-01-14T22:02:09Z</time>
        <extensions><gpxtpx:TrackPointExtension><gpxtpx:hr>88</gpxtpx:hr></gpxtpx:TrackPointExtension></extensions>
      </trkpt>
      <trkpt lat="59.999945557776" lon="15.796314079541">
        <ele>102</ele>
        <time>2015-01-14T22:02:11Z</time>
        <extensions><gpxtpx:TrackPointExtension><gpxtpx:hr>91</gpxtpx:hr></gpxtpx:TrackPointExtension></extensions>
      </trkpt>
      <trkpt lat="59.999888728494" lon="15.796499487169">
        <ele>101.8</ele>
        <time>2015-01-14T22:02:12Z</time>
        <extensions><gpxtpx:TrackPointExtension><gpxtpx:hr>92</gpxtpx:hr></gpxtpx:TrackPointExtension></extensions>
      </trkpt>
      <trkpt lat="59.999825109873" lon="15.796705765728">
        <ele>101.6</ele>
        <time>2015-01-14T22:02:13Z</time>
        <extensions><gpxtpx:TrackPointExtension><gpxtpx:hr>93</gpxtpx:hr></gpxtpx:TrackPointExtension></extensions>
      </trkpt>
      <trkpt lat="59.999772974455" lon="15.797208260633">
        <ele>101.8</ele>
        <time>2015-01-14T22:02:15Z</time>
        <extensions><gpxtpx:TrackPointExtension><gpxtpx:hr>93</gpxtpx:hr></gpxtpx:TrackPointExtension></extensions>
      </trkpt>
      <trkpt lat="59.999713127689" lon="15.798122474466">
        <ele>102</ele>
        <time>2015-01-14T22:02:18Z</time>
        <extensions><gpxtpx:TrackPointExtension><gpxtpx:hr>92</gpxtpx:hr></gpxtpx:TrackPointExtension></extensions>
      </trkpt>
      <trkpt lat="59.999670463818" lon="15.798432604766">
        <ele>102</ele>
        <time>2015-01-14T22:02:19Z</time>
        <extensions><gpxtpx:TrackPointExtension><gpxtpx:hr>91</gpxtpx:hr></gpxtpx:TrackPointExtension></extensions>
      </trkpt>
      <trkpt lat="59.999521433636" lon="15.799434325635">
        <ele>102</ele>
        <time>2015-01-14T22:02:22Z</time>
        <extensions><gpxtpx:TrackPointExtension><gpxtpx:hr>91</gpxtpx:hr></gpxtpx:TrackPointExtension></extensions>
      </trkpt>
      <trkpt lat="59.999407355977" lon="15.800122982539">
        <ele>102.4</ele>
        <time>2015-01-14T22:02:24Z</time>
        <extensions><gpxtpx:TrackPointExtension><gpxtpx:hr>91</gpxtpx:hr></gpxtpx:TrackPointExtension></extensions>
      </trkpt>
      <trkpt lat="59.999220942521" lon="15.801069047592">
        <ele>102.8</ele>
        <time>2015-01-14T22:02:27Z</time>
        <extensions><gpxtpx:TrackPointExtension><gpxtpx:hr>91</gpxtpx:hr></gpxtpx:TrackPointExtension></extensions>
      </trkpt>
      <trkpt lat="59.999073840176" lon="15.80169366678">
        <ele>103</ele>
        <time>2015-01-14T22:02:29Z</time>
        <extensions><gpxtpx:TrackPointExtension><gpxtpx:hr>90</gpxtpx:hr></gpxtpx:TrackPointExtension></extensions>
      </trkpt>
      <trkpt lat="59.998891030937" lon="15.802344269858">
        <ele>103</ele>
        <time>2015-01-14T22:02:31Z</time>
        <extensions><gpxtpx:TrackPointExtension><gpxtpx:hr>87</gpxtpx:hr></gpxtpx:TrackPointExtension></extensions>
      </trkpt>
      <trkpt lat="59.998596323333" lon="15.803238618588">
        <ele>102.6</ele>
        <time>2015-01-14T22:02:34Z</time>
        <extensions><gpxtpx:TrackPointExtension><gpxtpx:hr>87</gpxtpx:hr></gpxtpx:TrackPointExtension></extensions>
      </trkpt>
      <trkpt lat="59.998202206395" lon="15.804154424982">
        <ele>101.8</ele>
        <time>2015-01-14T22:02:37Z</time>
        <extensions><gpxtpx:TrackPointExtension><gpxtpx:hr>89</gpxtpx:hr></gpxtpx:TrackPointExtension></extensions>
      </trkpt>
      <trkpt lat="59.997780932101" lon="15.804954812613">
        <ele>101</ele>
        <time>2015-01-14T22:02:40Z</time>
        <extensions><gpxtpx:TrackPointExtension><gpxtpx:hr>92</gpxtpx:hr></gpxtpx:TrackPointExtension></extensions>
      </trkpt>
      <trkpt lat="59.9974474163" lon="15.805489494014">
        <ele>100.6</ele>
        <time>2015-01-14T22:02:42Z</time>
        <extensions><gpxtpx:TrackPointExtension><gpxtpx:hr>90</gpxtpx:hr></gpxtpx:TrackPointExtension></extensions>
      </trkpt>
      <trkpt lat="59.99697970628" lon="15.806162141489">
        <ele>100</ele>
        <time>2015-01-14T22:02:45Z</time>
        <extensions><gpxtpx:TrackPointExtension><gpxtpx:hr>90</gpxtpx:hr></gpxtpx:TrackPointExtension></extensions>
      </trkpt>
      <trkpt lat="59.996822545655" lon="15.806380406165">
        <ele>99.8</ele>
        <time>2015-01-14T22:02:46Z</time>
        <extensions><gpxtpx:TrackPointExtension><gpxtpx:hr>90</gpxtpx:hr></gpxtpx:TrackPointExtension></extensions>
      </trkpt>
      <trkpt lat="59.996399511162" lon="15.806911064254">
        <ele>99.6</ele>
        <time>2015-01-14T22:02:49Z</time>
        <extensions><gpxtpx:TrackPointExtension><gpxtpx:hr>87</gpxtpx:hr></gpxtpx:TrackPointExtension></extensions>
      </trkpt>
      <trkpt lat="59.996260455441" lon="15.807093873493">
        <ele>99.8</ele>
        <time>2015-01-14T22:02:50Z</time>
        <extensions><gpxtpx:TrackPointExtension><gpxtpx:hr>87</gpxtpx:hr></gpxtpx:TrackPointExtension></extensions>
      </trkpt>
      <trkpt lat="59.995871786738" lon="15.807595194932">
        <ele>100.8</ele>
        <time>2015-01-14T22:02:53Z</time>
        <extensions><gpxtpx:TrackPointExtension><gpxtpx:hr>87</gpxtpx:hr></gpxtpx:TrackPointExtension></extensions>
      </trkpt>
      <trkpt lat="59.99566877712" lon="15.807856961669">
        <ele>101.8</ele>
        <time>2015-01-14T22:02:55Z</time>
        <extensions><gpxtpx:TrackPointExtension><gpxtpx:hr>86</gpxtpx:hr></gpxtpx:TrackPointExtension></extensions>
      </trkpt>
      <trkpt lat="59.995507509364" lon="15.808089224118">
        <ele>102.4</ele>
        <time>2015-01-14T22:02:57Z</time>
        <extensions><gpxtpx:TrackPointExtension><gpxtpx:hr>84</gpxtpx:hr></gpxtpx:TrackPointExtension></extensions>
      </trkpt>
      <trkpt lat="59.995336099509" lon="15.808222999242">
        <ele>102.6</ele>
        <time>2015-01-14T22:02:59Z</time>
        <extensions><gpxtpx:TrackPointExtension><gpxtpx:hr>86</gpxtpx:hr></gpxtpx:TrackPointExtension></extensions>
      </trkpt>
      <trkpt lat="59.995247838102" lon="15.808249234589">
        <ele>102.4</ele>
        <time>2015-01-14T22:03:00Z</time>
        <extensions><gpxtpx:TrackPointExtension><gpxtpx:hr>86</gpxtpx:hr></gpxtpx:TrackPointExtension></extensions>
      </trkpt>
      <trkpt lat="59.995170221708" lon="15.808308494622">
        <ele>102.2</ele>
        <time>2015-01-14T22:03:01Z</time>
        <extensions><gpxtpx:TrackPointExtension><gpxtpx:hr>86</gpxtpx:hr></gpxtpx:TrackPointExtension></extensions>
      </trkpt>
      <trkpt lat="59.995096544807" lon="15.808388038853">
        <ele>102</ele>
        <time>2015-01-14T22:03:02Z</time>
        <extensions><gpxtpx:TrackPointExtension><gpxtpx:hr>87</gpxtpx:hr></gpxtpx:TrackPointExtension></extensions>
      </trkpt>
      <trkpt lat="59.995043403561" lon="15.808524412366">
        <ele>101.8</ele>
        <time>2015-01-14T22:03:03Z</time>
        <extensions><gpxtpx:TrackPointExtension><gpxtpx:hr>87</gpxtpx:hr></gpxtpx:TrackPointExtension></extensions>
      </trkpt>
      <trkpt lat="59.99484232178" lon="15.808822221273">
        <ele>101.6</ele>
        <time>2015-01-14T22:03:05Z</time>
        <extensions><gpxtpx:TrackPointExtension><gpxtpx:hr>86</gpxtpx:hr></gpxtpx:TrackPointExtension></extensions>
      </trkpt>
      <trkpt lat="59.994373103018" lon="15.809349861878">
        <ele>102</ele>
        <time>2015-01-14T22:03:09Z</time>
        <extensions><gpxtpx:TrackPointExtension><gpxtpx:hr>86</gpxtpx:hr></gpxtpx:TrackPointExtension></extensions>
      </trkpt>
      <trkpt lat="59.99391528364" lon="15.809895523568">
        <ele>102</ele>
        <time>2015-01-14T22:03:12Z</time>
        <extensions><gpxtpx:TrackPointExtension><gpxtpx:hr>85</gpxtpx:hr></gpxtpx:TrackPointExtension></extensions>
      </trkpt>
      <trkpt lat="59.993623844977" lon="15.810248569196">
        <ele>101.8</ele>
        <time>2015-01-14T22:03:14Z</time>
        <extensions><gpxtpx:TrackPointExtension><gpxtpx:hr>85</gpxtpx:hr></gpxtpx:TrackPointExtension></extensions>
      </trkpt>
      <trkpt lat="59.993162672839" lon="15.810790123755">
        <ele>100.4</ele>
        <time>2015-01-14T22:03:17Z</time>
        <extensions><gpxtpx:TrackPointExtension><gpxtpx:hr>87</gpxtpx:hr></gpxtpx:TrackPointExtension></extensions>
      </trkpt>
      <trkpt lat="59.992903001577" lon="15.811085669549">
        <ele>99.6</ele>
        <time>2015-01-14T22:03:19Z</time>
        <extensions><gpxtpx:TrackPointExtension><gpxtpx:hr>90</gpxtpx:hr></gpxtpx:TrackPointExtension></extensions>
      </trkpt>
      <trkpt lat="59.992758329983" lon="15.811239309776">
        <ele>99</ele>
        <time>2015-01-14T22:03:20Z</time>
        <extensions><gpxtpx:TrackPointExtension><gpxtpx:hr>90</gpxtpx:hr></gpxtpx:TrackPointExtension></extensions>
      </trkpt>
      <trkpt lat="59.992486085871" lon="15.811505602739">
        <ele>97.8</ele>
        <time>2015-01-14T22:03:22Z</time>
        <extensions><gpxtpx:TrackPointExtension><gpxtpx:hr>90</gpxtpx:hr></gpxtpx:TrackPointExtension></extensions>
      </trkpt>
      <trkpt lat="59.992238316907" lon="15.81173183022">
        <ele>96.4</ele>
        <time>2015-01-14T22:03:24Z</time>
        <extensions><gpxtpx:TrackPointExtension><gpxtpx:hr>88</gpxtpx:hr></gpxtpx:TrackPointExtension></extensions>
      </trkpt>
      <trkpt lat="59.992013849625" lon="15.811932744363">
        <ele>95.4</ele>
        <time>2015-01-14T22:03:26Z</time>
        <extensions><gpxtpx:TrackPointExtension><gpxtpx:hr>87</gpxtpx:hr></gpxtpx:TrackPointExtension></extensions>
      </trkpt>
      <trkpt lat="59.991826849436" lon="15.812108428987">
        <ele>94.4</ele>
        <time>2015-01-14T22:03:28Z</time>
        <extensions><gpxtpx:TrackPointExtension><gpxtpx:hr>87</gpxtpx:hr></gpxtpx:TrackPointExtension></extensions>
      </trkpt>
      <trkpt lat="59.991736241097" lon="15.812197947679">
        <ele>94</ele>
        <time>2015-01-14T22:03:29Z</time>
        <extensions><gpxtpx:TrackPointExtension><gpxtpx:hr>85</gpxtpx:hr></gpxtpx:TrackPointExtension></extensions>
      </trkpt>
      <trkpt lat="59.991552845125" lon="15.812346642585">
        <ele>93</ele>
        <time>2015-01-14T22:03:31Z</time>
        <extensions><gpxtpx:TrackPointExtension><gpxtpx:hr>84</gpxtpx:hr></gpxtpx:TrackPointExtension></extensions>
      </trkpt>
      <trkpt lat="59.991464332261" lon="15.812397101623">
        <ele>93</ele>
        <time>2015-01-14T22:03:32Z</time>
        <extensions><gpxtpx:TrackPointExtension><gpxtpx:hr>84</gpxtpx:hr></gpxtpx:TrackPointExtension></extensions>
      </trkpt>
      <trkpt lat="59.991393924301" lon="15.812385702239">
        <ele>92.4</ele>
        <time>2015-01-14T22:03:33Z</time>
        <extensions><gpxtpx:TrackPointExtension><gpxtpx:hr>85</gpxtpx:hr></gpxtpx:TrackPointExtension></extensions>
      </trkpt>
      <trkpt lat="59.991218658772" lon="15.812391401931">
        <ele>91.6</ele>
        <time>2015-01-14T22:03:35Z</time>
        <extensions><gpxtpx:TrackPointExtension><gpxtpx:hr>86</gpxtpx:hr></gpxtpx:TrackPointExtension></extensions>
      </trkpt>
      <trkpt lat="59.991053116247" lon="15.81259432773">
        <ele>90.8</ele>
        <time>2015-01-14T22:03:37Z</time>
        <extensions><gpxtpx:TrackPointExtension><gpxtpx:hr>84</gpxtpx:hr></gpxtpx:TrackPointExtension></extensions>
      </trkpt>
      <trkpt lat="59.990866535153" lon="15.81276112754">
        <ele>90.4</ele>
        <time>2015-01-14T22:03:39Z</time>
        <extensions><gpxtpx:TrackPointExtension><gpxtpx:hr>81</gpxtpx:hr></gpxtpx:TrackPointExtension></extensions>
      </trkpt>
      <trkpt lat="59.990406787938" lon="15.813068910908">
        <ele>89.8</ele>
        <time>2015-01-14T22:03:42Z</time>
        <extensions><gpxtpx:TrackPointExtension><gpxtpx:hr>79</gpxtpx:hr></gpxtpx:TrackPointExtension></extensions>
      </trkpt>
      <trkpt lat="59.989997415942" lon="15.813327073428">
        <ele>89.2</ele>
        <time>2015-01-14T22:03:45Z</time>
        <extensions><gpxtpx:TrackPointExtension><gpxtpx:hr>83</gpxtpx:hr></gpxtpx:TrackPointExtension></extensions>
      </trkpt>
      <trkpt lat="59.989640682278" lon="15.813590181269">
        <ele>89.6</ele>
        <time>2015-01-14T22:03:48Z</time>
        <extensions><gpxtpx:TrackPointExtension><gpxtpx:hr>82</gpxtpx:hr></gpxtpx:TrackPointExtension></extensions>
      </trkpt>
      <trkpt lat="59.989464662378" lon="15.813697721046">
        <ele>90</ele>
        <time>2015-01-14T22:03:50Z</time>
        <extensions><gpxtpx:TrackPointExtension><gpxtpx:hr>85</gpxtpx:hr></gpxtpx:TrackPointExtension></extensions>
      </trkpt>
      <trkpt lat="59.989440271049" lon="15.813765530617">
        <ele>90.2</ele>
        <time>2015-01-14T22:03:51Z</time>
        <extensions><gpxtpx:TrackPointExtension><gpxtpx:hr>87</gpxtpx:hr></gpxtpx:TrackPointExtension></extensions>
      </trkpt>
      <trkpt lat="59.989399702653" lon="15.813860581363">
        <ele>90.4</ele>
        <time>2015-01-14T22:03:52Z</time>
        <extensions><gpxtpx:TrackPointExtension><gpxtpx:hr>88</gpxtpx:hr></gpxtpx:TrackPointExtension></extensions>
      </trkpt>
      <trkpt lat="59.989401881947" lon="15.814043809697">
        <ele>90.4</ele>
        <time>2015-01-14T22:03:53Z</time>
        <extensions><gpxtpx:TrackPointExtension><gpxtpx:hr>89</gpxtpx:hr></gpxtpx:TrackPointExtension></extensions>
      </trkpt>
      <trkpt lat="59.989400540843" lon="15.814206418557">
        <ele>90.4</ele>
        <time>2015-01-14T22:03:54Z</time>
        <extensions><gpxtpx:TrackPointExtension><gpxtpx:hr>90</gpxtpx:hr></gpxtpx:TrackPointExtension></extensions>
      </trkpt>
      <trkpt lat="59.989448317673" lon="15.81442493469">
        <ele>90.4</ele>
        <time>2015-01-14T22:03:55Z</time>
        <extensions><gpxtpx:TrackPointExtension><gpxtpx:hr>89</gpxtpx:hr></gpxtpx:TrackPointExtension></extensions>
      </trkpt>
      <trkpt lat="59.989482012911" lon="15.814603133884">
        <ele>90.6</ele>
        <time>2015-01-14T22:03:56Z</time>
        <extensions><gpxtpx:TrackPointExtension><gpxtpx:hr>88</gpxtpx:hr></gpxtpx:TrackPointExtension></extensions>
      </trkpt>
      <trkpt lat="59.989617129139" lon="15.815259520473">
        <ele>91.2</ele>
        <time>2015-01-14T22:03:59Z</time>
        <extensions><gpxtpx:TrackPointExtension><gpxtpx:hr>87</gpxtpx:hr></gpxtpx:TrackPointExtension></extensions>
      </trkpt>
      <trkpt lat="59.989664319236" lon="15.815453310001">
        <ele>91.4</ele>
        <time>2015-01-14T22:04:00Z</time>
        <extensions><gpxtpx:TrackPointExtension><gpxtpx:hr>87</gpxtpx:hr></gpxtpx:TrackPointExtension></extensions>
      </trkpt>
      <trkpt lat="59.989738918146" lon="15.815870980078">
        <ele>92.8</ele>
        <time>2015-01-14T22:04:03Z</time>
        <extensions><gpxtpx:TrackPointExtension><gpxtpx:hr>90</gpxtpx:hr></gpxtpx:TrackPointExtension></extensions>
      </trkpt>
      <trkpt lat="59.989668677824" lon="15.816058567">
        <ele>93.8</ele>
        <time>2015-01-14T22:04:05Z</time>
        <extensions><gpxtpx:TrackPointExtension><gpxtpx:hr>91</gpxtpx:hr></gpxtpx:TrackPointExtension></extensions>
      </trkpt>
      <trkpt lat="59.989622577374" lon="15.816131740987">
        <ele>94</ele>
        <time>2015-01-14T22:04:06Z</time>
        <extensions><gpxtpx:TrackPointExtension><gpxtpx:hr>91</gpxtpx:hr></gpxtpx:TrackPointExtension></extensions>
      </trkpt>
      <trkpt lat="59.989488131698" lon="15.816180439826">
        <ele>94.2</ele>
        <time>2015-01-14T22:04:07Z</time>
        <extensions><gpxtpx:TrackPointExtension><gpxtpx:hr>92</gpxtpx:hr></gpxtpx:TrackPointExtension></extensions>
      </trkpt>
      <trkpt lat="59.989388554726" lon="15.816243052619">
        <ele>94.4</ele>
        <time>2015-01-14T22:04:08Z</time>
        <extensions><gpxtpx:TrackPointExtension><gpxtpx:hr>92</gpxtpx:hr></gpxtpx:TrackPointExtension></extensions>
      </trkpt>
      <trkpt lat="59.989071635087" lon="15.816437345061">
        <ele>95.2</ele>
        <time>2015-01-14T22:04:11Z</time>
        <extensions><gpxtpx:TrackPointExtension><gpxtpx:hr>92</gpxtpx:hr></gpxtpx:TrackPointExtension></extensions>
      </trkpt>
      <trkpt lat="59.98897247721" lon="15.816499790216">
        <ele>95.2</ele>
        <time>2015-01-14T22:04:12Z</time>
        <extensions><gpxtpx:TrackPointExtension><gpxtpx:hr>91</gpxtpx:hr></gpxtpx:TrackPointExtension></extensions>
      </trkpt>
      <trkpt lat="59.988721439305" lon="15.816630128761">
        <ele>93.6</ele>
        <time>2015-01-14T22:04:15Z</time>
        <extensions><gpxtpx:TrackPointExtension><gpxtpx:hr>90</gpxtpx:hr></gpxtpx:TrackPointExtension></extensions>
      </trkpt>
      <trkpt lat="59.988584143783" lon="15.816684024378">
        <ele>92.4</ele>
        <time>2015-01-14T22:04:17Z</time>
        <extensions><gpxtpx:TrackPointExtension><gpxtpx:hr>91</gpxtpx:hr></gpxtpx:TrackPointExtension></extensions>
      </trkpt>
      <trkpt lat="59.988523626465" lon="15.816706571689">
        <ele>91.6</ele>
        <time>2015-01-14T22:04:19Z</time>
        <extensions><gpxtpx:TrackPointExtension><gpxtpx:hr>92</gpxtpx:hr></gpxtpx:TrackPointExtension></extensions>
      </trkpt>
      <trkpt lat="59.988476855463" lon="15.816757868917">
        <ele>91</ele>
        <time>2015-01-14T22:04:20Z</time>
        <extensions><gpxtpx:TrackPointExtension><gpxtpx:hr>92</gpxtpx:hr></gpxtpx:TrackPointExtension></extensions>
      </trkpt>
      <trkpt lat="59.988413069204" lon="15.817006895166">
        <ele>90</ele>
        <time>2015-01-14T22:04:22Z</time>
        <extensions><gpxtpx:TrackPointExtension><gpxtpx:hr>91</gpxtpx:hr></gpxtpx:TrackPointExtension></extensions>
      </trkpt>
      <trkpt lat="59.988393036463" lon="15.817220549797">
        <ele>89.6</ele>
        <time>2015-01-14T22:04:23Z</time>
        <extensions><gpxtpx:TrackPointExtension><gpxtpx:hr>91</gpxtpx:hr></gpxtpx:TrackPointExtension></extensions>
      </trkpt>
      <trkpt lat="59.988371159704" lon="15.817414004049">
        <ele>89.6</ele>
        <time>2015-01-14T22:04:24Z</time>
        <extensions><gpxtpx:TrackPointExtension><gpxtpx:hr>90</gpxtpx:hr></gpxtpx:TrackPointExtension></extensions>
      </trkpt>
      <trkpt lat="59.988272253284" lon="15.818181786089">
        <ele>90.4</ele>
        <time>2015-01-14T22:04:27Z</time>
        <extensions><gpxtpx:TrackPointExtension><gpxtpx:hr>87</gpxtpx:hr></gpxtpx:TrackPointExtension></extensions>
      </trkpt>
      <trkpt lat="59.988244006281" lon="15.818448917242">
        <ele>90.8</ele>
        <time>2015-01-14T22:04:28Z</time>
        <extensions><gpxtpx:TrackPointExtension><gpxtpx:hr>87</gpxtpx:hr></gpxtpx:TrackPointExtension></extensions>
      </trkpt>
      <trkpt lat="59.988195391261" lon="15.818965912834">
        <ele>92</ele>
        <time>2015-01-14T22:04:30Z</time>
        <extensions><gpxtpx:TrackPointExtension><gpxtpx:hr>86</gpxtpx:hr></gpxtpx:TrackPointExtension></extensions>
      </trkpt>
      <trkpt lat="59.988193211967" lon="15.819256429488">
        <ele>92.8</ele>
        <time>2015-01-14T22:04:31Z</time>
        <extensions><gpxtpx:TrackPointExtension><gpxtpx:hr>86</gpxtpx:hr></gpxtpx:TrackPointExtension></extensions>
      </trkpt>
      <trkpt lat="59.988195391261" lon="15.81950604247">
        <ele>93</ele>
        <time>2015-01-14T22:04:32Z</time>
        <extensions><gpxtpx:TrackPointExtension><gpxtpx:hr>86</gpxtpx:hr></gpxtpx:TrackPointExtension></extensions>
      </trkpt>
      <trkpt lat="59.98826672123" lon="15.820075844032">
        <ele>93.8</ele>
        <time>2015-01-14T22:04:35Z</time>
        <extensions><gpxtpx:TrackPointExtension><gpxtpx:hr>87</gpxtpx:hr></gpxtpx:TrackPointExtension></extensions>
      </trkpt>
      <trkpt lat="59.98834970204" lon="15.820546320079">
        <ele>93.6</ele>
        <time>2015-01-14T22:04:39Z</time>
        <extensions><gpxtpx:TrackPointExtension><gpxtpx:hr>89</gpxtpx:hr></gpxtpx:TrackPointExtension></extensions>
      </trkpt>
      <trkpt lat="59.988349785859" lon="15.820807164807">
        <ele>93.4</ele>
        <time>2015-01-14T22:04:41Z</time>
        <extensions><gpxtpx:TrackPointExtension><gpxtpx:hr>91</gpxtpx:hr></gpxtpx:TrackPointExtension></extensions>
      </trkpt>
      <trkpt lat="59.988336374819" lon="15.820937419533">
        <ele>93.2</ele>
        <time>2015-01-14T22:04:42Z</time>
        <extensions><gpxtpx:TrackPointExtension><gpxtpx:hr>93</gpxtpx:hr></gpxtpx:TrackPointExtension></extensions>
      </trkpt>
      <trkpt lat="59.988276863329" lon="15.821099022565">
        <ele>93</ele>
        <time>2015-01-14T22:04:43Z</time>
        <extensions><gpxtpx:TrackPointExtension><gpxtpx:hr>93</gpxtpx:hr></gpxtpx:TrackPointExtension></extensions>
      </trkpt>
      <trkpt lat="59.988228248309" lon="15.821265906194">
        <ele>93</ele>
        <time>2015-01-14T22:04:44Z</time>
        <extensions><gpxtpx:TrackPointExtension><gpxtpx:hr>94</gpxtpx:hr></gpxtpx:TrackPointExtension></extensions>
      </trkpt>
      <trkpt lat="59.988177453995" lon="15.821496827539">
        <ele>93</ele>
        <time>2015-01-14T22:04:45Z</time>
        <extensions><gpxtpx:TrackPointExtension><gpxtpx:hr>94</gpxtpx:hr></gpxtpx:TrackPointExtension></extensions>
      </trkpt>
      <trkpt lat="59.988129425708" lon="15.821727832703">
        <ele>92.8</ele>
        <time>2015-01-14T22:04:46Z</time>
        <extensions><gpxtpx:TrackPointExtension><gpxtpx:hr>92</gpxtpx:hr></gpxtpx:TrackPointExtension></extensions>
      </trkpt>
      <trkpt lat="59.988088689674" lon="15.822035029338">
        <ele>92.8</ele>
        <time>2015-01-14T22:04:47Z</time>
        <extensions><gpxtpx:TrackPointExtension><gpxtpx:hr>92</gpxtpx:hr></gpxtpx:TrackPointExtension></extensions>
      </trkpt>
      <trkpt lat="59.988029848736" lon="15.822519838434">
        <ele>92.2</ele>
        <time>2015-01-14T22:04:49Z</time>
        <extensions><gpxtpx:TrackPointExtension><gpxtpx:hr>90</gpxtpx:hr></gpxtpx:TrackPointExtension></extensions>
      </trkpt>
      <trkpt lat="59.987983329191" lon="15.822927701688">
        <ele>92</ele>
        <time>2015-01-14T22:04:50Z</time>
        <extensions><gpxtpx:TrackPointExtension><gpxtpx:hr>89</gpxtpx:hr></gpxtpx:TrackPointExtension></extensions>
      </trkpt>
      <trkpt lat="59.987963967002" lon="15.823252165037">
        <ele>91.4</ele>
        <time>2015-01-14T22:04:51Z</time>
        <extensions><gpxtpx:TrackPointExtension><gpxtpx:hr>88</gpxtpx:hr></gpxtpx:TrackPointExtension></extensions>
      </trkpt>
      <trkpt lat="59.987956088016" lon="15.823858008769">
        <ele>90.6</ele>
        <time>2015-01-14T22:04:53Z</time>
        <extensions><gpxtpx:TrackPointExtension><gpxtpx:hr>87</gpxtpx:hr></gpxtpx:TrackPointExtension></extensions>
      </trkpt>
      <trkpt lat="59.987973606187" lon="15.824360755131">
        <ele>89.6</ele>
        <time>2015-01-14T22:04:55Z</time>
        <extensions><gpxtpx:TrackPointExtension><gpxtpx:hr>87</gpxtpx:hr></gpxtpx:TrackPointExtension></extensions>
      </trkpt>
      <trkpt lat="59.98800855871" lon="15.824728301446">
        <ele>89.2</ele>
        <time>2015-01-14T22:04:57Z</time>
        <extensions><gpxtpx:TrackPointExtension><gpxtpx:hr>88</gpxtpx:hr></gpxtpx:TrackPointExtension></extensions>
      </trkpt>
      <trkpt lat="59.988022472664" lon="15.82493919005">
        <ele>89.2</ele>
        <time>2015-01-14T22:04:59Z</time>
        <extensions><gpxtpx:TrackPointExtension><gpxtpx:hr>89</gpxtpx:hr></gpxtpx:TrackPointExtension></extensions>
      </trkpt>
      <trkpt lat="59.988006379416" lon="15.82503893466">
        <ele>89.2</ele>
        <time>2015-01-14T22:05:00Z</time>
        <extensions><gpxtpx:TrackPointExtension><gpxtpx:hr>89</gpxtpx:hr></gpxtpx:TrackPointExtension></extensions>
      </trkpt>
      <trkpt lat="59.987909065557" lon="15.825118478891">
        <ele>89.4</ele>
        <time>2015-01-14T22:05:02Z</time>
        <extensions><gpxtpx:TrackPointExtension><gpxtpx:hr>89</gpxtpx:hr></gpxtpx:TrackPointExtension></extensions>
      </trkpt>
      <trkpt lat="59.98785936089" lon="15.825096937408">
        <ele>89.6</ele>
        <time>2015-01-14T22:05:03Z</time>
        <extensions><gpxtpx:TrackPointExtension><gpxtpx:hr>90</gpxtpx:hr></gpxtpx:TrackPointExtension></extensions>
      </trkpt>
      <trkpt lat="59.987636150893" lon="15.825040275764">
        <ele>89.8</ele>
        <time>2015-01-14T22:05:05Z</time>
        <extensions><gpxtpx:TrackPointExtension><gpxtpx:hr>90</gpxtpx:hr></gpxtpx:TrackPointExtension></extensions>
      </trkpt>
      <trkpt lat="59.987269023673" lon="15.824911026866">
        <ele>90</ele>
        <time>2015-01-14T22:05:08Z</time>
        <extensions><gpxtpx:TrackPointExtension><gpxtpx:hr>87</gpxtpx:hr></gpxtpx:TrackPointExtension></extensions>
      </trkpt>
      <trkpt lat="59.987184701759" lon="15.824865010235">
        <ele>90.2</ele>
        <time>2015-01-14T22:05:09Z</time>
        <extensions><gpxtpx:TrackPointExtension><gpxtpx:hr>86</gpxtpx:hr></gpxtpx:TrackPointExtension></extensions>
      </trkpt>
      <trkpt lat="59.986742556534" lon="15.824672142716">
        <ele>89.8</ele>
        <time>2015-01-14T22:05:12Z</time>
        <extensions><gpxtpx:TrackPointExtension><gpxtpx:hr>86</gpxtpx:hr></gpxtpx:TrackPointExtension></extensions>
      </trkpt>
      <trkpt lat="59.986394120951" lon="15.824528057855">
        <ele>88.2</ele>
        <time>2015-01-14T22:05:15Z</time>
        <extensions><gpxtpx:TrackPointExtension><gpxtpx:hr>85</gpxtpx:hr></gpxtpx:TrackPointExtension></extensions>
      </trkpt>
      <trkpt lat="59.986257160705" lon="15.824466953804">
        <ele>86.8</ele>
        <time>2015-01-14T22:05:17Z</time>
        <extensions><gpxtpx:TrackPointExtension><gpxtpx:hr>84</gpxtpx:hr></gpxtpx:TrackPointExtension></extensions>
      </trkpt>
      <trkpt lat="59.98620309745" lon="15.824449603271">
        <ele>86.2</ele>
        <time>2015-01-14T22:05:18Z</time>
        <extensions><gpxtpx:TrackPointExtension><gpxtpx:hr>86</gpxtpx:hr></gpxtpx:TrackPointExtension></extensions>
      </trkpt>
      <trkpt lat="59.986154985344" lon="15.824482963233">
        <ele>85.6</ele>
        <time>2015-01-14T22:05:19Z</time>
        <extensions><gpxtpx:TrackPointExtension><gpxtpx:hr>89</gpxtpx:hr></gpxtpx:TrackPointExtension></extensions>
      </trkpt>
      <trkpt lat="59.986104023392" lon="15.824528812226">
        <ele>85.2</ele>
        <time>2015-01-14T22:05:20Z</time>
        <extensions><gpxtpx:TrackPointExtension><gpxtpx:hr>89</gpxtpx:hr></gpxtpx:TrackPointExtension></extensions>
      </trkpt>
      <trkpt lat="59.986075357294" lon="15.824623527696">
        <ele>84.8</ele>
        <time>2015-01-14T22:05:21Z</time>
        <extensions><gpxtpx:TrackPointExtension><gpxtpx:hr>90</gpxtpx:hr></gpxtpx:TrackPointExtension></extensions>
      </trkpt>
      <trkpt lat="59.98604132678" lon="15.824802648899">
        <ele>84.4</ele>
        <time>2015-01-14T22:05:22Z</time>
        <extensions><gpxtpx:TrackPointExtension><gpxtpx:hr>89</gpxtpx:hr></gpxtpx:TrackPointExtension></extensions>
      </trkpt>
      <trkpt lat="59.985993298493" lon="15.825186539919">
        <ele>84.4</ele>
        <time>2015-01-14T22:05:24Z</time>
        <extensions><gpxtpx:TrackPointExtension><gpxtpx:hr>86</gpxtpx:hr></gpxtpx:TrackPointExtension></extensions>
      </trkpt>
      <trkpt lat="59.985958094513" lon="15.825413102676">
        <ele>84.6</ele>
        <time>2015-01-14T22:05:25Z</time>
        <extensions><gpxtpx:TrackPointExtension><gpxtpx:hr>84</gpxtpx:hr></gpxtpx:TrackPointExtension></extensions>
      </trkpt>
      <trkpt lat="59.985899924127" lon="15.825800262637">
        <ele>85.6</ele>
        <time>2015-01-14T22:05:27Z</time>
        <extensions><gpxtpx:TrackPointExtension><gpxtpx:hr>83</gpxtpx:hr></gpxtpx:TrackPointExtension></extensions>
      </trkpt>
      <trkpt lat="59.985838820076" lon="15.826218687085">
        <ele>87.2</ele>
        <time>2015-01-14T22:05:29Z</time>
        <extensions><gpxtpx:TrackPointExtension><gpxtpx:hr>84</gpxtpx:hr></gpxtpx:TrackPointExtension></extensions>
      </trkpt>
      <trkpt lat="59.985800598612" lon="15.826484393315">
        <ele>88.2</ele>
        <time>2015-01-14T22:05:30Z</time>
        <extensions><gpxtpx:TrackPointExtension><gpxtpx:hr>85</gpxtpx:hr></gpxtpx:TrackPointExtension></extensions>
      </trkpt>
      <trkpt lat="59.985768663573" lon="15.826703663819">
        <ele>89.4</ele>
        <time>2015-01-14T22:05:31Z</time>
        <extensions><gpxtpx:TrackPointExtension><gpxtpx:hr>85</gpxtpx:hr></gpxtpx:TrackPointExtension></extensions>
      </trkpt>
      <trkpt lat="59.985742847321" lon="15.826888987628">
        <ele>90</ele>
        <time>2015-01-14T22:05:32Z</time>
        <extensions><gpxtpx:TrackPointExtension><gpxtpx:hr>85</gpxtpx:hr></gpxtpx:TrackPointExtension></extensions>
      </trkpt>
      <trkpt lat="59.985721389657" lon="15.827010776635">
        <ele>91</ele>
        <time>2015-01-14T22:05:33Z</time>
        <extensions><gpxtpx:TrackPointExtension><gpxtpx:hr>86</gpxtpx:hr></gpxtpx:TrackPointExtension></extensions>
      </trkpt>
      <trkpt lat="59.985700602545" lon="15.827136337497">
        <ele>91.6</ele>
        <time>2015-01-14T22:05:34Z</time>
        <extensions><gpxtpx:TrackPointExtension><gpxtpx:hr>87</gpxtpx:hr></gpxtpx:TrackPointExtension></extensions>
      </trkpt>
      <trkpt lat="59.985656010837" lon="15.827198698833">
        <ele>92.4</ele>
        <time>2015-01-14T22:05:35Z</time>
        <extensions><gpxtpx:TrackPointExtension><gpxtpx:hr>88</gpxtpx:hr></gpxtpx:TrackPointExtension></extensions>
      </trkpt>
      <trkpt lat="59.985617118821" lon="15.82726600549">
        <ele>93</ele>
        <time>2015-01-14T22:05:36Z</time>
        <extensions><gpxtpx:TrackPointExtension><gpxtpx:hr>89</gpxtpx:hr></gpxtpx:TrackPointExtension></extensions>
      </trkpt>
      <trkpt lat="59.985531371984" lon="15.827249996061">
        <ele>93.8</ele>
        <time>2015-01-14T22:05:37Z</time>
        <extensions><gpxtpx:TrackPointExtension><gpxtpx:hr>90</gpxtpx:hr></gpxtpx:TrackPointExtension></extensions>
      </trkpt>
      <trkpt lat="59.985458197997" lon="15.827249157871">
        <ele>94</ele>
        <time>2015-01-14T22:05:38Z</time>
        <extensions><gpxtpx:TrackPointExtension><gpxtpx:hr>90</gpxtpx:hr></gpxtpx:TrackPointExtension></extensions>
      </trkpt>
      <trkpt lat="59.985170615008" lon="15.827206074905">
        <ele>94.6</ele>
        <time>2015-01-14T22:05:41Z</time>
        <extensions><gpxtpx:TrackPointExtension><gpxtpx:hr>89</gpxtpx:hr></gpxtpx:TrackPointExtension></extensions>
      </trkpt>
      <trkpt lat="59.984894431403" lon="15.82726097635">
        <ele>93.4</ele>
        <time>2015-01-14T22:05:45Z</time>
        <extensions><gpxtpx:TrackPointExtension><gpxtpx:hr>89</gpxtpx:hr></gpxtpx:TrackPointExtension></extensions>
      </trkpt>
      <trkpt lat="59.98482762766" lon="15.827491394781">
        <ele>92.6</ele>
        <time>2015-01-14T22:05:47Z</time>
        <extensions><gpxtpx:TrackPointExtension><gpxtpx:hr>90</gpxtpx:hr></gpxtpx:TrackPointExtension></extensions>
      </trkpt>
      <trkpt lat="59.984807846376" lon="15.827613602883">
        <ele>92.4</ele>
        <time>2015-01-14T22:05:48Z</time>
        <extensions><gpxtpx:TrackPointExtension><gpxtpx:hr>90</gpxtpx:hr></gpxtpx:TrackPointExtension></extensions>
      </trkpt>
      <trkpt lat="59.98481505481" lon="15.827667582319">
        <ele>92.2</ele>
        <time>2015-01-14T22:05:49Z</time>
        <extensions><gpxtpx:TrackPointExtension><gpxtpx:hr>90</gpxtpx:hr></gpxtpx:TrackPointExtension></extensions>
      </trkpt>
      <trkpt lat="59.984766607428" lon="15.827753748251">
        <ele>91.8</ele>
        <time>2015-01-14T22:05:51Z</time>
        <extensions><gpxtpx:TrackPointExtension><gpxtpx:hr>90</gpxtpx:hr></gpxtpx:TrackPointExtension></extensions>
      </trkpt>
      <trkpt lat="59.98470944287" lon="15.827704881774">
        <ele>92</ele>
        <time>2015-01-14T22:05:54Z</time>
        <extensions><gpxtpx:TrackPointExtension><gpxtpx:hr>92</gpxtpx:hr></gpxtpx:TrackPointExtension></extensions>
      </trkpt>
      <trkpt lat="59.984716902761" lon="15.827709659457">
        <ele>92.6</ele>
        <time>2015-01-14T22:05:58Z</time>
        <extensions><gpxtpx:TrackPointExtension><gpxtpx:hr>92</gpxtpx:hr></gpxtpx:TrackPointExtension></extensions>
      </trkpt>
      <trkpt lat="59.984714136734" lon="15.827707144887">
        <ele>93.6</ele>
        <time>2015-01-14T22:06:00Z</time>
        <extensions><gpxtpx:TrackPointExtension><gpxtpx:hr>93</gpxtpx:hr></gpxtpx:TrackPointExtension></extensions>
      </trkpt>
      <trkpt lat="59.984716483666" lon="15.827701780471">
        <ele>94.4</ele>
        <time>2015-01-14T22:06:02Z</time>
        <extensions><gpxtpx:TrackPointExtension><gpxtpx:hr>93</gpxtpx:hr></gpxtpx:TrackPointExtension></extensions>
      </trkpt>
      <trkpt lat="59.984717573313" lon="15.827702451023">
        <ele>94.8</ele>
        <time>2015-01-14T22:06:03Z</time>
        <extensions><gpxtpx:TrackPointExtension><gpxtpx:hr>94</gpxtpx:hr></gpxtpx:TrackPointExtension></extensions>
      </trkpt>
      <trkpt lat="59.984724446471" lon="15.827709910914">
        <ele>95.4</ele>
        <time>2015-01-14T22:06:05Z</time>
        <extensions><gpxtpx:TrackPointExtension><gpxtpx:hr>98</gpxtpx:hr></gpxtpx:TrackPointExtension></extensions>
      </trkpt>
      <trkpt lat="59.984724446471" lon="15.827709910914">
        <ele>95.4</ele>
        <time>2015-01-14T22:06:06Z</time>
        <extensions><gpxtpx:TrackPointExtension><gpxtpx:hr>101</gpxtpx:hr></gpxtpx:TrackPointExtension></extensions>
      </trkpt>
      <trkpt lat="59.98474464685" lon="15.827721813212">
        <ele>95.2</ele>
        <time>2015-01-14T22:06:08Z</time>
        <extensions><gpxtpx:TrackPointExtension><gpxtpx:hr>103</gpxtpx:hr></gpxtpx:TrackPointExtension></extensions>
      </trkpt>
      <trkpt lat="59.984743557203" lon="15.827716784072">
        <ele>94.8</ele>
        <time>2015-01-14T22:06:13Z</time>
        <extensions><gpxtpx:TrackPointExtension><gpxtpx:hr>103</gpxtpx:hr></gpxtpx:TrackPointExtension></extensions>
      </trkpt>
      <trkpt lat="59.984744982126" lon="15.82771946628">
        <ele>95</ele>
        <time>2015-01-14T22:06:18Z</time>
        <extensions><gpxtpx:TrackPointExtension><gpxtpx:hr>106</gpxtpx:hr></gpxtpx:TrackPointExtension></extensions>
      </trkpt>
      <trkpt lat="59.984743976298" lon="15.827721897031">
        <ele>95</ele>
        <time>2015-01-14T22:06:20Z</time>
        <extensions><gpxtpx:TrackPointExtension><gpxtpx:hr>106</gpxtpx:hr></gpxtpx:TrackPointExtension></extensions>
      </trkpt>
      <trkpt lat="59.984742886651" lon="15.827724830696">
        <ele>95</ele>
        <time>2015-01-14T22:06:23Z</time>
        <extensions><gpxtpx:TrackPointExtension><gpxtpx:hr>103</gpxtpx:hr></gpxtpx:TrackPointExtension></extensions>
      </trkpt>
      <trkpt lat="59.984741126452" lon="15.827730698026">
        <ele>95.2</ele>
        <time>2015-01-14T22:06:30Z</time>
        <extensions><gpxtpx:TrackPointExtension><gpxtpx:hr>106</gpxtpx:hr></gpxtpx:TrackPointExtension></extensions>
      </trkpt>
      <trkpt lat="59.984716232209" lon="15.827739415202">
        <ele>95.2</ele>
        <time>2015-01-14T22:06:36Z</time>
        <extensions><gpxtpx:TrackPointExtension><gpxtpx:hr>106</gpxtpx:hr></gpxtpx:TrackPointExtension></extensions>
      </trkpt>
      <trkpt lat="59.984691254147" lon="15.827741845953">
        <ele>95</ele>
        <time>2015-01-14T22:06:39Z</time>
        <extensions><gpxtpx:TrackPointExtension><gpxtpx:hr>109</gpxtpx:hr></gpxtpx:TrackPointExtension></extensions>
      </trkpt>
      <trkpt lat="59.984654625244" lon="15.827722064669">
        <ele>95</ele>
        <time>2015-01-14T22:06:44Z</time>
        <extensions><gpxtpx:TrackPointExtension><gpxtpx:hr>112</gpxtpx:hr></gpxtpx:TrackPointExtension></extensions>
      </trkpt>
      <trkpt lat="59.984658564737" lon="15.82771359895">
        <ele>95.4</ele>
        <time>2015-01-14T22:06:50Z</time>
        <extensions><gpxtpx:TrackPointExtension><gpxtpx:hr>113</gpxtpx:hr></gpxtpx:TrackPointExtension></extensions>
      </trkpt>
      <trkpt lat="59.984666192266" lon="15.827728434913">
        <ele>95.8</ele>
        <time>2015-01-14T22:06:55Z</time>
        <extensions><gpxtpx:TrackPointExtension><gpxtpx:hr>114</gpxtpx:hr></gpxtpx:TrackPointExtension></extensions>
      </trkpt>
      <trkpt lat="59.984670969949" lon="15.827736900632">
        <ele>96</ele>
        <time>2015-01-14T22:06:59Z</time>
        <extensions><gpxtpx:TrackPointExtension><gpxtpx:hr>112</gpxtpx:hr></gpxtpx:TrackPointExtension></extensions>
      </trkpt>
      <trkpt lat="59.984687733749" lon="15.827780737969">
        <ele>95.6</ele>
        <time>2015-01-14T22:07:07Z</time>
        <extensions><gpxtpx:TrackPointExtension><gpxtpx:hr>113</gpxtpx:hr></gpxtpx:TrackPointExtension></extensions>
      </trkpt>
      <trkpt lat="59.984685638274" lon="15.827770428232">
        <ele>95.8</ele>
        <time>2015-01-14T22:07:13Z</time>
        <extensions><gpxtpx:TrackPointExtension><gpxtpx:hr>108</gpxtpx:hr></gpxtpx:TrackPointExtension></extensions>
      </trkpt>
      <trkpt lat="59.984687901387" lon="15.827775792648">
        <ele>95.8</ele>
        <time>2015-01-14T22:07:15Z</time>
        <extensions><gpxtpx:TrackPointExtension><gpxtpx:hr>102</gpxtpx:hr></gpxtpx:TrackPointExtension></extensions>
      </trkpt>
      <trkpt lat="59.98468848812" lon="15.827779648322">
        <ele>95.8</ele>
        <time>2015-01-14T22:07:17Z</time>
        <extensions><gpxtpx:TrackPointExtension><gpxtpx:hr>101</gpxtpx:hr></gpxtpx:TrackPointExtension></extensions>
      </trkpt>
      <trkpt lat="59.984689242491" lon="15.827780570331">
        <ele>95.8</ele>
        <time>2015-01-14T22:07:19Z</time>
        <extensions><gpxtpx:TrackPointExtension><gpxtpx:hr>104</gpxtpx:hr></gpxtpx:TrackPointExtension></extensions>
      </trkpt>
      <trkpt lat="59.984694020174" lon="15.827766488739">
        <ele>95.8</ele>
        <time>2015-01-14T22:07:25Z</time>
        <extensions><gpxtpx:TrackPointExtension><gpxtpx:hr>103</gpxtpx:hr></gpxtpx:TrackPointExtension></extensions>
      </trkpt>
      <trkpt lat="59.984696283287" lon="15.827724998334">
        <ele>96</ele>
        <time>2015-01-14T22:07:32Z</time>
        <extensions><gpxtpx:TrackPointExtension><gpxtpx:hr>100</gpxtpx:hr></gpxtpx:TrackPointExtension></extensions>
      </trkpt>
      <trkpt lat="59.984695696554" lon="15.82772449542">
        <ele>96</ele>
        <time>2015-01-14T22:07:33Z</time>
        <extensions><gpxtpx:TrackPointExtension><gpxtpx:hr>98</gpxtpx:hr></gpxtpx:TrackPointExtension></extensions>
      </trkpt>
      <trkpt lat="59.984698630219" lon="15.82774796474">
        <ele>95.8</ele>
        <time>2015-01-14T22:07:38Z</time>
        <extensions><gpxtpx:TrackPointExtension><gpxtpx:hr>100</gpxtpx:hr></gpxtpx:TrackPointExtension></extensions>
      </trkpt>
      <trkpt lat="59.984690918871" lon="15.827765315273">
        <ele>95</ele>
        <time>2015-01-14T22:07:45Z</time>
        <extensions><gpxtpx:TrackPointExtension><gpxtpx:hr>101</gpxtpx:hr></gpxtpx:TrackPointExtension></extensions>
      </trkpt>
      <trkpt lat="59.984691170328" lon="15.827775038277">
        <ele>95.6</ele>
        <time>2015-01-14T22:07:48Z</time>
        <extensions><gpxtpx:TrackPointExtension><gpxtpx:hr>104</gpxtpx:hr></gpxtpx:TrackPointExtension></extensions>
      </trkpt>
      <trkpt lat="59.984690583595" lon="15.827778810132">
        <ele>95.6</ele>
        <time>2015-01-14T22:07:50Z</time>
        <extensions><gpxtpx:TrackPointExtension><gpxtpx:hr>101</gpxtpx:hr></gpxtpx:TrackPointExtension></extensions>
      </trkpt>
      <trkpt lat="59.984693684898" lon="15.827768248938">
        <ele>95.2</ele>
        <time>2015-01-14T22:07:52Z</time>
        <extensions><gpxtpx:TrackPointExtension><gpxtpx:hr>101</gpxtpx:hr></gpxtpx:TrackPointExtension></extensions>
      </trkpt>
      <trkpt lat="59.984697121477" lon="15.827767913662">
        <ele>95.2</ele>
        <time>2015-01-14T22:07:57Z</time>
        <extensions><gpxtpx:TrackPointExtension><gpxtpx:hr>104</gpxtpx:hr></gpxtpx:TrackPointExtension></extensions>
      </trkpt>
      <trkpt lat="59.984707850309" lon="15.827768248938">
        <ele>95.6</ele>
        <time>2015-01-14T22:08:06Z</time>
        <extensions><gpxtpx:TrackPointExtension><gpxtpx:hr>103</gpxtpx:hr></gpxtpx:TrackPointExtension></extensions>
      </trkpt>
      <trkpt lat="59.98470022278" lon="15.827727680542">
        <ele>95.8</ele>
        <time>2015-01-14T22:08:12Z</time>
        <extensions><gpxtpx:TrackPointExtension><gpxtpx:hr>100</gpxtpx:hr></gpxtpx:TrackPointExtension></extensions>
      </trkpt>
      <trkpt lat="59.984699133133" lon="15.827723741049">
        <ele>95.8</ele>
        <time>2015-01-14T22:08:13Z</time>
        <extensions><gpxtpx:TrackPointExtension><gpxtpx:hr>99</gpxtpx:hr></gpxtpx:TrackPointExtension></extensions>
      </trkpt>
      <trkpt lat="59.984690835052" lon="15.827708988905">
        <ele>95.8</ele>
        <time>2015-01-14T22:08:15Z</time>
        <extensions><gpxtpx:TrackPointExtension><gpxtpx:hr>96</gpxtpx:hr></gpxtpx:TrackPointExtension></extensions>
      </trkpt>
      <trkpt lat="59.984688571939" lon="15.827694572037">
        <ele>95.8</ele>
        <time>2015-01-14T22:08:19Z</time>
        <extensions><gpxtpx:TrackPointExtension><gpxtpx:hr>99</gpxtpx:hr></gpxtpx:TrackPointExtension></extensions>
      </trkpt>
      <trkpt lat="59.984686727921" lon="15.827674706934">
        <ele>96</ele>
        <time>2015-01-14T22:08:24Z</time>
        <extensions><gpxtpx:TrackPointExtension><gpxtpx:hr>98</gpxtpx:hr></gpxtpx:TrackPointExtension></extensions>
      </trkpt>
      <trkpt lat="59.984672897786" lon="15.827681831549">
        <ele>96.2</ele>
        <time>2015-01-14T22:08:28Z</time>
        <extensions><gpxtpx:TrackPointExtension><gpxtpx:hr>102</gpxtpx:hr></gpxtpx:TrackPointExtension></extensions>
      </trkpt>
      <trkpt lat="59.984672646329" lon="15.82767839497">
        <ele>96.2</ele>
        <time>2015-01-14T22:08:29Z</time>
        <extensions><gpxtpx:TrackPointExtension><gpxtpx:hr>102</gpxtpx:hr></gpxtpx:TrackPointExtension></extensions>
      </trkpt>
      <trkpt lat="59.984670383216" lon="15.827669007242">
        <ele>95.8</ele>
        <time>2015-01-14T22:08:31Z</time>
        <extensions><gpxtpx:TrackPointExtension><gpxtpx:hr>100</gpxtpx:hr></gpxtpx:TrackPointExtension></extensions>
      </trkpt>
    </trkseg>
  </trk>
</gpx>